# Wetter Temperatur Luftdruck Luftfeuchtigkeit Sichtweite Windgeschwindigkeit Windrichtung Zeit
1 Clouds 29 1008 58 7000 5.7 30 13:21 14.10.2019
2 Clouds 30 1008 58 7000 5.7 30 12:43 14.10.2019
3 Clouds 31 1008 58 7000 5.7 30 12:21 14.10.2019
4 Clouds 31 1008 58 7000 5.7 30 12:21 14.10.2019
5 Clouds 31 1008 62 10000 4.1 10 12:00 14.10.2019
6 Clouds 30 1007 55 7000 5.1 10 11:41 14.10.2019
7 Clouds 32 1007 55 7000 5.1 10 11:22 14.10.2019
8 Clouds 32 1008 58 10000 6.2 20 10:44 14.10.2019
9 Clouds 33 1007 49 6000 5.1 20 10:23 14.10.2019
10 Clouds 33 1008 55 10000 5.7 20 10:00 14.10.2019
11 Clouds 33 1008 52 10000 5.7 10 09:41 14.10.2019
12 Clouds 33 1008 52 10000 5.7 10 09:40 14.10.2019
13 Clouds 34 1008 52 10000 5.7 10 09:20 14.10.2019
14 Clouds 34 1008 52 10000 5.7 10 08:48 14.10.2019
15 Clouds 34 1009 41 6000 4.1 70 08:23 14.10.2019
16 Clouds 34 1010 52 10000 5.7 30 07:45 14.10.2019
17 Clouds 34 1010 41 6000 3.1 10 07:23 14.10.2019
18 Clouds 34 1011 55 10000 5.1 40 06:56 14.10.2019
19 Clouds 34 1011 55 10000 5.1 40 06:56 14.10.2019
20 Clouds 33 1011 49 6000 4.1 50 06:28 14.10.2019
21 Haze 33 1011 52 9000 4.1 30 05:53 14.10.2019
22 Haze 32 1012 55 9000 2.6 0 04:59 14.10.2019
23 Haze 30 1012 62 7000 1.5 0 03:49 14.10.2019
24 Haze 30 1012 70 5000 2.6 120 03:22 14.10.2019
25 Haze 27 1011 78 3500 1.5 0 01:56 14.10.2019
26 Haze 26 1011 88 3000 3.36 87.781 01:18 14.10.2019
27 Haze 26 1010 88 4000 1 220 00:41 14.10.2019
28 Haze 26 1010 88 4000 1 220 00:18 14.10.2019
29 Haze 26 1010 88 4000 2.1 210 23:40 13.10.2019
30 Haze 25 1010 88 4000 2.1 210 23:19 13.10.2019
31 Haze 26 1010 88 4500 1.5 230 22:56 13.10.2019
32 Haze 25 1010 88 4000 2.1 230 22:38 13.10.2019
33 Haze 25 1010 88 4000 2.1 230 22:19 13.10.2019
34 Haze 26 1010 78 3500 1 160 21:56 13.10.2019
35 Haze 26 1010 83 3000 1.5 180 21:36 13.10.2019
36 Haze 26 1010 83 3000 1.5 180 21:36 13.10.2019
37 Haze 26 1010 83 3000 1.5 180 21:18 13.10.2019
38 Haze 26 1010 83 3000 1 0 20:55 13.10.2019
39 Haze 26 1010 78 4000 1 0 20:37 13.10.2019
40 Haze 26 1010 78 4000 1 0 20:18 13.10.2019
41 Haze 26 1010 78 4000 1.5 180 19:54 13.10.2019
42 -273 0 0 0 0 0 19:36 13.10.2019
43 Haze 26 1010 74 5000 0.5 0 19:36 13.10.2019
44 Haze 26 1010 74 5000 0.5 0 19:18 13.10.2019
45 -273 0 0 0 0 0 18:40 13.10.2019
46 Haze 26 1011 74 5000 0.5 0 18:20 13.10.2019
47 Haze 26 1011 74 5000 1 0 17:59 13.10.2019
48 Haze 27 1011 69 5000 1 0 17:41 13.10.2019
49 Haze 27 1011 69 5000 1 0 17:22 13.10.2019
50 Haze 27 1011 69 5000 2.6 40 16:43 13.10.2019
51 Haze 27 1011 69 5000 2.1 40 16:19 13.10.2019
52 Haze 27 1010 65 5000 1.5 0 15:58 13.10.2019
53 Haze 27 1010 65 5000 3.1 40 15:39 13.10.2019
54 Haze 28 1010 65 5000 3.1 40 15:20 13.10.2019
55 Haze 28 1010 65 5000 3.1 40 15:20 13.10.2019
56 Haze 28 1010 65 5000 2.6 40 14:58 13.10.2019
57 Haze 28 1009 62 8000 2.6 360 14:39 13.10.2019
58 Haze 28 1009 62 8000 2.6 360 14:20 13.10.2019
59 Haze 28 1009 74 5000 2.1 0 13:56 13.10.2019
60 Clouds 29 1008 58 7000 3.6 360 13:37 13.10.2019
61 Clouds 29 1008 58 7000 3.6 360 13:18 13.10.2019
62 Clouds 29 1008 70 6000 3.1 340 12:55 13.10.2019
63 Clouds 29 1007 55 7000 3.1 20 12:37 13.10.2019
64 Clouds 30 1007 55 7000 3.1 20 12:18 13.10.2019
65 Clouds 31 1007 66 7000 4.1 320 11:55 13.10.2019
66 Clouds 31 1007 44 8000 4.1 360 11:36 13.10.2019
67 Clouds 32 1007 44 8000 4.1 360 11:18 13.10.2019
68 Clouds 32 1007 44 8000 5.1 360 10:41 13.10.2019
69 Clouds 32 1007 44 8000 5.1 360 10:22 13.10.2019
70 Clouds 33 1007 44 8000 4.1 360 09:41 13.10.2019
71 Clouds 33 1007 44 8000 4.1 360 09:21 13.10.2019
72 Clouds 34 1008 52 8000 4.6 360 08:57 13.10.2019
73 Clouds 33 1008 49 7000 5.1 20 08:38 13.10.2019
74 Clouds 33 1009 49 8000 3.6 360 08:19 13.10.2019
75 Clouds 33 1009 49 8000 3.6 360 07:46 13.10.2019
76 Clouds 33 1010 55 6000 3.1 20 06:59 13.10.2019
77 Clouds 33 1010 38 6000 3.1 80 06:40 13.10.2019
78 Haze 32 1011 52 6000 4.1 110 05:39 13.10.2019
79 Haze 31 1011 58 6000 3.1 40 04:46 13.10.2019
80 Haze 29 1012 70 4000 2.6 60 03:40 13.10.2019
81 Haze 28 1011 83 3000 1.66 172.884 02:41 13.10.2019
82 Haze 26 1011 83 5000 2.1 220 01:53 13.10.2019
83 Haze 25 1010 78 5000 1.39 167.077 01:26 13.10.2019
84 Haze 25 1010 88 5000 2.1 190 00:47 13.10.2019
85 Haze 24 1010 83 5000 2.1 220 00:21 13.10.2019
86 Haze 24 1010 83 5000 2.6 230 23:56 12.10.2019
87 Haze 24 1009 83 6000 1.94 189.695 23:37 12.10.2019
88 Haze 24 1009 83 6000 1.94 189.695 23:19 12.10.2019
89 Haze 24 1009 83 5000 2.1 240 22:57 12.10.2019
90 Haze 25 1009 78 5000 3.1 240 22:38 12.10.2019
91 Haze 25 1009 78 5000 3.1 240 22:20 12.10.2019
92 Haze 25 1010 78 4000 3.1 230 21:54 12.10.2019
93 Haze 25 1010 78 4000 2.6 230 21:36 12.10.2019
94 Haze 25 1010 78 4000 2.6 230 21:18 12.10.2019
95 Haze 24 1010 83 4000 1.5 300 20:40 12.10.2019
96 Haze 24 1010 83 4000 1.5 300 20:22 12.10.2019
97 Haze 26 1011 74 5000 1.5 0 19:38 12.10.2019
98 Haze 26 1011 74 5000 1.5 0 19:20 12.10.2019
99 Haze 25 1011 78 5000 2.6 200 18:57 12.10.2019
100 Haze 26 1012 69 5000 2.1 0 18:38 12.10.2019
101 Haze 27 1012 69 5000 2.1 0 18:20 12.10.2019
102 Haze 27 1012 69 5000 2.1 0 17:43 12.10.2019
103 Clouds 25 1015 72 0 0.45 216 17:19 12.10.2019
104 Haze 26 1011 65 5000 2.1 0 16:54 12.10.2019
105 Haze 26 1011 65 5000 3.1 210 16:36 12.10.2019
106 Haze 26 1011 65 5000 3.1 210 16:36 12.10.2019
107 Haze 26 1011 65 5000 3.1 210 16:18 12.10.2019
108 Haze 27 1011 61 5000 2.6 0 15:43 12.10.2019
109 Clouds 27 1011 74 6000 1 280 15:23 12.10.2019
110 Clouds 28 1010 70 8000 1.5 330 14:43 12.10.2019
111 Clouds 28 1010 74 6000 1.5 330 14:22 12.10.2019
112 Clouds 28 1010 70 10000 1.5 20 13:58 12.10.2019
113 Clouds 28 1010 70 6000 2.1 340 13:40 12.10.2019
114 Clouds 28 1010 70 6000 2.1 340 13:40 12.10.2019
115 Clouds 29 1010 70 6000 2.1 340 13:21 12.10.2019
116 Clouds 30 1009 70 6000 2.6 350 12:39 12.10.2019
117 Clouds 30 1009 70 6000 2.6 350 12:21 12.10.2019
118 Clouds 31 1008 62 10000 4.1 350 11:58 12.10.2019
119 Clouds 31 1008 62 7000 2.6 10 11:39 12.10.2019
120 Clouds 31 1008 62 7000 2.6 10 11:20 12.10.2019
121 Clouds 31 1008 62 10000 4.6 10 10:44 12.10.2019
122 Clouds 32 1007 52 7000 4.1 40 10:24 12.10.2019
123 Clouds 33 1008 55 10000 6.2 40 09:58 12.10.2019
124 Clouds 33 1008 55 10000 6.2 40 09:58 12.10.2019
125 Clouds 32 1008 52 6000 4.1 360 09:39 12.10.2019
126 Clouds 33 1008 52 6000 4.1 360 09:21 12.10.2019
127 Clouds 33 1008 52 9000 6.2 50 08:58 12.10.2019
128 Clouds 33 1009 52 8000 4.6 30 08:38 12.10.2019
129 Haze 33 1009 52 8000 4.6 30 08:20 12.10.2019
130 -273 0 0 0 0 0 08:20 12.10.2019
131 Haze 33 1009 46 5000 1.5 350 07:35 12.10.2019
132 Haze 32 1010 59 6000 4.1 50 06:56 12.10.2019
133 Haze 31 1011 58 7000 2.6 0 05:47 12.10.2019
134 Haze 31 1011 52 5000 2.6 150 05:23 12.10.2019
135 Haze 32 1012 58 5000 2.6 210 04:24 12.10.2019
136 Haze 30 1011 66 5000 2.1 180 03:31 12.10.2019
137 Haze 26 1010 83 3000 1.7 116.142 01:45 12.10.2019
138 Haze 26 1010 88 3000 2.22 125.828 01:21 12.10.2019
139 Haze 26 1010 88 3000 2.22 125.828 00:42 12.10.2019
140 Haze 26 1009 88 4000 2.4 84.076 23:59 11.10.2019
141 Haze 26 1009 74 5000 1.5 220 23:40 11.10.2019
142 Haze 26 1009 74 5000 1.5 220 23:40 11.10.2019
143 Haze 27 1009 74 5000 1.5 220 23:20 11.10.2019
144 Haze 27 1009 78 4700 1 210 22:41 11.10.2019
145 Haze 27 1009 78 4700 1 210 22:41 11.10.2019
146 Haze 27 1009 78 4700 1 210 22:22 11.10.2019
147 Haze 26 1009 83 3700 1 0 21:58 11.10.2019
148 Haze 26 1009 78 3400 2.4 84.076 21:39 11.10.2019
149 Haze 27 1009 78 3400 2.69 57.191 21:21 11.10.2019
150 Haze 26 1010 78 3500 1 0 20:45 11.10.2019
151 Haze 26 1010 83 5000 1 0 20:27 11.10.2019
152 Haze 26 1010 83 5000 1 0 20:27 11.10.2019
153 Clouds 26 1010 74 6000 1.5 230 19:59 11.10.2019
154 Haze 27 1010 74 5000 2.1 200 19:39 11.10.2019
155 Haze 27 1010 74 5000 2.1 200 19:18 11.10.2019
156 Haze 27 1010 74 5000 2.1 200 19:18 11.10.2019
157 Haze 27 1010 74 5000 2.1 200 19:18 11.10.2019
158 Haze 27 1010 74 5000 2.1 200 19:18 11.10.2019
159 Haze 27 1010 74 3500 1 0 18:59 11.10.2019
160 Haze 27 1010 74 3500 1 0 18:59 11.10.2019
161 Haze 27 1011 74 4000 1.5 320 18:38 11.10.2019
162 Haze 27 1011 74 4000 1.5 320 18:19 11.10.2019
163 Haze 27 1011 74 5000 2.6 280 17:59 11.10.2019
164 Haze 27 1011 74 5000 2.6 280 17:59 11.10.2019
165 Haze 26 1011 74 5000 1 330 17:38 11.10.2019
166 Haze 27 1011 74 5000 1 330 17:19 11.10.2019
167 Haze 27 1011 74 5000 1 330 17:19 11.10.2019
168 Clouds 27 1011 74 6000 1 330 16:59 11.10.2019
169 Clouds 27 1011 74 7000 1 320 16:39 11.10.2019
170 Clouds 27 1011 74 7000 1 320 16:19 11.10.2019
171 Clouds 27 1011 78 8000 1 310 15:55 11.10.2019
172 Clouds 27 1010 78 8000 1 320 15:36 11.10.2019
173 Clouds 27 1010 78 8000 1 320 15:18 11.10.2019
174 Clouds 28 1010 70 8000 1.5 350 14:41 11.10.2019
175 Clouds 29 1010 70 8000 1.5 350 14:21 11.10.2019
176 Clouds 29 1009 70 8000 2.1 360 13:45 11.10.2019
177 Clouds 29 1009 52 6000 4.1 40 13:26 11.10.2019
178 Clouds 29 1009 55 7000 5.1 20 12:58 11.10.2019
179 Clouds 29 1008 58 10000 5.7 40 12:39 11.10.2019
180 Clouds 30 1008 58 10000 5.7 40 12:21 11.10.2019
181 Clouds 31 1008 58 10000 6.7 40 11:59 11.10.2019
182 Clouds 31 1007 49 7000 8.2 20 11:39 11.10.2019
183 Clouds 31 1007 49 7000 8.2 20 11:21 11.10.2019
184 Clouds 32 1007 49 7000 7.7 40 10:56 11.10.2019
185 Clouds 32 1008 46 7000 7.7 60 10:37 11.10.2019
186 Clouds 32 1008 46 7000 7.7 60 10:18 11.10.2019
187 Clouds 33 1008 41 7000 7.7 50 09:42 11.10.2019
188 Clouds 33 1008 41 7000 7.2 60 09:21 11.10.2019
189 Clouds 33 1008 41 6000 7.2 70 08:59 11.10.2019
190 Clouds 33 1009 44 6000 7.2 30 08:39 11.10.2019
191 Clouds 33 1009 44 6000 7.2 30 08:20 11.10.2019
192 Clouds 33 1009 44 6000 7.2 30 08:20 11.10.2019
193 Haze 33 1009 44 6000 7.7 60 07:57 11.10.2019
194 Haze 33 1010 46 5000 5.1 50 07:38 11.10.2019
195 Haze 33 1010 46 5000 5.1 50 07:19 11.10.2019
196 Haze 33 1011 52 5000 2.6 70 06:43 11.10.2019
197 Haze 33 1011 52 5000 2.6 70 06:19 11.10.2019
198 Haze 31 1012 58 4000 2.6 120 05:32 11.10.2019
199 Haze 31 1012 66 4000 3.1 150 04:58 11.10.2019
200 Haze 28 1012 74 6000 3.1 220 03:45 11.10.2019
201 Haze 26 1012 88 3000 1 200 01:28 11.10.2019
202 Haze 26 1011 88 4000 1 180 00:42 11.10.2019
203 Haze 26 1011 88 4000 1 180 00:20 11.10.2019
204 Haze 26 1010 88 4000 1 200 23:41 10.10.2019
205 Haze 26 1010 88 4000 1 200 23:20 10.10.2019
206 Haze 26 1010 78 5000 1.5 210 22:57 10.10.2019
207 Haze 26 1010 74 5000 2.1 210 22:37 10.10.2019
208 Haze 27 1010 74 5000 2.1 210 22:19 10.10.2019
209 Haze 27 1010 74 5000 2.1 210 21:54 10.10.2019
210 Haze 27 1011 74 5000 2.1 200 21:36 10.10.2019
211 Haze 27 1011 74 5000 2.1 200 21:18 10.10.2019
212 Haze 27 1011 74 5000 1 0 20:41 10.10.2019
213 Haze 27 1011 74 5000 1 0 20:21 10.10.2019
214 Haze 27 1011 74 5000 1 0 20:20 10.10.2019
215 Haze 27 1011 74 5000 1 0 20:20 10.10.2019
216 Haze 27 1011 78 5000 1 130 19:57 10.10.2019
217 Haze 27 1011 74 5000 1.5 0 19:39 10.10.2019
218 Haze 27 1011 74 5000 1.5 0 19:19 10.10.2019
219 Haze 27 1012 78 5000 2.1 170 18:54 10.10.2019
220 Haze 27 1012 78 5000 2.1 170 18:54 10.10.2019
221 Haze 27 1012 78 5000 2.1 170 18:54 10.10.2019
222 Haze 27 1012 78 5000 2.1 170 18:54 10.10.2019
223 Haze 27 1012 78 5000 3.1 200 18:36 10.10.2019
224 Haze 27 1012 78 5000 3.1 200 18:18 10.10.2019
225 Haze 26 1012 78 5000 1.5 0 17:40 10.10.2019
226 Haze 26 1012 78 5000 1.5 0 17:20 10.10.2019
227 Haze 27 1012 78 5000 3.6 200 16:58 10.10.2019
228 Haze 27 1012 78 5000 3.6 170 16:39 10.10.2019
229 Haze 27 1012 78 5000 3.6 170 16:21 10.10.2019
230 Clouds 27 1011 74 6000 4.1 210 15:43 10.10.2019
231 Haze 27 1011 74 6000 4.1 210 15:24 10.10.2019
232 Haze 28 1011 74 7000 4.1 230 14:59 10.10.2019
233 Haze 28 1011 78 5000 4.1 220 14:37 10.10.2019
234 Haze 28 1011 78 5000 4.1 220 14:37 10.10.2019
235 Haze 29 1011 78 5000 4.1 220 14:19 10.10.2019
236 Haze 29 1011 78 5000 4.1 220 14:19 10.10.2019
237 Haze 29 1010 70 8000 2.6 290 13:59 10.10.2019
238 Haze 29 1010 70 5000 2.1 340 13:39 10.10.2019
239 Haze 29 1010 70 5000 2.1 340 13:18 10.10.2019
240 Haze 29 1010 70 5000 2.1 340 13:18 10.10.2019
241 Haze 30 1010 66 8000 2.6 360 12:54 10.10.2019
242 Haze 30 1009 66 5000 4.1 350 12:36 10.10.2019
243 Haze 30 1009 66 5000 4.1 350 12:18 10.10.2019
244 Haze 31 1008 62 5000 4.1 360 11:41 10.10.2019
245 Haze 30 1008 62 5000 4.1 360 11:20 10.10.2019
246 Haze 30 1008 62 5000 4.1 360 11:20 10.10.2019
247 Haze 31 1008 58 10000 5.1 20 10:58 10.10.2019
248 Haze 31 1008 59 5000 5.1 340 10:40 10.10.2019
249 Haze 31 1008 59 5000 5.1 340 10:21 10.10.2019
250 Haze 32 1009 59 5000 4.1 10 09:41 10.10.2019
251 Haze 31 1009 55 8000 5.1 30 09:41 10.10.2019
252 Haze 32 1009 59 5000 4.1 10 09:23 10.10.2019
253 Haze 32 1009 55 6000 5.1 30 08:59 10.10.2019
254 Haze 32 1010 55 5000 3.6 330 08:41 10.10.2019
255 Haze 32 1010 55 5000 3.6 330 08:21 10.10.2019
256 Haze 32 1010 55 7000 3.6 20 07:57 10.10.2019
257 Haze 32 1011 49 5000 4.6 20 07:36 10.10.2019
258 Haze 32 1011 49 5000 4.6 20 07:18 10.10.2019
259 Haze 32 1012 52 4000 2.1 330 06:39 10.10.2019
260 Clouds 31 1012 58 7000 2.1 0 05:57 10.10.2019
261 Haze 31 1012 55 5000 3.6 100 05:22 10.10.2019
262 Haze 30 1013 55 6000 3.1 160 04:36 10.10.2019
263 Haze 26 1012 78 5000 3.1 230 02:46 10.10.2019
264 Haze 25 1011 83 4000 2.1 240 01:39 10.10.2019
265 Haze 25 1011 83 4000 2.1 240 01:39 10.10.2019
266 Haze 25 1011 83 4000 2.1 240 01:21 10.10.2019
267 Haze 25 1011 88 5000 1.5 230 00:41 10.10.2019
268 Haze 25 1011 88 5000 1.5 230 00:19 10.10.2019
269 Haze 25 1010 83 4000 2.1 220 23:38 09.10.2019
270 Haze 25 1010 83 4000 2.1 220 23:19 09.10.2019
271 Haze 25 1010 83 4000 2.1 220 23:19 09.10.2019
272 Haze 25 1010 83 5000 1.5 230 22:42 09.10.2019
273 Haze 25 1010 83 5000 2.6 230 22:23 09.10.2019
274 Haze 25 1010 83 4000 2.1 240 21:59 09.10.2019
275 Haze 25 1010 83 4000 2.1 250 21:39 09.10.2019
276 Haze 25 1010 83 4000 2.1 250 21:20 09.10.2019
277 Haze 25 1010 83 4000 2.1 260 20:56 09.10.2019
278 Haze 25 1010 78 4000 2.6 230 20:37 09.10.2019
279 Haze 25 1010 78 4000 2.6 230 20:18 09.10.2019
280 Haze 25 1010 78 4000 3.1 250 19:45 09.10.2019
281 Haze 25 1010 78 4000 2.6 240 19:24 09.10.2019
282 Haze 26 1011 78 4000 4.1 230 18:58 09.10.2019
283 Haze 26 1011 74 4000 2.1 240 18:37 09.10.2019
284 Haze 25 1011 74 4000 2.1 240 18:18 09.10.2019
285 Haze 25 1011 74 4000 2.1 240 18:18 09.10.2019
286 Haze 25 1011 83 3000 1.5 0 17:55 09.10.2019
287 Haze 26 1011 78 3000 1 300 17:36 09.10.2019
288 Haze 26 1011 78 3000 1 300 17:18 09.10.2019
289 Haze 26 1011 78 5000 1.5 310 16:41 09.10.2019
290 Haze 26 1011 78 5000 1.5 310 16:22 09.10.2019
291 Haze 26 1011 78 4000 1 350 15:58 09.10.2019
292 Haze 27 1011 78 5000 1 340 15:39 09.10.2019
293 Haze 27 1011 78 5000 1 340 15:39 09.10.2019
294 Haze 27 1011 78 5000 1 340 15:20 09.10.2019
295 Haze 27 1010 74 5000 0.5 350 14:58 09.10.2019
296 Clouds 27 1010 74 6000 1.5 30 14:39 09.10.2019
297 Clouds 27 1010 74 6000 1.5 30 14:18 09.10.2019
298 Clouds 27 1009 70 6000 1.5 320 13:40 09.10.2019
299 Clouds 28 1009 70 6000 1.5 320 13:21 09.10.2019
300 Clouds 28 1009 74 9000 2.6 20 12:59 09.10.2019
301 Clouds 28 1008 58 6000 5.1 360 12:40 09.10.2019
302 Clouds 30 1008 58 6000 5.1 360 12:21 09.10.2019
303 Clouds 30 1008 62 10000 5.1 40 11:55 09.10.2019
304 Clouds 31 1007 55 6000 6.2 350 11:36 09.10.2019
305 Clouds 31 1007 55 6000 6.2 350 11:18 09.10.2019
306 Clouds 31 1007 55 6000 6.2 350 11:18 09.10.2019
307 Clouds 29 1007 62 10000 6.2 30 10:43 09.10.2019
308 Clouds 30 1007 52 6000 6.7 20 10:21 09.10.2019
309 Clouds 31 1007 52 6000 6.7 10 09:57 09.10.2019
310 Clouds 31 1008 55 6000 5.1 10 09:38 09.10.2019
311 Clouds 33 1008 55 6000 5.1 10 09:18 09.10.2019
312 Clouds 33 1009 55 6000 5.1 30 08:41 09.10.2019
313 Clouds 33 1009 55 6000 5.1 30 08:21 09.10.2019
314 Clouds 33 1009 52 6000 3.6 10 07:56 09.10.2019
315 Haze 32 1010 59 5000 3.1 40 07:37 09.10.2019
316 Haze 33 1010 59 5000 3.1 40 07:19 09.10.2019
317 Haze 33 1010 52 5000 4.1 70 06:49 09.10.2019
318 Haze 32 1011 55 5000 1.5 270 05:55 09.10.2019
319 Haze 31 1011 58 5000 2.1 60 05:23 09.10.2019
320 Haze 30 1012 66 5000 2.1 130 04:24 09.10.2019
321 Haze 27 1011 69 5000 2.1 190 02:50 09.10.2019
322 Haze 25 1011 78 5000 1.5 190 01:43 09.10.2019
323 Haze 25 1011 88 4000 0.93 51.877 01:19 09.10.2019
324 Haze 25 1010 83 5000 2.6 170 00:56 09.10.2019
325 Haze 25 1010 88 5000 3.1 170 00:38 09.10.2019
326 Haze 25 1010 88 5000 3.1 170 00:19 09.10.2019
327 Haze 25 1010 88 5000 2.1 180 23:39 08.10.2019
328 Haze 25 1010 88 5000 2.1 180 23:18 08.10.2019
329 Haze 25 1010 88 5000 1.5 190 22:56 08.10.2019
330 Haze 25 1010 88 5000 1.5 190 22:38 08.10.2019
331 Haze 25 1010 88 5000 1.5 190 22:19 08.10.2019
332 Haze 25 1010 88 5000 1 0 21:57 08.10.2019
333 Haze 25 1010 88 4500 2.1 180 21:38 08.10.2019
334 Haze 25 1010 88 4500 2.1 180 21:19 08.10.2019
335 Haze 25 1010 88 5000 1.5 190 20:56 08.10.2019
336 Haze 25 1011 88 5000 1.5 210 20:37 08.10.2019
337 Haze 25 1011 88 5000 1.5 210 20:19 08.10.2019
338 Haze 25 1011 88 5000 2.1 190 19:56 08.10.2019
339 Clouds 25 1011 88 6000 2.1 190 19:37 08.10.2019
340 Clouds 25 1011 88 6000 2.1 190 19:18 08.10.2019
341 Clouds 25 1012 88 6000 2.1 190 18:46 08.10.2019
342 Clouds 25 1012 83 6000 1.5 0 18:25 08.10.2019
343 Rain 25 1012 78 5000 2.1 260 17:59 08.10.2019
344 Rain 25 1012 88 5000 3.1 200 17:40 08.10.2019
345 Rain 24 1012 88 5000 3.1 200 17:20 08.10.2019
346 Rain 24 1012 88 4500 2.6 120 16:56 08.10.2019
347 Rain 24 1012 88 4000 3.6 140 16:37 08.10.2019
348 Rain 24 1012 88 4000 3.6 140 16:19 08.10.2019
349 Rain 25 1012 78 6000 2.6 170 15:40 08.10.2019
350 Rain 25 1012 78 6000 2.6 170 15:21 08.10.2019
351 Clouds 26 1011 69 8000 4.1 190 14:57 08.10.2019
352 Clouds 26 1011 70 8000 1 0 14:38 08.10.2019
353 Clouds 26 1011 70 8000 1 0 14:38 08.10.2019
354 Haze 27 1011 70 8000 1 0 14:20 08.10.2019
355 Haze 28 1010 70 8000 2.6 10 13:55 08.10.2019
356 Haze 28 1010 66 5000 3.6 20 13:37 08.10.2019
357 Haze 28 1010 66 5000 3.6 20 13:18 08.10.2019
358 Clouds 29 1008 55 6000 5.1 20 12:41 08.10.2019
359 Clouds 29 1008 55 6000 5.1 20 12:21 08.10.2019
360 Clouds 30 1008 66 10000 6.2 350 11:59 08.10.2019
361 Clouds 30 1007 55 6000 5.1 30 11:40 08.10.2019
362 Clouds 31 1007 55 6000 5.1 30 11:21 08.10.2019
363 Clouds 31 1007 58 10000 5.1 340 10:55 08.10.2019
364 Clouds 32 1007 49 6000 4.1 10 10:36 08.10.2019
365 Clouds 32 1007 49 6000 4.1 10 10:18 08.10.2019
366 Clouds 33 1008 52 9000 6.2 10 09:41 08.10.2019
367 Clouds 33 1008 52 9000 6.2 10 09:22 08.10.2019
368 Clouds 33 1008 52 9000 4.6 330 08:54 08.10.2019
369 Clouds 33 1008 46 6000 5.1 40 08:36 08.10.2019
370 Clouds 33 1008 46 6000 5.1 40 08:18 08.10.2019
371 Haze 34 1009 46 5000 5.1 10 07:41 08.10.2019
372 Haze 34 1009 46 5000 5.1 10 07:19 08.10.2019
373 Clouds 34 1010 52 9000 6.2 350 06:46 08.10.2019
374 Haze 33 1010 55 9000 2.6 0 06:23 08.10.2019
375 Haze 33 1010 49 10000 2.1 0 05:44 08.10.2019
376 Haze 33 1011 49 5000 2.6 120 05:21 08.10.2019
377 Haze 33 1011 49 5000 2.6 120 05:21 08.10.2019
378 Haze 30 1012 58 4000 2.6 180 03:32 08.10.2019
379 Haze 28 1012 61 4000 1.5 140 02:44 08.10.2019
380 Haze 27 1011 61 4000 1.5 160 02:25 08.10.2019
381 Haze 25 1011 65 4000 1 180 01:42 08.10.2019
382 Haze 24 1010 65 4000 1 160 00:57 08.10.2019
383 Haze 24 1010 65 4000 1 160 00:57 08.10.2019
384 Haze 24 1010 65 5000 1 130 00:25 08.10.2019
385 Haze 25 1010 69 5000 1.59 126.575 23:58 07.10.2019
386 Clouds 25 1010 88 6000 1.5 200 23:38 07.10.2019
387 Clouds 24 1010 88 6000 1.5 200 23:19 07.10.2019
388 Clouds 24 1010 88 6000 1.5 200 23:19 07.10.2019
389 Clouds 24 1010 88 6000 1.5 190 22:55 07.10.2019
390 Clouds 24 1010 94 6000 2.1 200 22:37 07.10.2019
391 Clouds 24 1010 94 6000 2.1 200 22:18 07.10.2019
392 Haze 25 1010 88 5000 2.6 200 21:54 07.10.2019
393 Haze 25 1010 88 5000 2.6 220 21:36 07.10.2019
394 Haze 25 1010 88 5000 2.6 220 21:36 07.10.2019
395 Haze 25 1010 88 5000 2.6 220 21:18 07.10.2019
396 Haze 24 1010 83 5000 2.1 240 20:56 07.10.2019
397 Haze 24 1010 83 5000 2.1 240 20:56 07.10.2019
398 Haze 26 1010 78 5000 2.1 220 20:37 07.10.2019
399 Haze 26 1010 78 5000 2.1 220 20:18 07.10.2019
400 Clouds 26 1011 74 6000 1 230 19:42 07.10.2019
401 Clouds 26 1011 74 6000 1 230 19:42 07.10.2019
402 Clouds 27 1011 74 6000 1 230 19:21 07.10.2019
403 Clouds 27 1011 74 7000 0.5 0 19:00 07.10.2019
404 Clouds 26 1011 74 7000 0.5 0 18:41 07.10.2019
405 Clouds 26 1011 74 7000 0.5 0 18:19 07.10.2019
406 Clouds 26 1012 74 7000 1 100 17:58 07.10.2019
407 Clouds 26 1012 74 7000 1.5 70 17:40 07.10.2019
408 Clouds 26 1012 74 7000 1.5 70 17:18 07.10.2019
409 Clouds 27 1011 69 7000 2.1 0 16:44 07.10.2019
410 Clouds 27 1011 69 7000 2.1 60 16:26 07.10.2019
411 Clouds 28 1011 65 8000 1.5 80 15:57 07.10.2019
412 Clouds 28 1011 65 8000 2.6 60 15:38 07.10.2019
413 Clouds 28 1011 65 8000 2.6 60 15:20 07.10.2019
414 Clear 28 1010 54 8000 3.6 60 14:41 07.10.2019
415 Clear 28 1010 54 8000 3.6 60 14:23 07.10.2019
416 Clear 29 1010 48 8000 3.6 60 13:45 07.10.2019
417 Clear 29 1010 51 8000 5.1 50 13:21 07.10.2019
418 Clouds 30 1009 55 8000 6.7 50 12:58 07.10.2019
419 Clear 30 1009 43 9000 8.2 50 12:40 07.10.2019
420 Clear 30 1009 43 9000 8.2 50 12:21 07.10.2019
421 Clouds 31 1008 48 8000 9.3 40 11:59 07.10.2019
422 Clouds 32 1008 46 8000 6.7 50 11:40 07.10.2019
423 Clouds 32 1008 46 8000 6.7 50 11:21 07.10.2019
424 Clear 33 1008 32 9000 9.8 40 10:56 07.10.2019
425 Clouds 33 1008 46 8000 7.7 40 10:37 07.10.2019
426 Clouds 33 1008 46 8000 7.7 40 10:37 07.10.2019
427 Clouds 33 1008 46 8000 7.7 40 10:19 07.10.2019
428 Clouds 34 1009 43 8000 10.3 40 09:38 07.10.2019
429 Clouds 34 1009 43 8000 10.3 40 09:20 07.10.2019
430 Clouds 34 1009 30 7000 7.7 60 08:44 07.10.2019
431 Clouds 34 1009 30 7000 7.7 60 08:21 07.10.2019
432 Clouds 33 1010 36 7000 8.7 40 07:55 07.10.2019
433 Clouds 33 1010 41 6000 6.7 40 07:36 07.10.2019
434 Clouds 33 1010 41 6000 6.7 40 07:18 07.10.2019
435 Clouds 33 1011 46 6000 6.2 70 06:43 07.10.2019
436 Clouds 33 1011 46 6000 6.2 70 06:22 07.10.2019
437 Clouds 33 1012 49 6000 5.1 110 05:27 07.10.2019
438 Clouds 32 1012 52 6000 3.1 150 04:56 07.10.2019
439 Clouds 30 1012 62 6000 2.1 120 03:51 07.10.2019
440 Clouds 30 1012 62 6000 2.1 120 03:51 07.10.2019
441 Haze 30 1012 58 5000 2.6 220 03:32 07.10.2019
442 Haze 28 1012 61 5000 1 0 02:55 07.10.2019
443 Haze 26 1011 65 4000 2.1 220 02:20 07.10.2019
444 Haze 26 1011 65 4000 2.1 220 02:20 07.10.2019
445 Haze 25 1011 73 5000 2.1 200 01:24 07.10.2019
446 Haze 25 1011 73 5000 2.1 160 00:55 07.10.2019
447 Haze 25 1011 69 6000 1.5 200 00:36 07.10.2019
448 Haze 25 1011 69 6000 1.5 200 00:18 07.10.2019
449 Haze 25 1011 78 5000 1.5 180 23:40 06.10.2019
450 Haze 25 1011 78 5000 1.5 180 23:21 06.10.2019
451 Haze 25 1010 78 5000 1 180 22:58 06.10.2019
452 Haze 25 1010 78 5000 1 180 22:39 06.10.2019
453 Haze 25 1010 78 5000 1 180 22:21 06.10.2019
454 Haze 25 1010 78 5000 1 200 21:56 06.10.2019
455 Haze 25 1010 78 5000 1 190 21:37 06.10.2019
456 Haze 25 1010 78 5000 1 190 21:19 06.10.2019
457 Haze 25 1010 78 5000 1.5 200 20:57 06.10.2019
458 Haze 25 1010 78 5000 1.5 200 20:38 06.10.2019
459 Haze 25 1010 78 5000 1.5 200 20:20 06.10.2019
460 Haze 25 1010 78 5000 1.5 220 19:57 06.10.2019
461 Haze 25 1011 78 5000 1.5 220 19:37 06.10.2019
462 Haze 25 1011 78 5000 1.5 220 19:19 06.10.2019
463 Haze 25 1011 78 5000 2.1 220 18:56 06.10.2019
464 Haze 25 1011 78 5000 2.1 230 18:38 06.10.2019
465 Haze 25 1011 78 5000 2.1 230 18:19 06.10.2019
466 Haze 26 1011 69 5000 2.1 250 17:43 06.10.2019
467 Haze 27 1011 69 5000 2.1 250 17:20 06.10.2019
468 Haze 27 1011 65 5000 1 0 16:58 06.10.2019
469 Haze 27 1011 61 5000 1 0 16:40 06.10.2019
470 Haze 27 1011 61 5000 1 0 16:22 06.10.2019
471 Haze 28 1011 65 5000 1 0 15:44 06.10.2019
472 Haze 28 1011 65 5000 1 0 15:44 06.10.2019
473 Haze 28 1011 65 5000 1.5 0 15:22 06.10.2019
474 Haze 28 1010 65 5000 2.1 0 14:58 06.10.2019
475 Clouds 28 1010 48 6000 1.5 360 14:40 06.10.2019
476 Clouds 28 1010 48 6000 1.5 360 14:21 06.10.2019
477 Clouds 29 1010 54 8000 2.1 0 13:55 06.10.2019
478 Clouds 29 1009 40 6000 2.6 360 13:37 06.10.2019
479 Clouds 29 1009 40 6000 2.6 360 13:18 06.10.2019
480 Clouds 30 1009 51 9000 3.1 340 12:55 06.10.2019
481 Clouds 30 1008 38 7000 4.1 10 12:37 06.10.2019
482 Clouds 30 1008 38 7000 4.1 10 12:19 06.10.2019
483 Clouds 31 1008 55 9000 5.1 330 11:43 06.10.2019
484 Clouds 32 1008 38 7000 5.1 20 11:24 06.10.2019
485 Clouds 33 1008 43 9000 6.2 330 10:58 06.10.2019
486 Clouds 32 1008 49 9000 6.7 340 10:39 06.10.2019
487 Clouds 33 1008 49 9000 6.7 340 10:21 06.10.2019
488 Clouds 34 1008 25 7000 4.6 20 09:41 06.10.2019
489 Clouds 34 1008 25 7000 4.6 20 09:21 06.10.2019
490 Clouds 35 1008 39 10000 4.6 20 08:57 06.10.2019
491 Clouds 35 1008 26 6000 5.1 70 08:38 06.10.2019
492 Clouds 35 1008 26 6000 5.1 70 08:19 06.10.2019
493 Clouds 35 1010 30 6000 4.6 30 07:41 06.10.2019
494 Clouds 35 1010 36 10000 2.1 0 06:59 06.10.2019
495 Clouds 33 1011 43 10000 2.6 0 05:57 06.10.2019
496 Clouds 32 1012 52 10000 1.5 0 04:44 06.10.2019
497 Clouds 32 1012 52 10000 1.5 0 04:44 06.10.2019
498 Haze 28 1012 58 6000 5.7 220 02:56 06.10.2019
499 Haze 27 1012 61 6000 5.1 210 02:37 06.10.2019
500 Haze 26 1012 65 6000 4.1 220 01:50 06.10.2019
501 Haze 24 1011 69 6000 4.6 210 01:31 06.10.2019
502 Haze 24 1011 69 6000 4.6 200 00:59 06.10.2019
503 Haze 24 1011 69 6000 4.6 200 00:59 06.10.2019
504 Haze 24 1011 69 5000 2.6 210 00:40 06.10.2019
505 Haze 24 1011 69 5000 2.6 210 00:20 06.10.2019
506 Haze 24 1011 88 5000 2.1 180 23:42 05.10.2019
507 Haze 24 1011 88 5000 2.1 180 23:21 05.10.2019
508 Haze 24 1010 94 5000 1 190 22:56 05.10.2019
509 Haze 25 1010 73 5000 1 180 22:38 05.10.2019
510 Haze 25 1010 73 5000 1 180 22:19 05.10.2019
511 Haze 25 1010 78 5000 1 210 21:42 05.10.2019
512 Haze 25 1010 78 5000 1 210 21:23 05.10.2019
513 Haze 26 1011 74 5000 1.5 200 20:58 05.10.2019
514 Haze 26 1011 74 5000 2.1 200 20:40 05.10.2019
515 Haze 26 1011 74 5000 2.1 200 20:20 05.10.2019
516 Haze 26 1011 74 5000 1.5 220 19:56 05.10.2019
517 Haze 27 1011 69 5000 1 0 19:37 05.10.2019
518 Haze 26 1011 69 5000 1 0 19:18 05.10.2019
519 Haze 26 1011 69 5000 1 0 18:55 05.10.2019
520 Haze 26 1011 69 5000 1 0 18:55 05.10.2019
521 Haze 26 1011 69 5000 1 0 18:36 05.10.2019
522 Haze 27 1011 69 5000 1 0 18:18 05.10.2019
523 Haze 27 1012 65 5000 1 270 17:42 05.10.2019
524 Haze 27 1012 65 5000 1 270 17:21 05.10.2019
525 Clouds 27 1011 65 6000 1.5 0 16:56 05.10.2019
526 Clouds 27 1011 65 6000 1.5 0 16:37 05.10.2019
527 Clouds 27 1011 65 6000 1.5 0 16:18 05.10.2019
528 Clouds 28 1011 65 6000 1.5 0 15:55 05.10.2019
529 Clouds 28 1010 65 6000 2.1 320 15:37 05.10.2019
530 Clouds 28 1010 65 6000 2.1 320 15:18 05.10.2019
531 Clouds 28 1010 65 7000 2.6 320 14:42 05.10.2019
532 Clouds 28 1011 54 8000 4.6 70 14:23 05.10.2019
533 Clouds 29 1009 38 6000 3.6 30 13:44 05.10.2019
534 Clouds 29 1009 48 8000 7.2 70 13:26 05.10.2019
535 Clouds 30 1008 55 9000 3.6 10 12:59 05.10.2019
536 Clouds 30 1009 38 8000 5.7 60 12:41 05.10.2019
537 Clouds 30 1009 38 8000 5.7 60 12:19 05.10.2019
538 Clouds 32 1008 32 8000 7.7 60 11:41 05.10.2019
539 Clouds 32 1008 32 8000 7.7 60 11:41 05.10.2019
540 Clouds 32 1008 32 8000 7.7 60 11:20 05.10.2019
541 Clouds 33 1006 28 7000 7.7 60 10:57 05.10.2019
542 Clouds 33 1007 32 7000 7.7 40 10:38 05.10.2019
543 Clouds 33 1007 32 7000 7.7 40 10:38 05.10.2019
544 Clouds 33 1007 32 7000 7.7 40 10:19 05.10.2019
545 Clouds 33 1007 32 7000 7.7 40 10:19 05.10.2019
546 Clouds 34 1007 30 7000 8.2 50 09:40 05.10.2019
547 Clouds 34 1007 30 7000 8.2 50 09:22 05.10.2019
548 Clouds 34 1008 30 7000 8.7 60 08:42 05.10.2019
549 Clouds 34 1008 30 7000 8.7 60 08:23 05.10.2019
550 Clouds 34 1008 28 6000 8.2 50 07:59 05.10.2019
551 Clouds 34 1008 28 6000 8.2 50 07:59 05.10.2019
552 Clouds 35 1009 28 6000 8.7 70 07:39 05.10.2019
553 Clouds 35 1009 28 6000 8.7 70 07:39 05.10.2019
554 Clouds 35 1009 28 6000 8.7 70 07:20 05.10.2019
555 Clouds 35 1009 34 10000 7.7 40 06:52 05.10.2019
556 Clouds 35 1009 34 10000 7.7 40 06:52 05.10.2019
557 Clouds 34 1010 26 6000 8.2 100 06:20 05.10.2019
558 Clouds 32 1011 31 6000 6.2 90 04:46 05.10.2019
559 Haze 30 1012 51 5000 3.6 130 03:31 05.10.2019
560 Clouds 27 1011 69 6000 3.1 200 02:25 05.10.2019
561 Haze 25 1011 78 5000 1.5 240 01:25 05.10.2019
562 Haze 25 1011 78 5000 1.5 240 01:25 05.10.2019
563 Haze 25 1011 73 6000 1 220 00:47 05.10.2019
564 Haze 25 1010 83 5000 2.01 159.678 00:27 05.10.2019
565 Haze 24 1010 69 6000 2.1 160 23:55 04.10.2019
566 Haze 24 1010 78 5000 2.82 121.703 23:37 04.10.2019
567 Haze 24 1010 78 5000 2.82 121.703 23:18 04.10.2019
568 Clouds 24 1010 74 6000 2.1 190 22:41 04.10.2019
569 Clouds 25 1010 74 6000 2.1 190 22:23 04.10.2019
570 Clouds 25 1010 74 7000 2.1 0 21:58 04.10.2019
571 Clouds 25 1010 74 7000 2.1 0 21:58 04.10.2019
572 Clouds 25 1010 74 7000 1 110 21:39 04.10.2019
573 Clouds 25 1010 74 7000 1 110 21:21 04.10.2019
574 Clouds 26 1010 74 7000 1 110 20:57 04.10.2019
575 Clouds 25 1011 78 7000 1.5 80 20:39 04.10.2019
576 Clouds 25 1011 78 7000 1.5 80 20:21 04.10.2019
577 Clouds 26 1011 74 8000 1.5 90 19:55 04.10.2019
578 Clouds 26 1011 69 8000 1.5 0 19:37 04.10.2019
579 Clouds 26 1011 69 8000 1.5 0 19:18 04.10.2019
580 Clouds 26 1012 74 8000 1.5 80 18:39 04.10.2019
581 Clouds 26 1012 74 8000 1.5 80 18:19 04.10.2019
582 Clouds 26 1012 69 8000 3.1 60 17:58 04.10.2019
583 Clouds 26 1012 65 8000 2.6 70 17:39 04.10.2019
584 Clouds 27 1012 65 8000 2.6 70 17:20 04.10.2019
585 Clouds 27 1012 65 8000 2.6 70 16:55 04.10.2019
586 Clouds 27 1012 65 8000 2.6 70 16:55 04.10.2019
587 -273 0 0 0 0 0 16:55 04.10.2019
588 Clouds 27 1012 65 8000 3.1 70 16:37 04.10.2019
589 Clouds 27 1012 65 8000 3.1 70 16:18 04.10.2019
590 Clouds 27 1012 65 8000 3.1 70 15:55 04.10.2019
591 Clouds 27 1011 65 9000 3.1 50 15:37 04.10.2019
592 Clouds 27 1011 65 9000 3.1 50 15:37 04.10.2019
593 Clouds 27 1011 65 9000 3.1 50 15:18 04.10.2019
594 Clouds 28 1011 61 9000 3.1 60 14:42 04.10.2019
595 Clouds 28 1011 65 9000 3.6 40 14:22 04.10.2019
596 Clouds 28 1010 61 9000 4.1 60 13:59 04.10.2019
597 Clouds 28 1010 58 10000 4.6 60 13:41 04.10.2019
598 Clouds 29 1010 58 10000 4.6 60 13:19 04.10.2019
599 Clouds 29 1010 58 10000 4.6 60 13:19 04.10.2019
600 Clouds 30 1009 55 10000 7.7 50 12:46 04.10.2019
601 Clouds 30 1009 55 10000 7.7 50 12:46 04.10.2019
602 Clouds 31 1008 48 10000 8.2 30 12:28 04.10.2019
603 Clouds 31 1008 46 10000 8.7 30 11:58 04.10.2019
604 Clouds 32 1008 49 10000 8.2 30 11:40 04.10.2019
605 Clouds 32 1008 49 10000 8.2 30 11:40 04.10.2019
606 Clouds 32 1008 49 10000 8.2 30 11:20 04.10.2019
607 Clouds 32 1008 46 10000 8.7 40 10:40 04.10.2019
608 Clouds 33 1008 46 10000 8.7 40 10:20 04.10.2019
609 Clouds 33 1008 44 10000 8.7 40 09:45 04.10.2019
610 Clouds 33 1009 44 10000 8.7 40 09:27 04.10.2019
611 Clouds 33 1009 44 10000 8.2 30 08:56 04.10.2019
612 Clouds 34 1009 44 9000 5.1 30 08:37 04.10.2019
613 Clouds 34 1009 44 9000 5.1 30 08:19 04.10.2019
614 Clouds 34 1010 49 9000 4.6 20 07:43 04.10.2019
615 Clouds 34 1010 49 9000 4.6 20 07:22 04.10.2019
616 Clouds 34 1011 38 7000 4.1 360 06:42 04.10.2019
617 Clouds 34 1011 38 7000 4.1 360 06:24 04.10.2019
618 Clouds 34 1011 38 7000 4.1 360 06:24 04.10.2019
619 Clouds 33 1012 43 7000 4.6 90 05:38 04.10.2019
620 Clouds 32 1012 43 7000 4.6 90 05:18 04.10.2019
621 Haze 30 1013 62 5000 1.5 200 03:47 04.10.2019
622 Haze 30 1013 62 4600 2.1 0 03:47 04.10.2019
623 Haze 28 1013 65 4000 2.6 190 02:53 04.10.2019
624 Haze 28 1013 65 4000 2.6 190 02:53 04.10.2019
625 Haze 26 1013 78 4000 1.5 240 01:55 04.10.2019
626 Haze 25 1012 78 3000 2.1 240 01:30 04.10.2019
627 Haze 25 1012 88 4000 1.71 139.278 00:57 04.10.2019
628 Haze 24 1012 100 3500 1 190 23:55 03.10.2019
629 Haze 24 1012 100 4000 1.5 200 23:37 03.10.2019
630 Haze 24 1012 100 4000 1.5 200 23:18 03.10.2019
631 Haze 24 1012 100 4000 1 210 22:55 03.10.2019
632 Mist 24 1012 100 4000 1.5 220 22:37 03.10.2019
633 Mist 24 1012 100 4000 1.5 220 22:18 03.10.2019
634 Haze 25 1012 94 4500 1.5 200 21:55 03.10.2019
635 Haze 25 1012 94 3500 1.5 200 21:36 03.10.2019
636 Haze 25 1012 94 3500 1.5 200 21:18 03.10.2019
637 Haze 25 1012 83 4000 2.1 210 20:41 03.10.2019
638 Haze 25 1012 83 4000 2.1 210 20:23 03.10.2019
639 Haze 26 1012 78 4500 1 200 19:59 03.10.2019
640 Haze 26 1012 78 5000 1.5 210 19:41 03.10.2019
641 Haze 26 1012 78 5000 1.5 210 19:22 03.10.2019
642 Haze 26 1012 78 5000 1.5 210 18:58 03.10.2019
643 Haze 26 1013 78 5000 1.5 220 18:38 03.10.2019
644 Haze 26 1013 78 5000 1.5 220 18:38 03.10.2019
645 Haze 26 1013 78 5000 1.5 220 18:19 03.10.2019
646 Haze 26 1013 74 4000 1.5 210 17:55 03.10.2019
647 Haze 26 1013 74 4000 1.5 210 17:55 03.10.2019
648 Haze 26 1013 74 4000 1.5 210 17:55 03.10.2019
649 Haze 26 1013 74 4000 1.5 200 17:37 03.10.2019
650 Haze 26 1013 74 4000 1.5 200 17:19 03.10.2019
651 Haze 26 1013 74 5000 1.5 240 16:41 03.10.2019
652 Haze 26 1013 74 5000 1.5 240 16:23 03.10.2019
653 Haze 26 1012 74 5000 2.1 250 15:55 03.10.2019
654 Haze 29 1012 69 5000 1.5 230 15:37 03.10.2019
655 Haze 29 1012 69 5000 1.5 230 15:18 03.10.2019
656 Clouds 28 1012 69 8000 1 0 14:43 03.10.2019
657 Clouds 28 1011 55 6000 3.1 20 14:24 03.10.2019
658 Clouds 28 1011 51 6000 5.1 40 13:56 03.10.2019
659 Clouds 28 1011 51 6000 5.1 40 13:56 03.10.2019
660 Clouds 28 1010 48 6000 5.7 50 13:38 03.10.2019
661 Clouds 28 1010 48 6000 5.7 50 13:38 03.10.2019
662 Clouds 29 1010 48 6000 5.7 50 13:19 03.10.2019
663 Clouds 29 1010 66 9000 4.1 20 12:54 03.10.2019
664 Clouds 29 1009 43 6000 6.7 50 12:36 03.10.2019
665 Clouds 29 1009 43 6000 6.7 50 12:18 03.10.2019
666 Clouds 31 1009 41 7000 7.7 50 11:40 03.10.2019
667 Clouds 31 1009 41 7000 7.7 50 11:22 03.10.2019
668 Clouds 31 1009 41 6000 8.7 50 10:58 03.10.2019
669 Clouds 31 1009 44 6000 8.2 50 10:39 03.10.2019
670 Clouds 31 1009 44 6000 8.2 50 10:39 03.10.2019
671 Clouds 31 1009 44 6000 8.2 50 10:18 03.10.2019
672 Clouds 32 1010 55 9000 7.2 30 09:57 03.10.2019
673 Clouds 33 1010 46 6000 7.7 60 09:38 03.10.2019
674 Clouds 33 1010 46 6000 7.7 60 09:19 03.10.2019
675 Clouds 33 1010 55 7000 5.7 30 08:43 03.10.2019
676 Clouds 32 1010 44 6000 7.2 40 08:25 03.10.2019
677 -273 0 0 0 0 0 07:56 03.10.2019
678 Clouds 33 1011 41 6000 3.6 30 07:37 03.10.2019
679 Clouds 33 1011 41 6000 3.6 30 07:19 03.10.2019
680 Haze 33 1012 43 5000 3.6 100 06:27 03.10.2019
681 Clouds 33 1012 43 6000 4.6 70 05:55 03.10.2019
682 Clouds 33 1013 49 6000 3.1 80 05:37 03.10.2019
683 Clouds 32 1014 58 6000 2.1 0 04:48 03.10.2019
684 Clouds 31 1014 55 6000 2.6 170 04:24 03.10.2019
685 Haze 29 1013 55 6000 3.6 200 03:20 03.10.2019
686 Haze 27 1013 69 5000 3.6 200 02:33 03.10.2019
687 Haze 25 1012 78 5000 2.1 220 01:42 03.10.2019
688 Haze 25 1012 78 5000 2.1 220 01:20 03.10.2019
689 Haze 25 1012 78 5000 1.5 210 00:41 03.10.2019
690 Haze 25 1012 78 5000 1.5 240 23:58 02.10.2019
691 Haze 25 1012 78 5000 1.5 240 23:38 02.10.2019
692 Haze 25 1012 78 5000 1.5 240 23:19 02.10.2019
693 Haze 25 1012 83 4000 1.5 220 22:43 02.10.2019
694 Haze 25 1012 83 4000 1.5 220 22:21 02.10.2019
695 Haze 24 1012 88 4000 1.5 220 21:56 02.10.2019
696 Haze 24 1012 88 4000 2.1 230 21:38 02.10.2019
697 Haze 24 1012 88 4000 2.1 230 21:19 02.10.2019
698 Haze 25 1012 83 5000 1.5 230 20:56 02.10.2019
699 Haze 25 1012 83 5000 2.1 220 20:37 02.10.2019
700 Haze 25 1012 83 5000 2.1 220 20:19 02.10.2019
701 Clouds 25 1012 83 6000 2.1 210 19:46 02.10.2019
702 Clouds 25 1013 78 6000 1.5 200 19:25 02.10.2019
703 Clouds 26 1013 74 6000 1.5 210 18:59 02.10.2019
704 Clouds 26 1013 74 6000 2.1 210 18:40 02.10.2019
705 Clouds 26 1013 74 6000 2.1 210 18:22 02.10.2019
706 Clouds 26 1013 74 6000 2.6 210 17:59 02.10.2019
707 Clouds 26 1013 74 6000 1.5 200 17:40 02.10.2019
708 Clouds 26 1013 74 6000 1.5 200 17:21 02.10.2019
709 Clouds 26 1013 74 6000 1.5 0 16:57 02.10.2019
710 Clouds 26 1013 74 6000 1.5 0 16:57 02.10.2019
711 Clouds 26 1013 74 6000 1.5 0 16:38 02.10.2019
712 Clouds 26 1012 69 7000 2.1 220 16:20 02.10.2019
713 Clouds 26 1012 69 7000 2.1 220 15:56 02.10.2019
714 Clouds 27 1012 74 7000 3.6 230 15:37 02.10.2019
715 Clouds 27 1012 74 7000 3.6 230 15:18 02.10.2019
716 Rain 28 1011 51 6000 2.6 40 14:43 02.10.2019
717 Rain 28 1011 51 6000 2.6 40 14:23 02.10.2019
718 Clouds 29 1011 62 9000 1.5 0 13:57 02.10.2019
719 Clouds 29 1011 48 6000 4.1 50 13:39 02.10.2019
720 Clouds 29 1010 58 9000 6.2 30 13:20 02.10.2019
721 Clouds 30 1010 46 6000 5.1 60 12:40 02.10.2019
722 Clouds 30 1010 55 9000 6.7 30 12:22 02.10.2019
723 Clouds 31 1010 55 9000 6.7 30 11:59 02.10.2019
724 Clouds 31 1010 55 9000 6.2 30 11:41 02.10.2019
725 Clouds 32 1010 55 9000 6.2 30 11:18 02.10.2019
726 Clouds 32 1010 46 6000 4.6 10 10:38 02.10.2019
727 Clouds 32 1010 46 6000 4.6 10 10:19 02.10.2019
728 Clouds 33 1010 46 6000 5.1 20 09:41 02.10.2019
729 Clouds 33 1010 46 6000 5.1 20 09:20 02.10.2019
730 Clouds 33 1010 52 8000 7.2 20 08:56 02.10.2019
731 Clouds 33 1010 52 8000 7.2 20 08:56 02.10.2019
732 Clouds 34 1010 39 6000 5.1 50 08:38 02.10.2019
733 Clouds 34 1010 39 6000 5.1 50 08:19 02.10.2019
734 Haze 34 1011 36 5000 2.6 90 07:41 02.10.2019
735 Haze 34 1012 49 6000 4.1 10 07:22 02.10.2019
736 Haze 33 1012 49 6000 4.1 10 06:57 02.10.2019
737 Haze 33 1012 46 5000 3.1 10 06:27 02.10.2019
738 Haze 33 1013 52 5000 3.6 100 05:49 02.10.2019
739 Haze 33 1013 52 5000 3.6 100 05:20 02.10.2019
740 Haze 30 1013 66 5000 2.1 120 03:53 02.10.2019
741 Haze 29 1013 69 4000 1.5 150 03:24 02.10.2019
742 Haze 27 1013 74 4000 1 250 02:26 02.10.2019
743 Haze 25 1013 88 3500 1.5 240 01:59 02.10.2019
744 Haze 25 1012 88 4000 1 260 00:52 02.10.2019
745 Haze 25 1011 88 4000 2.77 111.821 00:29 02.10.2019
746 Haze 24 1011 88 4000 1 220 23:55 01.10.2019
747 Haze 25 1011 83 4000 1 230 23:36 01.10.2019
748 Haze 25 1011 83 4500 1.5 230 23:18 01.10.2019
749 Haze 25 1011 83 4500 1.5 230 22:57 01.10.2019
750 Haze 25 1011 78 4500 1 230 22:37 01.10.2019
751 Haze 25 1011 78 4500 1 230 22:18 01.10.2019
752 Haze 26 1011 78 5000 2.1 240 21:42 01.10.2019
753 Haze 26 1011 78 5000 2.1 240 21:22 01.10.2019
754 Haze 26 1012 78 5000 1 0 20:58 01.10.2019
755 Haze 26 1012 74 5000 1 0 20:39 01.10.2019
756 Haze 27 1012 74 5000 1 0 20:20 01.10.2019
757 Haze 26 1012 74 5000 1 210 19:57 01.10.2019
758 Haze 27 1012 69 5000 1 0 19:39 01.10.2019
759 Haze 27 1012 69 5000 1 0 19:21 01.10.2019
760 Haze 26 1012 74 5000 1 350 18:56 01.10.2019
761 Haze 27 1013 74 5000 1 0 18:38 01.10.2019
762 Haze 27 1013 74 5000 1 0 18:19 01.10.2019
763 Haze 28 1013 69 5000 1 0 17:43 01.10.2019
764 Haze 28 1013 69 5000 1 0 17:21 01.10.2019
765 Haze 27 1013 69 5000 1 0 16:59 01.10.2019
766 Clouds 27 1012 69 6000 1 0 16:41 01.10.2019
767 Clouds 28 1012 69 6000 1 0 16:22 01.10.2019
768 Clouds 28 1012 69 6000 1.5 330 15:49 01.10.2019
769 Clouds 28 1012 74 7000 2.1 320 15:25 01.10.2019
770 Clouds 28 1012 69 6000 1.5 320 14:58 01.10.2019
771 Clouds 28 1012 66 7000 2.1 340 14:40 01.10.2019
772 Clouds 28 1012 66 7000 2.1 340 14:19 01.10.2019
773 Clouds 29 1011 66 7000 2.1 360 13:56 01.10.2019
774 Clouds 29 1011 62 7000 4.1 10 13:37 01.10.2019
775 Clouds 29 1011 62 7000 4.1 10 13:18 01.10.2019
776 Clouds 29 1010 58 7000 3.6 10 12:55 01.10.2019
777 -273 0 0 0 0 0 12:55 01.10.2019
778 Clouds 30 1010 52 7000 4.1 360 12:37 01.10.2019
779 Clouds 30 1009 55 6000 3.1 20 12:18 01.10.2019
780 Clouds 30 1009 55 6000 3.1 20 11:54 01.10.2019
781 Clouds 31 1009 58 9000 4.6 360 11:36 01.10.2019
782 Clouds 31 1009 58 9000 4.6 360 11:18 01.10.2019
783 Clouds 32 1009 49 6000 5.1 10 10:44 01.10.2019
784 Clouds 32 1009 49 6000 5.1 10 10:25 01.10.2019
785 Clouds 33 1009 46 6000 6.7 50 09:44 01.10.2019
786 Clouds 33 1009 46 6000 6.7 50 09:25 01.10.2019
787 Clouds 34 1010 44 6000 4.6 360 08:44 01.10.2019
788 Clouds 34 1010 44 6000 4.6 360 08:25 01.10.2019
789 Clouds 34 1010 44 6000 4.1 330 07:50 01.10.2019
790 Clouds 34 1011 44 6000 4.6 10 07:26 01.10.2019
791 Haze 34 1012 38 5000 5.1 80 06:51 01.10.2019
792 Haze 33 1012 38 5000 5.1 80 06:25 01.10.2019
793 Haze 33 1012 43 5000 2.1 240 05:59 01.10.2019
794 Haze 33 1013 46 5000 2.6 230 05:38 01.10.2019
795 Haze 31 1013 55 5000 2.1 90 04:40 01.10.2019
796 Haze 29 1013 65 5000 1.5 90 03:34 01.10.2019
797 Haze 25 1013 69 5000 2.1 200 02:19 01.10.2019
798 Haze 24 1012 73 5000 1.5 210 01:55 01.10.2019
799 Haze 24 1012 78 5000 1.47 144.403 00:44 01.10.2019
800 Haze 24 1012 78 5000 1.47 144.403 00:44 01.10.2019
801 Haze 24 1012 78 5000 1.68 135.625 00:24 01.10.2019
802 Haze 25 1011 73 5000 2.1 200 23:42 30.09.2019
803 Haze 25 1011 73 5000 2.1 200 23:22 30.09.2019
804 Haze 25 1011 73 4600 2.1 210 22:56 30.09.2019
805 Haze 25 1012 78 3900 1.5 220 22:37 30.09.2019
806 Haze 25 1012 78 3900 1.5 220 22:19 30.09.2019
807 Haze 26 1012 74 3700 1.5 220 21:55 30.09.2019
808 Haze 26 1012 78 2500 1.5 230 21:36 30.09.2019
809 Haze 26 1012 78 2500 1.5 230 21:18 30.09.2019
810 Haze 26 1012 74 3000 1.5 230 20:54 30.09.2019
811 Haze 26 1012 74 3000 2.1 250 20:36 30.09.2019
812 Haze 26 1012 74 3000 2.1 250 20:18 30.09.2019
813 Haze 26 1012 74 2500 1 240 19:54 30.09.2019
814 Haze 26 1012 74 2500 1.5 250 19:36 30.09.2019
815 Haze 26 1013 74 2500 1 250 19:18 30.09.2019
816 Haze 26 1013 74 2500 1 240 18:41 30.09.2019
817 Haze 26 1013 69 3000 1 0 18:21 30.09.2019
818 Haze 27 1013 69 3000 1 0 17:57 30.09.2019
819 Haze 27 1013 69 3000 1 0 17:57 30.09.2019
820 Haze 27 1013 69 2500 1 350 17:39 30.09.2019
821 Haze 27 1013 69 2500 1 350 17:19 30.09.2019
822 Haze 26 1013 74 3000 1 280 16:54 30.09.2019
823 Haze 27 1013 69 3500 1.5 300 16:36 30.09.2019
824 Haze 27 1013 69 3500 1.5 300 16:18 30.09.2019
825 Haze 27 1012 65 4000 2.6 280 15:39 30.09.2019
826 Haze 27 1012 65 4000 2.6 280 15:39 30.09.2019
827 Haze 28 1012 65 4000 2.6 280 15:20 30.09.2019
828 Haze 28 1012 58 5000 3.6 260 14:59 30.09.2019
829 Clouds 29 1011 45 6000 3.1 40 14:38 30.09.2019
830 Clouds 29 1011 45 6000 3.1 40 14:19 30.09.2019
831 Clouds 30 1011 55 8000 2.1 30 14:00 30.09.2019
832 Clouds 30 1011 42 6000 2.6 50 13:41 30.09.2019
833 Clouds 31 1011 45 8000 3.6 60 13:22 30.09.2019
834 Clouds 31 1011 45 8000 3.6 60 12:56 30.09.2019
835 Clouds 31 1009 35 7000 4.6 40 12:38 30.09.2019
836 Clouds 32 1010 43 8000 6.7 50 12:18 30.09.2019
837 Clouds 32 1009 29 7000 4.6 60 11:43 30.09.2019
838 Clouds 32 1009 29 7000 4.6 60 11:21 30.09.2019
839 Clouds 34 1010 34 8000 9.3 60 10:58 30.09.2019
840 Clouds 34 1009 28 7000 6.7 50 10:38 30.09.2019
841 Clouds 33 1009 28 7000 6.7 50 10:18 30.09.2019
842 Clouds 33 1009 38 8000 9.8 60 09:57 30.09.2019
843 Clouds 34 1009 32 7000 6.7 50 09:38 30.09.2019
844 Clouds 34 1009 32 7000 6.7 50 09:18 30.09.2019
845 Clouds 33 1010 36 6000 6.2 30 08:46 30.09.2019
846 Clouds 33 1010 36 6000 6.2 30 08:27 30.09.2019
847 Clouds 33 1011 41 6000 5.7 50 07:40 30.09.2019
848 Haze 33 1012 55 6000 4.1 40 07:20 30.09.2019
849 Haze 33 1012 44 5000 2.6 110 06:50 30.09.2019
850 Haze 33 1012 44 5000 2.6 110 06:31 30.09.2019
851 Haze 33 1013 52 5000 3.1 170 05:45 30.09.2019
852 Haze 28 1013 69 4000 2.1 180 02:55 30.09.2019
853 Haze 27 1013 83 4000 1.5 200 02:37 30.09.2019
854 Haze 25 1012 83 4000 2.59 193.463 01:31 30.09.2019
855 Haze 25 1012 88 4000 2.59 193.463 00:38 30.09.2019
856 Haze 25 1012 88 4000 1.58 128.96 00:20 30.09.2019
857 Haze 25 1012 83 5000 1.58 128.96 23:44 29.09.2019
858 Haze 25 1012 83 5000 1.58 128.96 23:21 29.09.2019
859 Haze 25 1012 78 4500 1.5 0 22:55 29.09.2019
860 Haze 25 1012 78 4000 1.5 250 22:36 29.09.2019
861 Haze 25 1012 78 4000 1.5 250 22:18 29.09.2019
862 Haze 26 1012 74 4000 1.5 0 21:56 29.09.2019
863 Haze 26 1012 74 4000 1.5 240 21:37 29.09.2019
864 Haze 26 1012 74 4000 1.5 240 21:18 29.09.2019
865 Haze 27 1012 69 5000 1.5 280 20:43 29.09.2019
866 Haze 27 1012 69 5000 1.5 280 20:20 29.09.2019
867 Haze 27 1013 74 5000 1 260 19:58 29.09.2019
868 Clouds 27 1013 69 6000 1 240 19:37 29.09.2019
869 Clouds 27 1013 69 6000 1 0 19:19 29.09.2019
870 Clouds 27 1013 69 6000 1 0 18:56 29.09.2019
871 Clouds 27 1013 69 6000 1 0 18:56 29.09.2019
872 Clouds 27 1013 69 6000 1.5 0 18:56 29.09.2019
873 Clouds 27 1013 69 6000 1.5 0 18:56 29.09.2019
874 Clouds 27 1013 69 6000 1 0 18:56 29.09.2019
875 Clouds 27 1013 69 6000 1.5 0 18:38 29.09.2019
876 Clouds 27 1013 69 6000 2.1 0 18:19 29.09.2019
877 Clouds 28 1013 69 6000 2.1 0 17:57 29.09.2019
878 Clouds 28 1013 74 6000 2.48 32.101 17:38 29.09.2019
879 Clouds 28 1013 74 6000 2.48 32.101 17:19 29.09.2019
880 Clouds 28 1013 69 6000 2.6 0 16:58 29.09.2019
881 Clouds 28 1013 69 6000 2.6 0 16:58 29.09.2019
882 Clouds 28 1013 74 6000 2.6 260 16:39 29.09.2019
883 Clouds 28 1013 74 6000 2.6 260 16:19 29.09.2019
884 Clouds 28 1013 74 6000 2.6 260 16:19 29.09.2019
885 Clouds 27 1012 74 6000 2.1 0 15:56 29.09.2019
886 Clouds 27 1012 74 6000 3.6 250 15:36 29.09.2019
887 Clouds 27 1012 74 6000 3.6 250 15:18 29.09.2019
888 Clouds 28 1012 70 6000 2.6 0 14:55 29.09.2019
889 Clouds 28 1012 69 6000 2.6 200 14:36 29.09.2019
890 Clouds 28 1011 69 6000 3.1 210 14:18 29.09.2019
891 Haze 28 1010 66 5000 3.1 200 13:41 29.09.2019
892 Clouds 29 1010 55 6000 3.1 30 13:19 29.09.2019
893 Clouds 29 1010 55 6000 3.1 30 12:58 29.09.2019
894 Clouds 30 1010 49 6000 3.6 70 12:40 29.09.2019
895 Clouds 30 1009 46 6000 5.1 60 12:21 29.09.2019
896 Clouds 30 1009 46 6000 5.1 60 11:57 29.09.2019
897 Clouds 31 1009 49 6000 6.2 40 11:39 29.09.2019
898 Clouds 31 1009 49 6000 6.2 40 11:18 29.09.2019
899 Clouds 31 1009 49 6000 6.7 10 10:57 29.09.2019
900 Clouds 32 1009 44 6000 7.7 20 10:36 29.09.2019
901 Clouds 32 1009 44 6000 7.7 20 10:18 29.09.2019
902 Clouds 33 1010 44 6000 5.1 40 09:45 29.09.2019
903 Clouds 33 1010 44 6000 5.1 40 09:21 29.09.2019
904 Clouds 33 1010 49 6000 4.1 30 08:58 29.09.2019
905 Clouds 33 1010 52 6000 4.1 80 08:39 29.09.2019
906 Clouds 33 1010 52 6000 4.1 80 08:20 29.09.2019
907 Haze 33 1011 55 5000 3.1 20 07:43 29.09.2019
908 Haze 33 1011 55 5000 3.1 20 07:24 29.09.2019
909 Haze 33 1011 55 5000 3.1 20 07:24 29.09.2019
910 Haze 33 1012 52 5000 3.6 30 06:42 29.09.2019
911 Haze 33 1013 52 5000 2.6 50 05:23 29.09.2019
912 Haze 31 1014 66 4000 2.1 70 04:38 29.09.2019
913 Haze 30 1014 70 4000 1.5 250 04:18 29.09.2019
914 Haze 28 1013 65 5000 2.1 200 02:47 29.09.2019
915 Haze 26 1013 78 5000 1.5 0 02:18 29.09.2019
916 Haze 25 1012 88 3000 1.66 155.802 01:32 29.09.2019
917 Haze 25 1012 78 4000 2.1 210 00:52 29.09.2019
918 Haze 25 1012 88 3000 2.39 105.346 00:21 29.09.2019
919 Haze 25 1012 88 3000 2.39 105.346 00:21 29.09.2019
920 Haze 25 1012 78 3000 1 250 23:44 28.09.2019
921 Haze 26 1012 78 3000 1 250 23:23 28.09.2019
922 Haze 26 1012 78 4000 1 230 22:59 28.09.2019
923 Haze 26 1011 78 4000 1 240 22:38 28.09.2019
924 Haze 26 1011 78 4000 1 240 22:38 28.09.2019
925 Haze 26 1011 78 4000 1 240 22:20 28.09.2019
926 Haze 25 1011 83 5000 1.5 250 21:57 28.09.2019
927 Haze 26 1011 78 5000 1.5 0 21:38 28.09.2019
928 Haze 26 1011 78 5000 1.5 0 21:20 28.09.2019
929 Haze 26 1011 74 5000 1.5 220 20:57 28.09.2019
930 Haze 26 1011 78 5000 1.5 220 20:38 28.09.2019
931 Haze 26 1011 78 5000 1.5 220 20:18 28.09.2019
932 Clouds 26 1012 74 6000 2.1 210 19:56 28.09.2019
933 Haze 26 1012 74 5000 2.1 210 19:37 28.09.2019
934 Haze 26 1012 74 5000 2.1 260 19:19 28.09.2019
935 Clouds 26 1013 74 6000 1.5 0 18:43 28.09.2019
936 Clouds 26 1013 88 7000 1.5 0 18:22 28.09.2019
937 Clouds 26 1013 88 7000 1.5 0 18:00 28.09.2019
938 Clouds 26 1013 88 7000 1.5 0 18:00 28.09.2019
939 Clouds 27 1013 74 8000 1.5 0 17:41 28.09.2019
940 Clouds 27 1013 74 8000 1.5 0 17:22 28.09.2019
941 Clouds 27 1013 78 7000 2.1 0 16:57 28.09.2019
942 Clouds 27 1012 78 8000 1.5 0 16:38 28.09.2019
943 Clouds 28 1012 78 8000 1.5 0 16:20 28.09.2019
944 Clouds 28 1012 74 8000 1 0 15:40 28.09.2019
945 Clouds 28 1012 74 8000 1 0 15:22 28.09.2019
946 Clouds 28 1012 74 8000 2.6 0 14:55 28.09.2019
947 Clouds 29 1011 58 6000 4.6 80 14:37 28.09.2019
948 Clouds 29 1011 58 6000 4.6 80 14:37 28.09.2019
949 Clouds 29 1011 58 6000 4.6 80 14:19 28.09.2019
950 -273 0 0 0 0 0 13:54 28.09.2019
951 Clouds 29 1010 62 5000 2.6 60 13:36 28.09.2019
952 Clouds 29 1010 66 8000 5.7 30 13:18 28.09.2019
953 Clouds 30 1009 58 6000 3.6 30 12:39 28.09.2019
954 Clouds 30 1009 62 9000 5.7 30 12:18 28.09.2019
955 Clouds 31 1009 52 6000 5.1 20 11:42 28.09.2019
956 Clouds 31 1009 52 6000 5.1 20 11:21 28.09.2019
957 Haze 32 1009 52 9000 5.7 30 10:59 28.09.2019
958 Haze 32 1009 52 5000 4.6 350 10:39 28.09.2019
959 Haze 32 1009 52 5000 4.6 350 10:19 28.09.2019
960 Haze 33 1009 52 5000 3.1 50 09:42 28.09.2019
961 Haze 33 1009 52 5000 3.1 50 09:22 28.09.2019
962 Clouds 33 1010 49 9000 6.7 30 08:55 28.09.2019
963 Clouds 34 1010 46 9000 3.6 40 08:37 28.09.2019
964 Clouds 34 1010 46 9000 3.6 40 08:18 28.09.2019
965 Haze 34 1011 46 4000 2.6 70 07:43 28.09.2019
966 Haze 33 1012 49 8000 3.6 90 07:19 28.09.2019
967 Haze 33 1012 49 8000 3.6 90 06:51 28.09.2019
968 Haze 33 1012 46 5000 6.2 60 06:30 28.09.2019
969 Haze 32 1013 49 4000 2.6 80 05:41 28.09.2019
970 Haze 32 1013 49 4000 2.6 80 05:19 28.09.2019
971 Haze 30 1014 62 7000 1 0 04:37 28.09.2019
972 Haze 30 1014 62 6000 1.5 0 03:48 28.09.2019
973 Haze 29 1013 70 5000 1.22 167.859 03:20 28.09.2019
974 Haze 28 1013 69 5000 1.5 180 02:43 28.09.2019
975 Haze 27 1013 69 5000 1.5 180 02:25 28.09.2019
976 Haze 27 1012 69 4000 1.5 230 01:46 28.09.2019
977 Haze 26 1012 74 5000 1.5 220 01:24 28.09.2019
978 Clouds 26 1012 78 6000 1.37 168.28 00:49 28.09.2019
979 Clouds 26 1012 78 6000 1.37 168.28 00:30 28.09.2019
980 Clouds 27 1011 69 6000 1.5 170 23:41 27.09.2019
981 Clouds 27 1011 69 6000 1.5 170 23:22 27.09.2019
982 Haze 27 1011 74 5000 2.6 210 22:59 27.09.2019
983 Haze 27 1011 74 5000 2.1 70 22:41 27.09.2019
984 Haze 27 1011 74 5000 2.1 70 22:18 27.09.2019
985 Haze 27 1011 74 5000 2.1 70 22:18 27.09.2019
986 Haze 28 1011 69 5000 2.1 80 21:55 27.09.2019
987 Haze 26 1012 74 5000 2.6 60 21:36 27.09.2019
988 Haze 26 1012 69 5000 2.1 70 21:18 27.09.2019
989 Haze 27 1012 69 5000 2.1 70 20:55 27.09.2019
990 Haze 27 1012 69 5000 2.6 60 20:36 27.09.2019
991 Haze 27 1012 69 5000 2.6 60 20:18 27.09.2019
992 Clouds 27 1013 69 6000 3.6 50 19:42 27.09.2019
993 Clouds 27 1013 69 6000 3.6 50 19:23 27.09.2019
994 Clouds 27 1013 69 6000 3.1 50 18:57 27.09.2019
995 Clouds 27 1013 74 6000 2.1 70 18:38 27.09.2019
996 Clouds 26 1013 69 6000 2.6 30 18:20 27.09.2019
997 Clouds 27 1013 65 6000 3.1 40 17:40 27.09.2019
998 Clouds 27 1013 65 6000 3.1 40 17:40 27.09.2019
999 Clouds 27 1013 65 6000 3.1 40 17:22 27.09.2019
1000 Clouds 27 1013 65 6000 3.1 40 17:22 27.09.2019
1001 Clouds 27 1013 69 6000 1 0 16:59 27.09.2019
1002 Clouds 27 1013 65 6000 1 0 16:41 27.09.2019
1003 Clouds 28 1013 65 6000 1 0 16:20 27.09.2019
1004 Clouds 28 1013 65 6000 1 0 16:20 27.09.2019
1005 Clouds 28 1013 65 7000 1.5 0 15:58 27.09.2019
1006 Clouds 28 1013 58 6000 1.5 50 15:39 27.09.2019
1007 Clouds 28 1013 58 6000 1.5 50 15:19 27.09.2019
1008 Clouds 29 1012 55 6000 2.6 30 14:56 27.09.2019
1009 Clouds 29 1012 51 6000 3.1 30 14:37 27.09.2019
1010 Clouds 29 1012 48 6000 5.1 50 14:18 27.09.2019
1011 Clouds 30 1011 45 6000 6.7 40 13:42 27.09.2019
1012 Clouds 30 1011 45 6000 6.7 40 13:22 27.09.2019
1013 Clouds 30 1011 43 6000 7.7 30 12:59 27.09.2019
1014 Clouds 30 1010 40 6000 7.7 40 12:41 27.09.2019
1015 Clouds 31 1010 38 7000 8.2 40 12:20 27.09.2019
1016 Clouds 31 1010 38 7000 8.2 40 12:20 27.09.2019
1017 Clouds 32 1009 38 7000 7.2 60 11:40 27.09.2019
1018 Clouds 32 1009 38 7000 7.2 60 11:40 27.09.2019
1019 Clouds 32 1009 38 7000 7.2 60 11:22 27.09.2019
1020 Clouds 32 1009 36 7000 7.7 30 10:58 27.09.2019
1021 Clouds 32 1009 36 7000 7.7 20 10:40 27.09.2019
1022 Clouds 33 1009 36 7000 7.7 20 10:20 27.09.2019
1023 Clouds 32 1010 55 10000 6.2 20 09:43 27.09.2019
1024 Clouds 33 1010 55 10000 6.2 20 09:22 27.09.2019
1025 Clouds 33 1010 52 10000 5.1 30 08:58 27.09.2019
1026 Clouds 33 1010 39 6000 6.7 80 08:39 27.09.2019
1027 Clouds 34 1010 39 6000 6.7 80 08:20 27.09.2019
1028 Clouds 34 1011 39 6000 3.1 80 07:46 27.09.2019
1029 Clouds 34 1012 41 6000 3.1 110 07:23 27.09.2019
1030 Haze 34 1012 44 5000 5.1 70 06:43 27.09.2019
1031 Haze 33 1012 44 5000 5.1 70 06:24 27.09.2019
1032 Haze 33 1013 49 5000 2.6 120 05:51 27.09.2019
1033 Haze 33 1013 49 5000 4.6 120 05:32 27.09.2019
1034 Haze 29 1014 66 5000 1.5 160 03:56 27.09.2019
1035 Haze 29 1014 70 4000 2.35 30.035 03:34 27.09.2019
1036 Haze 26 1013 78 4000 1.5 250 01:52 27.09.2019
1037 Haze 25 1013 88 4000 2.67 188.999 01:28 27.09.2019
1038 Haze 25 1012 88 4000 2.67 188.999 00:30 27.09.2019
1039 Haze 25 1012 83 4000 3.1 230 23:56 26.09.2019
1040 Haze 25 1012 83 4000 0.99 118.124 23:38 26.09.2019
1041 Haze 25 1012 83 4000 0.99 118.124 23:18 26.09.2019
1042 Haze 25 1012 83 4000 0.99 118.124 23:18 26.09.2019
1043 Haze 26 1012 78 3300 2.1 240 22:57 26.09.2019
1044 Haze 26 1012 78 3000 2.6 230 22:39 26.09.2019
1045 Haze 26 1012 78 3000 2.6 230 22:18 26.09.2019
1046 Haze 26 1012 78 3000 1.5 260 21:56 26.09.2019
1047 Haze 27 1012 74 3600 2.1 260 21:37 26.09.2019
1048 Haze 27 1012 74 3600 2.1 260 21:18 26.09.2019
1049 Haze 27 1013 74 2400 1.5 270 20:58 26.09.2019
1050 Haze 27 1013 74 2500 1.5 280 20:39 26.09.2019
1051 Haze 26 1013 74 2500 1.5 280 20:21 26.09.2019
1052 Haze 26 1013 74 3800 1 250 19:41 26.09.2019
1053 Haze 26 1013 74 3800 1 250 19:21 26.09.2019
1054 Haze 26 1013 74 3800 1 250 18:59 26.09.2019
1055 Haze 27 1013 69 5000 1 0 18:41 26.09.2019
1056 Haze 27 1013 69 5000 1 0 18:22 26.09.2019
1057 Haze 27 1013 69 4000 1.5 0 17:59 26.09.2019
1058 Haze 27 1013 69 4500 2.6 0 17:37 26.09.2019
1059 Haze 27 1013 69 4500 2.6 0 17:19 26.09.2019
1060 Haze 27 1013 78 4300 2.1 0 16:55 26.09.2019
1061 Haze 27 1013 78 3400 1.5 350 16:37 26.09.2019
1062 Haze 27 1013 78 3400 1.5 350 16:18 26.09.2019
1063 Haze 28 1013 70 4900 1.5 310 15:42 26.09.2019
1064 Haze 28 1013 70 4900 1.5 310 15:23 26.09.2019
1065 Clouds 29 1012 70 6000 1 310 14:59 26.09.2019
1066 Clouds 29 1011 58 6000 3.6 20 14:40 26.09.2019
1067 Clouds 29 1011 58 6000 3.6 20 14:21 26.09.2019
1068 Clouds 29 1011 70 7000 2.6 30 13:57 26.09.2019
1069 Clouds 29 1010 52 6000 5.1 70 13:39 26.09.2019
1070 Clouds 29 1010 52 6000 5.1 70 13:39 26.09.2019
1071 Clouds 29 1010 52 6000 5.1 70 13:39 26.09.2019
1072 Clouds 30 1010 66 8000 4.6 40 13:19 26.09.2019
1073 Clouds 30 1010 46 7000 4.1 40 12:43 26.09.2019
1074 Clouds 30 1010 46 7000 4.1 40 12:22 26.09.2019
1075 Clouds 31 1010 62 9000 5.7 50 11:57 26.09.2019
1076 Clouds 31 1009 41 7000 6.2 70 11:39 26.09.2019
1077 Clouds 32 1009 41 7000 6.2 70 11:19 26.09.2019
1078 Clouds 32 1009 41 7000 6.2 70 11:19 26.09.2019
1079 Clouds 32 1009 39 7000 6.2 30 10:42 26.09.2019
1080 Clouds 32 1009 39 7000 6.2 30 10:23 26.09.2019
1081 Clouds 34 1010 46 9000 7.2 50 09:58 26.09.2019
1082 Clouds 34 1009 34 7000 6.2 50 09:40 26.09.2019
1083 Clouds 34 1009 34 7000 6.2 50 09:19 26.09.2019
1084 Clouds 33 1010 52 8000 7.7 50 08:51 26.09.2019
1085 Clouds 34 1011 49 7000 7.7 50 08:31 26.09.2019
1086 Clouds 34 1011 39 6000 5.1 110 07:47 26.09.2019
1087 Clouds 35 1011 39 6000 5.1 110 07:22 26.09.2019
1088 Clouds 34 1012 49 8000 6.7 70 06:53 26.09.2019
1089 Clouds 34 1012 44 6000 4.1 100 06:28 26.09.2019
1090 Haze 33 1012 52 7000 4.1 100 05:59 26.09.2019
1091 Haze 33 1013 52 5000 3.6 120 05:29 26.09.2019
1092 Haze 30 1014 66 4000 2.1 80 03:51 26.09.2019
1093 Haze 27 1013 88 3000 2.1 220 02:25 26.09.2019
1094 Haze 26 1012 94 3000 3.78 111.427 01:48 26.09.2019
1095 Haze 26 1012 88 3000 3.09 129.198 01:22 26.09.2019
1096 Haze 25 1012 94 3000 3.09 129.198 00:45 26.09.2019
1097 Haze 26 1012 94 3000 2.92 103.014 00:25 26.09.2019
1098 Haze 26 1012 88 4000 2.92 103.014 23:43 25.09.2019
1099 Haze 26 1012 88 4000 2.92 103.014 23:23 25.09.2019
1100 Clouds 26 1011 78 6000 2.6 120 22:56 25.09.2019
1101 Haze 26 1011 78 5000 1 0 22:37 25.09.2019
1102 Haze 26 1011 83 5000 1 0 22:18 25.09.2019
1103 Haze 26 1011 83 5000 1 0 22:18 25.09.2019
1104 Haze 26 1011 83 5000 1 0 21:56 25.09.2019
1105 Haze 26 1011 83 5000 2.6 100 21:37 25.09.2019
1106 Clouds 26 1012 78 6000 3.1 120 21:18 25.09.2019
1107 Clouds 26 1012 78 6000 3.1 120 20:56 25.09.2019
1108 Clouds 27 1012 78 6000 2.6 110 20:37 25.09.2019
1109 Clouds 27 1012 78 7000 3.6 80 20:18 25.09.2019
1110 Clouds 27 1012 74 7000 4.1 80 19:40 25.09.2019
1111 Clouds 27 1012 74 7000 3.6 90 19:21 25.09.2019
1112 Clouds 27 1012 74 7000 3.6 90 18:56 25.09.2019
1113 Clouds 27 1013 74 7000 3.6 80 18:38 25.09.2019
1114 Clouds 27 1013 74 7000 3.6 80 18:20 25.09.2019
1115 Clouds 27 1013 74 8000 4.1 80 17:40 25.09.2019
1116 Clouds 27 1013 74 8000 4.1 80 17:22 25.09.2019
1117 Clouds 27 1013 74 8000 4.1 80 16:59 25.09.2019
1118 Clouds 27 1013 74 8000 5.1 90 16:41 25.09.2019
1119 Clouds 27 1013 74 8000 5.1 90 16:23 25.09.2019
1120 Clouds 27 1012 74 8000 4.1 80 15:56 25.09.2019
1121 Clouds 27 1012 74 8000 4.1 80 15:56 25.09.2019
1122 Clouds 27 1012 78 8000 4.6 60 15:38 25.09.2019
1123 Clouds 28 1012 78 8000 4.6 60 15:19 25.09.2019
1124 Clouds 28 1012 70 6000 4.1 50 14:42 25.09.2019
1125 Clouds 28 1012 70 6000 4.1 50 14:22 25.09.2019
1126 Clouds 28 1011 70 6000 3.1 70 13:58 25.09.2019
1127 Clouds 28 1011 70 6000 5.1 30 13:40 25.09.2019
1128 Clouds 28 1011 70 6000 5.1 30 13:20 25.09.2019
1129 Clouds 29 1010 62 6000 6.2 20 12:57 25.09.2019
1130 Clouds 29 1010 55 6000 7.2 30 12:37 25.09.2019
1131 Clouds 30 1009 55 6000 7.2 40 12:19 25.09.2019
1132 Clouds 30 1009 55 6000 7.7 10 11:41 25.09.2019
1133 Clouds 31 1009 55 6000 7.7 10 11:20 25.09.2019
1134 Clouds 32 1008 46 6000 5.1 50 10:48 25.09.2019
1135 Clouds 32 1008 46 6000 5.1 50 10:27 25.09.2019
1136 Haze 32 1009 55 9000 6.2 50 09:59 25.09.2019
1137 Haze 33 1009 52 5000 4.1 350 09:41 25.09.2019
1138 Haze 33 1009 52 5000 4.1 350 09:23 25.09.2019
1139 Haze 33 1009 49 5000 4.1 10 08:59 25.09.2019
1140 Haze 33 1009 49 4000 4.1 40 08:40 25.09.2019
1141 Haze 33 1009 49 4000 4.1 40 08:20 25.09.2019
1142 Haze 33 1010 49 4000 2.6 330 07:41 25.09.2019
1143 Haze 33 1011 52 8000 4.6 360 07:23 25.09.2019
1144 Haze 33 1011 52 8000 4.6 360 06:56 25.09.2019
1145 Haze 33 1011 46 4000 2.6 300 06:36 25.09.2019
1146 Haze 32 1012 58 4000 2.1 60 05:43 25.09.2019
1147 Haze 32 1012 58 4000 2.1 60 05:19 25.09.2019
1148 Haze 29 1012 69 4000 1.5 180 03:21 25.09.2019
1149 Haze 25 1012 83 3000 2.09 167.073 01:36 25.09.2019
1150 Haze 25 1011 83 5000 2.21 146.777 00:41 25.09.2019
1151 Haze 25 1011 83 5000 3.03 124.645 00:22 25.09.2019
1152 Haze 25 1011 78 3000 2.1 260 23:43 24.09.2019
1153 Haze 25 1011 78 3000 2.1 260 23:22 24.09.2019
1154 Haze 25 1011 78 3000 1.5 280 22:58 24.09.2019
1155 Haze 25 1011 78 4000 1 280 22:38 24.09.2019
1156 Haze 25 1011 78 4000 1 280 22:19 24.09.2019
1157 Haze 25 1011 78 4000 1 280 21:55 24.09.2019
1158 Haze 25 1011 78 4000 1.5 300 21:37 24.09.2019
1159 Haze 26 1011 74 5000 1 0 21:18 24.09.2019
1160 Haze 26 1011 74 5000 1 0 21:18 24.09.2019
1161 Haze 26 1011 74 5000 1 0 20:56 24.09.2019
1162 Haze 26 1012 74 5000 1.5 300 20:38 24.09.2019
1163 Haze 26 1012 74 5000 1 0 20:19 24.09.2019
1164 Haze 26 1012 74 5000 2.1 130 19:43 24.09.2019
1165 Haze 26 1012 74 5000 2.1 130 19:21 24.09.2019
1166 Haze 26 1012 74 5000 2.1 130 18:58 24.09.2019
1167 Clouds 27 1013 69 6000 2.6 110 18:39 24.09.2019
1168 Clouds 27 1013 69 6000 3.1 140 18:20 24.09.2019
1169 Clouds 27 1013 69 6000 3.1 140 17:57 24.09.2019
1170 Clouds 27 1013 69 6000 3.6 120 17:38 24.09.2019
1171 Clouds 27 1013 69 6000 3.6 120 17:20 24.09.2019
1172 Clouds 27 1013 69 7000 4.6 120 16:42 24.09.2019
1173 Clouds 28 1013 69 7000 4.6 120 16:21 24.09.2019
1174 Clouds 28 1013 65 7000 4.6 110 15:59 24.09.2019
1175 Clouds 28 1012 69 6000 3.1 90 15:41 24.09.2019
1176 Clouds 28 1012 69 6000 3.1 90 15:22 24.09.2019
1177 Clouds 28 1012 66 6000 3.6 100 14:40 24.09.2019
1178 Clouds 28 1012 66 6000 3.6 100 14:19 24.09.2019
1179 Clouds 28 1011 70 7000 7.2 80 13:55 24.09.2019
1180 Clouds 29 1011 62 6000 5.1 60 13:37 24.09.2019
1181 Clouds 29 1011 62 6000 5.1 60 13:18 24.09.2019
1182 Clouds 29 1010 66 8000 7.7 70 12:39 24.09.2019
1183 Clouds 30 1009 66 8000 8.2 60 12:18 24.09.2019
1184 Clouds 31 1009 55 6000 6.2 60 11:43 24.09.2019
1185 Clouds 31 1009 55 6000 6.2 60 11:43 24.09.2019
1186 Clouds 31 1009 55 6000 6.2 60 11:22 24.09.2019
1187 Clouds 32 1009 58 6000 9.3 60 10:57 24.09.2019
1188 Clouds 32 1009 49 6000 5.7 70 10:38 24.09.2019
1189 Clouds 33 1009 55 7000 9.8 70 10:19 24.09.2019
1190 Clouds 33 1009 46 6000 5.7 60 09:46 24.09.2019
1191 Clouds 34 1009 46 6000 5.7 60 09:27 24.09.2019
1192 Clouds 34 1009 49 7000 8.2 50 08:58 24.09.2019
1193 Clouds 35 1009 36 6000 5.1 70 08:40 24.09.2019
1194 Clouds 35 1009 36 6000 5.1 70 08:21 24.09.2019
1195 Clouds 34 1010 46 8000 6.7 70 07:57 24.09.2019
1196 Clouds 34 1010 38 6000 5.1 90 07:37 24.09.2019
1197 Clouds 34 1011 52 9000 6.7 70 07:18 24.09.2019
1198 Clouds 33 1012 52 9000 6.7 60 06:37 24.09.2019
1199 Haze 33 1012 52 7000 6.7 70 05:53 24.09.2019
1200 Haze 32 1013 49 5000 3.1 90 05:21 24.09.2019
1201 Haze 29 1013 69 4000 1.5 140 03:46 24.09.2019
1202 Haze 28 1013 69 4000 1.5 140 03:22 24.09.2019
1203 Haze 27 1013 78 3000 1.5 210 02:43 24.09.2019
1204 Haze 26 1012 74 6000 3.6 130 01:41 24.09.2019
1205 Haze 25 1011 94 4000 4.9 104.507 00:41 24.09.2019
1206 Haze 25 1011 94 4000 4.99 99.795 00:22 24.09.2019
1207 Haze 26 1011 88 4000 4.99 99.795 23:41 23.09.2019
1208 Haze 26 1011 88 4000 4.99 99.795 23:22 23.09.2019
1209 Clouds 26 1011 78 6000 3.1 120 22:41 23.09.2019
1210 Clouds 26 1011 78 6000 3.1 120 22:21 23.09.2019
1211 Clouds 26 1011 78 8000 3.6 110 21:59 23.09.2019
1212 Clouds 26 1011 78 8000 3.1 120 21:41 23.09.2019
1213 Clouds 26 1011 78 8000 3.1 120 21:41 23.09.2019
1214 Clouds 26 1011 78 8000 3.1 120 21:41 23.09.2019
1215 Clouds 26 1011 78 8000 3.1 120 21:20 23.09.2019
1216 Clouds 26 1011 78 8000 3.1 120 21:20 23.09.2019
1217 Clouds 26 1011 78 8000 4.1 110 20:59 23.09.2019
1218 Clouds 26 1011 74 8000 4.6 120 20:39 23.09.2019
1219 Clouds 27 1011 74 8000 4.6 120 20:19 23.09.2019
1220 Clouds 26 1012 78 8000 3.1 130 19:40 23.09.2019
1221 Clouds 26 1012 78 8000 3.1 130 19:22 23.09.2019
1222 Clouds 26 1012 78 8000 3.1 130 18:59 23.09.2019
1223 Clouds 26 1012 83 8000 3.6 110 18:41 23.09.2019
1224 Clouds 26 1012 83 8000 3.6 110 18:41 23.09.2019
1225 Clouds 26 1012 78 8000 4.1 120 18:19 23.09.2019
1226 Clouds 26 1012 78 8000 4.1 120 17:56 23.09.2019
1227 Clouds 26 1012 78 8000 4.1 120 17:56 23.09.2019
1228 Clouds 26 1012 74 8000 4.6 120 17:38 23.09.2019
1229 Clouds 27 1012 74 8000 4.6 120 17:20 23.09.2019
1230 Clouds 26 1013 78 8000 5.7 100 16:57 23.09.2019
1231 Clouds 26 1012 78 8000 5.1 80 16:36 23.09.2019
1232 Clouds 26 1012 78 8000 5.1 80 16:36 23.09.2019
1233 Clouds 27 1012 74 8000 6.2 80 16:18 23.09.2019
1234 Clouds 27 1012 74 8000 6.2 80 15:56 23.09.2019
1235 Clouds 27 1012 74 8000 6.2 80 15:56 23.09.2019
1236 Clouds 27 1012 78 7000 6.2 90 15:38 23.09.2019
1237 Clouds 27 1012 74 7000 6.2 80 15:18 23.09.2019
1238 Clouds 28 1011 78 6000 4.1 60 14:40 23.09.2019
1239 Clouds 28 1011 74 6000 4.1 40 14:20 23.09.2019
1240 Clouds 28 1011 74 6000 4.1 40 13:58 23.09.2019
1241 Clouds 28 1010 70 6000 5.1 50 13:38 23.09.2019
1242 Clouds 29 1010 62 6000 5.7 70 13:18 23.09.2019
1243 Clouds 29 1010 62 6000 5.7 70 13:18 23.09.2019
1244 Clear 30 1010 62 6000 6.2 40 12:46 23.09.2019
1245 Clear 30 1010 62 6000 6.2 40 12:23 23.09.2019
1246 Clear 30 1010 62 6000 6.2 40 12:23 23.09.2019
1247 Clouds 31 1010 66 7000 6.2 60 11:58 23.09.2019
1248 Clear 31 1009 52 6000 7.7 50 11:40 23.09.2019
1249 Clear 31 1009 52 6000 7.7 50 11:22 23.09.2019
1250 Clouds 32 1009 46 6000 8.7 40 10:49 23.09.2019
1251 Clouds 32 1009 44 6000 8.7 30 10:22 23.09.2019
1252 Clouds 32 1009 49 6000 8.7 50 09:59 23.09.2019
1253 Clouds 32 1010 49 6000 7.7 70 09:38 23.09.2019
1254 Clouds 32 1010 49 6000 7.7 70 09:19 23.09.2019
1255 Clouds 33 1010 49 6000 8.7 70 08:47 23.09.2019
1256 Clouds 33 1010 46 6000 8.7 60 08:28 23.09.2019
1257 Haze 33 1010 44 5000 7.2 70 07:57 23.09.2019
1258 Haze 33 1011 46 5000 7.7 30 07:28 23.09.2019
1259 Haze 33 1011 46 5000 7.2 80 06:37 23.09.2019
1260 Haze 32 1012 49 5000 5.1 80 05:51 23.09.2019
1261 Haze 32 1012 49 5000 5.1 80 05:21 23.09.2019
1262 Haze 31 1013 52 4000 5.1 120 04:54 23.09.2019
1263 Haze 26 1013 78 3000 5.16 94.331 02:42 23.09.2019
1264 Haze 26 1012 69 6000 3.1 110 01:18 23.09.2019
1265 Haze 25 1012 88 5000 4.47 97.51 00:23 23.09.2019
1266 Mist 25 1011 74 5000 2.6 120 23:56 22.09.2019
1267 Mist 25 1011 83 6000 4.47 97.51 23:33 22.09.2019
1268 Haze 26 1011 78 3400 1.5 0 22:58 22.09.2019
1269 Haze 25 1011 78 3200 1 0 22:40 22.09.2019
1270 Haze 25 1011 78 3200 1 0 22:22 22.09.2019
1271 Haze 25 1011 74 3000 1 270 21:43 22.09.2019
1272 Haze 25 1011 74 3000 1 270 21:23 22.09.2019
1273 Haze 26 1011 74 5000 1.5 230 20:59 22.09.2019
1274 Haze 26 1011 74 5000 2.1 0 20:41 22.09.2019
1275 Haze 26 1011 74 5000 2.1 0 20:23 22.09.2019
1276 Clouds 26 1012 69 6000 3.6 150 19:42 22.09.2019
1277 Clouds 26 1012 69 6000 3.6 150 19:24 22.09.2019
1278 Clouds 26 1012 69 6000 3.6 150 19:24 22.09.2019
1279 -273 0 0 0 0 0 18:59 22.09.2019
1280 Clouds 26 1012 78 6000 2.6 110 18:41 22.09.2019
1281 Clouds 26 1012 78 6000 2.6 70 18:20 22.09.2019
1282 Clouds 26 1012 78 6000 2.6 70 17:59 22.09.2019
1283 Clouds 26 1012 78 6000 2.6 70 17:59 22.09.2019
1284 Clouds 26 1013 74 6000 2.1 70 17:41 22.09.2019
1285 Clouds 26 1013 74 6000 2.1 70 17:20 22.09.2019
1286 Clouds 27 1012 69 7000 3.1 60 16:45 22.09.2019
1287 Clouds 27 1012 69 7000 3.1 60 16:27 22.09.2019
1288 Clouds 27 1012 69 7000 2.6 60 15:57 22.09.2019
1289 Clouds 27 1012 69 8000 3.6 60 15:38 22.09.2019
1290 Clouds 28 1012 69 8000 3.6 60 15:19 22.09.2019
1291 Clouds 28 1011 62 7000 4.1 70 14:45 22.09.2019
1292 Clouds 28 1011 62 7000 4.1 70 14:26 22.09.2019
1293 Clouds 29 1010 62 8000 4.1 60 13:59 22.09.2019
1294 Clouds 29 1010 55 7000 4.1 50 13:40 22.09.2019
1295 Clouds 29 1010 58 8000 5.7 60 13:21 22.09.2019
1296 -273 0 0 0 0 0 12:55 22.09.2019
1297 Clouds 30 1010 55 9000 6.2 40 12:36 22.09.2019
1298 Clouds 30 1009 52 8000 5.7 40 12:18 22.09.2019
1299 Clouds 31 1009 41 7000 4.1 10 11:41 22.09.2019
1300 Clouds 32 1009 41 7000 4.1 10 11:23 22.09.2019
1301 Clouds 32 1009 41 7000 4.1 10 11:23 22.09.2019
1302 Clouds 32 1009 46 8000 6.7 40 10:54 22.09.2019
1303 Clouds 33 1009 36 7000 7.2 30 10:36 22.09.2019
1304 Clouds 33 1009 46 7000 6.7 50 10:18 22.09.2019
1305 Clouds 33 1009 36 7000 5.1 60 09:41 22.09.2019
1306 Clouds 33 1009 36 7000 5.1 60 09:20 22.09.2019
1307 Clouds 33 1010 46 6000 6.2 50 08:47 22.09.2019
1308 Clouds 33 1010 36 6000 4.6 30 08:25 22.09.2019
1309 Clouds 34 1010 46 6000 5.1 20 07:56 22.09.2019
1310 Clouds 34 1010 34 6000 6.7 20 07:38 22.09.2019
1311 Haze 33 1011 55 6000 4.6 10 07:19 22.09.2019
1312 -273 0 0 0 0 0 06:55 22.09.2019
1313 Haze 32 1013 46 5000 3.1 240 05:36 22.09.2019
1314 Haze 28 1013 65 4000 1.5 170 03:48 22.09.2019
1315 Haze 26 1012 73 4000 2.41 102.738 02:38 22.09.2019
1316 Haze 26 1012 73 4000 1.5 180 02:19 22.09.2019
1317 Clouds 24 1011 83 6000 2.04 113.78 01:20 22.09.2019
1318 Clouds 24 1011 83 6000 2.04 113.78 00:33 22.09.2019
1319 Clouds 25 1011 73 7000 2.6 180 23:59 21.09.2019
1320 Clouds 25 1011 73 7000 2.1 190 23:40 21.09.2019
1321 Clouds 25 1011 73 7000 2.1 190 23:20 21.09.2019
1322 Clouds 25 1011 73 6000 2.6 190 22:39 21.09.2019
1323 Clouds 24 1011 69 6000 2.6 190 22:21 21.09.2019
1324 Clouds 24 1011 69 6000 2.6 190 22:21 21.09.2019
1325 Clouds 25 1011 69 6000 2.6 190 21:55 21.09.2019
1326 Clouds 25 1011 69 6000 2.6 190 21:55 21.09.2019
1327 Clouds 25 1011 69 6000 2.6 190 21:36 21.09.2019
1328 Clouds 25 1011 69 6000 2.6 190 21:18 21.09.2019
1329 Haze 26 1011 69 5000 2.6 210 20:39 21.09.2019
1330 Haze 26 1011 69 5000 2.6 210 20:39 21.09.2019
1331 Haze 26 1011 69 5000 2.6 210 20:21 21.09.2019
1332 Haze 26 1012 74 4000 2.1 240 19:47 21.09.2019
1333 Haze 26 1012 74 4000 1.5 280 19:24 21.09.2019
1334 Haze 25 1012 69 5000 1 10 18:55 21.09.2019
1335 Haze 26 1012 69 5000 1 10 18:37 21.09.2019
1336 Haze 26 1012 65 5000 1 320 18:18 21.09.2019
1337 Haze 27 1012 65 5000 1 280 17:40 21.09.2019
1338 Haze 27 1012 65 5000 1 270 17:21 21.09.2019
1339 Haze 27 1011 65 5000 1 0 16:44 21.09.2019
1340 Haze 27 1011 65 5000 1 0 16:24 21.09.2019
1341 Haze 27 1011 69 5000 1 360 15:56 21.09.2019
1342 Haze 27 1011 69 5000 1 350 15:38 21.09.2019
1343 Haze 28 1011 69 5000 1 350 15:19 21.09.2019
1344 Clouds 28 1010 62 6000 2.6 350 14:43 21.09.2019
1345 Clouds 28 1010 62 6000 2.6 350 14:24 21.09.2019
1346 Clouds 29 1009 55 6000 1.5 350 13:42 21.09.2019
1347 Clouds 29 1009 55 6000 1.5 350 13:23 21.09.2019
1348 Clouds 30 1009 55 6000 2.1 360 12:57 21.09.2019
1349 Clouds 30 1009 52 6000 3.1 310 12:38 21.09.2019
1350 Clouds 30 1009 58 7000 4.1 20 12:20 21.09.2019
1351 Clouds 30 1009 58 7000 4.1 20 11:50 21.09.2019
1352 Clouds 31 1008 49 6000 5.7 10 11:25 21.09.2019
1353 Clouds 31 1008 46 6000 5.7 350 10:56 21.09.2019
1354 Clouds 32 1008 46 6000 6.2 10 10:37 21.09.2019
1355 Clouds 33 1008 46 6000 6.2 30 10:19 21.09.2019
1356 Clouds 33 1008 46 6000 6.2 30 09:55 21.09.2019
1357 Clouds 34 1009 41 6000 5.7 360 09:36 21.09.2019
1358 Clouds 34 1009 41 6000 5.7 360 09:18 21.09.2019
1359 Clouds 34 1010 32 6000 2.1 180 08:42 21.09.2019
1360 Clouds 34 1010 34 6000 2.6 170 07:58 21.09.2019
1361 Clouds 34 1010 36 6000 3.1 240 07:39 21.09.2019
1362 Clouds 34 1011 36 6000 3.1 250 07:19 21.09.2019
1363 Clouds 33 1012 38 6000 3.1 140 06:35 21.09.2019
1364 Clouds 33 1012 43 6000 3.1 210 05:51 21.09.2019
1365 Haze 30 1013 51 5000 2.6 190 04:39 21.09.2019
1366 Clear 28 1013 58 6000 3.6 180 03:34 21.09.2019
1367 Clouds 26 1013 65 6000 2.1 0 02:25 21.09.2019
1368 Haze 25 1012 73 6000 2.6 230 01:48 21.09.2019
1369 Haze 25 1012 73 6000 2.6 230 01:25 21.09.2019
1370 Haze 24 1011 69 5000 2.6 180 00:23 21.09.2019
1371 Haze 25 1011 65 5000 2.6 180 23:56 20.09.2019
1372 Haze 25 1011 69 4000 2.68 144.13 23:30 20.09.2019
1373 Haze 25 1011 65 5000 1.5 190 22:56 20.09.2019
1374 Haze 25 1011 65 5000 1.5 190 22:56 20.09.2019
1375 Haze 25 1011 69 5000 1.5 180 22:37 20.09.2019
1376 Haze 25 1011 69 5000 1.5 180 22:19 20.09.2019
1377 Haze 25 1011 69 5000 1.5 180 22:19 20.09.2019
1378 Haze 25 1011 65 5000 3.1 140 21:55 20.09.2019
1379 Haze 25 1011 65 5000 3.1 140 21:36 20.09.2019
1380 Haze 25 1011 65 5000 3.1 140 21:18 20.09.2019
1381 Haze 26 1011 61 5000 2.6 0 20:41 20.09.2019
1382 Haze 26 1011 61 5000 2.6 0 20:20 20.09.2019
1383 Clouds 26 1012 65 6000 3.1 100 19:56 20.09.2019
1384 Clouds 26 1012 61 6000 2.6 0 19:37 20.09.2019
1385 Clouds 26 1012 61 6000 2.6 0 19:19 20.09.2019
1386 Clouds 27 1012 61 6000 3.1 130 18:39 20.09.2019
1387 Clouds 26 1012 65 6000 3.1 120 18:20 20.09.2019
1388 Clouds 26 1012 65 6000 3.1 120 17:57 20.09.2019
1389 Clouds 26 1012 65 6000 3.6 120 17:39 20.09.2019
1390 Clouds 27 1012 61 7000 4.1 120 17:20 20.09.2019
1391 Clouds 27 1012 65 8000 4.1 110 16:41 20.09.2019
1392 Clouds 27 1012 69 8000 4.1 80 16:19 20.09.2019
1393 Clouds 27 1012 65 8000 3.6 80 15:43 20.09.2019
1394 Clouds 28 1012 65 8000 3.6 80 15:23 20.09.2019
1395 Clouds 28 1011 61 6000 3.6 80 14:58 20.09.2019
1396 Clouds 28 1011 61 6000 3.6 80 14:38 20.09.2019
1397 Clouds 28 1013 54 0 0.89 139 14:18 20.09.2019
1398 Clouds 29 1010 58 8000 6.2 70 13:47 20.09.2019
1399 Clouds 29 1010 58 8000 6.2 70 13:27 20.09.2019
1400 Clouds 29 1010 58 8000 6.2 70 12:56 20.09.2019
1401 Clouds 29 1010 40 7000 5.1 60 12:36 20.09.2019
1402 Clouds 30 1009 55 9000 7.2 60 12:18 20.09.2019
1403 Clouds 30 1009 40 7000 5.1 70 11:45 20.09.2019
1404 Clouds 31 1009 40 7000 5.1 70 11:20 20.09.2019
1405 Clouds 32 1009 41 6000 4.1 70 10:43 20.09.2019
1406 Clouds 32 1009 41 6000 4.1 70 10:23 20.09.2019
1407 Clouds 33 1009 46 8000 6.7 40 09:55 20.09.2019
1408 Clouds 33 1009 46 8000 6.7 40 09:36 20.09.2019
1409 Clouds 33 1010 46 9000 7.2 60 09:18 20.09.2019
1410 Clouds 33 1010 43 6000 5.1 10 08:40 20.09.2019
1411 Clouds 33 1010 43 6000 5.1 10 08:21 20.09.2019
1412 Clouds 33 1011 43 6000 5.7 20 07:45 20.09.2019
1413 Clouds 33 1011 43 6000 5.7 20 07:25 20.09.2019
1414 Haze 33 1012 46 5000 6.2 80 06:44 20.09.2019
1415 Haze 32 1012 49 9000 6.2 60 06:20 20.09.2019
1416 Haze 32 1013 48 5000 5.1 30 05:43 20.09.2019
1417 Haze 29 1013 74 4000 2.6 100 03:31 20.09.2019
1418 Haze 28 1013 74 4000 2.6 100 03:31 20.09.2019
1419 Haze 28 1012 78 4000 2.1 120 02:51 20.09.2019
1420 Haze 28 1012 78 4000 2.1 120 02:51 20.09.2019
1421 Haze 26 1012 83 3000 3.01 115.033 01:44 20.09.2019
1422 Haze 26 1011 83 4000 3.47 93.291 00:48 20.09.2019
1423 Haze 25 1011 83 4000 2.87 72.077 00:21 20.09.2019
1424 Haze 25 1011 83 4000 2.87 72.077 00:21 20.09.2019
1425 Haze 25 1011 78 4000 2.87 72.077 23:41 19.09.2019
1426 Clouds 25 1010 74 6000 3.1 120 23:19 19.09.2019
1427 Clouds 26 1010 74 6000 3.1 120 22:54 19.09.2019
1428 Clouds 26 1010 83 6000 2.1 110 22:36 19.09.2019
1429 Clouds 26 1011 78 6000 2.6 100 22:18 19.09.2019
1430 Clouds 26 1011 78 6000 2.6 100 21:55 19.09.2019
1431 Clouds 27 1011 78 6000 2.6 100 21:36 19.09.2019
1432 Clouds 27 1011 74 6000 2.6 100 21:18 19.09.2019
1433 Clouds 26 1011 69 6000 3.6 110 20:43 19.09.2019
1434 Clouds 27 1011 74 6000 3.6 110 20:21 19.09.2019
1435 Clouds 27 1011 74 6000 3.6 110 19:55 19.09.2019
1436 Clouds 27 1011 74 6000 3.6 110 19:37 19.09.2019
1437 Clouds 26 1011 78 6000 3.1 130 19:19 19.09.2019
1438 Clouds 26 1011 78 6000 3.1 130 19:19 19.09.2019
1439 Haze 27 1011 78 5000 3.1 110 18:42 19.09.2019
1440 Haze 27 1012 78 5000 3.1 80 18:24 19.09.2019
1441 Clouds 27 1012 78 6000 3.6 60 17:54 19.09.2019
1442 Clouds 27 1012 78 6000 3.6 60 17:36 19.09.2019
1443 Clouds 27 1012 74 7000 3.6 80 17:18 19.09.2019
1444 Clouds 27 1012 69 7000 4.1 80 16:42 19.09.2019
1445 Clouds 27 1012 69 7000 4.1 80 16:20 19.09.2019
1446 Clouds 28 1012 74 8000 4.1 80 15:55 19.09.2019
1447 Clouds 28 1012 74 8000 4.1 80 15:55 19.09.2019
1448 Clouds 28 1012 74 8000 4.1 80 15:55 19.09.2019
1449 Clouds 28 1012 74 8000 4.1 80 15:55 19.09.2019
1450 Clouds 28 1012 74 8000 4.1 80 15:55 19.09.2019
1451 Clouds 28 1011 74 8000 4.6 80 15:36 19.09.2019
1452 Clouds 28 1011 74 8000 4.6 70 15:18 19.09.2019
1453 Clouds 28 1011 70 7000 4.1 30 14:41 19.09.2019
1454 Clouds 28 1011 70 7000 4.1 30 14:22 19.09.2019
1455 Clouds 28 1011 70 7000 4.6 30 13:58 19.09.2019
1456 Clouds 28 1010 66 7000 4.6 30 13:38 19.09.2019
1457 Clouds 29 1010 62 7000 4.6 40 13:18 19.09.2019
1458 Clouds 29 1009 58 7000 5.1 30 12:37 19.09.2019
1459 Clear 30 1009 52 7000 6.7 30 12:18 19.09.2019
1460 Clear 31 1009 49 7000 6.2 60 11:41 19.09.2019
1461 Clear 31 1009 49 7000 6.2 60 11:22 19.09.2019
1462 Clear 32 1009 44 7000 5.1 60 10:59 19.09.2019
1463 Clouds 32 1009 46 7000 6.2 40 10:40 19.09.2019
1464 Clouds 32 1009 49 7000 3.1 40 10:21 19.09.2019
1465 Clouds 32 1009 49 7000 3.1 40 09:58 19.09.2019
1466 Clouds 33 1009 46 7000 4.6 80 09:40 19.09.2019
1467 Clouds 33 1009 46 7000 4.6 80 09:40 19.09.2019
1468 Clouds 33 1009 46 7000 4.6 80 09:40 19.09.2019
1469 Clouds 32 1010 55 9000 6.7 60 09:19 19.09.2019
1470 Clouds 32 1010 55 9000 6.7 60 08:51 19.09.2019
1471 Clouds 33 1010 49 6000 6.2 70 08:24 19.09.2019
1472 Clouds 33 1011 52 6000 4.6 60 07:45 19.09.2019
1473 Clouds 33 1011 52 6000 4.6 60 07:23 19.09.2019
1474 Haze 33 1011 49 5000 4.6 40 06:58 19.09.2019
1475 Haze 32 1012 49 5000 4.1 90 06:38 19.09.2019
1476 Haze 32 1012 55 4000 4.1 60 06:20 19.09.2019
1477 Haze 31 1013 55 4000 5.1 50 05:48 19.09.2019
1478 Haze 30 1013 70 4000 3.6 120 04:20 19.09.2019
1479 Haze 28 1013 74 4000 3.1 140 03:20 19.09.2019
1480 Haze 27 1012 88 4000 1.5 110 01:40 19.09.2019
1481 Haze 27 1012 69 5000 2.1 0 01:19 19.09.2019
1482 Haze 26 1012 88 5000 1.5 130 00:43 19.09.2019
1483 Haze 26 1011 74 5000 1.5 0 00:19 19.09.2019
1484 Haze 26 1011 69 5000 1.5 240 23:38 18.09.2019
1485 Haze 27 1011 69 5000 1.5 0 23:19 18.09.2019
1486 Haze 27 1011 69 5000 1.5 240 22:39 18.09.2019
1487 Haze 27 1011 69 5000 1.5 240 22:19 18.09.2019
1488 Haze 27 1011 69 5000 1.5 210 21:57 18.09.2019
1489 Haze 27 1011 69 5000 1.5 210 21:39 18.09.2019
1490 Haze 27 1011 65 5000 1.5 190 21:18 18.09.2019
1491 Haze 27 1011 65 5000 1.5 190 20:57 18.09.2019
1492 Haze 28 1011 65 5000 1.5 0 20:39 18.09.2019
1493 Haze 28 1011 65 5000 1.5 0 20:39 18.09.2019
1494 Haze 28 1012 61 5000 2.1 200 20:20 18.09.2019
1495 Haze 27 1012 61 5000 2.1 200 19:56 18.09.2019
1496 Haze 26 1012 61 5000 2.1 200 19:37 18.09.2019
1497 Haze 26 1012 65 5000 2.1 0 19:18 18.09.2019
1498 Haze 26 1012 65 5000 2.1 0 19:18 18.09.2019
1499 Haze 26 1012 65 5000 2.1 0 18:55 18.09.2019
1500 Haze 26 1012 65 5000 2.1 0 18:36 18.09.2019
1501 Haze 26 1013 65 5000 2.6 0 18:18 18.09.2019
1502 Haze 26 1013 65 5000 2.6 0 17:54 18.09.2019
1503 Clouds 26 1013 78 6000 3.6 80 17:36 18.09.2019
1504 Clouds 26 1013 78 6000 3.6 80 17:18 18.09.2019
1505 Clouds 26 1013 74 7000 3.6 80 16:43 18.09.2019
1506 Clouds 26 1013 74 7000 3.6 80 16:22 18.09.2019
1507 Clouds 26 1012 78 7000 3.1 60 15:59 18.09.2019
1508 Clouds 26 1012 78 7000 3.1 60 15:59 18.09.2019
1509 Clouds 27 1012 78 8000 3.1 60 15:40 18.09.2019
1510 Clouds 27 1012 78 8000 3.1 60 15:20 18.09.2019
1511 Clouds 27 1012 74 8000 3.1 60 14:58 18.09.2019
1512 Clouds 27 1012 70 6000 3.1 50 14:40 18.09.2019
1513 Clouds 27 1012 70 6000 3.1 50 14:22 18.09.2019
1514 Haze 28 1012 74 8000 3.6 60 13:59 18.09.2019
1515 Haze 28 1011 70 5000 2.6 60 13:38 18.09.2019
1516 Haze 29 1011 74 8000 5.1 60 13:18 18.09.2019
1517 Haze 29 1010 62 5000 3.1 50 12:45 18.09.2019
1518 Haze 29 1010 62 5000 3.1 50 12:27 18.09.2019
1519 Clouds 30 1010 58 6000 7.2 60 11:41 18.09.2019
1520 Clouds 30 1010 58 6000 7.2 60 11:41 18.09.2019
1521 Clouds 30 1010 58 6000 7.2 60 11:41 18.09.2019
1522 Clouds 30 1010 58 6000 7.2 60 11:41 18.09.2019
1523 Clouds 31 1010 58 6000 7.2 60 11:21 18.09.2019
1524 Clouds 31 1010 58 6000 7.2 50 10:58 18.09.2019
1525 Clouds 32 1009 49 6000 3.1 30 10:40 18.09.2019
1526 Clouds 32 1009 49 6000 3.1 30 10:20 18.09.2019
1527 Haze 33 1009 55 7000 6.7 60 09:58 18.09.2019
1528 Haze 33 1009 49 5000 3.6 20 09:37 18.09.2019
1529 Haze 33 1009 49 5000 3.6 20 09:37 18.09.2019
1530 Haze 33 1010 62 6000 4.1 40 09:19 18.09.2019
1531 Haze 33 1010 46 4000 4.1 100 08:41 18.09.2019
1532 Haze 33 1010 46 4000 4.1 100 08:23 18.09.2019
1533 Haze 34 1011 49 4000 3.1 70 07:52 18.09.2019
1534 Haze 34 1011 49 4000 3.1 70 07:33 18.09.2019
1535 Haze 33 1012 55 6000 4.6 50 06:59 18.09.2019
1536 Haze 33 1012 49 4000 2.6 60 06:35 18.09.2019
1537 Haze 32 1013 55 5000 4.24 70.128 05:46 18.09.2019
1538 Clouds 31 1014 55 5000 2.1 0 04:43 18.09.2019
1539 Haze 27 1013 78 4000 1.5 250 02:41 18.09.2019
1540 Haze 26 1013 83 4000 1.5 210 02:18 18.09.2019
1541 Haze 26 1012 88 4000 1.5 230 01:20 18.09.2019
1542 Haze 25 1012 88 4000 3.18 91.656 00:47 18.09.2019
1543 Haze 26 1012 83 4000 2.82 105.084 00:19 18.09.2019
1544 Haze 26 1012 83 4000 1.5 140 23:44 17.09.2019
1545 Haze 26 1012 83 4000 1.5 140 23:22 17.09.2019
1546 Haze 26 1012 78 5000 3.1 130 22:42 17.09.2019
1547 Haze 26 1012 78 5000 3.1 130 22:24 17.09.2019
1548 Haze 27 1011 74 5000 3.1 120 21:55 17.09.2019
1549 Haze 26 1011 83 5000 4.1 110 21:37 17.09.2019
1550 Haze 27 1012 78 5000 3.6 90 21:19 17.09.2019
1551 Haze 27 1012 78 5000 3.6 90 21:19 17.09.2019
1552 Haze 27 1012 78 5000 3.6 90 20:57 17.09.2019
1553 Clouds 27 1012 74 6000 3.6 110 20:39 17.09.2019
1554 Clouds 27 1012 74 6000 3.6 110 20:39 17.09.2019
1555 Clouds 27 1012 74 7000 4.1 120 20:21 17.09.2019
1556 Clouds 26 1012 74 7000 4.1 120 19:58 17.09.2019
1557 Clouds 27 1012 74 7000 4.1 120 19:39 17.09.2019
1558 Clouds 27 1012 74 8000 3.1 110 19:19 17.09.2019
1559 Clouds 27 1012 78 8000 3.1 110 18:56 17.09.2019
1560 Clouds 27 1012 78 8000 3.1 110 18:38 17.09.2019
1561 Clouds 27 1012 78 8000 3.1 110 18:19 17.09.2019
1562 Clouds 27 1012 74 8000 3.6 110 17:45 17.09.2019
1563 Clouds 27 1012 74 8000 3.6 110 17:20 17.09.2019
1564 Clouds 27 1012 74 8000 3.6 110 17:19 17.09.2019
1565 Clouds 27 1012 74 8000 3.6 110 16:56 17.09.2019
1566 Clouds 27 1012 74 8000 4.6 110 16:37 17.09.2019
1567 Clouds 27 1012 74 8000 4.6 110 16:19 17.09.2019
1568 Clouds 27 1012 78 8000 4.6 80 15:39 17.09.2019
1569 Clouds 27 1012 78 8000 4.6 80 15:20 17.09.2019
1570 Clouds 28 1011 74 7000 5.1 80 14:56 17.09.2019
1571 Clouds 28 1011 78 6000 4.6 60 14:38 17.09.2019
1572 Clouds 28 1011 78 6000 4.6 60 14:19 17.09.2019
1573 Haze 28 1010 74 5000 5.1 60 13:56 17.09.2019
1574 Haze 28 1010 74 5000 5.1 60 13:56 17.09.2019
1575 Haze 28 1010 70 5000 4.6 70 13:38 17.09.2019
1576 Haze 28 1010 70 5000 4.6 70 13:20 17.09.2019
1577 Clouds 29 1009 58 6000 6.2 60 12:42 17.09.2019
1578 Clouds 29 1009 58 6000 6.2 70 12:19 17.09.2019
1579 Clouds 30 1009 55 6000 6.2 50 11:45 17.09.2019
1580 Clouds 31 1009 55 6000 6.2 50 11:26 17.09.2019
1581 Clouds 31 1009 52 6000 5.1 60 10:59 17.09.2019
1582 Clouds 32 1008 46 6000 6.2 70 10:40 17.09.2019
1583 Clouds 32 1008 46 6000 6.2 70 10:20 17.09.2019
1584 Clouds 32 1009 46 6000 4.1 30 09:54 17.09.2019
1585 Clouds 32 1009 43 6000 3.6 50 09:36 17.09.2019
1586 Clouds 33 1009 44 6000 5.1 70 09:18 17.09.2019
1587 Clouds 33 1010 59 8000 6.7 60 08:43 17.09.2019
1588 Clouds 33 1010 59 8000 6.7 60 08:24 17.09.2019
1589 Clouds 32 1011 46 6000 5.1 50 07:42 17.09.2019
1590 Clouds 32 1011 46 6000 5.1 50 07:42 17.09.2019
1591 Haze 32 1011 49 5000 5.1 50 07:24 17.09.2019
1592 Haze 32 1012 49 5000 4.6 40 06:53 17.09.2019
1593 Haze 31 1012 49 5000 4.6 40 06:29 17.09.2019
1594 Haze 31 1013 52 5000 5.1 110 05:53 17.09.2019
1595 Haze 30 1013 62 4000 2.6 90 04:55 17.09.2019
1596 Haze 28 1013 74 3000 2.1 170 03:41 17.09.2019
1597 Haze 26 1012 83 3000 1.5 190 02:39 17.09.2019
1598 Haze 25 1012 78 5000 1.5 0 01:50 17.09.2019
1599 Haze 25 1011 88 4000 4.36 105.667 00:46 17.09.2019
1600 Clouds 25 1011 83 6000 2.1 130 23:41 16.09.2019
1601 Clouds 25 1011 83 6000 2.1 130 23:20 16.09.2019
1602 Clouds 26 1010 78 6000 3.1 130 22:58 16.09.2019
1603 Clouds 26 1010 78 6000 2.6 130 22:40 16.09.2019
1604 Clouds 26 1010 78 6000 2.6 130 22:21 16.09.2019
1605 Clouds 26 1010 78 6000 2.1 0 21:56 16.09.2019
1606 Clouds 26 1010 78 6000 2.1 150 21:38 16.09.2019
1607 Clouds 26 1010 78 6000 2.1 150 21:19 16.09.2019
1608 Clouds 26 1011 78 6000 4.1 120 20:42 16.09.2019
1609 Clouds 26 1011 78 6000 4.1 120 20:23 16.09.2019
1610 Clouds 26 1011 78 6000 4.1 120 19:58 16.09.2019
1611 Clouds 26 1011 78 7000 4.6 120 19:39 16.09.2019
1612 Clouds 26 1011 78 7000 4.6 120 19:20 16.09.2019
1613 Clouds 26 1011 78 7000 4.6 120 18:56 16.09.2019
1614 Clouds 27 1012 74 7000 4.1 110 18:37 16.09.2019
1615 Clouds 27 1011 74 7000 5.1 120 18:18 16.09.2019
1616 Clouds 26 1011 74 7000 4.6 120 17:42 16.09.2019
1617 Clouds 26 1011 74 7000 4.6 120 17:24 16.09.2019
1618 Clouds 26 1011 74 7000 4.6 110 16:57 16.09.2019
1619 Clouds 26 1011 74 7000 4.1 120 16:38 16.09.2019
1620 Clouds 26 1011 74 7000 4.1 120 16:20 16.09.2019
1621 -273 0 0 0 0 0 15:55 16.09.2019
1622 Clouds 26 1010 74 7000 5.1 80 15:37 16.09.2019
1623 Clouds 27 1010 74 7000 6.7 90 15:18 16.09.2019
1624 Clouds 27 1010 74 6000 3.6 50 14:44 16.09.2019
1625 Clouds 27 1010 74 6000 3.6 50 14:23 16.09.2019
1626 Clouds 28 1009 74 7000 5.7 70 13:58 16.09.2019
1627 Clouds 28 1009 70 6000 6.7 60 13:38 16.09.2019
1628 Clouds 28 1009 70 6000 6.7 60 13:20 16.09.2019
1629 Clouds 28 1009 70 6000 6.7 60 13:20 16.09.2019
1630 Clouds 29 1008 62 7000 6.2 70 12:43 16.09.2019
1631 Clouds 29 1008 62 7000 6.2 70 12:25 16.09.2019
1632 -273 0 0 0 0 0 12:25 16.09.2019
1633 Clouds 29 1008 62 7000 6.2 70 12:25 16.09.2019
1634 Clouds 30 1008 66 7000 7.2 70 11:55 16.09.2019
1635 Clouds 30 1008 58 7000 6.7 60 11:37 16.09.2019
1636 Clouds 31 1008 58 9000 8.2 60 11:19 16.09.2019
1637 Clouds 31 1008 55 8000 8.7 60 10:38 16.09.2019
1638 Clouds 32 1008 55 8000 8.7 60 10:20 16.09.2019
1639 Clouds 32 1008 55 8000 8.7 50 09:58 16.09.2019
1640 Clouds 32 1008 46 6000 7.7 50 09:38 16.09.2019
1641 Clouds 32 1009 59 8000 7.2 60 09:19 16.09.2019
1642 Clouds 32 1009 46 6000 6.7 40 08:46 16.09.2019
1643 Clouds 32 1009 46 6000 6.7 40 08:25 16.09.2019
1644 Clouds 32 1010 59 8000 7.2 50 07:56 16.09.2019
1645 Clouds 32 1010 59 8000 7.2 50 07:56 16.09.2019
1646 Clouds 32 1010 49 6000 6.2 60 07:37 16.09.2019
1647 Haze 32 1010 55 8000 6.2 60 07:18 16.09.2019
1648 Haze 32 1011 55 5000 4.1 90 06:44 16.09.2019
1649 Haze 32 1011 55 5000 4.1 90 06:26 16.09.2019
1650 Haze 31 1012 52 5000 5.1 50 05:46 16.09.2019
1651 Haze 31 1012 52 5000 5.1 50 05:26 16.09.2019
1652 Haze 28 1012 69 5000 2.1 0 03:52 16.09.2019
1653 Haze 25 1011 88 3000 1.5 130 01:57 16.09.2019
1654 Haze 25 1011 88 4000 4.71 102.484 00:44 16.09.2019
1655 Haze 25 1011 88 4000 5.14 98.894 00:25 16.09.2019
1656 Rain 25 1010 83 4000 2.6 100 23:41 15.09.2019
1657 Rain 25 1010 83 4000 2.6 100 23:21 15.09.2019
1658 Rain 25 1010 83 5000 2.1 0 22:43 15.09.2019
1659 Rain 25 1010 83 5000 2.1 0 22:23 15.09.2019
1660 Rain 25 1010 83 3600 2.6 0 21:58 15.09.2019
1661 Rain 25 1010 88 3000 2.6 210 21:40 15.09.2019
1662 Rain 25 1010 88 3000 2.6 210 21:22 15.09.2019
1663 Rain 25 1010 88 3000 4.63 77.816 20:59 15.09.2019
1664 Rain 25 1010 88 3000 4.63 77.816 20:59 15.09.2019
1665 Rain 25 1010 83 3500 2.6 0 20:41 15.09.2019
1666 Rain 25 1010 83 3500 2.6 0 20:23 15.09.2019
1667 Haze 26 1011 69 4600 1 0 19:45 15.09.2019
1668 Haze 26 1011 69 4600 1 0 19:25 15.09.2019
1669 Haze 26 1011 69 4600 1 0 18:55 15.09.2019
1670 Haze 26 1011 74 4500 1.5 290 18:36 15.09.2019
1671 Haze 26 1011 78 5000 1.5 310 18:18 15.09.2019
1672 Haze 26 1011 78 5000 1.5 310 18:18 15.09.2019
1673 Haze 26 1011 74 5000 1.5 300 17:40 15.09.2019
1674 Haze 26 1011 74 5000 1.5 300 17:21 15.09.2019
1675 Haze 26 1011 65 6000 3.83 58.38 16:44 15.09.2019
1676 Haze 26 1011 65 6000 3.83 58.38 16:26 15.09.2019
1677 Clouds 26 1011 74 6000 1 280 15:59 15.09.2019
1678 Clouds 27 1011 69 6000 1 320 15:41 15.09.2019
1679 Clouds 27 1011 69 6000 1 320 15:21 15.09.2019
1680 Clouds 27 1010 69 6000 1.5 0 14:58 15.09.2019
1681 Clouds 27 1010 65 6000 3.1 30 14:40 15.09.2019
1682 Clouds 27 1010 65 6000 3.1 30 14:20 15.09.2019
1683 Clouds 28 1009 58 6000 4.6 20 13:47 15.09.2019
1684 Clouds 28 1009 58 6000 4.6 20 13:24 15.09.2019
1685 Clouds 29 1009 51 6000 4.6 30 12:57 15.09.2019
1686 Clouds 29 1008 51 6000 5.1 40 12:39 15.09.2019
1687 Clouds 29 1008 58 9000 5.1 30 12:18 15.09.2019
1688 Clouds 30 1008 48 6000 6.2 360 11:42 15.09.2019
1689 Clouds 30 1008 48 6000 6.2 360 11:22 15.09.2019
1690 Clouds 30 1008 46 6000 6.7 30 10:58 15.09.2019
1691 Clouds 31 1008 49 6000 6.7 40 10:40 15.09.2019
1692 Clouds 31 1008 49 6000 6.7 40 10:21 15.09.2019
1693 Clouds 31 1008 46 6000 6.2 20 09:42 15.09.2019
1694 Clouds 31 1008 46 6000 6.2 20 09:42 15.09.2019
1695 Clouds 31 1008 46 6000 6.2 20 09:20 15.09.2019
1696 Clouds 32 1008 43 6000 5.7 40 08:58 15.09.2019
1697 Clouds 32 1009 46 6000 5.7 30 08:39 15.09.2019
1698 Clouds 32 1009 46 6000 5.7 30 08:18 15.09.2019
1699 Clouds 32 1010 46 6000 5.1 40 07:41 15.09.2019
1700 Clouds 32 1011 48 6000 5.7 30 06:44 15.09.2019
1701 Haze 30 1013 55 5000 3.6 90 04:59 15.09.2019
1702 Haze 26 1012 69 5000 2.1 200 03:18 15.09.2019
1703 Haze 24 1012 78 5000 2.1 0 02:18 15.09.2019
1704 Haze 24 1012 83 5000 3.11 186.849 01:36 15.09.2019
1705 Haze 24 1012 83 5000 3.11 186.849 01:36 15.09.2019
1706 Haze 23 1011 78 5000 1.5 210 00:56 15.09.2019
1707 Haze 23 1011 78 4000 1.5 220 00:36 15.09.2019
1708 Haze 23 1011 78 5000 1.5 210 00:18 15.09.2019
1709 Haze 23 1011 78 5000 1.5 210 23:55 14.09.2019
1710 Haze 23 1011 78 5000 1.5 210 23:37 14.09.2019
1711 Haze 23 1011 78 5000 1 230 23:18 14.09.2019
1712 Haze 23 1011 78 5000 1 230 22:55 14.09.2019
1713 Haze 23 1011 78 5000 1.5 220 22:37 14.09.2019
1714 Haze 23 1011 73 5000 1.5 220 22:18 14.09.2019
1715 Haze 23 1011 73 5000 2.1 200 21:40 14.09.2019
1716 Haze 23 1011 73 5000 2.1 200 21:20 14.09.2019
1717 Haze 23 1012 78 5000 1 0 20:58 14.09.2019
1718 Clouds 23 1012 73 6000 3.1 230 20:38 14.09.2019
1719 Clouds 23 1012 73 6000 2.6 230 20:20 14.09.2019
1720 Clouds 23 1012 73 6000 2.6 230 19:46 14.09.2019
1721 Clouds 23 1012 73 6000 2.6 230 19:22 14.09.2019
1722 Clouds 23 1012 73 6000 2.6 230 18:57 14.09.2019
1723 Haze 24 1013 73 5000 3.1 230 18:38 14.09.2019
1724 Clouds 24 1013 69 7000 3.1 230 18:19 14.09.2019
1725 Clouds 24 1013 69 7000 2.6 240 17:44 14.09.2019
1726 Clouds 25 1013 69 7000 2.6 240 17:24 14.09.2019
1727 Clouds 25 1013 69 6000 3.1 250 16:54 14.09.2019
1728 Haze 25 1012 69 5000 4.1 250 16:36 14.09.2019
1729 Haze 26 1012 65 3500 1.5 300 16:18 14.09.2019
1730 Haze 26 1012 65 3000 1.5 0 15:41 14.09.2019
1731 Haze 27 1012 65 3000 1.5 0 15:22 14.09.2019
1732 Haze 27 1012 65 3000 1.5 0 15:22 14.09.2019
1733 Haze 27 1012 58 6000 2.1 300 14:45 14.09.2019
1734 Haze 27 1012 58 6000 2.1 300 14:20 14.09.2019
1735 Haze 28 1012 61 6000 1.5 340 13:56 14.09.2019
1736 Haze 28 1011 58 5000 3.1 360 13:38 14.09.2019
1737 Clouds 28 1011 61 7000 3.1 340 13:20 14.09.2019
1738 Clouds 28 1010 54 6000 3.1 350 12:45 14.09.2019
1739 Clouds 28 1010 54 6000 3.1 350 12:22 14.09.2019
1740 Clouds 29 1010 48 6000 5.1 30 11:41 14.09.2019
1741 Clouds 29 1010 48 6000 5.1 30 11:20 14.09.2019
1742 Clouds 31 1010 48 6000 6.2 30 10:40 14.09.2019
1743 Clouds 31 1010 48 6000 6.2 30 10:21 14.09.2019
1744 Clouds 31 1011 40 7000 6.2 10 09:58 14.09.2019
1745 Clouds 32 1011 43 6000 4.1 360 09:40 14.09.2019
1746 Clouds 32 1011 43 6000 4.1 360 09:20 14.09.2019
1747 Clouds 32 1012 38 6000 5.1 60 08:48 14.09.2019
1748 Clouds 32 1012 38 6000 5.1 60 08:26 14.09.2019
1749 Clouds 32 1012 43 8000 2.6 10 07:54 14.09.2019
1750 Clouds 32 1013 38 5000 4.1 20 07:29 14.09.2019
1751 Clouds 32 1013 48 6000 3.6 350 06:54 14.09.2019
1752 Clouds 32 1014 38 6000 3.6 10 06:32 14.09.2019
1753 Clouds 30 1015 42 6000 2.6 150 05:27 14.09.2019
1754 Clouds 28 1015 54 6000 1.5 0 03:53 14.09.2019
1755 Haze 25 1014 65 6000 2.1 240 02:57 14.09.2019
1756 Haze 25 1014 73 6000 2.6 230 02:23 14.09.2019
1757 Haze 23 1013 73 4000 3.1 220 01:42 14.09.2019
1758 Haze 23 1013 73 4000 3.1 210 01:18 14.09.2019
1759 Haze 23 1013 73 4000 2.6 210 00:40 14.09.2019
1760 Haze 23 1013 78 4000 2.6 220 00:21 14.09.2019
1761 Haze 22 1013 78 4000 2.1 220 23:54 13.09.2019
1762 Haze 22 1013 78 4000 2.1 220 23:36 13.09.2019
1763 Haze 22 1013 78 4000 2.1 220 23:36 13.09.2019
1764 Haze 22 1013 73 5000 1.5 220 23:18 13.09.2019
1765 Haze 22 1013 78 5000 2.6 210 22:39 13.09.2019
1766 Haze 22 1013 78 5000 2.6 210 22:20 13.09.2019
1767 Haze 22 1013 78 5000 2.6 220 21:56 13.09.2019
1768 Haze 23 1013 73 5000 2.6 220 21:37 13.09.2019
1769 Haze 23 1013 73 5000 2.6 220 21:19 13.09.2019
1770 Haze 23 1013 73 5000 2.6 220 20:55 13.09.2019
1771 Haze 23 1013 69 5000 2.6 220 20:36 13.09.2019
1772 Haze 24 1013 73 5000 2.6 240 20:18 13.09.2019
1773 Haze 23 1013 73 5000 2.6 240 19:43 13.09.2019
1774 Haze 25 1013 65 5000 1.5 190 19:22 13.09.2019
1775 Haze 25 1013 65 5000 1.5 190 18:58 13.09.2019
1776 Haze 25 1014 78 5000 1.22 147.211 18:37 13.09.2019
1777 Clouds 25 1014 69 6000 2.47 66.252 18:19 13.09.2019
1778 Clouds 25 1014 69 6000 2.47 66.252 17:44 13.09.2019
1779 Clouds 26 1014 69 6000 2.47 66.252 17:21 13.09.2019
1780 Clouds 26 1014 69 6000 1.5 130 16:56 13.09.2019
1781 Clouds 26 1014 65 6000 2.6 100 16:37 13.09.2019
1782 Clouds 26 1014 61 6000 1.5 100 16:18 13.09.2019
1783 Clouds 26 1013 61 8000 3.1 70 15:42 13.09.2019
1784 Clouds 27 1013 61 8000 3.1 70 15:23 13.09.2019
1785 Clouds 27 1013 61 8000 3.1 50 14:55 13.09.2019
1786 -273 0 0 0 0 0 14:55 13.09.2019
1787 Clouds 27 1013 61 8000 3.1 50 14:55 13.09.2019
1788 Clouds 27 1013 58 6000 2.6 70 14:36 13.09.2019
1789 Clouds 27 1012 54 6000 4.6 60 14:18 13.09.2019
1790 Clouds 28 1012 54 6000 4.1 60 13:40 13.09.2019
1791 Clouds 28 1011 48 6000 3.6 60 13:21 13.09.2019
1792 Clouds 28 1011 48 6000 4.6 40 12:45 13.09.2019
1793 -273 0 0 0 0 0 12:25 13.09.2019
1794 Haze 30 1011 45 5000 5.7 40 11:57 13.09.2019
1795 Haze 30 1010 45 5000 5.7 30 11:20 13.09.2019
1796 Haze 31 1010 45 5000 5.7 40 10:54 13.09.2019
1797 Clouds 31 1010 43 6000 2.6 20 10:36 13.09.2019
1798 Clouds 32 1010 43 6000 4.1 40 10:18 13.09.2019
1799 Clouds 32 1011 48 6000 5.7 40 09:42 13.09.2019
1800 Clouds 32 1011 48 6000 5.7 40 09:19 13.09.2019
1801 Clouds 32 1011 46 7000 6.2 30 08:42 13.09.2019
1802 Haze 32 1011 46 7000 6.2 30 08:21 13.09.2019
1803 Haze 32 1011 46 7000 6.2 30 08:21 13.09.2019
1804 Haze 32 1011 46 7000 6.2 30 08:21 13.09.2019
1805 Haze 32 1012 48 8000 4.1 10 07:59 13.09.2019
1806 Haze 31 1012 52 4000 3.6 60 07:40 13.09.2019
1807 Haze 32 1013 52 5000 1.5 150 06:55 13.09.2019
1808 Haze 32 1013 52 5000 1.5 150 06:37 13.09.2019
1809 Haze 30 1014 58 5000 2.1 250 05:32 13.09.2019
1810 Haze 27 1014 65 4000 2.6 150 03:52 13.09.2019
1811 Haze 26 1014 69 5000 2.6 200 03:25 13.09.2019
1812 Haze 25 1014 73 5000 1.79 142.398 02:19 13.09.2019
1813 Haze 24 1013 78 5000 1.5 230 01:36 13.09.2019
1814 Haze 23 1013 73 6000 1 200 00:59 13.09.2019
1815 Haze 23 1013 78 5000 1.5 220 00:34 13.09.2019
1816 Haze 23 1013 78 5000 1.21 145.245 23:48 12.09.2019
1817 Haze 23 1013 78 5000 1.21 145.245 23:24 12.09.2019
1818 Clouds 23 1012 64 6000 2.1 170 22:57 12.09.2019
1819 Haze 23 1012 64 4500 1.5 190 22:39 12.09.2019
1820 Haze 23 1012 64 4500 1.5 190 22:21 12.09.2019
1821 Haze 23 1012 69 4600 1.5 200 21:55 12.09.2019
1822 Haze 24 1012 69 4000 1.5 180 21:36 12.09.2019
1823 Haze 25 1012 69 4000 1.5 180 21:18 12.09.2019
1824 Haze 25 1012 65 4000 1 180 20:44 12.09.2019
1825 Haze 26 1013 69 4000 1 160 20:22 12.09.2019
1826 Haze 26 1013 69 4000 1 160 19:57 12.09.2019
1827 Haze 26 1013 69 4000 2.1 150 19:39 12.09.2019
1828 Haze 26 1013 69 4000 2.1 150 19:39 12.09.2019
1829 Haze 25 1013 69 4000 1 0 19:19 12.09.2019
1830 Haze 25 1013 69 5000 1 200 18:54 12.09.2019
1831 Haze 25 1013 69 5000 1 200 18:36 12.09.2019
1832 Haze 25 1013 69 5000 1 180 18:18 12.09.2019
1833 Clouds 26 1013 65 6000 1 330 17:40 12.09.2019
1834 Clouds 26 1013 65 6000 1 330 17:20 12.09.2019
1835 Clouds 26 1013 65 6000 1 330 17:20 12.09.2019
1836 Clouds 25 1013 69 6000 2.1 10 16:55 12.09.2019
1837 Clouds 25 1013 69 6000 2.1 10 16:55 12.09.2019
1838 Clouds 26 1013 65 6000 2.1 30 16:36 12.09.2019
1839 Clouds 26 1013 65 7000 1 0 16:18 12.09.2019
1840 Clouds 26 1013 61 8000 2.1 30 15:41 12.09.2019
1841 Haze 27 1013 61 8000 2.1 30 15:23 12.09.2019
1842 Haze 27 1012 65 5000 2.3 23.238 14:45 12.09.2019
1843 Haze 27 1012 65 5000 2.3 23.238 14:22 12.09.2019
1844 Haze 27 1012 65 9000 3.1 360 13:58 12.09.2019
1845 Haze 27 1011 74 5000 1.5 310 13:37 12.09.2019
1846 Haze 28 1011 69 9000 3.6 340 13:18 12.09.2019
1847 Haze 28 1011 74 5000 2.6 30 12:44 12.09.2019
1848 Rain 29 1011 58 10000 5.1 350 12:19 12.09.2019
1849 Rain 29 1011 58 10000 5.1 350 11:56 12.09.2019
1850 Rain 29 1010 62 6000 3.1 340 11:38 12.09.2019
1851 Clouds 30 1010 62 10000 5.7 340 11:19 12.09.2019
1852 Clouds 30 1011 62 6000 3.6 360 10:44 12.09.2019
1853 Clouds 30 1011 62 6000 3.6 360 10:25 12.09.2019
1854 Haze 31 1011 55 5000 2.6 360 09:45 12.09.2019
1855 Haze 32 1011 55 5000 2.6 360 09:25 12.09.2019
1856 Haze 32 1012 55 9000 5.1 320 08:59 12.09.2019
1857 Haze 32 1012 52 5000 3.1 30 08:40 12.09.2019
1858 Haze 32 1012 52 5000 3.1 30 08:21 12.09.2019
1859 Haze 32 1012 52 5000 3.1 30 08:21 12.09.2019
1860 Haze 33 1013 52 5000 1.5 360 07:39 12.09.2019
1861 Clouds 32 1013 58 7000 3.6 340 07:19 12.09.2019
1862 Clouds 32 1014 43 6000 1.5 330 06:50 12.09.2019
1863 Haze 31 1014 55 6000 1.5 0 06:19 12.09.2019
1864 Haze 31 1015 48 5000 1.66 352.467 05:49 12.09.2019
1865 Haze 31 1015 48 5000 1.66 352.467 05:30 12.09.2019
1866 Haze 29 1015 58 4400 1.5 0 04:35 12.09.2019
1867 Haze 24 1014 73 4000 1.5 250 02:28 12.09.2019
1868 Haze 23 1014 78 4000 1.5 230 01:36 12.09.2019
1869 Haze 22 1014 88 4000 1.5 230 01:18 12.09.2019
1870 Haze 22 1013 88 4000 1.5 220 00:42 12.09.2019
1871 Haze 22 1013 83 4000 1.74 166.068 00:23 12.09.2019
1872 Haze 22 1013 78 4000 1.74 166.068 23:42 11.09.2019
1873 Haze 22 1013 78 4000 1.74 166.068 23:22 11.09.2019
1874 Haze 23 1013 73 3200 2.1 190 22:56 11.09.2019
1875 Haze 23 1013 73 3300 1 200 22:37 11.09.2019
1876 Haze 23 1013 78 3600 1.5 220 22:19 11.09.2019
1877 Haze 23 1013 73 3300 1 200 22:19 11.09.2019
1878 Haze 23 1013 78 3600 1.5 220 21:42 11.09.2019
1879 Haze 23 1013 78 3600 1.5 220 21:42 11.09.2019
1880 Haze 23 1013 78 3600 1.5 220 21:24 11.09.2019
1881 Haze 23 1013 78 4100 2.1 200 20:58 11.09.2019
1882 Haze 23 1013 73 4000 2.1 200 20:39 11.09.2019
1883 Haze 23 1013 73 4000 2.1 200 20:39 11.09.2019
1884 Haze 24 1013 73 4000 2.1 200 20:19 11.09.2019
1885 Haze 24 1014 69 2500 1.5 210 19:58 11.09.2019
1886 Haze 24 1014 69 2700 1.5 190 19:39 11.09.2019
1887 Haze 24 1014 69 2500 1.5 230 19:21 11.09.2019
1888 Haze 24 1014 69 2500 1.5 230 18:58 11.09.2019
1889 Haze 24 1014 73 2500 1.5 0 18:38 11.09.2019
1890 Haze 25 1014 69 3000 1 270 18:19 11.09.2019
1891 Haze 25 1014 69 3000 1 270 17:55 11.09.2019
1892 Haze 26 1014 65 6000 1.25 137.073 17:37 11.09.2019
1893 Haze 26 1014 65 6000 1.25 137.073 17:19 11.09.2019
1894 Haze 26 1013 65 6000 1.25 137.073 16:46 11.09.2019
1895 Haze 26 1013 65 6000 1.25 137.073 16:25 11.09.2019
1896 Clouds 26 1013 69 6000 1 0 15:54 11.09.2019
1897 Clouds 28 1013 61 6000 2.6 50 15:36 11.09.2019
1898 Clouds 28 1012 61 6000 2.1 50 15:18 11.09.2019
1899 Clear 28 1012 48 6000 4.1 20 14:42 11.09.2019
1900 Clear 28 1012 48 6000 4.1 20 14:21 11.09.2019
1901 Clear 28 1012 45 6000 4.1 30 13:59 11.09.2019
1902 Clear 29 1011 40 6000 4.6 50 13:38 11.09.2019
1903 Clouds 29 1011 40 6000 4.6 50 13:20 11.09.2019
1904 Clouds 30 1011 38 7000 5.1 40 12:56 11.09.2019
1905 Clouds 31 1010 36 7000 6.2 50 12:37 11.09.2019
1906 Clear 32 1010 26 7000 6.2 60 12:19 11.09.2019
1907 Clear 33 1010 20 7000 8.2 60 11:39 11.09.2019
1908 Clear 33 1010 20 7000 8.2 60 11:21 11.09.2019
1909 Clear 33 1010 20 7000 8.2 60 11:21 11.09.2019
1910 Clear 33 1010 20 7000 8.2 80 10:56 11.09.2019
1911 Clear 33 1010 19 7000 8.2 60 10:38 11.09.2019
1912 Clear 33 1011 18 7000 8.2 80 10:19 11.09.2019
1913 Clear 34 1011 20 7000 8.2 110 09:39 11.09.2019
1914 Clouds 34 1011 20 7000 8.2 110 09:19 11.09.2019
1915 -273 0 0 0 0 0 08:55 11.09.2019
1916 Clear 34 1012 24 6000 7.7 60 08:36 11.09.2019
1917 Clouds 34 1012 43 9000 6.2 40 08:18 11.09.2019
1918 Clear 34 1013 28 6000 7.2 70 07:40 11.09.2019
1919 Clear 34 1013 26 6000 7.7 70 07:21 11.09.2019
1920 Haze 34 1013 32 5000 6.7 30 06:48 11.09.2019
1921 Haze 34 1013 32 5000 6.7 30 06:27 11.09.2019
1922 Haze 32 1014 40 5000 2.6 160 05:36 11.09.2019
1923 Haze 31 1014 45 5000 2.1 70 05:18 11.09.2019
1924 Haze 29 1014 48 5000 2.1 230 04:22 11.09.2019
1925 Haze 27 1014 61 4000 3.1 190 03:29 11.09.2019
1926 Haze 25 1014 78 3000 2.1 230 02:40 11.09.2019
1927 Haze 23 1013 83 4000 1.5 240 01:42 11.09.2019
1928 Haze 22 1013 83 4000 2.02 167.33 00:46 11.09.2019
1929 Haze 22 1013 73 4500 2.1 200 00:20 11.09.2019
1930 Haze 23 1012 73 4200 1.5 210 23:41 10.09.2019
1931 Haze 23 1012 73 4200 1.5 210 23:41 10.09.2019
1932 Haze 23 1012 73 4200 1.5 210 23:22 10.09.2019
1933 Haze 23 1012 78 4000 1.5 210 22:57 10.09.2019
1934 Haze 23 1012 78 4000 1.5 210 22:57 10.09.2019
1935 Haze 23 1012 73 3500 1.5 230 22:38 10.09.2019
1936 Haze 23 1012 73 3500 1.5 230 22:19 10.09.2019
1937 Haze 23 1012 73 3500 1.5 230 21:55 10.09.2019
1938 Haze 24 1013 78 4000 1.5 260 21:37 10.09.2019
1939 Haze 24 1013 61 4000 1.5 280 21:18 10.09.2019
1940 Haze 25 1013 61 4000 1.5 280 20:56 10.09.2019
1941 Haze 24 1013 65 5000 2.1 130 20:38 10.09.2019
1942 Clouds 25 1013 61 6000 1.5 0 20:19 10.09.2019
1943 Clouds 25 1013 61 6000 1.5 0 19:55 10.09.2019
1944 Clouds 25 1013 61 6000 3.1 130 19:37 10.09.2019
1945 Clouds 25 1014 65 7000 4.1 110 19:18 10.09.2019
1946 Clouds 25 1014 61 6000 4.1 90 18:46 10.09.2019
1947 Clouds 25 1014 61 6000 4.1 90 18:46 10.09.2019
1948 Clouds 26 1014 61 6000 4.1 90 18:23 10.09.2019
1949 Haze 26 1014 57 5000 2.6 70 17:59 10.09.2019
1950 Haze 26 1014 57 5000 2.6 70 17:59 10.09.2019
1951 Haze 26 1014 57 5000 2.6 70 17:59 10.09.2019
1952 Clouds 26 1014 57 7000 3.1 80 17:41 10.09.2019
1953 Clouds 26 1014 57 7000 3.1 80 17:21 10.09.2019
1954 Clouds 26 1014 57 7000 3.1 80 17:21 10.09.2019
1955 Clouds 26 1014 61 8000 3.6 110 16:57 10.09.2019
1956 Clouds 26 1014 57 8000 3.1 110 16:38 10.09.2019
1957 Clouds 26 1014 57 8000 3.1 110 16:20 10.09.2019
1958 Clouds 28 1013 51 7000 3.1 130 15:56 10.09.2019
1959 Clouds 27 1013 57 7000 4.1 100 15:38 10.09.2019
1960 Clouds 27 1013 57 7000 4.1 100 15:19 10.09.2019
1961 Clouds 28 1012 48 7000 4.6 60 14:40 10.09.2019
1962 Clouds 28 1012 48 7000 4.6 60 14:22 10.09.2019
1963 Clouds 29 1011 37 7000 5.7 60 13:49 10.09.2019
1964 Clouds 29 1011 37 7000 5.7 60 13:24 10.09.2019
1965 Clouds 30 1011 37 10000 9.3 90 12:58 10.09.2019
1966 Clouds 31 1011 37 10000 9.3 90 12:40 10.09.2019
1967 Clouds 32 1011 33 9000 8.2 80 12:22 10.09.2019
1968 Clouds 33 1010 30 7000 7.7 50 11:43 10.09.2019
1969 Clouds 34 1010 28 7000 9.3 70 11:23 10.09.2019
1970 Clouds 34 1010 28 7000 9.3 70 10:59 10.09.2019
1971 Clouds 34 1010 26 7000 6.2 60 10:38 10.09.2019
1972 Clouds 34 1010 38 9000 7.7 50 10:18 10.09.2019
1973 Clouds 34 1010 28 7000 7.2 60 09:47 10.09.2019
1974 Clouds 35 1011 43 9000 6.7 50 09:20 10.09.2019
1975 Clouds 34 1011 43 9000 6.7 50 09:20 10.09.2019
1976 Clouds 35 1011 43 9000 6.7 50 08:59 10.09.2019
1977 Clouds 35 1011 26 7000 6.2 50 08:41 10.09.2019
1978 Clouds 35 1011 36 8000 7.7 60 08:21 10.09.2019
1979 Clouds 35 1012 28 7000 6.7 70 07:44 10.09.2019
1980 Clouds 35 1012 32 8000 7.2 70 07:25 10.09.2019
1981 Clouds 35 1013 26 6000 6.2 70 06:48 10.09.2019
1982 Clouds 34 1013 26 6000 6.2 70 06:29 10.09.2019
1983 Haze 32 1014 43 4000 2.6 140 04:41 10.09.2019
1984 Haze 27 1014 65 6000 2.6 0 02:44 10.09.2019
1985 Haze 27 1013 83 3000 1.5 160 02:22 10.09.2019
1986 Haze 27 1014 65 6000 2.6 0 02:22 10.09.2019
1987 Haze 27 1014 65 6000 2.6 0 02:22 10.09.2019
1988 Haze 27 1013 78 3000 1.5 130 01:54 10.09.2019
1989 Haze 27 1013 78 3000 1.5 130 01:54 10.09.2019
1990 Haze 26 1013 78 3000 1.5 130 01:28 10.09.2019
1991 Haze 26 1013 78 5000 1.5 110 00:44 10.09.2019
1992 Haze 26 1012 78 5000 1.5 130 00:24 10.09.2019
1993 Haze 26 1012 83 5000 1.5 120 23:43 09.09.2019
1994 Haze 27 1012 69 5000 3.6 120 23:20 09.09.2019
1995 Haze 27 1012 69 5000 3.6 120 22:56 09.09.2019
1996 Haze 27 1012 69 5000 3.1 110 22:37 09.09.2019
1997 Haze 27 1012 69 5000 3.1 110 22:19 09.09.2019
1998 Haze 27 1012 69 5000 3.1 110 21:56 09.09.2019
1999 Haze 27 1012 69 5000 3.6 120 21:37 09.09.2019
2000 Haze 27 1012 69 5000 3.1 120 21:19 09.09.2019
2001 Haze 27 1012 69 5000 3.1 120 20:55 09.09.2019
2002 Haze 26 1012 69 5000 3.6 120 20:37 09.09.2019
2003 Haze 26 1012 69 5000 3.6 120 20:19 09.09.2019
2004 Haze 26 1012 69 5000 3.6 120 19:57 09.09.2019
2005 Haze 27 1012 69 5000 3.6 120 19:38 09.09.2019
2006 Haze 27 1013 69 5000 3.6 120 19:19 09.09.2019
2007 Haze 27 1013 69 5000 3.6 120 19:19 09.09.2019
2008 Clouds 27 1013 61 6000 3.6 120 18:57 09.09.2019
2009 Clouds 27 1013 61 6000 3.6 120 18:39 09.09.2019
2010 Clouds 27 1013 65 6000 2.6 70 18:20 09.09.2019
2011 Clouds 27 1013 69 6000 1.5 110 17:57 09.09.2019
2012 Clouds 27 1013 69 6000 1.5 110 17:39 09.09.2019
2013 Clouds 27 1013 69 6000 3.6 80 17:20 09.09.2019
2014 Clouds 26 1013 69 6000 3.6 80 16:55 09.09.2019
2015 Clouds 27 1012 65 6000 4.1 80 16:55 09.09.2019
2016 Clouds 27 1012 65 6000 4.1 80 16:37 09.09.2019
2017 Clouds 28 1012 69 7000 2.6 50 16:18 09.09.2019
2018 Clouds 28 1012 69 7000 2.6 50 15:54 09.09.2019
2019 Clouds 28 1012 65 7000 3.1 60 15:36 09.09.2019
2020 Clouds 28 1012 69 8000 3.6 60 15:18 09.09.2019
2021 Clouds 28 1011 66 6000 5.1 20 14:40 09.09.2019
2022 Clouds 28 1011 66 6000 5.1 20 14:40 09.09.2019
2023 Clouds 28 1011 66 6000 4.1 50 14:22 09.09.2019
2024 Clouds 29 1011 66 6000 4.1 50 13:58 09.09.2019
2025 Clouds 29 1011 62 8000 4.1 60 13:40 09.09.2019
2026 Clouds 29 1010 62 8000 5.1 60 13:19 09.09.2019
2027 Clouds 29 1010 62 8000 5.1 60 12:57 09.09.2019
2028 Clouds 29 1010 58 8000 5.1 60 12:37 09.09.2019
2029 Clouds 30 1009 52 6000 7.7 50 12:18 09.09.2019
2030 Clouds 31 1009 46 6000 6.2 40 11:43 09.09.2019
2031 Clouds 31 1009 46 8000 6.2 50 11:20 09.09.2019
2032 Clouds 32 1009 46 8000 6.2 50 10:57 09.09.2019
2033 Clouds 32 1009 43 6000 5.7 70 10:38 09.09.2019
2034 Clouds 32 1009 43 6000 5.1 80 10:19 09.09.2019
2035 Clouds 33 1009 43 6000 4.6 70 09:48 09.09.2019
2036 Clouds 33 1009 43 6000 4.6 70 09:28 09.09.2019
2037 Clouds 33 1010 41 6000 5.1 40 08:57 09.09.2019
2038 Haze 33 1010 43 5000 3.6 40 08:38 09.09.2019
2039 Haze 32 1011 43 5000 5.1 80 08:19 09.09.2019
2040 Haze 32 1011 43 5000 5.1 80 08:19 09.09.2019
2041 Haze 32 1011 43 5000 4.6 20 07:41 09.09.2019
2042 Haze 33 1012 52 7000 6.2 60 07:21 09.09.2019
2043 Haze 32 1012 49 7000 2.6 70 06:54 09.09.2019
2044 Haze 32 1012 49 7000 2.6 70 06:54 09.09.2019
2045 Haze 32 1012 49 7000 2.6 70 06:27 09.09.2019
2046 Haze 27 1014 69 4900 1.5 0 03:21 09.09.2019
2047 Haze 26 1013 83 5000 1.79 172.534 02:42 09.09.2019
2048 Haze 25 1013 83 4000 1.79 172.534 01:47 09.09.2019
2049 Haze 24 1012 78 5000 1.5 220 00:25 09.09.2019
2050 Haze 24 1012 78 5000 1.5 220 23:58 08.09.2019
2051 Haze 24 1012 78 4000 1.93 149.545 23:39 08.09.2019
2052 Clouds 24 1012 78 6000 1.5 200 23:21 08.09.2019
2053 Haze 24 1012 78 5000 1.5 210 22:41 08.09.2019
2054 Haze 24 1012 78 5000 1.5 200 22:23 08.09.2019
2055 Haze 24 1012 78 5000 1.5 200 21:59 08.09.2019
2056 Haze 24 1012 73 5000 1.5 210 21:40 08.09.2019
2057 Haze 25 1012 73 5000 1.5 210 21:22 08.09.2019
2058 Haze 24 1012 78 3800 1.5 240 20:56 08.09.2019
2059 Haze 24 1012 78 3700 2.6 250 20:37 08.09.2019
2060 Haze 24 1012 78 5000 2.1 250 20:19 08.09.2019
2061 Haze 24 1012 78 5000 2.1 250 19:56 08.09.2019
2062 Haze 24 1012 78 5000 2.1 250 19:37 08.09.2019
2063 Haze 25 1012 73 5000 1.5 240 19:18 08.09.2019
2064 Haze 25 1013 73 5000 2.1 240 18:55 08.09.2019
2065 Haze 25 1013 73 5000 2.1 240 18:37 08.09.2019
2066 Haze 26 1013 69 5000 3.1 230 18:18 08.09.2019
2067 Haze 26 1013 65 4700 3.1 250 17:38 08.09.2019
2068 Haze 26 1013 65 4700 3.1 250 17:38 08.09.2019
2069 Clouds 26 1012 65 6000 3.1 120 17:19 08.09.2019
2070 Clouds 26 1012 65 6000 3.1 120 16:58 08.09.2019
2071 Clouds 26 1012 65 6000 3.1 120 16:40 08.09.2019
2072 Haze 27 1012 61 6000 2.1 50 16:20 08.09.2019
2073 Haze 27 1012 61 6000 2.1 50 15:56 08.09.2019
2074 Clouds 27 1012 65 6000 1.5 40 15:36 08.09.2019
2075 Clouds 28 1012 61 7000 2.6 50 15:18 08.09.2019
2076 Clouds 28 1011 58 6000 3.1 70 14:40 08.09.2019
2077 Clouds 28 1011 58 6000 3.1 70 14:22 08.09.2019
2078 Clouds 28 1011 65 8000 4.1 60 13:58 08.09.2019
2079 Clouds 29 1010 58 6000 4.6 30 13:40 08.09.2019
2080 Clouds 29 1010 58 6000 4.6 30 13:40 08.09.2019
2081 Clouds 29 1010 58 8000 5.1 60 13:22 08.09.2019
2082 Clouds 29 1010 58 8000 5.1 60 12:58 08.09.2019
2083 Clouds 29 1010 58 9000 4.6 60 12:40 08.09.2019
2084 Clouds 31 1010 52 9000 5.7 50 12:22 08.09.2019
2085 Clouds 31 1010 52 9000 5.7 50 11:57 08.09.2019
2086 Clouds 32 1009 41 7000 5.1 30 11:37 08.09.2019
2087 Clouds 32 1010 46 9000 6.2 60 11:19 08.09.2019
2088 Clouds 32 1010 41 6000 3.6 10 10:43 08.09.2019
2089 Clouds 32 1010 46 8000 6.7 50 10:23 08.09.2019
2090 Clouds 32 1010 46 8000 6.7 50 09:56 08.09.2019
2091 Clouds 33 1010 43 6000 5.1 40 09:37 08.09.2019
2092 Clouds 33 1010 49 8000 6.2 40 09:19 08.09.2019
2093 Clouds 33 1010 41 6000 5.1 70 08:40 08.09.2019
2094 Clouds 33 1010 41 6000 5.1 70 08:40 08.09.2019
2095 Clouds 33 1011 43 8000 5.1 70 08:19 08.09.2019
2096 Clouds 33 1011 43 8000 5.1 70 08:19 08.09.2019
2097 Clouds 33 1011 43 8000 5.1 70 07:58 08.09.2019
2098 Clouds 33 1011 43 8000 5.1 70 07:37 08.09.2019
2099 Clouds 33 1012 43 8000 5.1 60 07:19 08.09.2019
2100 Clouds 32 1012 49 8000 2.1 0 06:41 08.09.2019
2101 Haze 31 1014 52 5000 2.1 20 05:44 08.09.2019
2102 Haze 30 1014 58 6000 2.6 0 05:26 08.09.2019
2103 Haze 27 1014 69 4000 2.6 200 03:24 08.09.2019
2104 Haze 27 1014 74 4000 2.1 240 02:51 08.09.2019
2105 Haze 25 1014 78 4000 2.6 200 01:54 08.09.2019
2106 Haze 25 1013 83 4000 3.04 203.226 01:33 08.09.2019
2107 Haze 25 1012 78 5000 2.1 200 00:49 08.09.2019
2108 Haze 25 1012 78 5000 2.1 200 00:31 08.09.2019
2109 Haze 25 1012 78 4000 2.6 220 23:58 07.09.2019
2110 Haze 25 1012 78 4000 2.6 200 23:37 07.09.2019
2111 Haze 24 1012 78 4000 1.5 210 23:19 07.09.2019
2112 Haze 25 1012 73 4000 1.5 260 22:44 07.09.2019
2113 Haze 25 1012 73 4000 1.5 260 22:25 07.09.2019
2114 Haze 25 1012 73 4000 2.1 230 21:57 07.09.2019
2115 Haze 25 1012 78 4000 2.1 250 21:38 07.09.2019
2116 Haze 26 1012 74 4000 2.6 270 21:20 07.09.2019
2117 Haze 26 1012 69 5000 2.6 270 20:40 07.09.2019
2118 Haze 26 1013 74 5000 1 280 20:22 07.09.2019
2119 Haze 25 1013 74 5000 1 280 19:57 07.09.2019
2120 Haze 25 1013 74 5000 1 0 19:38 07.09.2019
2121 Haze 26 1013 69 5000 1 360 19:20 07.09.2019
2122 Haze 27 1013 69 5000 1 360 18:59 07.09.2019
2123 Haze 27 1013 69 5000 1 360 18:39 07.09.2019
2124 Haze 27 1013 65 5000 1.5 350 18:20 07.09.2019
2125 Haze 27 1013 65 5000 1.5 350 17:59 07.09.2019
2126 Clouds 27 1013 65 6000 2.1 60 17:39 07.09.2019
2127 Clouds 27 1013 65 6000 2.6 60 17:18 07.09.2019
2128 Clouds 27 1013 65 6000 2.6 60 16:57 07.09.2019
2129 Clouds 27 1013 65 6000 2.6 60 16:57 07.09.2019
2130 Clouds 27 1013 65 6000 2.6 60 16:39 07.09.2019
2131 Clouds 27 1013 65 6000 3.1 60 16:19 07.09.2019
2132 Clouds 28 1013 65 7000 2.6 50 15:45 07.09.2019
2133 Clouds 28 1013 65 7000 2.6 50 15:26 07.09.2019
2134 Clouds 28 1012 61 8000 2.6 60 14:56 07.09.2019
2135 Clouds 28 1012 61 6000 4.1 60 14:36 07.09.2019
2136 Clouds 28 1012 61 6000 4.1 60 14:36 07.09.2019
2137 Clouds 28 1011 54 7000 3.6 60 14:18 07.09.2019
2138 Clouds 28 1011 54 7000 3.6 60 13:56 07.09.2019
2139 Clouds 28 1011 54 7000 4.1 60 13:37 07.09.2019
2140 Clouds 29 1011 54 8000 4.1 60 13:19 07.09.2019
2141 Clouds 29 1010 48 7000 5.7 40 12:44 07.09.2019
2142 Clouds 30 1009 48 7000 5.7 40 12:24 07.09.2019
2143 Clouds 30 1009 46 7000 6.7 40 11:42 07.09.2019
2144 Clouds 31 1009 46 7000 6.7 40 11:22 07.09.2019
2145 Clouds 31 1009 46 7000 5.1 40 10:59 07.09.2019
2146 Clouds 31 1009 41 7000 3.6 10 10:38 07.09.2019
2147 Clouds 32 1009 38 7000 4.1 70 10:19 07.09.2019
2148 Clouds 32 1009 38 6000 4.1 60 09:43 07.09.2019
2149 Clouds 32 1009 38 6000 4.1 80 09:24 07.09.2019
2150 Clouds 33 1009 38 6000 4.1 80 08:57 07.09.2019
2151 Clouds 33 1010 41 6000 2.1 360 08:57 07.09.2019
2152 Clouds 33 1010 41 6000 2.1 360 08:37 07.09.2019
2153 Clouds 33 1010 46 7000 6.2 70 08:19 07.09.2019
2154 Haze 33 1011 43 5000 3.6 120 07:44 07.09.2019
2155 Haze 32 1012 46 5000 3.6 60 07:24 07.09.2019
2156 Haze 32 1012 52 6000 5.7 70 06:43 07.09.2019
2157 Haze 32 1012 52 6000 3.6 90 06:19 07.09.2019
2158 Haze 29 1013 62 4000 3.57 43.286 04:38 07.09.2019
2159 Haze 28 1013 74 3000 1.5 180 03:49 07.09.2019
2160 Haze 26 1013 83 3000 1.5 190 02:43 07.09.2019
2161 Mist 25 1012 73 3500 1.5 190 01:44 07.09.2019
2162 Haze 24 1012 73 2800 1.5 190 00:57 07.09.2019
2163 Haze 24 1012 78 2200 1.5 210 00:38 07.09.2019
2164 Haze 25 1011 78 2300 1.5 230 00:19 07.09.2019
2165 Haze 25 1011 78 4000 2.59 99.007 23:39 06.09.2019
2166 Haze 25 1011 78 2200 1 0 23:21 06.09.2019
2167 Haze 25 1011 78 2200 1 0 22:57 06.09.2019
2168 Haze 25 1011 78 2500 1 250 22:37 06.09.2019
2169 Haze 25 1011 78 2900 1 0 22:19 06.09.2019
2170 Haze 25 1011 78 2900 1 0 21:56 06.09.2019
2171 Haze 25 1011 78 4000 1.5 0 21:38 06.09.2019
2172 Haze 26 1011 78 4000 2.1 70 21:20 06.09.2019
2173 Haze 26 1011 78 4000 2.1 70 20:55 06.09.2019
2174 Haze 26 1012 78 5000 2.1 0 20:37 06.09.2019
2175 Haze 26 1012 78 5000 2.1 0 20:37 06.09.2019
2176 Haze 27 1012 74 5000 2.1 120 20:18 06.09.2019
2177 Clouds 26 1012 74 6000 2.1 80 19:42 06.09.2019
2178 Clouds 26 1012 78 4000 2.1 40 19:24 06.09.2019
2179 Clouds 26 1012 78 4000 2.1 40 18:58 06.09.2019
2180 Haze 26 1012 74 5000 2.1 50 18:40 06.09.2019
2181 Haze 26 1013 78 5000 2.1 30 18:22 06.09.2019
2182 Clouds 26 1013 74 6000 2.1 20 17:56 06.09.2019
2183 Clouds 26 1013 74 6000 2.1 20 17:56 06.09.2019
2184 Clouds 26 1013 74 6000 2.1 20 17:37 06.09.2019
2185 Clouds 27 1013 74 6000 2.1 40 17:18 06.09.2019
2186 Clouds 27 1013 74 8000 3.1 50 16:38 06.09.2019
2187 Clouds 27 1012 69 7000 3.1 60 16:18 06.09.2019
2188 Clouds 27 1012 65 6000 3.1 60 15:41 06.09.2019
2189 Clouds 28 1012 65 6000 3.1 60 15:23 06.09.2019
2190 Clouds 28 1011 65 6000 3.6 30 14:48 06.09.2019
2191 Clouds 28 1011 61 6000 2.1 20 14:20 06.09.2019
2192 Clouds 28 1011 61 6000 2.1 20 13:55 06.09.2019
2193 Clouds 28 1010 62 6000 3.6 360 13:37 06.09.2019
2194 Clouds 29 1010 58 7000 3.1 20 13:18 06.09.2019
2195 Clouds 29 1008 46 6000 2.6 10 12:38 06.09.2019
2196 Clouds 29 1009 51 9000 4.6 40 12:18 06.09.2019
2197 Clouds 30 1009 51 10000 5.1 40 11:43 06.09.2019
2198 Clouds 31 1009 51 10000 5.1 40 11:24 06.09.2019
2199 Clouds 31 1009 52 10000 5.7 40 10:59 06.09.2019
2200 Clouds 31 1008 43 6000 3.1 50 10:40 06.09.2019
2201 Clouds 31 1009 49 7000 3.1 50 10:21 06.09.2019
2202 Clouds 32 1009 49 8000 5.1 30 09:41 06.09.2019
2203 Haze 32 1009 52 8000 5.1 50 09:21 06.09.2019
2204 Haze 32 1009 52 8000 5.1 50 08:58 06.09.2019
2205 Haze 32 1009 49 5000 3.6 50 08:39 06.09.2019
2206 Haze 32 1009 49 5000 3.6 50 08:39 06.09.2019
2207 Haze 32 1009 49 5000 3.6 50 08:39 06.09.2019
2208 Haze 32 1010 49 7000 5.1 60 08:21 06.09.2019
2209 Haze 32 1011 55 4000 3.6 100 07:47 06.09.2019
2210 Haze 32 1011 55 4000 3.6 100 07:27 06.09.2019
2211 Haze 32 1011 55 6000 4.6 50 06:57 06.09.2019
2212 Haze 31 1012 58 6000 4.1 50 06:21 06.09.2019
2213 Haze 31 1013 62 5000 1.5 130 05:43 06.09.2019
2214 Haze 29 1019 78 4000 2.6 170 04:48 06.09.2019
2215 Haze 27 1013 69 4000 1.5 210 03:52 06.09.2019
2216 Haze 25 1012 78 4000 1.5 250 02:23 06.09.2019
2217 Haze 24 1011 83 4000 1.5 220 00:44 06.09.2019
2218 Haze 24 1011 78 4000 2.1 220 23:55 05.09.2019
2219 Haze 24 1011 78 4000 2.1 220 23:37 05.09.2019
2220 Haze 25 1011 69 5000 1.5 210 23:18 05.09.2019
2221 Haze 25 1011 69 5000 2.1 220 22:42 05.09.2019
2222 Haze 25 1011 69 5000 2.1 220 22:24 05.09.2019
2223 Haze 25 1010 69 5000 2.1 230 21:56 05.09.2019
2224 Haze 25 1010 69 5000 1 220 21:38 05.09.2019
2225 Haze 25 1010 69 5000 2.1 200 21:19 05.09.2019
2226 Haze 25 1010 69 5000 2.1 200 20:57 05.09.2019
2227 Haze 25 1011 69 4000 2.1 200 20:37 05.09.2019
2228 Haze 25 1011 69 4000 2.1 200 20:19 05.09.2019
2229 Haze 25 1011 69 4000 2.1 200 20:19 05.09.2019
2230 Haze 25 1011 69 4000 2.1 200 19:55 05.09.2019
2231 Haze 26 1011 69 4000 1.5 200 19:36 05.09.2019
2232 Haze 26 1011 69 4000 2.1 180 19:18 05.09.2019
2233 Haze 26 1011 69 4000 2.1 180 19:18 05.09.2019
2234 Haze 26 1011 74 4000 1.5 200 18:40 05.09.2019
2235 Haze 26 1012 69 5000 1.5 0 18:20 05.09.2019
2236 Clouds 27 1012 69 6000 1 20 17:56 05.09.2019
2237 Clouds 27 1012 69 6000 1 20 17:38 05.09.2019
2238 Clouds 26 1012 69 6000 1 30 17:20 05.09.2019
2239 Clouds 26 1012 69 6000 1 20 16:41 05.09.2019
2240 Clouds 26 1011 74 6000 1 310 16:21 05.09.2019
2241 Clouds 26 1011 74 6000 1 310 15:58 05.09.2019
2242 Clouds 27 1011 69 6000 1 0 15:39 05.09.2019
2243 Clouds 27 1011 69 6000 1.5 50 15:19 05.09.2019
2244 Clouds 27 1011 69 6000 1.5 30 14:44 05.09.2019
2245 Clouds 28 1011 69 6000 1.5 30 14:23 05.09.2019
2246 Clouds 28 1010 69 6000 2.1 340 13:59 05.09.2019
2247 Clouds 28 1010 62 6000 2.1 20 13:39 05.09.2019
2248 Clouds 28 1010 69 8000 2.6 10 13:18 05.09.2019
2249 Clouds 29 1010 65 8000 3.1 10 12:42 05.09.2019
2250 Clouds 29 1009 58 6000 3.6 320 12:24 05.09.2019
2251 Clouds 30 1009 55 6000 4.1 10 11:45 05.09.2019
2252 Clouds 30 1009 55 6000 4.1 40 11:20 05.09.2019
2253 Clouds 30 1009 55 6000 4.1 40 10:59 05.09.2019
2254 Haze 30 1009 55 5000 5.1 20 10:37 05.09.2019
2255 Haze 31 1009 55 5000 5.1 20 10:19 05.09.2019
2256 Haze 31 1009 55 5000 4.6 30 09:41 05.09.2019
2257 Haze 31 1009 52 5000 4.6 20 09:22 05.09.2019
2258 Haze 31 1009 52 5000 4.6 20 08:57 05.09.2019
2259 Haze 32 1010 49 5000 3.6 10 08:39 05.09.2019
2260 Haze 32 1011 52 5000 3.6 30 08:21 05.09.2019
2261 Haze 32 1011 49 5000 3.1 40 07:44 05.09.2019
2262 Haze 32 1011 49 5000 3.1 40 07:25 05.09.2019
2263 Haze 31 1012 49 4000 1.5 90 06:48 05.09.2019
2264 Haze 31 1012 66 3500 2.6 0 06:28 05.09.2019
2265 Haze 29 1013 55 4000 2.1 190 05:47 05.09.2019
2266 Haze 30 1013 55 4000 2.1 190 05:28 05.09.2019
2267 Haze 29 1013 70 4000 2.1 230 04:41 05.09.2019
2268 Haze 28 1013 74 4000 2.1 180 04:18 05.09.2019
2269 Haze 28 1013 69 3500 2.1 0 03:22 05.09.2019
2270 Haze 27 1012 78 3000 2.1 230 02:40 05.09.2019
2271 Haze 26 1012 78 3000 2.1 310 02:18 05.09.2019
2272 Haze 25 1012 83 3500 2.6 240 00:58 05.09.2019
2273 Haze 25 1011 88 5000 0.7 176.966 00:40 05.09.2019
2274 Haze 25 1011 78 3000 2.1 250 00:19 05.09.2019
2275 Haze 26 1011 88 5000 1.35 77.136 23:42 04.09.2019
2276 Mist 26 1011 74 2500 2.6 260 23:23 04.09.2019
2277 Mist 26 1011 74 3500 1 30 22:49 04.09.2019
2278 Haze 26 1011 74 4000 1 120 22:21 04.09.2019
2279 Haze 27 1011 74 4000 1 120 21:58 04.09.2019
2280 Haze 26 1011 78 4000 1.5 110 21:38 04.09.2019
2281 Haze 26 1011 74 4000 1 120 21:19 04.09.2019
2282 Haze 27 1011 74 4000 1 120 20:55 04.09.2019
2283 Haze 27 1011 74 4000 1 120 20:37 04.09.2019
2284 Haze 27 1011 78 4500 1.5 110 20:18 04.09.2019
2285 Haze 27 1011 78 4500 1.5 110 20:18 04.09.2019
2286 Haze 27 1011 78 4500 1.5 110 19:43 04.09.2019
2287 Haze 27 1011 78 5000 2.6 100 19:23 04.09.2019
2288 Clouds 28 1011 74 6000 1.5 100 18:55 04.09.2019
2289 Clouds 28 1011 74 6000 1.5 100 18:36 04.09.2019
2290 Clouds 28 1011 69 6000 2.6 0 18:18 04.09.2019
2291 Clouds 27 1011 78 6000 2.6 90 17:41 04.09.2019
2292 Clouds 26 1011 78 6000 2.6 80 17:22 04.09.2019
2293 Clouds 26 1011 78 6000 2.6 80 16:57 04.09.2019
2294 Clouds 26 1011 74 7000 2.6 100 16:38 04.09.2019
2295 Clouds 27 1011 74 7000 3.1 100 16:19 04.09.2019
2296 Clouds 28 1011 74 7000 3.6 70 15:41 04.09.2019
2297 Haze 28 1011 69 8000 3.1 70 15:22 04.09.2019
2298 Haze 28 1011 69 8000 3.1 70 14:58 04.09.2019
2299 Haze 28 1010 74 5000 2.6 50 14:39 04.09.2019
2300 Haze 28 1010 74 5000 2.6 50 14:39 04.09.2019
2301 Clouds 28 1010 69 9000 3.6 50 14:21 04.09.2019
2302 Clouds 28 1010 69 9000 3.6 50 13:59 04.09.2019
2303 Clouds 28 1010 69 9000 3.6 50 13:39 04.09.2019
2304 Clouds 28 1009 69 8000 3.1 20 13:21 04.09.2019
2305 Clouds 29 1009 66 9000 4.1 40 12:44 04.09.2019
2306 Clouds 29 1009 66 9000 4.1 40 12:26 04.09.2019
2307 Clouds 30 1008 62 6000 2.1 330 11:58 04.09.2019
2308 Clouds 31 1008 62 6000 2.1 330 11:39 04.09.2019
2309 Clouds 31 1009 55 9000 4.6 10 11:20 04.09.2019
2310 Clouds 31 1009 55 9000 4.6 10 10:56 04.09.2019
2311 Clouds 32 1008 55 6000 2.6 340 10:38 04.09.2019
2312 Haze 32 1009 58 7000 5.1 10 10:19 04.09.2019
2313 Haze 32 1009 55 5000 4.1 350 09:45 04.09.2019
2314 Clouds 32 1010 55 6000 5.1 20 09:21 04.09.2019
2315 Haze 32 1010 55 5000 4.6 20 08:43 04.09.2019
2316 Haze 33 1010 55 5000 4.6 20 08:24 04.09.2019
2317 Haze 33 1010 55 5000 3.6 20 07:59 04.09.2019
2318 Haze 34 1010 49 4000 2.6 30 07:36 04.09.2019
2319 Haze 32 1011 58 6000 4.1 10 06:58 04.09.2019
2320 Haze 32 1012 58 4000 2.1 30 06:38 04.09.2019
2321 Haze 29 1013 62 6000 3.1 70 04:55 04.09.2019
2322 Haze 28 1013 65 5000 3.1 120 04:22 04.09.2019
2323 Haze 27 1012 74 4500 2.6 180 02:50 04.09.2019
2324 Mist 25 1012 74 5000 2.1 0 01:20 04.09.2019
2325 Mist 25 1012 78 5000 1.5 0 00:45 04.09.2019
2326 Haze 25 1011 78 5000 2.1 120 00:27 04.09.2019
2327 Haze 25 1011 94 3000 2.42 106.869 23:51 03.09.2019
2328 Haze 25 1011 94 3000 2.42 106.869 23:27 03.09.2019
2329 Mist 26 1011 78 4000 1 0 22:43 03.09.2019
2330 Mist 26 1011 78 4000 1 0 22:24 03.09.2019
2331 Haze 26 1011 78 5000 2.6 90 21:59 03.09.2019
2332 Haze 26 1011 74 5000 1.5 110 21:38 03.09.2019
2333 Haze 26 1011 74 5000 1.5 110 21:38 03.09.2019
2334 Haze 26 1011 74 5000 1.5 110 21:20 03.09.2019
2335 Haze 26 1011 74 5000 1.5 110 20:57 03.09.2019
2336 Haze 26 1011 74 5000 1.5 110 20:38 03.09.2019
2337 Haze 26 1011 78 5000 1.5 110 20:20 03.09.2019
2338 Haze 27 1011 74 5000 1 0 19:55 03.09.2019
2339 Haze 27 1011 74 5000 1 0 19:55 03.09.2019
2340 Haze 27 1011 74 5000 1 0 19:36 03.09.2019
2341 Haze 27 1012 74 5000 1 340 19:18 03.09.2019
2342 Haze 27 1012 74 5000 1 340 19:18 03.09.2019
2343 Haze 27 1012 74 5000 1.5 330 18:41 03.09.2019
2344 Haze 27 1012 74 5000 1 350 18:23 03.09.2019
2345 Haze 27 1012 74 5000 1 0 17:56 03.09.2019
2346 Haze 27 1012 74 5000 1 0 17:38 03.09.2019
2347 Clouds 27 1012 69 6000 1.5 0 17:19 03.09.2019
2348 Clouds 28 1012 69 6000 1.5 0 16:43 03.09.2019
2349 Clouds 28 1012 69 6000 1.5 0 16:43 03.09.2019
2350 Clouds 27 1012 69 6000 1.5 110 16:23 03.09.2019
2351 Clouds 27 1012 69 6000 1.5 110 15:58 03.09.2019
2352 Clouds 28 1011 69 6000 1 0 15:38 03.09.2019
2353 Haze 28 1011 74 5000 1 0 15:20 03.09.2019
2354 Haze 28 1011 74 5000 1 0 14:56 03.09.2019
2355 Clouds 28 1011 70 6000 3.1 40 14:37 03.09.2019
2356 Clouds 28 1010 70 6000 3.1 350 14:19 03.09.2019
2357 Clouds 28 1009 70 6000 2.6 10 13:56 03.09.2019
2358 Clouds 28 1009 70 6000 2.6 10 13:37 03.09.2019
2359 Clouds 28 1010 74 7000 4.1 10 13:19 03.09.2019
2360 Clouds 30 1010 70 7000 3.6 10 12:48 03.09.2019
2361 Clouds 30 1008 62 6000 3.1 360 12:29 03.09.2019
2362 Clouds 31 1009 62 8000 5.1 360 11:44 03.09.2019
2363 Clouds 31 1009 62 8000 5.1 360 11:26 03.09.2019
2364 Clouds 32 1008 49 6000 6.2 360 10:59 03.09.2019
2365 Clouds 32 1008 44 6000 3.6 40 10:40 03.09.2019
2366 Haze 33 1008 44 5000 3.1 30 10:22 03.09.2019
2367 Haze 33 1008 44 5000 3.1 30 09:53 03.09.2019
2368 Haze 33 1008 41 5000 2.1 60 09:33 03.09.2019
2369 Clouds 34 1009 41 6000 5.1 60 08:58 03.09.2019
2370 Haze 34 1009 49 7000 4.6 40 08:38 03.09.2019
2371 Haze 34 1010 46 5000 5.1 120 08:19 03.09.2019
2372 Haze 34 1010 55 7000 4.6 10 07:43 03.09.2019
2373 Haze 33 1010 52 5000 2.6 0 07:24 03.09.2019
2374 -273 0 0 0 0 0 06:55 03.09.2019
2375 Haze 32 1011 58 5000 1.5 0 06:37 03.09.2019
2376 Haze 28 1012 78 4000 2.57 58.834 03:44 03.09.2019
2377 Haze 26 1012 83 3000 3.53 139.297 02:52 03.09.2019
2378 Haze 26 1012 83 3000 3.53 139.297 02:32 03.09.2019
2379 Haze 25 1011 78 3700 2.1 0 01:59 03.09.2019
2380 Haze 25 1011 78 3700 2.1 0 01:41 03.09.2019
2381 Haze 25 1011 83 2500 2.1 300 01:22 03.09.2019
2382 Haze 25 1010 78 2900 2.1 290 00:31 03.09.2019
2383 Haze 25 1010 78 2900 2.1 290 23:56 02.09.2019
2384 Haze 25 1010 78 2900 2.1 290 23:36 02.09.2019
2385 Haze 25 1010 78 5000 2.1 100 23:18 02.09.2019
2386 Haze 25 1010 78 5000 2.1 100 23:18 02.09.2019
2387 Haze 25 1010 78 5000 2.1 100 22:55 02.09.2019
2388 Haze 25 1010 78 5000 2.1 100 22:36 02.09.2019
2389 Haze 26 1010 74 5000 2.1 120 22:18 02.09.2019
2390 Haze 26 1010 74 5000 2.1 120 21:55 02.09.2019
2391 Haze 27 1010 74 5000 2.1 110 21:37 02.09.2019
2392 Haze 27 1010 74 5000 2.6 110 21:18 02.09.2019
2393 Haze 27 1010 74 5000 2.6 110 20:42 02.09.2019
2394 Haze 27 1010 74 5000 3.6 110 20:23 02.09.2019
2395 Haze 27 1010 74 5000 3.6 110 19:59 02.09.2019
2396 Clouds 27 1010 74 6000 3.6 110 19:40 02.09.2019
2397 Clouds 28 1011 69 6000 3.6 80 19:22 02.09.2019
2398 Clouds 28 1011 74 6000 2.1 70 18:57 02.09.2019
2399 Clouds 28 1011 74 6000 2.1 70 18:37 02.09.2019
2400 Clouds 28 1011 69 6000 2.1 50 18:18 02.09.2019
2401 Clouds 28 1011 69 7000 1.5 90 17:40 02.09.2019
2402 Clouds 28 1011 69 6000 1 0 17:21 02.09.2019
2403 Clouds 28 1011 69 6000 1 0 16:59 02.09.2019
2404 Clouds 28 1011 69 6000 1 0 16:59 02.09.2019
2405 Clouds 28 1011 69 6000 1 0 16:39 02.09.2019
2406 Clouds 28 1011 69 6000 1 0 16:39 02.09.2019
2407 Clouds 28 1011 69 7000 1.5 10 16:20 02.09.2019
2408 Clouds 28 1011 69 8000 1.5 10 15:46 02.09.2019
2409 Clouds 28 1011 69 8000 1.5 10 15:27 02.09.2019
2410 Clouds 28 1010 62 8000 3.1 40 14:58 02.09.2019
2411 Clouds 28 1010 62 6000 4.1 30 14:40 02.09.2019
2412 Haze 29 1009 62 7000 3.6 50 14:22 02.09.2019
2413 Haze 29 1009 62 7000 3.6 50 13:56 02.09.2019
2414 Haze 29 1009 62 7000 3.6 50 13:37 02.09.2019
2415 Clouds 29 1009 62 8000 3.1 60 13:19 02.09.2019
2416 Clouds 30 1008 62 8000 3.6 50 12:45 02.09.2019
2417 Clouds 30 1008 58 8000 4.1 30 12:25 02.09.2019
2418 Clouds 31 1008 58 8000 4.1 30 11:58 02.09.2019
2419 Clouds 31 1008 55 6000 4.6 30 11:39 02.09.2019
2420 Clouds 32 1008 55 8000 5.7 20 11:21 02.09.2019
2421 Clouds 32 1008 55 8000 5.7 20 10:57 02.09.2019
2422 Clouds 32 1008 49 6000 4.1 350 10:38 02.09.2019
2423 Clouds 32 1008 49 6000 4.1 350 10:38 02.09.2019
2424 Haze 32 1009 52 8000 4.1 10 10:19 02.09.2019
2425 Haze 33 1008 52 5000 2.6 90 09:46 02.09.2019
2426 Haze 32 1008 52 5000 2.6 90 09:22 02.09.2019
2427 Haze 33 1009 52 5000 3.1 260 08:45 02.09.2019
2428 Haze 33 1010 52 7000 4.1 50 08:24 02.09.2019
2429 Haze 33 1010 52 7000 4.1 50 07:59 02.09.2019
2430 Haze 33 1010 52 7000 4.1 50 07:40 02.09.2019
2431 Haze 32 1011 52 7000 4.1 30 07:21 02.09.2019
2432 Haze 32 1011 55 7000 3.6 20 06:44 02.09.2019
2433 -273 0 0 0 0 0 06:25 02.09.2019
2434 Haze 31 1012 58 5000 1.5 270 05:47 02.09.2019
2435 Haze 30 1013 58 6000 2.1 0 05:18 02.09.2019
2436 Haze 28 1013 61 6000 3.6 190 04:18 02.09.2019
2437 Haze 24 1012 73 5000 2.6 240 01:45 02.09.2019
2438 Haze 24 1011 78 4300 1.5 210 00:48 02.09.2019
2439 Haze 24 1011 78 5000 1 210 00:30 02.09.2019
2440 Haze 24 1011 83 5000 0.93 223.082 23:44 01.09.2019
2441 Haze 24 1011 73 4000 1.5 200 23:22 01.09.2019
2442 Haze 24 1011 73 4000 1.5 200 22:59 01.09.2019
2443 Haze 24 1011 78 3400 2.6 220 22:39 01.09.2019
2444 Haze 24 1011 73 4000 2.6 230 22:19 01.09.2019
2445 Haze 25 1011 73 4000 2.6 230 21:57 01.09.2019
2446 Haze 25 1011 73 4000 2.6 230 21:38 01.09.2019
2447 Haze 25 1011 73 5000 1 0 21:20 01.09.2019
2448 Haze 25 1011 73 5000 1 0 20:56 01.09.2019
2449 Haze 25 1011 73 5000 1 0 20:36 01.09.2019
2450 Haze 25 1011 73 5000 1.5 260 20:18 01.09.2019
2451 Haze 25 1011 73 5000 1.5 260 20:18 01.09.2019
2452 Haze 25 1011 73 5000 1 280 19:56 01.09.2019
2453 Haze 25 1011 73 5000 1 280 19:37 01.09.2019
2454 Haze 25 1011 73 5000 1.5 260 19:18 01.09.2019
2455 Clouds 25 1011 73 6000 1.5 230 18:43 01.09.2019
2456 Clouds 26 1011 69 6000 1.5 270 18:25 01.09.2019
2457 Clouds 27 1011 65 6000 0.33 155.931 17:55 01.09.2019
2458 Clouds 27 1011 65 6000 0.33 155.931 17:55 01.09.2019
2459 Clouds 26 1011 65 6000 0.33 155.931 17:37 01.09.2019
2460 Clouds 26 1011 54 6000 1.5 0 17:18 01.09.2019
2461 Clouds 26 1011 54 6000 1.5 0 17:18 01.09.2019
2462 Clouds 27 1011 54 6000 1.5 0 16:39 01.09.2019
2463 Clouds 26 1010 61 7000 3.1 120 16:19 01.09.2019
2464 Clouds 26 1010 69 8000 2.6 70 15:48 01.09.2019
2465 Clouds 27 1010 69 8000 2.6 70 15:29 01.09.2019
2466 Clouds 27 1010 65 8000 2.6 70 14:57 01.09.2019
2467 Clear 27 1010 54 7000 4.1 60 14:38 01.09.2019
2468 Clear 28 1010 58 7000 4.1 40 14:20 01.09.2019
2469 Clear 28 1010 51 7000 5.7 40 13:54 01.09.2019
2470 Clear 28 1010 51 7000 5.7 40 13:36 01.09.2019
2471 Clouds 29 1010 58 8000 4.6 50 13:18 01.09.2019
2472 Clouds 30 1009 55 7000 4.6 50 12:40 01.09.2019
2473 Clouds 30 1009 51 7000 4.6 50 12:21 01.09.2019
2474 Clouds 31 1009 58 6000 5.7 50 11:41 01.09.2019
2475 Clouds 31 1008 41 7000 5.7 50 11:20 01.09.2019
2476 Clouds 32 1008 41 7000 5.7 50 10:58 01.09.2019
2477 Clouds 32 1008 41 7000 2.6 40 10:40 01.09.2019
2478 Clouds 32 1008 41 7000 7.2 40 10:21 01.09.2019
2479 Clouds 32 1009 41 7000 4.6 100 09:43 01.09.2019
2480 Clouds 32 1009 41 7000 3.1 30 09:25 01.09.2019
2481 Clouds 33 1010 43 7000 4.1 60 08:44 01.09.2019
2482 Clouds 32 1010 43 7000 4.1 60 08:24 01.09.2019
2483 Clouds 32 1011 41 6000 6.7 30 07:51 01.09.2019
2484 Clouds 32 1011 41 6000 6.7 30 07:51 01.09.2019
2485 Clouds 32 1011 41 6000 6.7 30 07:33 01.09.2019
2486 Clouds 32 1012 49 6000 2.6 80 06:42 01.09.2019
2487 Clouds 32 1012 46 6000 4.1 30 06:23 01.09.2019
2488 Clouds 31 1012 52 6000 4.1 170 05:55 01.09.2019
2489 Haze 30 1013 58 5000 1.5 220 04:31 01.09.2019
2490 Haze 28 1012 65 4000 2.6 230 03:42 01.09.2019
2491 Haze 25 1012 73 4100 3.1 220 02:57 01.09.2019
2492 Haze 24 1012 83 3000 2.1 230 02:26 01.09.2019
2493 Haze 24 1012 78 4000 2.1 260 01:50 01.09.2019
2494 Haze 24 1012 78 4000 2.1 260 01:50 01.09.2019
2495 Haze 24 1011 78 3200 1.5 220 01:23 01.09.2019
2496 Haze 24 1011 78 3000 2.6 230 00:45 01.09.2019
2497 Haze 24 1010 78 4400 1.5 0 00:22 01.09.2019
2498 Haze 24 1010 73 4400 1.5 160 23:54 31.08.2019
2499 Haze 25 1010 73 4400 1.5 160 23:36 31.08.2019
2500 Haze 25 1010 73 4900 2.1 180 23:18 31.08.2019
2501 Haze 25 1010 73 5000 2.1 180 22:42 31.08.2019
2502 Haze 25 1010 73 5000 2.6 190 22:24 31.08.2019
2503 Haze 25 1010 73 5000 2.6 190 21:56 31.08.2019
2504 Haze 26 1011 69 5000 1.5 190 21:37 31.08.2019
2505 Haze 26 1011 69 5000 1.5 190 21:37 31.08.2019
2506 Clouds 26 1011 69 6000 1.5 190 21:19 31.08.2019
2507 Clouds 26 1011 69 6000 1.5 190 20:47 31.08.2019
2508 Clouds 26 1011 69 6000 1.5 190 20:28 31.08.2019
2509 Clouds 26 1011 69 7000 1.5 0 19:56 31.08.2019
2510 Clouds 25 1011 69 7000 1.5 0 19:37 31.08.2019
2511 Clouds 24 1011 73 7000 2.6 130 19:19 31.08.2019
2512 Clouds 25 1011 69 7000 3.6 110 18:40 31.08.2019
2513 Clouds 25 1011 69 7000 3.1 120 18:20 31.08.2019
2514 Clouds 25 1011 69 7000 3.6 110 17:56 31.08.2019
2515 Clouds 25 1011 69 7000 3.6 110 17:37 31.08.2019
2516 Clouds 25 1011 69 7000 4.1 110 17:18 31.08.2019
2517 Clouds 25 1011 69 7000 4.1 110 16:57 31.08.2019
2518 Clouds 25 1010 69 7000 5.1 110 16:39 31.08.2019
2519 Clouds 26 1010 65 7000 5.7 90 16:20 31.08.2019
2520 Clouds 26 1010 65 7000 5.7 90 15:55 31.08.2019
2521 Clouds 27 1009 65 7000 5.7 80 15:36 31.08.2019
2522 Clouds 27 1009 65 7000 5.7 80 15:18 31.08.2019
2523 Clouds 27 1009 65 6000 3.6 40 14:41 31.08.2019
2524 Clouds 27 1009 65 6000 3.6 40 14:41 31.08.2019
2525 Clouds 27 1008 61 7000 6.7 70 14:22 31.08.2019
2526 Clouds 28 1008 61 7000 6.7 70 13:41 31.08.2019
2527 Clouds 28 1008 61 7000 7.2 70 13:23 31.08.2019
2528 Clouds 28 1008 61 7000 7.2 70 12:59 31.08.2019
2529 Clouds 29 1007 58 8000 7.7 60 12:39 31.08.2019
2530 Clouds 29 1007 54 7000 8.2 70 12:20 31.08.2019
2531 Clouds 29 1007 51 7000 8.2 70 11:55 31.08.2019
2532 Clouds 31 1007 51 7000 8.2 70 11:36 31.08.2019
2533 Clouds 31 1007 48 7000 7.7 60 11:18 31.08.2019
2534 Clouds 31 1007 48 7000 7.7 60 11:18 31.08.2019
2535 Clouds 31 1007 43 7000 5.1 50 10:41 31.08.2019
2536 Clouds 32 1007 43 6000 7.7 60 10:19 31.08.2019
2537 Clouds 32 1007 38 7000 5.1 20 09:56 31.08.2019
2538 Clouds 32 1007 38 7000 5.1 20 09:37 31.08.2019
2539 Clouds 32 1008 38 7000 6.7 70 09:19 31.08.2019
2540 Clouds 33 1008 43 6000 5.1 40 08:43 31.08.2019
2541 Clouds 32 1008 43 6000 5.1 40 08:23 31.08.2019
2542 Clouds 32 1009 43 6000 5.1 50 07:40 31.08.2019
2543 Clouds 32 1009 40 7000 5.1 80 07:22 31.08.2019
2544 Clouds 32 1010 43 7000 5.7 80 06:41 31.08.2019
2545 Clouds 31 1010 43 6000 3.6 60 06:18 31.08.2019
2546 Clouds 30 1011 37 6000 2.6 120 05:33 31.08.2019
2547 Haze 29 1011 48 5000 2.6 150 04:36 31.08.2019
2548 Haze 27 1011 74 3000 1.5 80 03:45 31.08.2019
2549 Haze 24 1010 88 3000 2.22 136.387 02:37 31.08.2019
2550 Haze 24 1009 83 3000 2.22 136.387 01:53 31.08.2019
2551 Haze 24 1009 83 3000 1.99 124.666 01:33 31.08.2019
2552 Mist 23 1009 78 2600 1.5 200 00:52 31.08.2019
2553 Mist 23 1009 78 2600 1.5 200 00:30 31.08.2019
2554 Mist 23 1009 78 3000 0.5 220 23:57 30.08.2019
2555 Mist 23 1009 78 3000 0.5 220 23:39 30.08.2019
2556 Mist 23 1008 78 3000 1.5 250 23:18 30.08.2019
2557 Mist 23 1009 73 3000 1 270 22:42 30.08.2019
2558 Mist 24 1009 73 3500 1.5 240 22:24 30.08.2019
2559 Haze 25 1009 73 5000 1 220 21:59 30.08.2019
2560 Haze 25 1009 73 5000 1 220 21:38 30.08.2019
2561 Haze 25 1009 73 5000 2.1 210 21:20 30.08.2019
2562 Haze 25 1009 73 5000 2.1 210 20:59 30.08.2019
2563 Haze 25 1009 73 5000 2.1 210 20:40 30.08.2019
2564 Haze 26 1010 69 5000 1.5 210 20:20 30.08.2019
2565 Haze 26 1010 69 5000 1.5 210 19:58 30.08.2019
2566 Haze 26 1010 69 5000 1.5 210 19:39 30.08.2019
2567 Haze 25 1010 73 5000 1.5 230 19:19 30.08.2019
2568 Haze 25 1010 73 5000 1.5 250 18:55 30.08.2019
2569 Haze 25 1010 73 5000 1.5 250 18:37 30.08.2019
2570 Haze 25 1010 73 5000 1.5 250 18:37 30.08.2019
2571 Haze 26 1010 65 5000 1.5 270 18:18 30.08.2019
2572 Clouds 25 1010 57 6000 2.1 0 17:55 30.08.2019
2573 Clouds 26 1010 57 6000 2.1 0 17:55 30.08.2019
2574 Clouds 25 1010 57 6000 2.1 0 17:37 30.08.2019
2575 Clouds 25 1010 61 6000 3.1 120 17:18 30.08.2019
2576 Clouds 25 1010 61 7000 2.6 120 16:43 30.08.2019
2577 Clouds 26 1010 61 7000 2.6 90 16:22 30.08.2019
2578 Clouds 26 1009 58 6000 3.6 90 15:44 30.08.2019
2579 Clouds 26 1009 65 8000 2.6 70 15:24 30.08.2019
2580 Clouds 26 1009 58 6000 3.6 90 15:24 30.08.2019
2581 Clouds 27 1009 65 8000 2.6 70 14:57 30.08.2019
2582 Clouds 27 1009 58 6000 5.1 60 14:38 30.08.2019
2583 Clouds 28 1008 65 8000 4.6 60 14:20 30.08.2019
2584 Clouds 28 1008 51 6000 6.7 60 13:43 30.08.2019
2585 Clouds 28 1008 45 6000 7.2 40 13:23 30.08.2019
2586 Clouds 28 1008 45 6000 7.2 40 13:23 30.08.2019
2587 Clouds 30 1008 54 8000 5.7 60 12:56 30.08.2019
2588 Clouds 30 1008 54 8000 5.7 60 12:38 30.08.2019
2589 Clouds 29 1007 51 8000 5.7 60 12:20 30.08.2019
2590 Clear 30 1007 35 7000 7.7 50 11:41 30.08.2019
2591 Clear 31 1007 40 7000 8.2 60 11:23 30.08.2019
2592 Clear 31 1007 41 7000 8.2 30 10:40 30.08.2019
2593 Clear 31 1007 41 7000 8.2 70 10:22 30.08.2019
2594 Clear 32 1007 41 7000 8.2 70 09:58 30.08.2019
2595 Clear 33 1008 38 7000 8.2 40 09:39 30.08.2019
2596 Clear 33 1008 38 7000 7.7 50 09:19 30.08.2019
2597 Clear 33 1008 38 7000 7.7 50 09:19 30.08.2019
2598 Clouds 32 1009 40 8000 6.7 50 08:44 30.08.2019
2599 Clouds 32 1010 43 8000 7.2 70 08:25 30.08.2019
2600 Clouds 32 1010 43 8000 7.2 70 07:59 30.08.2019
2601 Clouds 32 1010 38 7000 6.7 60 07:39 30.08.2019
2602 Clouds 33 1010 33 7000 4.6 80 07:21 30.08.2019
2603 Clear 33 1011 23 6000 7.2 80 06:44 30.08.2019
2604 Haze 32 1011 36 6000 3.1 80 06:26 30.08.2019
2605 Haze 31 1012 43 5000 3.6 50 05:43 30.08.2019
2606 Haze 28 1012 65 3500 1.5 0 03:58 30.08.2019
2607 Haze 27 1012 74 4000 2.1 220 03:38 30.08.2019
2608 Haze 25 1011 83 3000 2.66 151.186 02:55 30.08.2019
2609 Haze 25 1011 83 3000 2.66 151.186 02:24 30.08.2019
2610 Haze 24 1011 88 3000 2.57 135.804 01:28 30.08.2019
2611 Haze 24 1010 88 3000 2.1 240 00:29 30.08.2019
2612 Haze 24 1010 88 3000 2.1 240 23:59 29.08.2019
2613 Haze 24 1010 88 3000 2.1 260 23:40 29.08.2019
2614 Haze 24 1010 88 3000 2.1 260 23:20 29.08.2019
2615 Haze 24 1010 83 3000 2.1 250 22:43 29.08.2019
2616 Haze 25 1010 83 3000 2.1 250 22:24 29.08.2019
2617 Haze 25 1010 83 4000 1.5 280 21:56 29.08.2019
2618 Haze 26 1010 69 4000 1 0 21:38 29.08.2019
2619 Haze 27 1010 65 5000 1.5 260 21:20 29.08.2019
2620 Clouds 27 1010 65 7000 2.6 110 20:43 29.08.2019
2621 Clouds 27 1010 65 7000 2.6 110 20:20 29.08.2019
2622 Clouds 27 1011 65 7000 2.1 0 19:59 29.08.2019
2623 Clouds 27 1011 65 7000 2.6 120 19:40 29.08.2019
2624 Clouds 27 1011 65 7000 2.6 120 19:21 29.08.2019
2625 Clouds 26 1011 69 7000 3.6 120 18:44 29.08.2019
2626 Clouds 27 1011 69 7000 3.6 120 18:21 29.08.2019
2627 Clouds 27 1011 61 7000 3.6 130 18:21 29.08.2019
2628 Clouds 28 1011 61 7000 3.6 130 17:57 29.08.2019
2629 Clouds 28 1012 61 7000 3.6 120 17:39 29.08.2019
2630 Clouds 28 1012 61 7000 3.6 120 17:19 29.08.2019
2631 Clouds 27 1011 69 7000 4.1 120 16:57 29.08.2019
2632 Clouds 27 1011 61 7000 4.1 130 16:39 29.08.2019
2633 Clouds 28 1011 61 7000 4.1 130 16:20 29.08.2019
2634 Clouds 27 1011 74 8000 5.1 90 15:39 29.08.2019
2635 Clouds 27 1010 74 8000 5.7 80 15:21 29.08.2019
2636 Clouds 27 1010 74 6000 3.6 80 14:50 29.08.2019
2637 Clouds 27 1010 74 6000 3.6 80 14:25 29.08.2019
2638 Clouds 28 1009 69 7000 5.1 70 13:59 29.08.2019
2639 Clouds 28 1009 69 7000 5.1 70 13:40 29.08.2019
2640 Clouds 28 1009 69 8000 5.1 70 13:21 29.08.2019
2641 Clouds 29 1009 66 8000 5.7 70 12:59 29.08.2019
2642 Clouds 29 1009 66 8000 5.7 70 12:59 29.08.2019
2643 Clouds 29 1009 66 8000 5.7 70 12:40 29.08.2019
2644 Clouds 28 1008 66 9000 7.7 60 12:22 29.08.2019
2645 Clouds 29 1008 66 9000 7.7 60 11:59 29.08.2019
2646 Clouds 29 1009 62 9000 7.2 60 11:40 29.08.2019
2647 Clouds 31 1009 55 9000 7.7 70 11:20 29.08.2019
2648 Clouds 31 1009 55 9000 7.7 70 11:20 29.08.2019
2649 Clouds 31 1009 52 6000 7.2 50 10:45 29.08.2019
2650 Clouds 31 1009 52 6000 7.2 50 10:25 29.08.2019
2651 Clouds 31 1009 55 7000 7.2 60 09:57 29.08.2019
2652 Clouds 31 1009 58 6000 7.2 60 09:39 29.08.2019
2653 Haze 32 1010 55 6000 7.2 60 09:18 29.08.2019
2654 Haze 32 1010 46 5000 6.2 80 08:41 29.08.2019
2655 Haze 33 1010 46 5000 6.2 80 08:23 29.08.2019
2656 Haze 32 1011 52 5000 2.6 50 07:53 29.08.2019
2657 Haze 32 1011 52 5000 2.6 50 07:33 29.08.2019
2658 Haze 31 1011 58 4000 4.6 70 06:57 29.08.2019
2659 Haze 31 1011 58 4000 4.6 70 06:37 29.08.2019
2660 Haze 30 1013 62 4000 2.6 110 05:52 29.08.2019
2661 Haze 29 1013 66 3000 3.6 170 05:21 29.08.2019
2662 Haze 28 1013 70 4000 4.1 100 04:47 29.08.2019
2663 Haze 27 1013 70 4000 4.1 100 04:26 29.08.2019
2664 Mist 25 1013 83 4500 3.6 170 01:54 29.08.2019
2665 Haze 25 1013 83 4000 2.6 210 01:35 29.08.2019
2666 Haze 25 1012 83 3500 1.5 220 00:47 29.08.2019
2667 Haze 25 1012 78 2700 2.1 200 00:23 29.08.2019
2668 Haze 25 1012 88 4000 0.74 145.684 23:58 28.08.2019
2669 Haze 25 1012 88 4000 0.74 145.684 23:38 28.08.2019
2670 Mist 25 1012 78 3700 0.5 0 23:20 28.08.2019
2671 Mist 25 1012 78 3700 0.5 0 22:56 28.08.2019
2672 Mist 25 1012 78 3800 2.1 180 22:37 28.08.2019
2673 Mist 25 1012 78 4000 1.5 180 22:18 28.08.2019
2674 Mist 25 1012 83 3700 2.6 170 21:41 28.08.2019
2675 Haze 25 1012 83 4500 2.1 180 21:23 28.08.2019
2676 Haze 25 1012 83 4500 2.1 180 20:56 28.08.2019
2677 Haze 24 1012 88 4000 1.5 220 20:38 28.08.2019
2678 Haze 24 1013 88 4000 2.1 240 20:20 28.08.2019
2679 Haze 24 1013 88 4000 1.5 190 19:42 28.08.2019
2680 Haze 23 1013 88 4000 1.5 190 19:22 28.08.2019
2681 Clouds 23 1013 88 4000 2.1 220 18:58 28.08.2019
2682 Clouds 23 1013 88 4000 2.1 220 18:37 28.08.2019
2683 Clouds 23 1013 88 4000 2.1 220 18:19 28.08.2019
2684 Haze 24 1013 83 5000 2.6 0 17:39 28.08.2019
2685 Haze 24 1013 78 5000 2.6 0 17:19 28.08.2019
2686 Haze 24 1013 78 5000 2.6 0 16:55 28.08.2019
2687 Clouds 24 1013 83 6000 3.1 150 16:37 28.08.2019
2688 Clouds 23 1013 83 6000 2.6 170 16:18 28.08.2019
2689 Clouds 24 1012 78 8000 2.1 210 15:38 28.08.2019
2690 Clouds 23 1012 83 8000 2.1 210 15:20 28.08.2019
2691 Clouds 25 1012 83 8000 2.1 210 14:57 28.08.2019
2692 Rain 25 1012 83 6000 4.1 210 14:39 28.08.2019
2693 Haze 26 1012 69 6000 6.7 180 14:20 28.08.2019
2694 Haze 27 1012 69 6000 6.7 180 13:58 28.08.2019
2695 Haze 28 1011 83 5000 4.1 240 13:38 28.08.2019
2696 Haze 29 1011 74 7000 4.6 60 13:19 28.08.2019
2697 Haze 29 1010 66 6000 4.6 30 12:42 28.08.2019
2698 Rain 30 1009 66 8000 5.7 40 12:24 28.08.2019
2699 Rain 30 1009 66 8000 5.7 40 11:57 28.08.2019
2700 Rain 30 1008 58 6000 5.1 60 11:38 28.08.2019
2701 Clouds 30 1009 62 7000 4.6 30 11:20 28.08.2019
2702 Clouds 30 1009 62 7000 5.7 30 10:55 28.08.2019
2703 Haze 31 1009 62 7000 5.7 30 10:37 28.08.2019
2704 Haze 31 1009 58 8000 6.2 40 10:18 28.08.2019
2705 Haze 31 1008 52 6000 4.6 50 09:41 28.08.2019
2706 Haze 31 1008 52 6000 4.6 50 09:41 28.08.2019
2707 Clouds 31 1009 58 7000 5.7 40 09:20 28.08.2019
2708 Clouds 31 1010 58 8000 5.7 10 08:40 28.08.2019
2709 Clouds 31 1010 55 8000 7.2 10 08:21 28.08.2019
2710 Clouds 32 1011 52 8000 6.2 50 07:45 28.08.2019
2711 Haze 32 1011 52 8000 6.2 50 07:26 28.08.2019
2712 Haze 32 1011 52 8000 6.2 50 06:59 28.08.2019
2713 Haze 31 1011 62 4000 2.1 180 06:40 28.08.2019
2714 Haze 30 1012 70 3000 1.5 270 05:44 28.08.2019
2715 Haze 28 1013 83 3000 1.5 140 03:55 28.08.2019
2716 Haze 26 1012 83 4400 1 200 01:53 28.08.2019
2717 Haze 26 1012 83 4400 1 200 01:30 28.08.2019
2718 Haze 26 1011 88 3000 3.75 108.15 00:42 28.08.2019
2719 Haze 26 1011 78 4000 1 250 00:18 28.08.2019
2720 Haze 26 1011 83 3000 1 230 23:40 27.08.2019
2721 Haze 25 1011 83 3900 1.5 260 23:21 27.08.2019
2722 Haze 26 1011 83 3900 1.5 260 22:57 27.08.2019
2723 Haze 27 1011 78 4500 1.5 260 22:38 27.08.2019
2724 Haze 27 1011 78 5000 1 260 22:20 27.08.2019
2725 Haze 27 1011 83 5000 1 220 21:55 27.08.2019
2726 Haze 27 1011 83 5000 1 220 21:55 27.08.2019
2727 Haze 27 1011 83 5000 1 220 21:37 27.08.2019
2728 Haze 27 1011 78 5000 1 230 21:18 27.08.2019
2729 Haze 27 1011 78 5000 1 0 20:42 27.08.2019
2730 Haze 27 1011 78 5000 1 160 20:21 27.08.2019
2731 Haze 27 1011 78 5000 1 160 19:58 27.08.2019
2732 Haze 27 1011 78 5000 1 160 19:58 27.08.2019
2733 Haze 27 1011 78 5000 1 160 19:40 27.08.2019
2734 Clouds 27 1011 78 6000 1 0 19:22 27.08.2019
2735 Clouds 27 1012 78 6000 1 120 18:54 27.08.2019
2736 Clouds 27 1012 78 6000 1 120 18:36 27.08.2019
2737 Clouds 27 1012 78 6000 1.5 80 18:18 27.08.2019
2738 Clouds 27 1012 78 6000 3.1 50 17:42 27.08.2019
2739 Clouds 27 1012 78 6000 3.6 50 17:22 27.08.2019
2740 Clouds 27 1011 78 7000 4.1 40 16:48 27.08.2019
2741 Clouds 27 1011 78 7000 4.1 40 16:28 27.08.2019
2742 Clouds 27 1011 78 7000 4.1 40 16:28 27.08.2019
2743 Clouds 27 1011 78 7000 3.6 50 15:58 27.08.2019
2744 Clouds 27 1011 78 6000 2.1 60 15:40 27.08.2019
2745 Haze 28 1011 74 8000 4.1 40 15:21 27.08.2019
2746 Haze 28 1011 74 8000 4.1 40 14:58 27.08.2019
2747 Haze 28 1010 70 6000 2.6 60 14:40 27.08.2019
2748 Haze 28 1009 74 8000 3.1 40 14:20 27.08.2019
2749 Haze 28 1009 70 5000 3.6 50 13:42 27.08.2019
2750 Haze 29 1008 66 9000 4.6 50 13:23 27.08.2019
2751 Haze 29 1008 66 9000 4.6 50 12:55 27.08.2019
2752 Haze 29 1008 58 5000 3.6 60 12:36 27.08.2019
2753 Clouds 29 1008 62 9000 5.1 40 12:18 27.08.2019
2754 Clouds 30 1008 62 9000 5.1 20 11:43 27.08.2019
2755 Haze 30 1008 58 9000 5.1 20 11:23 27.08.2019
2756 Haze 31 1008 62 4000 3.1 330 10:42 27.08.2019
2757 Haze 31 1008 52 9000 4.1 360 10:21 27.08.2019
2758 Haze 32 1008 52 9000 4.1 360 09:58 27.08.2019
2759 Haze 32 1009 66 4000 4.47 24.451 09:38 27.08.2019
2760 Clouds 32 1009 55 9000 5.1 20 09:20 27.08.2019
2761 Clouds 32 1010 52 9000 5.1 10 08:48 27.08.2019
2762 Clouds 32 1010 52 9000 5.1 10 08:27 27.08.2019
2763 Clouds 32 1010 52 9000 5.1 10 08:27 27.08.2019
2764 Clouds 32 1010 55 10000 5.1 10 07:59 27.08.2019
2765 Clouds 31 1010 58 9000 4.1 10 07:38 27.08.2019
2766 Clouds 32 1010 58 9000 4.1 10 07:19 27.08.2019
2767 Clouds 32 1011 58 9000 3.1 0 06:50 27.08.2019
2768 Clouds 32 1011 58 9000 3.1 0 06:21 27.08.2019
2769 Clouds 31 1012 58 10000 1.5 0 05:30 27.08.2019
2770 Clouds 31 1012 58 9000 2.1 0 04:28 27.08.2019
2771 Clouds 29 1012 65 7000 1 0 03:32 27.08.2019
2772 Haze 26 1011 69 5000 3.1 210 02:22 27.08.2019
2773 Haze 25 1011 69 5000 3.1 210 01:34 27.08.2019
2774 Haze 25 1011 73 5000 2.1 200 00:50 27.08.2019
2775 Haze 25 1011 73 5000 2.1 200 00:29 27.08.2019
2776 Haze 25 1010 73 5000 1.5 230 23:54 26.08.2019
2777 Haze 25 1010 73 5000 1.5 230 23:36 26.08.2019
2778 Haze 25 1010 74 5000 1.5 180 23:18 26.08.2019
2779 Haze 26 1010 74 5000 2.6 210 22:38 26.08.2019
2780 Haze 26 1010 74 5000 2.6 210 22:19 26.08.2019
2781 Haze 26 1010 74 5000 2.1 220 21:55 26.08.2019
2782 Haze 26 1010 74 5000 2.6 200 21:37 26.08.2019
2783 Haze 26 1010 74 5000 2.6 200 21:18 26.08.2019
2784 Haze 26 1010 74 5000 2.6 200 20:54 26.08.2019
2785 Haze 26 1011 74 5000 2.1 220 20:36 26.08.2019
2786 Haze 26 1011 74 5000 2.1 260 20:18 26.08.2019
2787 Haze 26 1011 69 5000 2.1 220 19:42 26.08.2019
2788 Haze 27 1011 69 5000 2.1 220 19:19 26.08.2019
2789 Haze 27 1011 69 5000 2.1 220 18:56 26.08.2019
2790 Haze 27 1012 65 5000 1.5 0 18:37 26.08.2019
2791 Haze 28 1012 69 5000 1.5 0 18:18 26.08.2019
2792 Clouds 28 1012 69 6000 1 0 17:43 26.08.2019
2793 Clouds 28 1012 69 6000 1 0 17:19 26.08.2019
2794 Clouds 27 1012 69 6000 1.5 320 16:57 26.08.2019
2795 Clouds 27 1011 69 6000 1 320 16:38 26.08.2019
2796 Clouds 27 1011 69 6000 1 320 16:18 26.08.2019
2797 Clouds 27 1011 69 8000 1 20 15:44 26.08.2019
2798 Clouds 27 1011 69 8000 1 20 15:22 26.08.2019
2799 Clouds 28 1010 62 9000 1 10 14:58 26.08.2019
2800 Clouds 28 1010 62 9000 1.5 10 14:39 26.08.2019
2801 Haze 28 1010 62 9000 1.5 10 14:21 26.08.2019
2802 Haze 28 1009 66 5000 1.5 20 13:43 26.08.2019
2803 Haze 28 1009 66 5000 1.5 20 13:23 26.08.2019
2804 Haze 29 1009 66 9000 3.1 30 12:56 26.08.2019
2805 Haze 29 1008 66 5000 2.6 360 12:37 26.08.2019
2806 Clouds 29 1008 55 10000 4.1 30 12:19 26.08.2019
2807 Clouds 30 1008 55 10000 3.6 10 11:38 26.08.2019
2808 Clouds 30 1008 55 10000 3.6 10 11:20 26.08.2019
2809 Clouds 30 1008 55 10000 3.6 10 10:57 26.08.2019
2810 Clouds 31 1008 55 10000 4.6 10 10:39 26.08.2019
2811 Clouds 31 1008 52 10000 4.6 30 10:18 26.08.2019
2812 Clouds 32 1008 52 10000 4.1 40 09:42 26.08.2019
2813 Clouds 32 1008 52 10000 4.1 40 09:24 26.08.2019
2814 Clouds 32 1009 49 10000 3.6 20 08:56 26.08.2019
2815 Clouds 32 1009 49 10000 3.6 40 08:38 26.08.2019
2816 Clouds 32 1009 49 10000 3.6 40 08:38 26.08.2019
2817 Clouds 32 1009 49 10000 3.6 40 08:19 26.08.2019
2818 Clouds 31 1010 49 10000 3.6 30 07:44 26.08.2019
2819 Haze 31 1010 49 10000 3.6 30 07:25 26.08.2019
2820 Haze 31 1010 52 10000 2.1 0 06:57 26.08.2019
2821 Haze 31 1011 55 4000 1.5 240 06:38 26.08.2019
2822 Haze 31 1011 55 4000 2.6 210 06:18 26.08.2019
2823 Haze 30 1012 58 4000 1.5 190 05:33 26.08.2019
2824 Haze 29 1012 62 4000 1.5 200 04:22 26.08.2019
2825 Haze 26 1012 78 5000 1.5 210 02:39 26.08.2019
2826 Haze 25 1011 78 4000 1.88 193.732 01:23 26.08.2019
2827 Clouds 25 1011 69 6000 3.1 200 00:45 26.08.2019
2828 Clouds 25 1011 69 6000 3.1 200 00:26 26.08.2019
2829 Clouds 25 1010 69 6000 3.1 200 23:45 25.08.2019
2830 Clouds 25 1010 69 6000 3.1 200 23:20 25.08.2019
2831 Clouds 25 1010 69 6000 3.1 200 22:59 25.08.2019
2832 Clouds 25 1010 69 6000 3.1 200 22:40 25.08.2019
2833 Clouds 25 1010 69 6000 3.1 200 22:20 25.08.2019
2834 Clouds 25 1011 69 6000 3.6 200 21:58 25.08.2019
2835 Clouds 25 1011 65 6000 2.6 200 21:39 25.08.2019
2836 Clouds 26 1011 65 6000 2.6 200 21:19 25.08.2019
2837 Clouds 26 1011 65 6000 2.6 200 20:56 25.08.2019
2838 Clouds 26 1011 69 6000 2.6 200 20:38 25.08.2019
2839 Clouds 26 1011 69 6000 2.6 200 20:19 25.08.2019
2840 Clouds 26 1012 69 6000 2.1 230 19:41 25.08.2019
2841 Clouds 26 1012 69 6000 2.1 230 19:23 25.08.2019
2842 Clouds 26 1012 69 6000 2.1 240 18:59 25.08.2019
2843 Clouds 26 1012 69 6000 2.1 240 18:40 25.08.2019
2844 Clouds 26 1012 65 6000 1 0 18:22 25.08.2019
2845 Clouds 26 1012 65 6000 1 0 17:59 25.08.2019
2846 Clouds 26 1012 65 6000 1.5 0 17:40 25.08.2019
2847 Clouds 26 1012 69 6000 1.5 0 17:20 25.08.2019
2848 Clouds 26 1012 74 6000 1 80 16:41 25.08.2019
2849 Clouds 26 1012 74 6000 1 80 16:23 25.08.2019
2850 Clouds 27 1012 61 7000 1 360 15:56 25.08.2019
2851 Clouds 27 1012 65 7000 1 30 15:37 25.08.2019
2852 Clouds 28 1012 65 7000 1 30 15:19 25.08.2019
2853 Clouds 28 1010 69 6000 2.6 10 14:39 25.08.2019
2854 Clouds 28 1010 69 6000 2.6 10 14:21 25.08.2019
2855 Clouds 28 1009 62 6000 3.6 30 13:45 25.08.2019
2856 Clouds 28 1009 62 6000 3.6 30 13:21 25.08.2019
2857 Clouds 29 1009 62 9000 3.1 10 12:56 25.08.2019
2858 Clouds 29 1009 58 9000 3.1 350 12:38 25.08.2019
2859 Clouds 30 1009 55 9000 3.6 20 12:20 25.08.2019
2860 Clouds 30 1009 55 9000 3.6 20 11:55 25.08.2019
2861 Clouds 30 1009 52 10000 3.6 20 11:36 25.08.2019
2862 Clouds 30 1009 52 10000 3.6 20 11:36 25.08.2019
2863 Clouds 31 1009 55 10000 3.6 20 11:18 25.08.2019
2864 Clouds 31 1009 55 10000 3.6 20 11:18 25.08.2019
2865 Clouds 31 1009 52 10000 3.6 10 10:40 25.08.2019
2866 Clouds 31 1009 52 10000 3.6 10 10:21 25.08.2019
2867 Clouds 31 1009 52 10000 4.1 10 09:57 25.08.2019
2868 Clouds 31 1009 52 10000 4.1 20 09:39 25.08.2019
2869 Haze 32 1009 52 10000 4.1 20 09:20 25.08.2019
2870 Haze 32 1010 49 5000 4.6 30 08:42 25.08.2019
2871 Haze 32 1010 49 5000 4.6 30 08:22 25.08.2019
2872 Clouds 32 1011 49 6000 4.1 10 07:43 25.08.2019
2873 Clouds 32 1011 49 6000 4.1 10 07:22 25.08.2019
2874 Clouds 32 1012 51 6000 3.6 50 06:31 25.08.2019
2875 Clouds 30 1013 58 10000 2.6 0 04:53 25.08.2019
2876 Clouds 27 1013 69 8000 3.1 210 03:37 25.08.2019
2877 Clouds 25 1012 78 6000 3.1 210 02:40 25.08.2019
2878 Haze 24 1011 78 5000 3.1 260 01:42 25.08.2019
2879 Haze 24 1011 78 5000 3.1 280 00:41 25.08.2019
2880 Haze 24 1011 69 5000 2.6 200 00:21 25.08.2019
2881 Haze 25 1011 69 5000 2.6 200 23:53 24.08.2019
2882 Haze 25 1011 69 5000 3.1 210 23:23 24.08.2019
2883 Haze 25 1011 69 5000 3.1 200 22:57 24.08.2019
2884 Haze 25 1011 73 5000 2.1 200 22:39 24.08.2019
2885 Haze 25 1011 69 5000 2.1 210 22:19 24.08.2019
2886 Haze 26 1011 69 5000 2.1 210 21:56 24.08.2019
2887 Haze 26 1011 69 5000 2.1 210 21:38 24.08.2019
2888 Haze 26 1011 69 5000 2.1 210 21:20 24.08.2019
2889 Haze 26 1011 69 5000 1.5 190 20:56 24.08.2019
2890 Haze 26 1011 69 5000 2.1 0 20:37 24.08.2019
2891 Haze 26 1011 69 5000 2.1 0 20:18 24.08.2019
2892 Haze 26 1012 69 5000 2.1 240 19:57 24.08.2019
2893 Haze 26 1012 69 5000 2.1 240 19:57 24.08.2019
2894 Clouds 26 1012 69 6000 3.1 250 19:37 24.08.2019
2895 Clouds 26 1012 69 6000 3.1 250 19:18 24.08.2019
2896 Clouds 26 1012 69 6000 3.1 250 19:18 24.08.2019
2897 Clouds 26 1012 65 6000 2.6 280 18:42 24.08.2019
2898 Clouds 26 1012 65 6000 2.6 280 18:23 24.08.2019
2899 Clouds 26 1012 69 6000 1 340 17:45 24.08.2019
2900 Clouds 26 1012 69 6000 1 340 17:25 24.08.2019
2901 Clouds 26 1012 69 6000 1 310 16:55 24.08.2019
2902 Clouds 27 1012 69 6000 1.5 320 16:36 24.08.2019
2903 Clouds 27 1012 65 6000 1.5 310 16:18 24.08.2019
2904 Clouds 28 1012 65 6000 1 340 15:41 24.08.2019
2905 Haze 28 1012 65 6000 1 340 15:23 24.08.2019
2906 Haze 28 1011 58 5000 1.5 40 14:45 24.08.2019
2907 Haze 28 1011 58 5000 1.5 40 14:23 24.08.2019
2908 Clouds 28 1011 65 8000 2.1 20 13:59 24.08.2019
2909 Clouds 28 1010 65 8000 3.1 30 13:41 24.08.2019
2910 Clouds 29 1010 65 8000 3.1 30 13:22 24.08.2019
2911 Clouds 29 1010 62 9000 4.1 30 12:58 24.08.2019
2912 Clouds 29 1009 52 6000 4.6 30 12:39 24.08.2019
2913 Clouds 29 1009 52 6000 4.6 30 12:20 24.08.2019
2914 Clouds 30 1009 52 10000 4.6 30 11:45 24.08.2019
2915 Haze 31 1009 52 10000 4.6 30 11:23 24.08.2019
2916 Haze 31 1009 52 10000 5.1 30 10:53 24.08.2019
2917 Haze 32 1008 43 5000 3.1 40 10:24 24.08.2019
2918 Haze 32 1009 46 9000 5.7 40 09:55 24.08.2019
2919 Haze 32 1009 41 5000 2.6 110 09:36 24.08.2019
2920 Clouds 32 1009 43 10000 5.1 40 09:18 24.08.2019
2921 Clouds 33 1010 41 10000 5.1 50 08:41 24.08.2019
2922 Clouds 33 1010 41 10000 5.1 50 08:22 24.08.2019
2923 Clouds 32 1011 43 9000 3.6 60 07:50 24.08.2019
2924 Clouds 32 1011 43 9000 3.6 60 07:27 24.08.2019
2925 Clouds 32 1012 45 9000 2.1 0 06:30 24.08.2019
2926 Clouds 31 1013 48 8000 2.6 0 05:43 24.08.2019
2927 Haze 30 1013 48 8000 2.6 0 05:22 24.08.2019
2928 Haze 28 1013 65 5000 2.6 0 03:38 24.08.2019
2929 Haze 25 1013 78 4000 2.1 230 02:27 24.08.2019
2930 Haze 24 1012 94 2000 1.5 240 01:47 24.08.2019
2931 Haze 24 1012 78 5000 2.1 150 01:22 24.08.2019
2932 Haze 24 1011 73 5000 2.6 220 00:43 24.08.2019
2933 Haze 24 1011 73 5000 2.6 220 00:18 24.08.2019
2934 Haze 24 1011 94 6000 2.46 93.568 23:43 23.08.2019
2935 Haze 24 1011 94 6000 2.46 93.568 23:19 23.08.2019
2936 Haze 25 1011 69 5000 2.6 130 22:43 23.08.2019
2937 Haze 25 1011 69 5000 2.6 130 22:24 23.08.2019
2938 Haze 26 1011 65 5000 3.1 130 21:54 23.08.2019
2939 Haze 25 1012 69 5000 4.1 110 21:36 23.08.2019
2940 Haze 25 1012 78 5000 2.1 120 21:18 23.08.2019
2941 Haze 25 1012 78 5000 2.1 120 20:45 23.08.2019
2942 Haze 25 1012 78 5000 2.1 120 20:27 23.08.2019
2943 Clouds 26 1013 74 6000 2.6 120 19:45 23.08.2019
2944 Clouds 26 1013 74 6000 3.1 110 19:19 23.08.2019
2945 Clouds 26 1013 74 6000 3.1 110 18:54 23.08.2019
2946 Clouds 27 1013 69 6000 3.1 120 18:36 23.08.2019
2947 Clouds 27 1013 74 6000 4.1 90 18:18 23.08.2019
2948 Clouds 27 1013 74 6000 3.6 80 17:41 23.08.2019
2949 Clouds 27 1013 74 6000 3.6 80 17:21 23.08.2019
2950 Clouds 27 1013 74 7000 3.6 100 16:49 23.08.2019
2951 Clouds 27 1013 74 7000 3.6 100 16:30 23.08.2019
2952 Clouds 27 1012 69 7000 3.6 90 15:59 23.08.2019
2953 Clouds 27 1012 69 8000 3.6 80 15:39 23.08.2019
2954 Clouds 27 1012 69 8000 3.6 80 15:21 23.08.2019
2955 Clouds 27 1011 65 8000 4.6 80 14:44 23.08.2019
2956 Clouds 27 1011 65 8000 4.6 80 14:21 23.08.2019
2957 Clouds 28 1011 65 8000 5.1 70 13:59 23.08.2019
2958 Clouds 28 1010 65 8000 5.1 70 13:41 23.08.2019
2959 Clouds 28 1010 62 9000 5.1 60 13:23 23.08.2019
2960 Clouds 28 1010 62 9000 5.1 60 12:58 23.08.2019
2961 Clouds 29 1009 55 10000 5.7 60 12:40 23.08.2019
2962 Clouds 29 1009 55 10000 5.7 60 12:21 23.08.2019
2963 Clouds 29 1009 55 10000 5.7 60 11:57 23.08.2019
2964 Clouds 30 1009 55 10000 6.2 60 11:39 23.08.2019
2965 Clouds 30 1009 48 10000 6.2 60 11:19 23.08.2019
2966 Clouds 30 1009 48 10000 6.2 60 10:54 23.08.2019
2967 Clouds 30 1009 48 10000 5.7 40 10:36 23.08.2019
2968 Clouds 31 1009 48 10000 5.7 40 10:18 23.08.2019
2969 Clouds 31 1009 52 9000 5.7 30 09:43 23.08.2019
2970 Clouds 31 1009 52 9000 5.7 30 09:43 23.08.2019
2971 Clouds 31 1009 49 9000 5.1 50 09:20 23.08.2019
2972 Clouds 33 1010 52 8000 4.6 30 08:45 23.08.2019
2973 Clouds 33 1010 52 8000 4.6 30 08:20 23.08.2019
2974 Clouds 32 1011 58 8000 3.6 30 07:45 23.08.2019
2975 Haze 32 1011 58 8000 3.6 30 07:25 23.08.2019
2976 Haze 32 1011 58 9000 3.6 30 06:59 23.08.2019
2977 Haze 32 1012 49 5000 2.1 190 06:40 23.08.2019
2978 Clouds 31 1012 55 8000 2.1 0 06:21 23.08.2019
2979 Clouds 31 1012 58 8000 1.5 0 05:43 23.08.2019
2980 Clouds 30 1012 58 8000 1.5 0 05:23 23.08.2019
2981 Haze 27 1013 74 3000 1.5 200 03:37 23.08.2019
2982 Haze 24 1013 73 5000 2.1 0 02:37 23.08.2019
2983 Mist 24 1013 73 5000 2.1 0 02:19 23.08.2019
2984 Clouds 23 1012 78 4500 2.1 210 00:46 23.08.2019
2985 Clouds 23 1012 78 4500 2.1 210 00:23 23.08.2019
2986 Haze 23 1011 78 4500 2.1 0 23:59 22.08.2019
2987 Haze 23 1011 73 5000 1.5 0 23:40 22.08.2019
2988 Haze 24 1011 78 4500 1 0 23:20 22.08.2019
2989 Haze 24 1011 78 5000 1.5 150 22:42 22.08.2019
2990 Haze 24 1011 78 5000 1.5 150 22:23 22.08.2019
2991 Haze 24 1011 78 4000 2.6 160 21:58 22.08.2019
2992 Haze 24 1011 78 4000 2.6 160 21:40 22.08.2019
2993 Haze 24 1011 78 4000 2.6 160 21:21 22.08.2019
2994 Haze 24 1011 78 4000 2.1 160 20:58 22.08.2019
2995 Haze 24 1012 78 5000 2.1 160 20:39 22.08.2019
2996 Haze 24 1012 78 5000 2.1 160 20:20 22.08.2019
2997 Haze 24 1012 78 5000 2.1 160 20:20 22.08.2019
2998 Clouds 24 1012 78 8000 1.5 140 19:56 22.08.2019
2999 Clouds 24 1012 78 8000 2.1 180 19:38 22.08.2019
3000 Clouds 24 1013 78 8000 2.6 190 19:20 22.08.2019
3001 Clouds 24 1013 78 8000 2.6 190 18:57 22.08.2019
3002 Clouds 24 1013 78 8000 2.6 0 18:39 22.08.2019
3003 Clouds 24 1013 74 8000 3.1 210 18:19 22.08.2019
3004 Clouds 25 1013 74 8000 3.1 210 17:43 22.08.2019
3005 Clouds 25 1013 74 8000 1 0 17:24 22.08.2019
3006 Clouds 25 1012 74 8000 2.1 210 16:59 22.08.2019
3007 Clouds 25 1012 74 8000 2.1 210 16:40 22.08.2019
3008 Clouds 25 1012 74 8000 2.1 210 16:40 22.08.2019
3009 Clouds 25 1012 74 8000 2.1 210 16:22 22.08.2019
3010 Clouds 25 1012 74 8000 2.1 210 16:22 22.08.2019
3011 Clouds 25 1012 74 8000 2.1 210 16:22 22.08.2019
3012 Clouds 25 1012 74 8000 3.1 230 16:00 22.08.2019
3013 Clouds 25 1012 74 8000 3.6 240 15:41 22.08.2019
3014 Clouds 25 1012 74 8000 3.6 240 15:41 22.08.2019
3015 Clouds 25 1012 74 8000 3.6 240 15:41 22.08.2019
3016 Clouds 25 1012 74 8000 3.6 240 15:22 22.08.2019
3017 Clouds 25 1012 69 8000 4.1 240 14:57 22.08.2019
3018 Clouds 25 1012 78 6000 4.6 250 14:39 22.08.2019
3019 Haze 26 1011 69 8000 6.2 230 14:19 22.08.2019
3020 Haze 26 1011 69 8000 6.2 230 13:56 22.08.2019
3021 Haze 26 1011 51 5000 4.1 70 13:38 22.08.2019
3022 Clouds 27 1010 55 9000 5.7 70 13:18 22.08.2019
3023 Clouds 27 1010 52 6000 4.6 50 12:40 22.08.2019
3024 Clouds 30 1010 62 9000 6.7 70 12:22 22.08.2019
3025 Clouds 28 1010 62 9000 6.7 70 11:58 22.08.2019
3026 Clouds 29 1010 55 10000 6.7 60 11:40 22.08.2019
3027 Clouds 30 1010 55 10000 6.7 60 11:20 22.08.2019
3028 Clouds 30 1010 55 10000 6.7 60 11:20 22.08.2019
3029 Clouds 30 1010 58 10000 6.2 60 10:57 22.08.2019
3030 Clouds 31 1010 55 10000 4.1 60 10:38 22.08.2019
3031 Clouds 31 1010 55 10000 4.1 60 10:19 22.08.2019
3032 Clouds 31 1010 58 10000 6.2 40 09:54 22.08.2019
3033 Clouds 31 1010 58 10000 6.7 40 09:36 22.08.2019
3034 Clouds 32 1010 58 10000 6.7 40 09:18 22.08.2019
3035 Clouds 32 1011 55 10000 6.7 50 08:41 22.08.2019
3036 Clouds 33 1011 52 10000 5.7 60 08:21 22.08.2019
3037 Clouds 33 1011 52 10000 5.7 60 07:58 22.08.2019
3038 Clouds 33 1011 52 10000 5.7 60 07:38 22.08.2019
3039 Clouds 33 1012 52 10000 5.7 60 07:19 22.08.2019
3040 Clouds 33 1012 52 6000 2.6 130 06:46 22.08.2019
3041 Clouds 32 1013 55 10000 3.1 100 06:21 22.08.2019
3042 Clouds 30 1013 55 6000 4.1 150 05:29 22.08.2019
3043 Haze 27 1014 65 4000 1.5 210 03:26 22.08.2019
3044 Haze 26 1014 83 4000 3.51 202.654 02:36 22.08.2019
3045 Haze 25 1013 83 4000 3.51 202.654 01:36 22.08.2019
3046 Haze 25 1013 78 5000 2.1 290 00:57 22.08.2019
3047 Clouds 26 1012 83 6000 3.62 198.741 00:38 22.08.2019
3048 Clouds 26 1012 74 7000 1.5 150 00:20 22.08.2019
3049 Clouds 26 1012 74 7000 1.5 150 23:41 21.08.2019
3050 Clouds 26 1012 74 7000 1.5 150 23:23 21.08.2019
3051 Clouds 26 1012 74 7000 2.1 160 22:58 21.08.2019
3052 Clouds 26 1012 69 7000 2.6 160 22:39 21.08.2019
3053 Clouds 27 1012 69 7000 2.6 160 22:20 21.08.2019
3054 Clouds 27 1012 69 7000 2.1 170 21:56 21.08.2019
3055 Clouds 26 1012 74 7000 2.1 120 21:38 21.08.2019
3056 Clouds 26 1012 74 7000 2.1 120 21:19 21.08.2019
3057 Clouds 25 1012 74 7000 2.1 120 20:56 21.08.2019
3058 Clouds 26 1012 69 7000 2.1 140 20:37 21.08.2019
3059 Clouds 26 1012 69 7000 2.1 120 20:19 21.08.2019
3060 Clouds 26 1012 74 7000 3.1 110 19:42 21.08.2019
3061 Clouds 26 1013 74 7000 3.1 130 19:24 21.08.2019
3062 Clouds 26 1013 74 7000 3.1 130 18:57 21.08.2019
3063 Clouds 26 1013 69 7000 3.1 110 18:38 21.08.2019
3064 Clouds 26 1013 69 8000 4.1 110 18:20 21.08.2019
3065 Clouds 26 1013 69 8000 3.6 120 17:45 21.08.2019
3066 Clouds 26 1013 69 8000 3.6 120 17:23 21.08.2019
3067 Clouds 26 1012 69 8000 3.6 110 16:58 21.08.2019
3068 Clouds 26 1012 69 8000 4.6 80 16:39 21.08.2019
3069 Clouds 27 1012 69 8000 4.6 80 16:20 21.08.2019
3070 Clouds 26 1012 69 8000 5.1 90 15:58 21.08.2019
3071 Clouds 26 1012 69 8000 5.1 90 15:58 21.08.2019
3072 Clouds 27 1012 69 8000 5.7 80 15:38 21.08.2019
3073 Clouds 27 1011 69 8000 5.1 80 15:19 21.08.2019
3074 Clouds 27 1011 69 8000 5.1 80 14:56 21.08.2019
3075 Clouds 27 1011 69 8000 5.7 70 14:38 21.08.2019
3076 Clouds 28 1010 65 8000 5.7 70 14:19 21.08.2019
3077 Clouds 28 1010 62 8000 7.7 60 13:43 21.08.2019
3078 Clouds 28 1010 62 8000 7.7 60 13:43 21.08.2019
3079 Clouds 28 1010 62 8000 7.7 60 13:21 21.08.2019
3080 Clouds 29 1009 62 9000 8.2 60 12:58 21.08.2019
3081 Clouds 30 1009 58 9000 7.7 60 12:40 21.08.2019
3082 Clouds 30 1009 58 9000 7.7 60 12:20 21.08.2019
3083 Clouds 30 1009 58 9000 7.7 60 12:20 21.08.2019
3084 Clouds 30 1009 58 9000 7.7 60 12:20 21.08.2019
3085 Clouds 31 1009 52 9000 9.3 70 11:56 21.08.2019
3086 Clouds 31 1008 49 9000 10.3 80 11:37 21.08.2019
3087 Clouds 32 1008 41 9000 10.3 70 11:19 21.08.2019
3088 Clouds 33 1008 41 9000 10.3 70 10:56 21.08.2019
3089 Clear 33 1008 43 6000 8.7 70 10:37 21.08.2019
3090 Clouds 33 1008 41 9000 11.3 70 10:19 21.08.2019
3091 Clear 33 1008 41 6000 12.9 80 09:42 21.08.2019
3092 Clear 34 1008 41 6000 12.9 80 09:23 21.08.2019
3093 Clouds 33 1009 41 9000 11.8 70 08:57 21.08.2019
3094 Clouds 33 1009 38 9000 11.8 70 08:38 21.08.2019
3095 Clouds 34 1010 41 9000 8.7 80 08:19 21.08.2019
3096 Clear 34 1010 36 6000 11.8 60 07:40 21.08.2019
3097 Clouds 33 1011 43 10000 6.7 80 07:20 21.08.2019
3098 Clear 33 1011 38 6000 10.3 80 06:47 21.08.2019
3099 Clear 32 1012 43 6000 8.2 90 06:21 21.08.2019
3100 Clear 32 1012 43 6000 8.2 90 05:38 21.08.2019
3101 Haze 32 1012 46 10000 5.1 110 05:18 21.08.2019
3102 Clouds 27 1011 58 9000 5.7 120 03:23 21.08.2019
3103 Clouds 26 1010 65 6000 3.6 120 01:42 21.08.2019
3104 Clouds 26 1010 65 6000 3.6 110 00:44 21.08.2019
3105 Clouds 24 1010 65 6000 3.6 110 00:23 21.08.2019
3106 Clouds 24 1010 65 6000 3.1 110 23:56 20.08.2019
3107 Clouds 24 1010 65 6000 3.1 100 23:38 20.08.2019
3108 Clouds 24 1009 73 6000 4.1 110 23:18 20.08.2019
3109 Clouds 24 1009 73 6000 4.1 110 22:55 20.08.2019
3110 Clouds 24 1009 73 6000 4.1 110 22:36 20.08.2019
3111 Clouds 24 1009 69 6000 4.6 110 22:18 20.08.2019
3112 Clouds 24 1009 69 6000 4.6 110 21:56 20.08.2019
3113 Clouds 24 1009 69 6000 3.6 110 21:37 20.08.2019
3114 Clouds 24 1010 69 7000 4.6 100 21:18 20.08.2019
3115 Clouds 25 1010 69 7000 4.6 100 20:42 20.08.2019
3116 Clouds 25 1010 69 7000 4.6 100 20:24 20.08.2019
3117 Clouds 25 1010 69 7000 4.6 110 19:56 20.08.2019
3118 Clouds 24 1010 69 7000 4.1 100 19:38 20.08.2019
3119 Clouds 24 1011 69 7000 4.1 100 19:20 20.08.2019
3120 Clouds 24 1011 69 7000 4.1 100 18:55 20.08.2019
3121 Clouds 24 1011 69 7000 4.1 100 18:55 20.08.2019
3122 Clouds 25 1011 61 7000 3.6 120 18:36 20.08.2019
3123 Clouds 25 1011 61 7000 3.6 120 18:18 20.08.2019
3124 Clouds 26 1011 61 7000 4.6 90 17:39 20.08.2019
3125 Clouds 26 1011 65 7000 4.6 80 17:20 20.08.2019
3126 Clouds 26 1011 61 8000 4.6 80 16:48 20.08.2019
3127 Clouds 26 1011 61 8000 4.6 80 16:28 20.08.2019
3128 Clouds 26 1011 61 8000 5.7 90 15:59 20.08.2019
3129 Clouds 26 1010 58 8000 5.1 80 15:41 20.08.2019
3130 Clouds 27 1010 61 8000 5.1 90 15:18 20.08.2019
3131 Clouds 27 1010 61 8000 5.1 90 14:55 20.08.2019
3132 Clouds 27 1010 51 6000 5.1 40 14:37 20.08.2019
3133 Clouds 27 1010 51 6000 5.1 40 14:37 20.08.2019
3134 Clouds 27 1010 58 8000 5.1 70 14:18 20.08.2019
3135 Clouds 27 1010 58 8000 5.1 70 14:18 20.08.2019
3136 Clouds 28 1009 51 6000 5.1 50 13:54 20.08.2019
3137 Clouds 28 1009 51 6000 5.1 50 13:36 20.08.2019
3138 Clouds 28 1009 58 9000 6.7 70 13:18 20.08.2019
3139 Clouds 29 1009 48 6000 7.2 20 12:44 20.08.2019
3140 Clouds 30 1009 55 9000 8.2 60 12:23 20.08.2019
3141 Clouds 30 1009 48 9000 7.7 50 11:55 20.08.2019
3142 Clouds 30 1009 48 9000 7.7 50 11:37 20.08.2019
3143 Clouds 30 1009 48 9000 8.2 60 11:18 20.08.2019
3144 Clouds 30 1009 48 9000 8.2 60 10:55 20.08.2019
3145 Clouds 30 1009 48 9000 7.2 50 10:37 20.08.2019
3146 Clouds 30 1009 46 9000 4.6 50 10:18 20.08.2019
3147 Clouds 31 1009 46 9000 6.2 50 09:40 20.08.2019
3148 Clouds 32 1009 46 9000 6.2 50 09:21 20.08.2019
3149 Clouds 31 1010 52 9000 5.1 60 08:42 20.08.2019
3150 Clouds 31 1010 48 9000 5.7 50 08:24 20.08.2019
3151 Clouds 31 1010 48 9000 5.7 50 07:58 20.08.2019
3152 Clouds 31 1011 48 8000 5.7 60 07:39 20.08.2019
3153 Clouds 31 1011 48 8000 5.7 60 07:20 20.08.2019
3154 Clouds 31 1011 48 8000 5.1 60 06:47 20.08.2019
3155 Clouds 31 1011 48 8000 5.1 60 06:47 20.08.2019
3156 Haze 30 1012 55 8000 5.1 40 06:21 20.08.2019
3157 Haze 29 1012 58 4000 3.1 30 05:47 20.08.2019
3158 Haze 29 1013 61 4000 2.6 90 04:42 20.08.2019
3159 Haze 25 1012 65 7000 1.5 0 02:58 20.08.2019
3160 Haze 25 1012 69 5000 2.6 180 02:18 20.08.2019
3161 Haze 24 1012 69 5000 2.6 190 01:22 20.08.2019
3162 Haze 24 1011 69 5000 1.5 210 00:45 20.08.2019
3163 Haze 24 1011 69 5000 1.5 210 00:25 20.08.2019
3164 Haze 24 1011 69 5000 1.5 200 23:50 19.08.2019
3165 Haze 24 1011 69 5000 2.1 200 23:19 19.08.2019
3166 Haze 24 1011 69 5000 2.1 200 22:59 19.08.2019
3167 Haze 24 1011 69 5000 2.1 200 22:59 19.08.2019
3168 Haze 24 1011 65 5000 1 0 22:41 19.08.2019
3169 Haze 25 1011 65 5000 2.1 180 22:21 19.08.2019
3170 Haze 25 1011 65 5000 2.1 180 21:58 19.08.2019
3171 Haze 25 1011 65 5000 3.1 170 21:39 19.08.2019
3172 Clouds 24 1011 61 6000 2.6 170 21:20 19.08.2019
3173 Clouds 24 1011 61 6000 2.6 170 20:57 19.08.2019
3174 Clouds 24 1012 61 7000 2.6 170 20:38 19.08.2019
3175 Clouds 24 1012 61 6000 3.6 160 20:19 19.08.2019
3176 Clouds 24 1012 61 6000 3.6 160 19:55 19.08.2019
3177 Clouds 24 1012 61 6000 3.6 160 19:36 19.08.2019
3178 Haze 24 1012 65 5000 2.1 0 19:18 19.08.2019
3179 Haze 24 1012 74 5000 2.6 70 18:41 19.08.2019
3180 Haze 25 1012 74 4000 2.1 80 18:23 19.08.2019
3181 Haze 25 1013 74 3500 1.5 60 17:57 19.08.2019
3182 Haze 25 1013 74 3500 1.5 60 17:38 19.08.2019
3183 Haze 25 1013 74 3500 1 60 17:19 19.08.2019
3184 Haze 25 1013 74 3500 1 60 16:54 19.08.2019
3185 Haze 26 1013 74 4500 1.5 50 16:36 19.08.2019
3186 Haze 26 1012 69 5000 2.1 60 16:18 19.08.2019
3187 Haze 26 1012 69 4000 2.1 50 15:45 19.08.2019
3188 Clouds 26 1012 69 7000 2.1 50 15:20 19.08.2019
3189 Clouds 26 1012 69 7000 2.1 50 14:55 19.08.2019
3190 Clouds 26 1012 65 7000 2.6 50 14:36 19.08.2019
3191 Clouds 27 1011 65 7000 2.1 20 14:18 19.08.2019
3192 Clouds 27 1011 65 7000 2.1 20 13:55 19.08.2019
3193 Clouds 27 1011 65 8000 2.6 360 13:36 19.08.2019
3194 Clouds 27 1010 62 9000 3.1 350 13:18 19.08.2019
3195 Clouds 28 1010 62 9000 5.1 340 12:43 19.08.2019
3196 Clouds 28 1010 58 9000 4.6 350 12:22 19.08.2019
3197 Clouds 29 1010 58 9000 4.6 350 11:55 19.08.2019
3198 Clouds 29 1010 58 10000 5.7 360 11:36 19.08.2019
3199 Clouds 30 1010 55 10000 4.6 340 11:18 19.08.2019
3200 Clouds 31 1010 52 10000 4.6 340 10:39 19.08.2019
3201 Clouds 31 1010 52 10000 4.6 340 10:19 19.08.2019
3202 Clouds 31 1010 52 10000 4.6 360 09:56 19.08.2019
3203 Clouds 32 1010 52 10000 4.6 350 09:38 19.08.2019
3204 Clouds 32 1010 49 10000 3.6 360 09:19 19.08.2019
3205 Clouds 32 1011 52 10000 3.6 350 08:45 19.08.2019
3206 Clouds 32 1011 52 10000 3.6 350 08:25 19.08.2019
3207 Clouds 32 1011 52 9000 2.6 0 07:57 19.08.2019
3208 Clouds 32 1012 52 9000 3.6 360 07:39 19.08.2019
3209 Clouds 32 1012 52 9000 3.6 360 07:19 19.08.2019
3210 Clouds 32 1012 52 9000 3.6 360 07:19 19.08.2019
3211 Clouds 32 1012 52 9000 2.6 0 06:36 19.08.2019
3212 Haze 30 1013 54 7000 1.5 0 05:28 19.08.2019
3213 Haze 29 1014 65 5000 1.5 0 04:34 19.08.2019
3214 Haze 25 1014 69 4000 2.1 0 03:28 19.08.2019
3215 Haze 25 1013 78 3000 2.6 260 02:53 19.08.2019
3216 Haze 22 1013 94 3500 2.6 250 01:37 19.08.2019
3217 Haze 22 1012 88 5000 2.1 230 00:49 19.08.2019
3218 Haze 22 1012 88 5000 2.1 230 00:25 19.08.2019
3219 Haze 23 1012 83 5000 2.6 200 23:57 18.08.2019
3220 Haze 24 1012 78 5000 2.6 190 23:37 18.08.2019
3221 Haze 24 1012 83 5000 2.1 200 23:19 18.08.2019
3222 Haze 24 1012 78 4500 3.6 220 22:40 18.08.2019
3223 Haze 24 1012 78 4500 2.6 230 22:21 18.08.2019
3224 Haze 24 1012 78 4500 2.6 230 21:57 18.08.2019
3225 Haze 25 1013 73 4500 1.5 230 21:39 18.08.2019
3226 Haze 25 1013 73 4500 1.5 230 21:20 18.08.2019
3227 Haze 25 1013 73 5000 1.5 200 20:54 18.08.2019
3228 Haze 25 1013 73 5000 1.5 200 20:36 18.08.2019
3229 Clouds 26 1013 69 7000 2.1 190 20:18 18.08.2019
3230 Clouds 26 1013 69 7000 1.5 180 19:41 18.08.2019
3231 Clouds 26 1013 69 7000 1.5 180 19:23 18.08.2019
3232 Clouds 26 1014 69 7000 2.6 0 18:56 18.08.2019
3233 Clouds 26 1014 69 7000 2.6 0 18:56 18.08.2019
3234 Clouds 26 1014 69 7000 2.6 0 18:38 18.08.2019
3235 Clouds 25 1014 69 7000 3.1 140 18:20 18.08.2019
3236 Clouds 25 1014 69 7000 3.1 140 17:54 18.08.2019
3237 Clouds 25 1014 69 7000 2.1 0 17:36 18.08.2019
3238 Clouds 25 1014 69 7000 2.6 80 17:18 18.08.2019
3239 Clouds 25 1013 73 7000 3.1 70 16:42 18.08.2019
3240 Clouds 25 1013 73 7000 3.1 70 16:23 18.08.2019
3241 Clouds 25 1013 69 7000 3.1 80 15:59 18.08.2019
3242 Clouds 25 1013 65 8000 4.1 70 15:39 18.08.2019
3243 Clouds 26 1013 65 8000 4.1 70 15:20 18.08.2019
3244 Clouds 26 1012 61 8000 3.6 60 14:57 18.08.2019
3245 Clouds 26 1012 58 8000 3.6 60 14:38 18.08.2019
3246 Clouds 27 1012 58 8000 3.6 60 14:19 18.08.2019
3247 Clouds 27 1011 61 8000 4.1 60 13:56 18.08.2019
3248 Clouds 27 1011 61 8000 3.1 60 13:37 18.08.2019
3249 Clouds 30 1010 58 8000 6.2 60 13:19 18.08.2019
3250 Clear 30 1010 45 6000 6.7 0 12:41 18.08.2019
3251 Clear 30 1010 45 6000 6.7 0 12:22 18.08.2019
3252 Clouds 31 1010 55 8000 7.2 60 11:55 18.08.2019
3253 Clear 31 1010 46 6000 6.2 40 11:36 18.08.2019
3254 Clouds 31 1010 48 8000 7.2 50 11:18 18.08.2019
3255 Clouds 33 1010 48 8000 7.2 50 10:41 18.08.2019
3256 Clear 33 1010 38 6000 6.2 60 10:21 18.08.2019
3257 Clear 33 1010 38 6000 6.2 60 09:51 18.08.2019
3258 Clouds 33 1010 49 9000 6.2 50 09:24 18.08.2019
3259 Clouds 33 1011 46 10000 6.2 60 08:58 18.08.2019
3260 Clouds 32 1011 41 6000 4.6 70 08:40 18.08.2019
3261 Clouds 32 1011 41 6000 4.6 70 08:21 18.08.2019
3262 Clouds 32 1011 41 6000 7.7 0 07:48 18.08.2019
3263 Clouds 32 1011 41 6000 7.7 0 07:48 18.08.2019
3264 Clouds 32 1011 41 6000 7.7 0 07:29 18.08.2019
3265 Haze 31 1013 38 5000 3.6 70 05:48 18.08.2019
3266 Clouds 30 1013 51 8000 4.1 110 04:53 18.08.2019
3267 Haze 27 1013 65 5000 2.6 170 03:41 18.08.2019
3268 Haze 25 1013 83 2000 1.5 130 02:46 18.08.2019
3269 Haze 25 1013 83 2000 1.5 130 02:24 18.08.2019
3270 Haze 24 1012 83 3000 1.5 150 01:44 18.08.2019
3271 Haze 24 1012 83 3000 1.5 150 01:19 18.08.2019
3272 Haze 25 1011 78 6000 1.5 160 00:38 18.08.2019
3273 Clouds 24 1011 73 7000 2.6 170 00:19 18.08.2019
3274 Clouds 24 1011 73 7000 2.6 170 23:57 17.08.2019
3275 Clouds 25 1011 73 6000 1.5 180 23:37 17.08.2019
3276 Clouds 25 1011 69 6000 2.6 40 23:18 17.08.2019
3277 Clouds 25 1011 69 6000 2.6 40 22:56 17.08.2019
3278 Haze 25 1011 69 5000 2.1 60 22:37 17.08.2019
3279 Haze 25 1011 65 5000 3.1 80 22:19 17.08.2019
3280 Haze 26 1012 69 5000 2.6 70 21:41 17.08.2019
3281 Haze 26 1012 69 5000 2.6 70 21:23 17.08.2019
3282 Haze 26 1012 74 5000 2.6 80 20:41 17.08.2019
3283 Haze 26 1012 74 5000 2.6 80 20:21 17.08.2019
3284 Haze 26 1012 74 5000 3.6 80 19:59 17.08.2019
3285 Haze 26 1012 74 5000 3.1 80 19:41 17.08.2019
3286 Haze 26 1012 74 5000 3.1 80 19:22 17.08.2019
3287 Haze 26 1012 74 5000 3.6 110 18:54 17.08.2019
3288 Haze 27 1012 74 5000 2.1 60 18:36 17.08.2019
3289 Haze 25 1013 74 5000 2.6 70 18:18 17.08.2019
3290 Clouds 25 1013 78 6000 2.1 60 17:41 17.08.2019
3291 Clouds 25 1013 78 6000 2.1 60 17:21 17.08.2019
3292 Clouds 26 1012 74 6000 2.1 50 16:56 17.08.2019
3293 Clouds 26 1012 69 6000 1.5 50 16:37 17.08.2019
3294 Clouds 27 1012 69 6000 1.5 50 16:18 17.08.2019
3295 Clouds 27 1012 69 7000 3.6 60 15:42 17.08.2019
3296 Clouds 27 1012 69 7000 3.6 60 15:42 17.08.2019
3297 Clouds 27 1012 69 7000 3.6 60 15:21 17.08.2019
3298 Clouds 27 1012 69 7000 3.1 60 14:57 17.08.2019
3299 Clouds 27 1011 58 6000 4.6 80 14:38 17.08.2019
3300 Clouds 27 1011 58 6000 4.6 80 14:19 17.08.2019
3301 Clouds 27 1010 62 7000 4.1 60 13:43 17.08.2019
3302 Clouds 28 1010 58 7000 3.6 40 13:19 17.08.2019
3303 Clouds 29 1010 55 6000 5.1 20 12:43 17.08.2019
3304 Clouds 29 1010 55 6000 5.1 20 12:20 17.08.2019
3305 Haze 30 1010 55 7000 4.6 40 11:58 17.08.2019
3306 Haze 30 1009 46 5000 5.1 360 11:38 17.08.2019
3307 Haze 30 1010 55 7000 4.6 20 11:19 17.08.2019
3308 Haze 31 1009 49 5000 4.1 320 10:41 17.08.2019
3309 Haze 31 1009 49 5000 4.1 320 10:21 17.08.2019
3310 Haze 31 1010 55 6000 4.6 30 09:57 17.08.2019
3311 Haze 31 1010 46 5000 5.1 30 09:37 17.08.2019
3312 Haze 32 1011 55 5000 4.6 10 09:18 17.08.2019
3313 Haze 31 1011 58 5000 3.6 30 08:46 17.08.2019
3314 Haze 31 1011 58 5000 3.6 30 08:20 17.08.2019
3315 Haze 31 1012 62 5000 2.6 0 07:42 17.08.2019
3316 Haze 32 1013 58 5000 1.5 0 07:20 17.08.2019
3317 Haze 31 1013 58 4700 1.5 0 06:21 17.08.2019
3318 Haze 29 1014 66 4900 1.5 0 04:32 17.08.2019
3319 Haze 29 1014 66 4900 1.5 0 04:32 17.08.2019
3320 Haze 28 1013 65 5000 3.1 200 03:38 17.08.2019
3321 Clouds 26 1013 74 6000 1.5 0 02:36 17.08.2019
3322 Clouds 25 1012 73 6000 1.5 230 01:36 17.08.2019
3323 Clouds 25 1012 73 6000 1 210 01:18 17.08.2019
3324 Clouds 25 1012 73 6000 1.5 210 00:44 17.08.2019
3325 Clouds 25 1012 73 6000 1 220 23:58 16.08.2019
3326 Clouds 26 1012 69 6000 2.1 200 23:39 16.08.2019
3327 Clouds 26 1012 69 6000 2.1 200 23:20 16.08.2019
3328 Clouds 26 1012 69 6000 1 0 22:42 16.08.2019
3329 Clouds 26 1012 69 6000 1 0 22:42 16.08.2019
3330 Clouds 26 1012 69 6000 1 0 22:19 16.08.2019
3331 Haze 26 1012 74 5000 2.1 190 21:43 16.08.2019
3332 Haze 26 1012 69 5000 2.1 200 21:23 16.08.2019
3333 Haze 27 1012 69 5000 2.1 200 20:59 16.08.2019
3334 Haze 27 1012 69 5000 1.5 200 20:41 16.08.2019
3335 Haze 27 1013 69 5000 2.1 210 20:19 16.08.2019
3336 Haze 27 1013 69 5000 2.1 210 19:55 16.08.2019
3337 Haze 27 1013 69 5000 2.1 190 19:37 16.08.2019
3338 Haze 27 1013 69 5000 2.1 190 19:19 16.08.2019
3339 Haze 27 1013 74 5000 2.6 0 18:41 16.08.2019
3340 Haze 27 1013 74 5000 2.6 0 18:22 16.08.2019
3341 Haze 27 1013 74 4000 1.5 40 17:45 16.08.2019
3342 Haze 27 1013 74 4000 1.5 40 17:25 16.08.2019
3343 Haze 27 1013 78 5000 1.5 40 16:56 16.08.2019
3344 Haze 25 1013 78 5000 1.5 40 16:38 16.08.2019
3345 Clouds 25 1012 74 6000 2.1 50 16:18 16.08.2019
3346 Clouds 26 1012 74 6000 2.1 50 15:55 16.08.2019
3347 Clouds 26 1012 69 6000 2.1 60 15:37 16.08.2019
3348 Clouds 27 1012 69 7000 2.6 60 15:19 16.08.2019
3349 Clouds 27 1011 70 6000 3.1 10 14:42 16.08.2019
3350 Clouds 27 1011 70 6000 3.1 10 14:19 16.08.2019
3351 Clouds 28 1011 69 6000 3.1 40 13:59 16.08.2019
3352 Clouds 28 1010 62 6000 5.1 30 13:39 16.08.2019
3353 Clouds 28 1010 62 6000 5.1 30 13:20 16.08.2019
3354 Clouds 29 1010 58 6000 5.1 20 12:40 16.08.2019
3355 Clouds 29 1010 58 6000 5.1 20 12:20 16.08.2019
3356 Clouds 29 1010 62 8000 5.1 50 12:20 16.08.2019
3357 Clouds 29 1010 62 8000 5.1 50 11:55 16.08.2019
3358 Clouds 29 1010 62 7000 5.1 60 11:37 16.08.2019
3359 Clouds 30 1010 58 7000 5.7 50 11:18 16.08.2019
3360 Clouds 31 1009 46 6000 4.1 20 10:42 16.08.2019
3361 Clouds 31 1009 46 6000 4.1 20 10:20 16.08.2019
3362 Haze 31 1010 49 5000 3.1 30 09:39 16.08.2019
3363 Haze 32 1010 55 5000 3.6 40 09:19 16.08.2019
3364 Haze 32 1010 55 5000 3.6 40 08:58 16.08.2019
3365 Haze 32 1011 49 5000 2.6 140 08:39 16.08.2019
3366 Clouds 32 1011 58 6000 2.6 0 08:19 16.08.2019
3367 Haze 32 1012 58 5000 3.1 40 07:45 16.08.2019
3368 Haze 32 1012 58 5000 3.1 40 07:26 16.08.2019
3369 Haze 32 1012 58 5000 2.1 0 06:53 16.08.2019
3370 Clouds 30 1013 58 6000 1.5 0 06:19 16.08.2019
3371 Haze 29 1013 58 6000 1 0 05:34 16.08.2019
3372 Haze 27 1013 74 3000 2.1 180 03:20 16.08.2019
3373 Haze 25 1012 78 2400 2.1 220 01:52 16.08.2019
3374 Haze 26 1012 78 3000 1 220 01:25 16.08.2019
3375 Haze 26 1012 78 2600 2.1 240 00:50 16.08.2019
3376 Haze 26 1012 78 2600 2.1 240 00:24 16.08.2019
3377 Haze 26 1011 78 2600 2.6 230 23:57 15.08.2019
3378 Haze 26 1011 78 2400 1.5 220 23:39 15.08.2019
3379 Haze 25 1011 83 2500 1 210 23:18 15.08.2019
3380 Haze 25 1011 78 2500 2.1 260 22:41 15.08.2019
3381 Haze 26 1011 78 2500 2.1 260 22:23 15.08.2019
3382 Haze 26 1011 78 2400 1.5 270 21:58 15.08.2019
3383 Haze 26 1011 74 3000 1 300 21:39 15.08.2019
3384 Haze 26 1011 74 3000 1 300 21:39 15.08.2019
3385 Haze 26 1011 74 3000 1 300 21:19 15.08.2019
3386 Haze 26 1011 74 3000 1.5 0 20:58 15.08.2019
3387 Haze 26 1011 74 3500 1.5 210 20:40 15.08.2019
3388 Haze 26 1011 74 3500 1.5 210 20:20 15.08.2019
3389 Haze 26 1012 78 5000 1.5 0 19:40 15.08.2019
3390 Clouds 26 1013 78 6000 3.1 70 19:22 15.08.2019
3391 Clouds 26 1013 78 6000 3.1 70 18:57 15.08.2019
3392 Clouds 26 1013 78 6000 4.1 80 18:39 15.08.2019
3393 Clouds 26 1013 78 6000 4.1 80 18:21 15.08.2019
3394 Clouds 27 1013 74 7000 4.1 80 17:54 15.08.2019
3395 Clouds 27 1013 74 7000 2.6 70 17:36 15.08.2019
3396 Clouds 27 1013 74 8000 4.1 80 17:18 15.08.2019
3397 Clouds 25 1013 74 9000 2.6 60 16:43 15.08.2019
3398 Clouds 25 1013 74 9000 2.6 60 16:24 15.08.2019
3399 Clouds 26 1012 69 7000 3.6 70 15:56 15.08.2019
3400 Clouds 26 1012 69 7000 3.6 60 15:37 15.08.2019
3401 Haze 27 1012 69 8000 3.6 60 15:18 15.08.2019
3402 Haze 27 1012 65 5000 3.1 200 14:42 15.08.2019
3403 Haze 26 1012 65 5000 3.1 200 14:23 15.08.2019
3404 Clouds 27 1011 69 8000 3.6 50 13:57 15.08.2019
3405 Clouds 28 1011 58 6000 2.6 50 13:39 15.08.2019
3406 Clouds 28 1011 58 6000 2.6 50 13:20 15.08.2019
3407 Clouds 28 1011 58 6000 2.6 50 13:20 15.08.2019
3408 Clouds 27 1011 66 9000 4.1 60 12:56 15.08.2019
3409 Clouds 28 1010 58 9000 5.7 70 12:37 15.08.2019
3410 Clouds 30 1010 58 9000 5.1 60 12:18 15.08.2019
3411 Clouds 30 1010 58 9000 5.1 60 11:57 15.08.2019
3412 Clouds 30 1010 62 8000 6.7 50 11:36 15.08.2019
3413 Clouds 31 1010 58 8000 5.7 40 11:18 15.08.2019
3414 Clouds 30 1010 58 8000 5.7 40 10:39 15.08.2019
3415 Clouds 30 1010 58 8000 5.7 40 10:39 15.08.2019
3416 Clouds 30 1010 58 8000 5.7 20 10:20 15.08.2019
3417 Clouds 31 1010 58 8000 5.7 20 09:55 15.08.2019
3418 Clouds 31 1011 58 8000 5.7 20 09:37 15.08.2019
3419 Haze 32 1011 52 8000 5.1 30 09:18 15.08.2019
3420 Haze 32 1011 46 5000 3.6 20 08:37 15.08.2019
3421 Clouds 32 1012 55 8000 4.6 10 08:19 15.08.2019
3422 Clouds 32 1013 55 7000 4.6 10 07:45 15.08.2019
3423 Clouds 32 1013 55 7000 4.6 10 07:27 15.08.2019
3424 Clouds 31 1013 55 7000 3.6 40 06:55 15.08.2019
3425 Clouds 32 1013 55 7000 3.1 60 06:33 15.08.2019
3426 Clouds 30 1014 58 7000 1 0 05:51 15.08.2019
3427 Haze 28 1014 58 7000 1 0 05:29 15.08.2019
3428 Haze 29 1014 66 4000 2.6 140 04:35 15.08.2019
3429 Haze 27 1014 78 4000 1.5 80 03:45 15.08.2019
3430 Haze 26 1014 78 4000 2.04 188.428 02:45 15.08.2019
3431 Haze 26 1013 69 4500 1.5 200 01:54 15.08.2019
3432 Haze 26 1013 83 4000 2.17 183.598 01:36 15.08.2019
3433 Haze 26 1012 78 4000 1.5 200 00:41 15.08.2019
3434 Haze 26 1012 78 4000 1.5 200 00:22 15.08.2019
3435 Haze 26 1012 78 4000 1.5 220 23:58 14.08.2019
3436 Haze 26 1012 74 3700 1.5 230 23:38 14.08.2019
3437 Haze 26 1012 74 3700 1.5 230 23:38 14.08.2019
3438 Haze 26 1012 74 3700 1.5 230 23:19 14.08.2019
3439 Haze 26 1012 78 3300 1 230 22:57 14.08.2019
3440 Haze 26 1012 78 4000 2.1 230 22:39 14.08.2019
3441 Haze 26 1012 78 4000 2.1 240 22:21 14.08.2019
3442 Haze 26 1012 78 4000 2.1 240 21:56 14.08.2019
3443 Haze 26 1012 74 5000 1 290 21:37 14.08.2019
3444 Haze 26 1013 74 5000 1.5 290 21:18 14.08.2019
3445 Haze 27 1013 69 5000 2.6 0 20:42 14.08.2019
3446 Haze 27 1013 74 5000 1.5 0 20:21 14.08.2019
3447 Haze 27 1013 74 5000 1.5 0 20:21 14.08.2019
3448 Haze 26 1013 74 5000 1.5 0 19:56 14.08.2019
3449 Haze 27 1013 74 5000 1.5 0 19:38 14.08.2019
3450 Clouds 27 1013 69 6000 3.1 120 19:20 14.08.2019
3451 Clouds 27 1013 69 6000 3.1 120 18:57 14.08.2019
3452 Clouds 26 1013 78 6000 2.22 198.811 18:38 14.08.2019
3453 Clouds 28 1013 69 6000 3.1 120 18:20 14.08.2019
3454 Clouds 28 1013 69 6000 3.1 120 17:56 14.08.2019
3455 Clouds 27 1013 69 6000 2.6 100 17:37 14.08.2019
3456 Clouds 28 1013 65 6000 3.1 110 17:19 14.08.2019
3457 Clouds 28 1013 65 6000 3.1 120 16:43 14.08.2019
3458 Clouds 28 1013 65 6000 3.1 120 16:21 14.08.2019
3459 Clouds 28 1013 65 6000 3.1 120 16:21 14.08.2019
3460 Clouds 27 1013 69 7000 3.6 80 15:59 14.08.2019
3461 Clouds 27 1012 69 8000 5.1 80 15:40 14.08.2019
3462 Clouds 27 1012 69 8000 5.7 80 15:18 14.08.2019
3463 Clouds 28 1011 65 8000 5.7 80 14:41 14.08.2019
3464 Clouds 28 1011 65 8000 2.6 70 14:19 14.08.2019
3465 Clouds 28 1011 65 8000 2.6 70 13:59 14.08.2019
3466 Clouds 28 1011 65 8000 6.2 60 13:41 14.08.2019
3467 Clouds 29 1010 62 8000 3.6 60 13:22 14.08.2019
3468 Clouds 28 1011 65 8000 6.2 60 13:22 14.08.2019
3469 Clouds 28 1011 65 8000 6.2 60 13:22 14.08.2019
3470 Clouds 29 1010 62 8000 3.6 60 12:56 14.08.2019
3471 Clouds 29 1010 66 9000 6.7 60 12:38 14.08.2019
3472 Clouds 30 1010 58 9000 7.7 60 12:20 14.08.2019
3473 Clouds 31 1010 55 9000 8.7 60 11:47 14.08.2019
3474 Clouds 31 1010 55 9000 8.7 60 11:23 14.08.2019
3475 Clouds 31 1010 55 9000 7.7 60 10:59 14.08.2019
3476 Clouds 32 1010 52 9000 7.2 60 10:40 14.08.2019
3477 Clouds 32 1010 52 8000 6.2 70 10:22 14.08.2019
3478 Clouds 31 1010 55 8000 7.2 60 09:45 14.08.2019
3479 Clouds 32 1011 52 9000 6.7 50 09:22 14.08.2019
3480 Clouds 31 1011 58 10000 5.7 40 08:52 14.08.2019
3481 Clouds 31 1011 58 10000 5.7 40 08:34 14.08.2019
3482 Clouds 31 1012 58 10000 5.1 60 07:58 14.08.2019
3483 Clouds 31 1012 55 10000 5.1 60 07:39 14.08.2019
3484 Clouds 31 1012 55 10000 5.1 80 07:21 14.08.2019
3485 Clouds 32 1012 49 9000 1 0 06:43 14.08.2019
3486 Clouds 30 1013 58 8000 1.5 0 05:47 14.08.2019
3487 Clouds 29 1014 62 6000 2.6 0 04:45 14.08.2019
3488 Haze 26 1013 74 5000 2.1 0 02:52 14.08.2019
3489 Haze 25 1013 83 4000 1.5 230 02:26 14.08.2019
3490 Haze 25 1012 78 5000 2.6 240 01:38 14.08.2019
3491 Haze 25 1012 83 4000 2.1 290 00:51 14.08.2019
3492 Haze 26 1012 74 5000 1 160 23:47 13.08.2019
3493 Haze 26 1012 74 5000 1 160 23:23 13.08.2019
3494 Haze 26 1011 78 5000 2.1 0 22:57 13.08.2019
3495 Haze 26 1011 74 5000 1.5 150 22:39 13.08.2019
3496 Haze 26 1011 74 5000 1.5 150 22:39 13.08.2019
3497 Haze 26 1011 74 5000 1.5 150 22:20 13.08.2019
3498 Haze 26 1011 74 5000 1.5 170 21:57 13.08.2019
3499 Haze 26 1012 74 5000 2.1 160 21:37 13.08.2019
3500 Haze 27 1012 69 5000 2.6 0 21:18 13.08.2019
3501 Haze 27 1012 74 5000 2.6 0 20:45 13.08.2019
3502 Clouds 27 1012 74 6000 3.1 120 20:20 13.08.2019
3503 Clouds 27 1012 74 6000 3.1 120 19:58 13.08.2019
3504 Clouds 27 1013 74 6000 3.1 140 19:40 13.08.2019
3505 Clouds 27 1013 74 6000 3.1 140 19:21 13.08.2019
3506 Clouds 27 1013 74 6000 2.6 0 18:42 13.08.2019
3507 Clouds 27 1013 74 6000 2.6 0 18:23 13.08.2019
3508 Clouds 27 1013 74 6000 3.1 110 17:58 13.08.2019
3509 Clouds 27 1013 74 6000 3.1 130 17:39 13.08.2019
3510 Clouds 27 1013 74 6000 3.1 130 17:20 13.08.2019
3511 Clouds 27 1013 74 6000 2.6 0 16:56 13.08.2019
3512 Clouds 26 1012 74 6000 3.1 100 16:37 13.08.2019
3513 Clouds 26 1012 74 6000 3.1 100 16:19 13.08.2019
3514 Clouds 26 1012 78 7000 4.6 90 15:39 13.08.2019
3515 Clouds 26 1012 78 7000 4.6 90 15:20 13.08.2019
3516 Clouds 26 1012 78 7000 5.1 90 14:58 13.08.2019
3517 Clouds 27 1011 74 8000 5.1 70 14:38 13.08.2019
3518 Clouds 27 1011 74 8000 5.7 70 14:18 13.08.2019
3519 Clouds 27 1010 74 9000 5.7 70 13:42 13.08.2019
3520 Clouds 28 1010 66 9000 6.7 60 13:21 13.08.2019
3521 Clouds 28 1010 66 9000 6.7 60 12:59 13.08.2019
3522 Clouds 28 1009 66 10000 7.2 60 12:40 13.08.2019
3523 Clouds 29 1009 66 10000 7.2 60 12:22 13.08.2019
3524 Clouds 29 1009 58 10000 8.2 60 11:58 13.08.2019
3525 Clouds 30 1009 58 10000 7.7 60 11:38 13.08.2019
3526 Clouds 31 1009 58 10000 7.7 60 11:19 13.08.2019
3527 Clouds 30 1009 58 10000 8.2 60 10:56 13.08.2019
3528 Clouds 30 1009 58 10000 8.2 60 10:56 13.08.2019
3529 Clouds 31 1009 55 10000 8.7 70 10:36 13.08.2019
3530 Clouds 31 1009 55 10000 8.2 60 10:18 13.08.2019
3531 Clouds 31 1010 55 10000 7.7 60 09:42 13.08.2019
3532 Clouds 31 1010 55 10000 7.7 60 09:23 13.08.2019
3533 Clouds 32 1010 52 9000 7.2 60 08:43 13.08.2019
3534 Clouds 32 1010 52 9000 7.2 60 08:22 13.08.2019
3535 Clouds 32 1011 49 9000 6.7 70 07:57 13.08.2019
3536 Clouds 32 1011 52 8000 6.7 70 07:34 13.08.2019
3537 Clouds 32 1011 52 8000 6.7 80 06:56 13.08.2019
3538 Haze 32 1012 52 8000 6.7 80 06:36 13.08.2019
3539 Haze 29 1013 51 5000 1.5 220 05:35 13.08.2019
3540 Haze 25 1013 73 6000 2.6 0 02:52 13.08.2019
3541 Haze 25 1012 78 5000 3.12 129.688 02:19 13.08.2019
3542 Mist 24 1011 78 3700 2.1 280 01:18 13.08.2019
3543 Mist 24 1011 78 3000 2.1 290 00:42 13.08.2019
3544 Mist 24 1010 78 3000 1.5 290 23:57 12.08.2019
3545 Mist 24 1010 78 3000 2.1 280 23:36 12.08.2019
3546 Mist 24 1010 83 4500 1.5 300 23:18 12.08.2019
3547 Clouds 25 1010 74 6000 1 0 22:40 12.08.2019
3548 Clouds 26 1010 74 6000 2.6 0 22:20 12.08.2019
3549 Clouds 26 1010 74 6000 2.6 0 21:55 12.08.2019
3550 Clouds 26 1011 78 6000 2.6 0 21:37 12.08.2019
3551 Clouds 26 1011 78 6000 3.1 140 21:18 12.08.2019
3552 Clouds 26 1011 78 6000 3.1 140 20:57 12.08.2019
3553 Clouds 26 1011 74 6000 3.1 150 20:38 12.08.2019
3554 Clouds 27 1011 74 6000 3.1 150 20:20 12.08.2019
3555 Clouds 27 1011 74 6000 3.1 150 20:20 12.08.2019
3556 Clouds 26 1012 78 6000 3.6 120 19:55 12.08.2019
3557 Clouds 24 1012 78 7000 3.6 120 19:37 12.08.2019
3558 Clouds 25 1012 78 7000 3.1 120 19:18 12.08.2019
3559 Clouds 25 1012 78 7000 3.1 120 18:54 12.08.2019
3560 Clouds 25 1012 78 7000 3.1 120 18:36 12.08.2019
3561 Clouds 25 1012 74 7000 3.6 110 18:18 12.08.2019
3562 Clouds 25 1012 74 8000 3.1 110 17:46 12.08.2019
3563 Clouds 25 1012 74 8000 3.1 110 17:28 12.08.2019
3564 Clouds 25 1012 74 8000 3.1 120 16:56 12.08.2019
3565 Clouds 25 1012 69 8000 3.1 120 16:38 12.08.2019
3566 Clouds 26 1011 69 8000 3.6 120 16:20 12.08.2019
3567 Clouds 26 1011 69 8000 3.6 120 16:20 12.08.2019
3568 Clouds 26 1011 69 8000 3.6 120 15:58 12.08.2019
3569 -273 0 0 0 0 0 15:39 12.08.2019
3570 Clouds 26 1011 69 9000 5.1 100 15:38 12.08.2019
3571 Clouds 26 1011 69 9000 5.1 100 15:20 12.08.2019
3572 -273 0 0 0 0 0 14:54 12.08.2019
3573 Clouds 27 1011 65 6000 4.6 70 14:36 12.08.2019
3574 Clouds 27 1010 65 9000 5.7 90 14:18 12.08.2019
3575 Clouds 27 1010 58 6000 6.7 80 13:42 12.08.2019
3576 Clouds 27 1010 58 6000 6.7 80 13:23 12.08.2019
3577 Clouds 28 1009 58 6000 7.2 60 12:44 12.08.2019
3578 Clouds 28 1009 58 6000 7.2 60 12:22 12.08.2019
3579 Clouds 29 1009 58 10000 7.2 70 11:56 12.08.2019
3580 Clouds 30 1009 58 10000 8.2 60 11:38 12.08.2019
3581 Clouds 30 1009 52 10000 7.7 70 11:19 12.08.2019
3582 Clouds 31 1009 49 6000 5.1 50 10:40 12.08.2019
3583 Clouds 31 1009 49 6000 5.1 50 10:22 12.08.2019
3584 Clouds 31 1009 49 10000 7.2 60 09:56 12.08.2019
3585 Clouds 32 1009 46 6000 3.6 30 09:37 12.08.2019
3586 Clouds 32 1009 46 6000 3.6 30 09:37 12.08.2019
3587 Clouds 32 1009 46 6000 3.6 30 09:18 12.08.2019
3588 Clouds 31 1010 52 10000 6.7 50 08:42 12.08.2019
3589 Clouds 31 1010 52 10000 6.7 50 08:24 12.08.2019
3590 Clouds 32 1011 52 10000 6.2 60 07:57 12.08.2019
3591 Clouds 32 1011 49 10000 6.2 60 07:39 12.08.2019
3592 Clouds 32 1012 52 10000 6.2 80 07:19 12.08.2019
3593 Clouds 32 1012 55 6000 3.6 100 06:42 12.08.2019
3594 Clouds 30 1013 58 9000 2.6 0 04:40 12.08.2019
3595 Haze 26 1012 73 5000 3.1 200 02:43 12.08.2019
3596 Haze 25 1011 69 5000 3.1 190 01:49 12.08.2019
3597 Haze 25 1011 73 5000 3.1 200 01:19 12.08.2019
3598 Haze 25 1011 73 5000 3.1 200 00:56 12.08.2019
3599 Haze 25 1011 73 5000 3.1 210 00:37 12.08.2019
3600 Haze 25 1010 78 5000 3.1 210 00:18 12.08.2019
3601 Haze 25 1010 78 5000 2.6 200 23:41 11.08.2019
3602 Haze 24 1010 78 5000 2.6 200 23:20 11.08.2019
3603 Haze 24 1010 78 5000 1.5 270 22:58 11.08.2019
3604 Haze 24 1010 78 5000 1.5 0 22:39 11.08.2019
3605 Haze 24 1010 78 5000 1.5 0 22:18 11.08.2019
3606 Haze 24 1010 78 5000 1.5 0 21:58 11.08.2019
3607 Clouds 25 1010 74 7000 1.5 0 21:39 11.08.2019
3608 Clouds 26 1010 74 7000 2.1 120 21:19 11.08.2019
3609 Clouds 26 1010 74 7000 2.1 0 20:45 11.08.2019
3610 Clouds 26 1010 74 7000 2.1 0 20:24 11.08.2019
3611 Clouds 26 1010 74 7000 2.1 120 19:57 11.08.2019
3612 Clouds 27 1011 69 7000 2.6 0 19:39 11.08.2019
3613 Clouds 27 1011 69 7000 2.6 0 19:18 11.08.2019
3614 Clouds 26 1011 69 7000 2.1 110 18:41 11.08.2019
3615 Clouds 27 1011 65 7000 2.6 0 18:20 11.08.2019
3616 Clouds 27 1011 65 7000 2.6 0 17:56 11.08.2019
3617 Clouds 27 1011 69 7000 2.1 0 17:38 11.08.2019
3618 Clouds 27 1011 69 7000 2.1 0 17:20 11.08.2019
3619 Clouds 27 1012 69 8000 2.6 110 16:55 11.08.2019
3620 Clouds 27 1011 69 8000 2.1 100 16:37 11.08.2019
3621 Clouds 28 1011 69 8000 3.6 90 16:18 11.08.2019
3622 Clouds 28 1011 69 8000 3.6 90 16:18 11.08.2019
3623 Clouds 28 1011 65 8000 3.6 80 15:42 11.08.2019
3624 Clouds 28 1011 65 8000 3.6 80 15:23 11.08.2019
3625 Clouds 28 1010 65 9000 3.6 70 14:56 11.08.2019
3626 Clouds 28 1010 58 6000 4.6 60 14:38 11.08.2019
3627 Clouds 28 1010 58 6000 4.6 60 14:19 11.08.2019
3628 Clouds 28 1010 58 6000 4.6 60 14:19 11.08.2019
3629 Clouds 29 1009 58 6000 5.1 30 13:44 11.08.2019
3630 Clouds 29 1009 58 6000 5.1 30 13:24 11.08.2019
3631 Clouds 29 1009 58 6000 5.1 30 13:24 11.08.2019
3632 Clouds 30 1008 55 6000 4.6 40 12:48 11.08.2019
3633 Clouds 31 1008 55 6000 4.6 40 12:23 11.08.2019
3634 Clouds 30 1008 62 10000 6.2 70 11:56 11.08.2019
3635 Clouds 31 1008 55 10000 6.7 70 11:38 11.08.2019
3636 Clouds 31 1008 55 10000 6.7 70 11:20 11.08.2019
3637 Clouds 32 1008 52 10000 6.2 50 10:41 11.08.2019
3638 Clouds 32 1008 52 10000 6.2 50 10:22 11.08.2019
3639 Clouds 32 1009 46 6000 4.1 30 09:59 11.08.2019
3640 Clouds 33 1009 52 10000 6.2 60 09:38 11.08.2019
3641 Clouds 32 1009 52 10000 6.2 60 09:20 11.08.2019
3642 Clouds 32 1010 46 6000 4.6 40 08:47 11.08.2019
3643 Clouds 32 1010 46 6000 4.6 40 08:27 11.08.2019
3644 Clouds 33 1011 49 10000 6.7 70 07:55 11.08.2019
3645 Clouds 33 1011 49 10000 5.7 60 07:25 11.08.2019
3646 Clouds 33 1012 48 6000 4.6 100 06:45 11.08.2019
3647 Clouds 31 1013 55 6000 4.6 90 05:39 11.08.2019
3648 Haze 28 1012 74 4000 2.1 170 03:43 11.08.2019
3649 Haze 26 1012 69 5000 2.1 0 02:49 11.08.2019
3650 Clouds 25 1011 73 3500 2.1 180 01:39 11.08.2019
3651 Clouds 25 1011 73 3500 2.1 180 01:20 11.08.2019
3652 Haze 25 1011 73 4000 2.6 170 01:20 11.08.2019
3653 Haze 25 1010 73 4500 2.1 180 00:44 11.08.2019
3654 Haze 25 1010 73 4500 2.1 180 00:25 11.08.2019
3655 Haze 25 1010 73 4500 2.1 200 23:45 10.08.2019
3656 Haze 25 1010 73 4500 2.1 200 23:27 10.08.2019
3657 Clouds 25 1010 73 6000 2.1 0 22:43 10.08.2019
3658 Clouds 25 1010 73 6000 2.1 0 22:25 10.08.2019
3659 Clouds 26 1010 69 6000 2.1 0 21:58 10.08.2019
3660 Clouds 26 1010 74 6000 2.1 0 21:38 10.08.2019
3661 Clouds 26 1010 74 6000 2.1 0 21:19 10.08.2019
3662 Clouds 26 1010 74 6000 1.5 170 20:56 10.08.2019
3663 Clouds 26 1010 74 6000 3.1 130 20:37 10.08.2019
3664 Clouds 26 1011 74 6000 2.1 120 20:18 10.08.2019
3665 Clouds 26 1011 74 8000 3.1 120 19:39 10.08.2019
3666 Clouds 26 1011 74 8000 3.1 120 19:21 10.08.2019
3667 Clouds 26 1012 74 8000 3.6 120 18:41 10.08.2019
3668 Clouds 26 1012 74 8000 3.6 120 18:22 10.08.2019
3669 Clouds 26 1011 78 8000 4.1 90 17:46 10.08.2019
3670 Clouds 26 1011 78 8000 4.1 90 17:25 10.08.2019
3671 Clouds 27 1011 74 8000 4.6 80 16:47 10.08.2019
3672 Clouds 27 1011 74 8000 4.6 80 16:29 10.08.2019
3673 Clouds 27 1011 74 8000 4.6 80 15:59 10.08.2019
3674 Clouds 27 1011 69 7000 4.6 80 15:40 10.08.2019
3675 Clouds 27 1011 69 7000 4.6 80 15:21 10.08.2019
3676 Clouds 27 1011 69 7000 4.6 80 15:21 10.08.2019
3677 Clouds 28 1009 65 8000 4.1 70 14:43 10.08.2019
3678 Clouds 28 1009 65 8000 5.1 60 14:18 10.08.2019
3679 Clouds 28 1008 65 8000 5.7 60 13:39 10.08.2019
3680 Clouds 28 1008 65 9000 6.2 70 13:19 10.08.2019
3681 Clouds 29 1008 62 10000 5.7 70 12:42 10.08.2019
3682 Clouds 31 1007 62 10000 6.2 60 12:22 10.08.2019
3683 Clouds 29 1007 62 10000 6.2 60 11:57 10.08.2019
3684 Clouds 30 1007 55 10000 6.2 60 11:39 10.08.2019
3685 Clouds 31 1007 55 10000 6.2 60 11:20 10.08.2019
3686 Clouds 31 1008 48 10000 5.7 70 10:39 10.08.2019
3687 Clouds 32 1008 52 10000 5.7 60 10:20 10.08.2019
3688 Clouds 32 1008 52 10000 5.7 60 09:59 10.08.2019
3689 Clouds 32 1008 43 6000 3.6 50 09:38 10.08.2019
3690 Clouds 32 1009 46 10000 4.6 60 09:20 10.08.2019
3691 Clouds 32 1009 48 10000 4.1 50 08:39 10.08.2019
3692 Clouds 32 1010 46 8000 4.6 70 08:19 10.08.2019
3693 Clouds 32 1010 46 8000 4.6 70 07:52 10.08.2019
3694 Clouds 31 1010 52 8000 4.6 50 07:27 10.08.2019
3695 Clouds 31 1010 52 8000 4.6 50 07:27 10.08.2019
3696 Clouds 31 1011 51 10000 4.1 50 06:48 10.08.2019
3697 Clouds 31 1012 55 9000 3.1 50 06:21 10.08.2019
3698 Clouds 31 1012 55 9000 4.1 50 05:24 10.08.2019
3699 Clouds 30 1012 62 7000 3.1 100 04:26 10.08.2019
3700 Haze 25 1011 65 6000 3.1 0 02:54 10.08.2019
3701 Haze 24 1011 65 6000 2.1 190 02:23 10.08.2019
3702 Haze 24 1010 65 5000 3.1 180 01:41 10.08.2019
3703 Haze 24 1010 88 4000 2.15 128.743 01:21 10.08.2019
3704 Haze 24 1010 88 4000 2.15 128.743 00:46 10.08.2019
3705 Haze 24 1010 88 4000 2.17 148.543 00:22 10.08.2019
3706 Clouds 24 1010 73 2700 1 0 23:44 09.08.2019
3707 Clouds 24 1010 73 2700 1 0 23:24 09.08.2019
3708 Haze 24 1010 78 3000 2.17 148.543 22:57 09.08.2019
3709 Haze 25 1010 69 4000 2.1 220 22:38 09.08.2019
3710 Haze 25 1010 69 4000 2.1 220 22:20 09.08.2019
3711 Haze 25 1010 73 4000 1.5 180 21:43 09.08.2019
3712 Haze 25 1010 73 4000 1.5 180 21:24 09.08.2019
3713 Haze 25 1010 73 4000 1.5 180 21:24 09.08.2019
3714 Haze 25 1010 73 4000 2.6 0 20:59 09.08.2019
3715 Haze 25 1011 73 4000 1.5 0 20:41 09.08.2019
3716 Haze 25 1011 73 4000 1.5 0 20:22 09.08.2019
3717 Haze 26 1011 74 4000 2.6 0 19:59 09.08.2019
3718 Haze 26 1011 74 4000 1 0 19:41 09.08.2019
3719 Haze 26 1011 74 4000 1 0 19:19 09.08.2019
3720 Haze 26 1012 74 5000 1 360 18:41 09.08.2019
3721 Haze 26 1012 74 5000 1 10 18:22 09.08.2019
3722 Haze 26 1012 74 5000 1 10 17:58 09.08.2019
3723 Haze 27 1012 69 5000 1.5 50 17:39 09.08.2019
3724 Haze 27 1012 69 5000 1.5 50 17:21 09.08.2019
3725 -273 0 0 0 0 0 16:42 09.08.2019
3726 Haze 27 1012 69 5000 1 40 16:23 09.08.2019
3727 Haze 27 1012 69 5000 1 20 15:57 09.08.2019
3728 Haze 27 1011 69 5000 1 40 15:39 09.08.2019
3729 Haze 27 1011 69 3000 1 350 15:20 09.08.2019
3730 Haze 27 1011 69 3000 1 350 14:55 09.08.2019
3731 Haze 28 1010 65 5000 1.5 20 14:37 09.08.2019
3732 Clouds 28 1010 65 8000 1.5 10 14:19 09.08.2019
3733 Clouds 28 1009 61 8000 2.6 30 13:43 09.08.2019
3734 Clouds 28 1009 58 8000 3.1 10 13:20 09.08.2019
3735 Clouds 29 1009 54 8000 3.6 30 12:47 09.08.2019
3736 Clouds 30 1009 54 8000 3.6 30 12:24 09.08.2019
3737 Clouds 31 1009 51 8000 4.1 40 11:59 09.08.2019
3738 Clouds 31 1009 51 8000 4.1 40 11:59 09.08.2019
3739 Clouds 31 1009 48 8000 4.1 30 11:37 09.08.2019
3740 Clouds 30 1008 51 8000 5.1 40 11:19 09.08.2019
3741 Clouds 31 1008 48 8000 5.7 40 10:41 09.08.2019
3742 Clouds 31 1008 48 8000 5.7 40 10:41 09.08.2019
3743 Clouds 31 1008 48 8000 5.7 40 10:22 09.08.2019
3744 Clouds 31 1009 55 8000 6.2 40 09:46 09.08.2019
3745 Clouds 31 1009 55 8000 6.2 40 09:20 09.08.2019
3746 Clouds 32 1009 49 8000 5.1 60 08:59 09.08.2019
3747 Clouds 32 1009 55 8000 4.1 50 08:40 09.08.2019
3748 Clouds 31 1010 58 7000 3.6 50 08:20 09.08.2019
3749 Clouds 31 1010 58 7000 4.6 20 07:53 09.08.2019
3750 Clouds 32 1010 58 7000 4.6 20 07:24 09.08.2019
3751 Clouds 31 1010 58 8000 2.6 0 06:56 09.08.2019
3752 Clouds 31 1011 55 9000 2.6 0 06:33 09.08.2019
3753 Clouds 30 1011 55 9000 1.5 0 05:58 09.08.2019
3754 Clouds 30 1012 58 7000 2.1 0 04:25 09.08.2019
3755 Haze 25 1011 83 4000 1.6 164.509 02:23 09.08.2019
3756 Clouds 24 1010 73 7000 3.6 200 00:56 09.08.2019
3757 Clouds 24 1010 78 6000 1.75 182.879 00:38 09.08.2019
3758 Clouds 24 1010 69 7000 3.1 200 00:20 09.08.2019
3759 Clouds 25 1010 69 6000 3.1 190 23:39 08.08.2019
3760 Clouds 25 1010 69 6000 2.6 190 23:20 08.08.2019
3761 Clouds 25 1010 69 6000 2.6 190 22:59 08.08.2019
3762 Haze 25 1010 69 5000 2.6 180 22:37 08.08.2019
3763 Haze 25 1010 69 5000 2.1 0 22:19 08.08.2019
3764 Haze 25 1010 69 5000 2.1 0 21:59 08.08.2019
3765 Haze 25 1010 69 5000 2.1 200 21:41 08.08.2019
3766 Haze 26 1010 69 5000 1.5 0 21:22 08.08.2019
3767 Haze 26 1010 69 5000 1.5 0 20:56 08.08.2019
3768 Haze 26 1010 74 5000 2.1 0 20:38 08.08.2019
3769 Haze 26 1010 74 5000 2.1 0 20:19 08.08.2019
3770 Haze 26 1011 69 5000 2.1 0 19:44 08.08.2019
3771 Haze 27 1011 69 5000 2.1 0 19:24 08.08.2019
3772 Clouds 27 1011 65 6000 1 50 18:44 08.08.2019
3773 Clouds 26 1011 69 6000 2.1 100 18:24 08.08.2019
3774 Clouds 26 1011 69 6000 2.1 100 17:58 08.08.2019
3775 Clouds 26 1011 69 6000 2.1 100 17:40 08.08.2019
3776 Clouds 26 1011 69 6000 2.1 100 17:22 08.08.2019
3777 Clouds 27 1011 61 6000 1 0 16:55 08.08.2019
3778 Clouds 27 1011 65 6000 0.5 0 16:37 08.08.2019
3779 Clouds 27 1011 65 6000 0.5 0 16:19 08.08.2019
3780 Clouds 27 1010 65 6000 1 40 15:41 08.08.2019
3781 Haze 28 1010 65 6000 1 40 15:23 08.08.2019
3782 Haze 27 1010 65 8000 1 20 14:56 08.08.2019
3783 Haze 28 1009 58 5000 2.6 30 14:37 08.08.2019
3784 Haze 28 1009 61 9000 2.6 40 14:18 08.08.2019
3785 Haze 28 1008 58 5000 3.6 20 13:40 08.08.2019
3786 Haze 28 1008 58 5000 3.6 20 13:20 08.08.2019
3787 Haze 29 1008 55 5000 2.6 340 12:43 08.08.2019
3788 Haze 30 1008 51 10000 5.1 40 12:23 08.08.2019
3789 Haze 30 1008 51 10000 5.1 40 11:59 08.08.2019
3790 Haze 30 1008 48 5000 2.1 330 11:39 08.08.2019
3791 Haze 31 1008 48 10000 4.6 30 11:21 08.08.2019
3792 Haze 31 1008 46 5000 2.6 20 10:41 08.08.2019
3793 Haze 31 1008 46 5000 2.6 20 10:22 08.08.2019
3794 Haze 31 1008 48 10000 3.6 20 09:53 08.08.2019
3795 Haze 31 1008 40 5000 3.1 50 09:31 08.08.2019
3796 Haze 32 1009 38 5000 2.1 270 08:59 08.08.2019
3797 Clouds 31 1010 52 10000 4.6 30 08:39 08.08.2019
3798 Clouds 31 1010 48 10000 4.1 10 08:19 08.08.2019
3799 Clouds 32 1010 51 10000 3.6 30 07:41 08.08.2019
3800 Clouds 31 1011 43 10000 1.5 0 07:20 08.08.2019
3801 Clouds 32 1011 43 10000 1.5 0 06:56 08.08.2019
3802 Haze 32 1011 45 10000 2.1 0 06:37 08.08.2019
3803 Haze 31 1012 48 10000 2.6 0 05:53 08.08.2019
3804 Haze 29 1012 51 9000 2.1 0 05:19 08.08.2019
3805 Haze 28 1012 54 9000 3.1 160 03:53 08.08.2019
3806 Haze 26 1012 65 5000 3.6 170 02:51 08.08.2019
3807 Haze 24 1011 73 5000 1.5 230 01:38 08.08.2019
3808 Haze 24 1011 69 5000 4.1 190 00:26 08.08.2019
3809 Haze 24 1010 69 5000 3.6 190 23:59 07.08.2019
3810 Haze 24 1010 69 5000 2.1 200 23:22 07.08.2019
3811 Haze 24 1010 73 5000 2.6 200 22:59 07.08.2019
3812 Haze 24 1010 73 5000 3.1 190 22:40 07.08.2019
3813 Haze 24 1010 73 5000 3.1 190 22:20 07.08.2019
3814 Haze 24 1010 73 5000 2.6 190 21:56 07.08.2019
3815 Haze 24 1010 73 5000 1.5 210 21:38 07.08.2019
3816 Haze 24 1010 73 5000 1.5 210 21:19 07.08.2019
3817 Haze 23 1010 78 5000 1.5 260 20:55 07.08.2019
3818 Haze 24 1010 73 5000 1.5 240 20:36 07.08.2019
3819 Haze 24 1011 73 5000 2.1 220 20:18 07.08.2019
3820 Haze 24 1011 73 5000 1.5 250 19:40 07.08.2019
3821 Haze 24 1011 73 5000 2.6 250 19:22 07.08.2019
3822 Haze 24 1011 73 5000 2.6 250 18:55 07.08.2019
3823 Haze 25 1011 69 5000 1.5 280 18:37 07.08.2019
3824 Haze 26 1011 65 5000 1 20 18:19 07.08.2019
3825 Haze 26 1011 65 5000 1 20 17:54 07.08.2019
3826 Haze 26 1011 69 5000 1 340 17:36 07.08.2019
3827 Haze 26 1010 65 5000 1 360 17:18 07.08.2019
3828 Haze 26 1010 65 5000 1 360 16:54 07.08.2019
3829 Haze 27 1010 61 5000 1 20 16:36 07.08.2019
3830 Haze 27 1010 61 5000 1.5 360 16:18 07.08.2019
3831 Haze 27 1009 61 5000 2.1 350 15:41 07.08.2019
3832 Haze 27 1009 61 5000 2.1 350 15:19 07.08.2019
3833 Clouds 28 1008 106 6000 2.1 50 14:49 07.08.2019
3834 Clouds 28 1008 106 6000 2.1 50 14:30 07.08.2019
3835 Clouds 29 1008 61 6000 2.1 50 13:57 07.08.2019
3836 Clouds 29 1007 48 6000 3.1 40 13:38 07.08.2019
3837 Clouds 29 1008 54 10000 3.6 60 13:18 07.08.2019
3838 -273 0 0 0 0 0 12:56 07.08.2019
3839 Clouds 30 1007 43 6000 4.6 40 12:36 07.08.2019
3840 Clouds 31 1007 48 10000 5.1 60 12:18 07.08.2019
3841 Clouds 31 1007 35 6000 3.6 80 11:43 07.08.2019
3842 Clouds 31 1007 35 6000 3.6 80 11:21 07.08.2019
3843 Clouds 31 1008 45 10000 5.7 40 10:58 07.08.2019
3844 -273 0 0 0 0 0 10:39 07.08.2019
3845 Clouds 32 1008 35 10000 6.7 60 10:18 07.08.2019
3846 Clouds 32 1008 35 6000 2.6 60 09:46 07.08.2019
3847 Clouds 32 1008 35 6000 2.6 60 09:22 07.08.2019
3848 Clouds 32 1009 35 10000 7.2 80 08:57 07.08.2019
3849 Clouds 32 1009 33 6000 2.6 30 08:39 07.08.2019
3850 Clouds 32 1009 33 6000 2.6 30 08:21 07.08.2019
3851 Clouds 32 1010 38 10000 5.7 70 07:43 07.08.2019
3852 Clouds 32 1010 38 10000 5.7 70 07:21 07.08.2019
3853 Clouds 31 1011 35 6000 3.6 100 06:31 07.08.2019
3854 Clouds 29 1011 42 10000 2.1 0 05:59 07.08.2019
3855 Clouds 29 1012 51 9000 1.5 0 04:58 07.08.2019
3856 Haze 25 1012 57 6000 3.1 190 03:21 07.08.2019
3857 Haze 25 1012 61 6000 4.1 200 02:50 07.08.2019
3858 Haze 24 1011 64 6000 2.6 0 02:26 07.08.2019
3859 Haze 23 1011 73 4000 1.08 127.507 01:45 07.08.2019
3860 Haze 23 1011 78 4000 1.83 102.42 00:52 07.08.2019
3861 Clouds 24 1011 64 7000 3.1 200 00:22 07.08.2019
3862 Clouds 24 1011 64 6000 4.1 200 23:44 06.08.2019
3863 Clouds 24 1011 64 6000 4.1 200 23:23 06.08.2019
3864 Haze 24 1010 64 5000 3.1 200 22:59 06.08.2019
3865 Haze 24 1010 64 5000 3.1 170 22:38 06.08.2019
3866 Haze 24 1010 64 5000 3.1 170 22:20 06.08.2019
3867 Haze 24 1011 78 5000 1.5 240 21:44 06.08.2019
3868 Haze 23 1011 78 5000 1.5 240 21:26 06.08.2019
3869 Haze 23 1011 78 5000 1.5 240 21:26 06.08.2019
3870 Haze 24 1011 73 5000 1.5 270 20:59 06.08.2019
3871 Haze 24 1011 73 5000 2.1 280 20:41 06.08.2019
3872 Haze 24 1011 73 5000 2.1 280 20:22 06.08.2019
3873 Haze 25 1011 69 5000 3.1 280 19:47 06.08.2019
3874 Haze 25 1011 69 5000 3.1 280 19:28 06.08.2019
3875 Haze 24 1011 73 5000 2.1 240 18:56 06.08.2019
3876 Haze 25 1011 69 5000 1.5 270 18:36 06.08.2019
3877 Clouds 26 1011 65 6000 1 40 18:18 06.08.2019
3878 Clouds 26 1011 65 6000 1 40 17:56 06.08.2019
3879 Clouds 26 1011 65 6000 1 40 17:56 06.08.2019
3880 Clouds 26 1011 61 6000 1 0 17:36 06.08.2019
3881 Haze 26 1011 57 5000 1 0 17:18 06.08.2019
3882 Haze 27 1011 65 5000 1 0 16:42 06.08.2019
3883 Haze 26 1011 65 5000 1 0 16:24 06.08.2019
3884 Haze 27 1011 57 5000 1 350 15:58 06.08.2019
3885 Haze 27 1011 57 5000 1 0 15:39 06.08.2019
3886 Clouds 27 1011 54 6000 3.1 60 15:20 06.08.2019
3887 Clouds 27 1010 54 6000 2.1 10 14:45 06.08.2019
3888 Clouds 27 1010 54 6000 2.1 10 14:27 06.08.2019
3889 Clouds 27 1010 54 6000 2.6 30 13:58 06.08.2019
3890 Clouds 28 1009 54 6000 1.5 20 13:40 06.08.2019
3891 Clouds 28 1009 54 6000 1.5 20 13:22 06.08.2019
3892 Clouds 28 1009 51 6000 2.1 340 12:59 06.08.2019
3893 Clouds 28 1009 54 9000 3.6 20 12:39 06.08.2019
3894 Clouds 28 1009 54 9000 3.6 20 12:21 06.08.2019
3895 Clouds 30 1008 48 10000 4.1 10 11:43 06.08.2019
3896 Clouds 30 1008 51 10000 5.7 20 11:20 06.08.2019
3897 Clouds 30 1008 51 10000 5.7 20 10:56 06.08.2019
3898 Clouds 30 1008 48 10000 5.7 20 10:38 06.08.2019
3899 Clouds 31 1008 48 10000 5.7 20 10:20 06.08.2019
3900 Clouds 31 1008 43 6000 3.1 340 09:41 06.08.2019
3901 Haze 31 1009 45 10000 5.1 20 09:21 06.08.2019
3902 Haze 31 1009 45 10000 5.1 20 08:49 06.08.2019
3903 Haze 30 1009 48 5000 4.6 20 08:28 06.08.2019
3904 Clouds 31 1010 45 10000 4.6 30 07:59 06.08.2019
3905 Haze 31 1010 45 10000 4.6 20 07:29 06.08.2019
3906 Haze 31 1011 45 5000 1.5 280 06:44 06.08.2019
3907 Haze 31 1011 40 10000 2.6 0 06:21 06.08.2019
3908 Clouds 28 1011 37 10000 4.1 220 05:20 06.08.2019
3909 Clouds 23 1011 53 6000 3.1 220 02:00 06.08.2019
3910 Clouds 22 1011 64 6000 1.5 240 01:25 06.08.2019
3911 Clouds 23 1011 53 6000 3.1 200 00:39 06.08.2019
3912 Clouds 23 1010 56 6000 4.1 200 23:52 05.08.2019
3913 Clouds 23 1010 60 6000 1.5 0 23:19 05.08.2019
3914 Clouds 24 1010 57 6000 1.5 210 22:42 05.08.2019
3915 Clouds 24 1010 57 6000 1.5 210 22:23 05.08.2019
3916 Clouds 24 1010 57 6000 3.1 190 21:58 05.08.2019
3917 Clouds 24 1010 57 6000 4.1 200 21:39 05.08.2019
3918 Clouds 24 1010 57 6000 4.1 200 21:39 05.08.2019
3919 Clouds 24 1010 57 6000 4.1 200 21:19 05.08.2019
3920 Clouds 24 1010 60 7000 3.6 200 20:56 05.08.2019
3921 Clouds 24 1011 69 8000 3.1 210 20:37 05.08.2019
3922 Clouds 24 1011 69 8000 2.1 200 20:19 05.08.2019
3923 Clouds 24 1011 69 8000 2.6 220 19:43 05.08.2019
3924 Clouds 24 1011 69 8000 2.6 220 19:24 05.08.2019
3925 Clouds 25 1011 65 8000 3.6 220 18:58 05.08.2019
3926 Clouds 25 1011 65 8000 2.6 240 18:40 05.08.2019
3927 Clouds 25 1011 65 8000 3.6 220 18:19 05.08.2019
3928 Clouds 25 1011 65 6000 2.6 220 17:46 05.08.2019
3929 Clouds 25 1011 65 6000 2.6 220 17:27 05.08.2019
3930 Clouds 26 1011 61 8000 1.5 70 16:47 05.08.2019
3931 Clouds 27 1011 61 8000 1.5 70 16:26 05.08.2019
3932 Clouds 28 1011 57 8000 2.1 50 15:56 05.08.2019
3933 Clouds 28 1010 54 8000 2.1 40 15:38 05.08.2019
3934 Clouds 27 1010 54 8000 2.1 40 15:19 05.08.2019
3935 Clouds 27 1010 54 8000 1.5 20 14:39 05.08.2019
3936 Clouds 28 1010 54 8000 1.5 20 14:19 05.08.2019
3937 Clouds 28 1009 51 9000 3.1 30 13:44 05.08.2019
3938 Haze 29 1009 51 9000 3.1 30 13:22 05.08.2019
3939 Haze 29 1009 45 5000 3.1 20 12:49 05.08.2019
3940 Haze 29 1009 45 5000 3.1 20 12:20 05.08.2019
3941 Haze 29 1009 43 5000 3.1 350 11:48 05.08.2019
3942 Haze 29 1009 43 5000 3.1 350 11:28 05.08.2019
3943 Haze 30 1009 48 9000 4.6 20 10:59 05.08.2019
3944 Haze 30 1008 43 5000 3.1 330 10:41 05.08.2019
3945 Haze 30 1008 43 5000 3.1 330 10:21 05.08.2019
3946 Clouds 30 1009 45 9000 5.1 30 09:43 05.08.2019
3947 Clouds 31 1009 45 9000 5.1 30 09:25 05.08.2019
3948 Clouds 31 1010 45 9000 5.7 40 08:59 05.08.2019
3949 Clouds 31 1010 45 9000 5.1 30 08:40 05.08.2019
3950 Clouds 31 1010 45 9000 5.1 30 08:20 05.08.2019
3951 Clouds 31 1010 45 9000 5.1 30 08:20 05.08.2019
3952 Clouds 31 1011 43 8000 5.1 30 07:42 05.08.2019
3953 Clouds 31 1011 43 8000 5.1 30 07:22 05.08.2019
3954 Haze 30 1012 40 10000 2.6 0 06:32 05.08.2019
3955 Haze 30 1012 45 5000 2.1 100 05:51 05.08.2019
3956 Haze 29 1013 37 9000 4.1 190 05:19 05.08.2019
3957 Haze 28 1013 54 5000 1.5 120 04:25 05.08.2019
3958 Clouds 25 1013 41 9000 3.6 170 03:38 05.08.2019
3959 Clear 24 1012 53 6000 1.5 200 02:36 05.08.2019
3960 Clouds 24 1011 47 6000 4.1 180 01:35 05.08.2019
3961 Clouds 24 1010 60 6000 3.6 200 00:43 05.08.2019
3962 Clouds 24 1010 60 6000 3.6 200 00:23 05.08.2019
3963 Clouds 25 1010 65 6000 2.1 190 23:58 04.08.2019
3964 Clouds 25 1010 65 6000 2.1 190 23:40 04.08.2019
3965 Clouds 25 1010 65 6000 1.5 200 23:19 04.08.2019
3966 Clouds 25 1010 65 6000 1.5 200 22:55 04.08.2019
3967 Haze 25 1010 65 5000 2.1 220 22:37 04.08.2019
3968 Haze 25 1010 65 5000 1.5 200 22:18 04.08.2019
3969 Haze 25 1010 65 5000 2.6 200 21:43 04.08.2019
3970 Haze 25 1010 65 5000 2.6 200 21:20 04.08.2019
3971 Haze 26 1010 61 5000 3.6 190 20:46 04.08.2019
3972 Clouds 26 1011 61 6000 3.6 200 20:21 04.08.2019
3973 Clouds 26 1011 61 6000 3.6 200 19:59 04.08.2019
3974 Clouds 26 1011 65 6000 2.1 0 19:39 04.08.2019
3975 Clouds 26 1011 65 6000 2.1 0 19:21 04.08.2019
3976 Clouds 27 1011 61 6000 1.5 0 18:42 04.08.2019
3977 Clouds 27 1011 65 6000 2.1 90 18:21 04.08.2019
3978 Clouds 27 1011 65 6000 3.1 90 17:46 04.08.2019
3979 Clouds 27 1011 65 6000 3.1 90 17:26 04.08.2019
3980 Clouds 27 1011 65 7000 2.6 80 16:59 04.08.2019
3981 Clouds 27 1011 65 7000 1 0 16:40 04.08.2019
3982 Clouds 27 1011 65 7000 1 0 16:20 04.08.2019
3983 Clouds 28 1010 61 8000 1.5 70 15:44 04.08.2019
3984 Clouds 27 1010 61 8000 1.5 70 15:23 04.08.2019
3985 Clouds 27 1010 58 8000 3.6 80 14:45 04.08.2019
3986 Clouds 28 1010 58 8000 3.6 80 14:27 04.08.2019
3987 Clouds 28 1009 58 8000 4.1 80 13:56 04.08.2019
3988 Clouds 28 1009 58 9000 4.6 70 13:38 04.08.2019
3989 Clouds 28 1009 54 9000 5.7 60 13:20 04.08.2019
3990 Clouds 29 1009 54 9000 5.7 60 12:44 04.08.2019
3991 Clouds 29 1009 54 9000 5.7 60 12:25 04.08.2019
3992 Clouds 30 1009 51 10000 5.7 40 11:56 04.08.2019
3993 Clouds 30 1009 58 10000 6.2 30 11:37 04.08.2019
3994 Clouds 30 1009 58 10000 6.7 30 11:19 04.08.2019
3995 Clouds 30 1009 52 8000 3.1 20 10:40 04.08.2019
3996 Clouds 31 1009 52 8000 3.1 20 10:20 04.08.2019
3997 Clouds 31 1009 52 7000 5.1 20 09:44 04.08.2019
3998 Clouds 32 1009 52 7000 5.1 20 09:22 04.08.2019
3999 Clouds 34 1009 49 8000 3.6 330 08:45 04.08.2019
4000 Clouds 34 1009 49 8000 3.6 330 08:26 04.08.2019
4001 Clouds 34 1011 40 8000 2.1 0 07:52 04.08.2019
4002 Clouds 33 1011 43 8000 2.1 0 06:56 04.08.2019
4003 Haze 30 1012 48 8000 2.6 230 06:28 04.08.2019
4004 Haze 28 1013 48 7000 3.6 180 04:26 04.08.2019
4005 Haze 25 1013 61 5000 3.1 170 02:41 04.08.2019
4006 Haze 24 1012 69 6000 1.5 180 01:39 04.08.2019
4007 Haze 24 1012 69 5000 2.1 160 01:18 04.08.2019
4008 Haze 25 1011 69 6000 2.1 180 00:41 04.08.2019
4009 Haze 25 1011 69 5000 3.6 190 00:19 04.08.2019
4010 Haze 25 1011 65 5000 3.1 200 23:40 03.08.2019
4011 Haze 25 1011 69 4000 2.6 200 23:18 03.08.2019
4012 Haze 25 1011 69 4000 1 230 22:44 03.08.2019
4013 Haze 25 1011 69 4000 1 230 22:21 03.08.2019
4014 Haze 25 1011 73 5000 1 0 21:56 03.08.2019
4015 Haze 25 1011 69 5000 1 10 21:36 03.08.2019
4016 Haze 25 1011 69 5000 1 10 21:36 03.08.2019
4017 Haze 25 1011 69 5000 1 0 21:18 03.08.2019
4018 Haze 25 1011 69 5000 1 0 21:18 03.08.2019
4019 Haze 26 1011 69 5000 1 0 20:41 03.08.2019
4020 Haze 26 1011 69 5000 1 0 20:20 03.08.2019
4021 Haze 26 1012 65 5000 2.1 110 19:42 03.08.2019
4022 Haze 26 1012 65 5000 2.1 110 19:23 03.08.2019
4023 Haze 26 1012 65 5000 1 0 18:50 03.08.2019
4024 Haze 27 1012 65 5000 1 0 18:27 03.08.2019
4025 Clouds 27 1012 61 6000 1.5 30 17:49 03.08.2019
4026 Clouds 27 1011 61 6000 1.5 80 17:21 03.08.2019
4027 Clouds 27 1011 61 6000 2.1 110 16:56 03.08.2019
4028 Clouds 27 1011 61 7000 2.6 0 16:37 03.08.2019
4029 Clouds 27 1011 65 7000 3.6 90 16:19 03.08.2019
4030 Clouds 27 1010 65 8000 3.1 90 15:43 03.08.2019
4031 Clouds 28 1010 65 8000 3.1 90 15:22 03.08.2019
4032 Clear 27 1010 61 6000 5.1 60 14:40 03.08.2019
4033 Clear 27 1010 61 6000 5.1 60 14:21 03.08.2019
4034 Clouds 28 1009 65 8000 4.6 80 13:51 03.08.2019
4035 Clear 29 1009 51 6000 5.1 60 13:25 03.08.2019
4036 Clouds 29 1009 58 9000 5.7 80 12:57 03.08.2019
4037 Clear 29 1008 52 6000 5.1 30 12:39 03.08.2019
4038 Clear 29 1008 52 6000 5.1 30 12:21 03.08.2019
4039 Clear 30 1008 46 6000 4.6 40 11:48 03.08.2019
4040 Clear 32 1008 46 6000 4.6 40 11:26 03.08.2019
4041 Haze 30 1009 49 5000 3.1 20 10:41 03.08.2019
4042 Haze 30 1009 49 5000 3.1 20 10:22 03.08.2019
4043 Haze 30 1009 43 5000 3.6 30 09:41 03.08.2019
4044 Haze 32 1009 49 7000 6.2 60 09:21 03.08.2019
4045 Haze 32 1009 49 7000 6.2 60 08:51 03.08.2019
4046 Clouds 33 1011 46 7000 4.6 140 07:52 03.08.2019
4047 Haze 32 1011 46 7000 4.6 140 07:31 03.08.2019
4048 Haze 31 1012 55 4000 2.6 180 06:23 03.08.2019
4049 Haze 27 1013 69 5000 1.5 0 03:58 03.08.2019
4050 Haze 24 1012 73 3000 2.1 230 02:36 03.08.2019
4051 Mist 24 1012 78 2100 1.5 280 01:42 03.08.2019
4052 Mist 24 1012 78 3000 2.1 290 00:49 03.08.2019
4053 Mist 24 1011 78 2900 1.5 300 23:58 02.08.2019
4054 Mist 24 1011 73 3500 1.5 290 23:40 02.08.2019
4055 Mist 25 1011 73 3500 1.5 290 23:18 02.08.2019
4056 Clouds 24 1011 73 6000 1.5 280 22:56 02.08.2019
4057 Clouds 25 1011 69 6000 2.1 230 22:38 02.08.2019
4058 Clouds 25 1011 78 6000 1 290 22:18 02.08.2019
4059 Clouds 25 1011 69 6000 1 0 21:43 02.08.2019
4060 Clouds 25 1011 69 6000 1 0 21:23 02.08.2019
4061 Clouds 25 1011 74 6000 1.5 110 20:55 02.08.2019
4062 Clouds 26 1011 69 6000 2.1 140 20:37 02.08.2019
4063 Clouds 26 1012 69 6000 3.1 130 20:19 02.08.2019
4064 Clouds 26 1012 65 6000 2.6 140 19:42 02.08.2019
4065 Clouds 26 1012 65 6000 2.6 140 19:24 02.08.2019
4066 Clouds 26 1012 65 6000 3.1 120 18:44 02.08.2019
4067 Clouds 26 1012 65 6000 3.1 120 18:24 02.08.2019
4068 Clouds 26 1012 69 6000 2.6 90 17:44 02.08.2019
4069 Clouds 26 1012 69 6000 2.6 90 17:24 02.08.2019
4070 Clouds 26 1012 65 7000 3.6 110 16:56 02.08.2019
4071 Clouds 26 1012 65 8000 4.1 100 16:37 02.08.2019
4072 Clouds 26 1012 61 8000 4.1 90 16:18 02.08.2019
4073 Clouds 27 1012 61 8000 4.6 80 15:39 02.08.2019
4074 Clouds 26 1011 65 8000 3.6 90 15:19 02.08.2019
4075 Clouds 26 1011 65 8000 5.1 80 14:46 02.08.2019
4076 Clouds 27 1011 65 8000 6.2 80 14:18 02.08.2019
4077 Clouds 27 1011 65 8000 6.2 80 13:48 02.08.2019
4078 Clear 27 1010 54 6000 6.2 60 13:26 02.08.2019
4079 Clear 29 1010 52 6000 6.2 60 12:45 02.08.2019
4080 Clear 29 1010 52 6000 6.2 60 12:22 02.08.2019
4081 Clouds 29 1010 55 10000 6.7 70 11:53 02.08.2019
4082 Clouds 30 1010 55 10000 6.7 70 11:34 02.08.2019
4083 Clouds 32 1010 55 10000 6.2 70 10:57 02.08.2019
4084 Clouds 31 1009 46 6000 5.7 30 10:39 02.08.2019
4085 Clouds 32 1010 52 9000 4.6 30 10:20 02.08.2019
4086 Clouds 32 1010 52 9000 4.6 30 09:52 02.08.2019
4087 Clouds 31 1010 43 6000 3.1 80 09:25 02.08.2019
4088 Clouds 31 1011 49 9000 5.1 30 08:49 02.08.2019
4089 Clouds 31 1011 49 9000 5.1 30 08:49 02.08.2019
4090 Clouds 32 1011 49 9000 5.1 30 08:22 02.08.2019
4091 Clouds 31 1011 52 9000 4.1 20 07:50 02.08.2019
4092 Haze 32 1011 52 9000 4.1 20 07:31 02.08.2019
4093 Haze 31 1012 43 5000 2.1 30 06:46 02.08.2019
4094 Haze 30 1013 55 5000 1.5 120 05:52 02.08.2019
4095 Haze 30 1013 55 5000 1.5 120 05:25 02.08.2019
4096 Haze 26 1013 65 4000 2.1 150 03:28 02.08.2019
4097 Haze 25 1013 73 4000 2.6 210 02:33 02.08.2019
4098 Haze 25 1012 73 5000 3.1 210 00:41 02.08.2019
4099 Haze 25 1012 73 5000 2.6 200 23:56 01.08.2019
4100 Haze 25 1012 73 5000 3.1 210 23:38 01.08.2019
4101 Clouds 26 1012 73 6000 2.1 210 23:18 01.08.2019
4102 Clouds 26 1010 55 6000 4.6 30 22:40 01.08.2019
4103 Clouds 26 1010 55 6000 4.6 30 22:21 01.08.2019
4104 Clouds 25 1013 74 7000 2.1 210 21:44 01.08.2019
4105 Clouds 26 1013 74 7000 2.1 210 21:24 01.08.2019
4106 Clouds 26 1012 74 7000 3.1 220 20:59 01.08.2019
4107 Clouds 25 1013 74 7000 3.1 200 20:40 01.08.2019
4108 Clouds 25 1013 74 7000 3.1 200 20:21 01.08.2019
4109 Clouds 25 1013 69 6000 3.1 260 19:42 01.08.2019
4110 Haze 26 1013 65 5000 2.1 0 19:20 01.08.2019
4111 Haze 27 1013 65 5000 1.5 20 18:45 01.08.2019
4112 Haze 27 1013 65 5000 1.5 20 18:25 01.08.2019
4113 Haze 27 1013 65 5000 1.5 10 17:56 01.08.2019
4114 Haze 27 1013 65 5000 2.1 30 17:38 01.08.2019
4115 Haze 27 1013 65 5000 2.1 30 17:19 01.08.2019
4116 Haze 27 1012 65 5000 2.1 40 16:44 01.08.2019
4117 Haze 27 1012 65 5000 2.1 40 16:21 01.08.2019
4118 Haze 27 1012 65 5000 1 10 15:42 01.08.2019
4119 Clouds 27 1012 65 6000 1.5 10 15:20 01.08.2019
4120 Clouds 27 1010 58 6000 3.6 60 14:44 01.08.2019
4121 Clouds 27 1010 58 6000 3.6 60 14:21 01.08.2019
4122 Clouds 27 1011 61 10000 1.5 0 13:59 01.08.2019
4123 Clouds 27 1010 58 10000 2.6 50 13:40 01.08.2019
4124 Clouds 28 1010 58 10000 2.6 50 13:21 01.08.2019
4125 Clouds 28 1010 54 10000 4.1 60 12:49 01.08.2019
4126 Clouds 29 1009 52 6000 3.6 30 12:28 01.08.2019
4127 Clouds 29 1010 51 10000 5.1 40 11:58 01.08.2019
4128 Clouds 29 1009 46 6000 3.1 340 11:40 01.08.2019
4129 Clouds 29 1009 46 6000 3.1 340 11:22 01.08.2019
4130 Clouds 29 1009 45 10000 4.1 20 10:43 01.08.2019
4131 Clouds 29 1009 45 10000 4.1 20 10:25 01.08.2019
4132 Clouds 29 1010 52 9000 4.6 10 09:50 01.08.2019
4133 Clouds 30 1010 52 9000 4.6 10 09:24 01.08.2019
4134 Clouds 30 1010 52 9000 4.6 20 08:57 01.08.2019
4135 Clouds 29 1011 48 10000 4.1 40 08:39 01.08.2019
4136 Clouds 29 1011 55 9000 4.1 10 08:18 01.08.2019
4137 Clouds 31 1012 55 9000 4.1 10 07:45 01.08.2019
4138 Clouds 31 1012 55 9000 4.1 10 07:20 01.08.2019
4139 Clouds 31 1012 45 10000 1 0 06:39 01.08.2019
4140 Haze 28 1013 48 5000 3.1 110 05:32 01.08.2019
4141 Haze 25 1013 78 4000 1.5 220 02:41 01.08.2019
4142 Haze 24 1012 73 4000 2.1 200 01:45 01.08.2019
4143 Haze 24 1012 78 5000 2.6 200 00:37 01.08.2019
4144 Haze 24 1011 78 5000 1.5 240 00:18 01.08.2019
4145 Haze 25 1011 73 5000 1 0 23:42 31.07.2019
4146 Haze 25 1011 73 5000 1 0 23:42 31.07.2019
4147 Haze 25 1011 78 5000 2.6 260 23:20 31.07.2019
4148 Haze 25 1011 78 5000 2.1 0 22:46 31.07.2019
4149 Haze 25 1011 78 5000 2.1 0 22:28 31.07.2019
4150 Haze 25 1011 74 5000 1 120 21:45 31.07.2019
4151 Haze 25 1011 74 5000 1 120 21:24 31.07.2019
4152 Clouds 25 1011 78 6000 2.1 110 20:56 31.07.2019
4153 Clouds 25 1011 78 6000 2.1 110 20:56 31.07.2019
4154 Clouds 25 1011 74 8000 1.5 100 20:38 31.07.2019
4155 Clouds 26 1012 74 7000 2.6 110 20:20 31.07.2019
4156 Clouds 26 1012 74 7000 2.6 100 19:41 31.07.2019
4157 Clouds 26 1012 74 7000 2.6 100 19:22 31.07.2019
4158 Clouds 26 1012 69 7000 2.1 0 18:41 31.07.2019
4159 Clouds 26 1012 69 7000 2.1 0 18:23 31.07.2019
4160 Clouds 27 1012 65 7000 1.5 10 17:56 31.07.2019
4161 Clouds 26 1012 69 6000 1.5 330 17:37 31.07.2019
4162 Clouds 26 1012 69 6000 1.5 360 17:19 31.07.2019
4163 Haze 26 1012 65 5000 1 360 16:41 31.07.2019
4164 Clouds 27 1011 65 6000 1 10 16:19 31.07.2019
4165 Clouds 27 1011 65 8000 1.5 360 15:44 31.07.2019
4166 Clouds 27 1011 65 8000 1.5 360 15:24 31.07.2019
4167 Clouds 27 1010 61 8000 2.6 20 14:42 31.07.2019
4168 Clouds 27 1010 61 8000 2.6 20 14:21 31.07.2019
4169 Clouds 27 1010 61 8000 2.6 30 13:57 31.07.2019
4170 Clouds 28 1009 58 6000 4.1 10 13:38 31.07.2019
4171 Clouds 28 1009 54 9000 3.1 20 13:19 31.07.2019
4172 Clouds 28 1008 52 7000 4.1 10 12:45 31.07.2019
4173 Clouds 28 1008 52 7000 4.1 10 12:45 31.07.2019
4174 Clouds 30 1008 52 7000 4.1 10 12:26 31.07.2019
4175 Clouds 29 1008 51 10000 4.1 30 11:55 31.07.2019
4176 Clouds 29 1008 48 10000 4.1 10 11:36 31.07.2019
4177 Clouds 31 1008 48 10000 4.1 10 11:18 31.07.2019
4178 Clouds 28 1008 48 10000 5.7 10 10:41 31.07.2019
4179 Clouds 28 1008 48 10000 5.7 10 10:20 31.07.2019
4180 Clouds 29 1009 46 10000 5.7 20 09:43 31.07.2019
4181 Clouds 32 1009 46 10000 5.7 20 09:24 31.07.2019
4182 Clouds 32 1010 36 10000 5.7 50 08:44 31.07.2019
4183 Clouds 33 1010 36 10000 5.7 50 08:26 31.07.2019
4184 Clouds 33 1010 38 10000 5.1 60 07:56 31.07.2019
4185 Clear 33 1010 36 6000 3.6 110 07:34 31.07.2019
4186 Clouds 28 1012 45 8000 3.1 110 06:18 31.07.2019
4187 Clouds 28 1013 58 7000 3.6 210 04:41 31.07.2019
4188 Haze 24 1012 78 7000 3.6 170 00:58 31.07.2019
4189 Clouds 24 1012 78 6000 3.1 160 23:56 30.07.2019
4190 Clouds 24 1012 78 6000 2.1 180 23:38 30.07.2019
4191 Clouds 24 1012 78 6000 3.1 190 23:18 30.07.2019
4192 Clouds 25 1012 78 8000 1.5 0 22:42 30.07.2019
4193 Clouds 25 1012 78 8000 1.5 0 22:22 30.07.2019
4194 Clouds 25 1012 83 8000 1.5 230 21:38 30.07.2019
4195 Clouds 24 1012 83 8000 1.5 230 21:20 30.07.2019
4196 Clouds 25 1012 73 6000 2.1 210 20:57 30.07.2019
4197 Clouds 25 1012 73 6000 2.6 220 20:39 30.07.2019
4198 Clouds 25 1013 78 6000 1.5 230 20:19 30.07.2019
4199 Clouds 25 1013 73 6000 2.1 270 19:49 30.07.2019
4200 Clouds 25 1013 73 6000 2.1 270 19:29 30.07.2019
4201 Clouds 25 1013 73 6000 3.1 260 18:48 30.07.2019
4202 Clouds 25 1013 73 6000 3.1 260 18:27 30.07.2019
4203 Haze 26 1013 74 4200 2.6 280 17:59 30.07.2019
4204 Haze 26 1013 74 4100 2.6 280 17:41 30.07.2019
4205 Haze 26 1013 69 5000 1.5 300 17:19 30.07.2019
4206 Haze 26 1013 69 5000 2.1 300 16:46 30.07.2019
4207 Haze 26 1013 69 5000 2.1 300 16:20 30.07.2019
4208 Haze 26 1012 69 5000 2.1 310 15:44 30.07.2019
4209 Haze 27 1012 69 5000 2.1 310 15:22 30.07.2019
4210 Haze 27 1010 51 6000 2.6 40 14:46 30.07.2019
4211 Haze 27 1010 51 6000 2.6 40 14:27 30.07.2019
4212 Clouds 27 1010 61 6000 2.1 20 14:00 30.07.2019
4213 Clouds 28 1010 51 6000 4.1 60 13:40 30.07.2019
4214 Clouds 28 1010 58 8000 3.1 360 13:22 30.07.2019
4215 Clouds 29 1009 43 6000 3.1 30 12:49 30.07.2019
4216 Clouds 29 1009 43 6000 3.1 30 12:29 30.07.2019
4217 Clouds 29 1009 46 6000 3.6 20 11:58 30.07.2019
4218 Clouds 28 1009 58 8000 4.1 20 11:38 30.07.2019
4219 Clouds 28 1009 48 8000 5.7 30 11:18 30.07.2019
4220 Clouds 28 1009 48 8000 4.6 20 10:42 30.07.2019
4221 Clouds 28 1009 48 8000 4.6 20 10:21 30.07.2019
4222 Clouds 29 1009 46 8000 4.1 10 09:48 30.07.2019
4223 Clouds 30 1009 46 8000 4.1 10 09:29 30.07.2019
4224 Clouds 30 1010 43 6000 3.1 150 08:44 30.07.2019
4225 Clouds 30 1010 43 6000 3.1 150 08:22 30.07.2019
4226 Clouds 31 1011 52 8000 2.1 0 07:46 30.07.2019
4227 Haze 31 1011 52 8000 2.1 0 07:25 30.07.2019
4228 Haze 32 1012 46 5000 2.6 240 06:46 30.07.2019
4229 Haze 28 1013 54 8000 1 0 05:56 30.07.2019
4230 Haze 28 1013 62 5000 3.6 180 05:32 30.07.2019
4231 Haze 25 1012 94 3000 1.41 146.062 01:40 30.07.2019
4232 Haze 25 1012 94 3000 1.85 102.599 00:41 30.07.2019
4233 Haze 25 1011 69 5000 2.6 170 00:20 30.07.2019
4234 Haze 25 1011 69 5000 2.6 170 23:44 29.07.2019
4235 Haze 25 1011 69 5000 2.6 170 23:25 29.07.2019
4236 Haze 25 1011 69 5000 2.6 170 22:57 29.07.2019
4237 Haze 25 1011 74 5000 2.1 170 22:38 29.07.2019
4238 Haze 25 1011 74 5000 1.5 180 22:19 29.07.2019
4239 Haze 26 1011 74 5000 1.5 180 21:55 29.07.2019
4240 Haze 25 1011 83 5000 2.1 180 21:37 29.07.2019
4241 Haze 25 1011 83 5000 2.1 180 21:18 29.07.2019
4242 Haze 25 1012 74 5000 1 60 20:45 29.07.2019
4243 Haze 26 1012 74 5000 1 60 20:23 29.07.2019
4244 Haze 26 1012 78 5000 1 60 19:55 29.07.2019
4245 Haze 26 1012 74 5000 1 40 19:36 29.07.2019
4246 Haze 26 1012 74 5000 1 30 19:18 29.07.2019
4247 Haze 26 1012 74 5000 1 60 18:41 29.07.2019
4248 Haze 26 1012 74 5000 1 0 18:21 29.07.2019
4249 Haze 26 1012 69 5000 1 20 17:50 29.07.2019
4250 Haze 26 1012 69 5000 1 20 17:32 29.07.2019
4251 Clouds 27 1012 69 6000 1 60 16:58 29.07.2019
4252 Clouds 27 1012 69 6000 1 40 16:39 29.07.2019
4253 Clouds 27 1012 69 6000 1 40 16:21 29.07.2019
4254 Clouds 27 1012 69 7000 1.5 60 15:50 29.07.2019
4255 Clouds 27 1011 65 7000 1.5 50 15:31 29.07.2019
4256 Clouds 28 1010 62 6000 2.1 10 14:46 29.07.2019
4257 Clouds 28 1010 62 6000 2.1 10 14:21 29.07.2019
4258 Clouds 28 1010 62 6000 2.1 10 14:21 29.07.2019
4259 Clouds 28 1010 62 6000 2.1 10 14:21 29.07.2019
4260 Clouds 28 1010 65 8000 2.6 40 13:59 29.07.2019
4261 Clouds 28 1010 65 8000 3.1 40 13:41 29.07.2019
4262 Clouds 29 1010 65 8000 3.1 40 13:22 29.07.2019
4263 Clouds 29 1009 52 6000 4.1 30 12:42 29.07.2019
4264 Clouds 29 1009 52 6000 4.1 30 12:22 29.07.2019
4265 Clouds 30 1009 49 6000 4.1 10 11:43 29.07.2019
4266 Clouds 30 1009 49 6000 4.1 10 11:43 29.07.2019
4267 Clouds 30 1009 49 6000 4.1 10 11:21 29.07.2019
4268 Haze 30 1009 46 5000 3.1 80 10:45 29.07.2019
4269 Haze 30 1009 46 5000 3.1 80 10:24 29.07.2019
4270 Clouds 30 1010 55 9000 5.1 40 09:45 29.07.2019
4271 Haze 30 1010 55 9000 5.1 40 09:25 29.07.2019
4272 Haze 30 1010 58 9000 4.6 50 08:57 29.07.2019
4273 Haze 30 1010 49 5000 5.1 310 08:31 29.07.2019
4274 Haze 31 1011 58 8000 4.1 40 07:58 29.07.2019
4275 Haze 31 1011 55 7000 4.1 30 07:32 29.07.2019
4276 Haze 30 1013 58 4000 3.1 110 06:45 29.07.2019
4277 Haze 28 1013 66 5000 2.1 0 05:43 29.07.2019
4278 Haze 30 1013 70 5000 2.1 0 04:50 29.07.2019
4279 Mist 25 1012 78 4000 3.6 210 01:59 29.07.2019
4280 Mist 25 1012 94 2000 1.5 180 01:41 29.07.2019
4281 Mist 25 1012 94 2000 1.5 180 01:21 29.07.2019
4282 Mist 25 1012 94 2000 1.5 180 01:21 29.07.2019
4283 Mist 25 1012 94 3000 1.2 241.725 00:41 29.07.2019
4284 Haze 25 1012 78 5000 1 0 00:18 29.07.2019
4285 Haze 25 1011 83 5000 2.1 270 23:40 28.07.2019
4286 Haze 24 1011 83 5000 2.1 270 23:18 28.07.2019
4287 Haze 25 1011 78 5000 1.5 260 22:38 28.07.2019
4288 Haze 25 1011 78 5000 1.5 260 22:38 28.07.2019
4289 Haze 25 1011 78 5000 1.5 260 22:19 28.07.2019
4290 Clouds 25 1012 74 6000 1.5 200 21:46 28.07.2019
4291 Clouds 26 1012 74 6000 2.1 210 21:18 28.07.2019
4292 Haze 25 1012 78 5000 2.1 270 20:45 28.07.2019
4293 Haze 25 1012 78 5000 2.1 270 20:27 28.07.2019
4294 Clouds 26 1013 69 6000 1 0 19:42 28.07.2019
4295 Haze 26 1013 74 5000 3.1 270 19:22 28.07.2019
4296 Haze 26 1013 74 5000 3.1 270 18:51 28.07.2019
4297 Haze 26 1013 74 5000 1.5 0 18:30 28.07.2019
4298 Haze 27 1013 69 5000 1.5 0 17:59 28.07.2019
4299 Clouds 27 1013 74 10000 1 30 17:41 28.07.2019
4300 Clouds 27 1012 74 6000 1.5 30 17:21 28.07.2019
4301 Clouds 27 1012 74 8000 1 10 16:47 28.07.2019
4302 Clouds 27 1012 74 8000 1 10 16:28 28.07.2019
4303 Clouds 27 1012 74 6000 1.5 40 15:59 28.07.2019
4304 Clouds 27 1012 74 8000 1.5 350 15:41 28.07.2019
4305 Haze 28 1011 74 7000 1.5 330 15:21 28.07.2019
4306 Haze 28 1011 74 7000 1.5 330 14:37 28.07.2019
4307 Haze 28 1010 66 7000 2.6 360 14:19 28.07.2019
4308 Clouds 28 1010 66 7000 2.6 340 13:44 28.07.2019
4309 Clouds 28 1010 66 7000 2.6 340 13:23 28.07.2019
4310 Clouds 28 1010 66 8000 3.1 10 12:59 28.07.2019
4311 Clear 28 1009 62 6000 3.1 340 12:40 28.07.2019
4312 Clear 28 1009 62 6000 3.1 340 12:22 28.07.2019
4313 Clouds 29 1009 62 8000 4.6 30 11:46 28.07.2019
4314 Clouds 31 1009 62 8000 4.6 30 11:27 28.07.2019
4315 Clouds 30 1009 52 6000 4.1 20 10:41 28.07.2019
4316 Clouds 30 1009 52 6000 4.1 20 10:22 28.07.2019
4317 Haze 30 1009 46 5000 4.1 10 09:45 28.07.2019
4318 Haze 32 1009 46 5000 4.1 10 09:27 28.07.2019
4319 Haze 33 1010 52 0 4.6 20 08:52 28.07.2019
4320 Haze 33 1010 46 5000 1.5 270 08:29 28.07.2019
4321 Haze 33 1011 49 8000 4.1 40 07:57 28.07.2019
4322 Haze 33 1011 46 5000 2.6 150 07:37 28.07.2019
4323 Haze 33 1011 46 5000 2.6 150 07:37 28.07.2019
4324 Haze 32 1012 49 5000 1.5 10 06:45 28.07.2019
4325 Haze 31 1013 58 5000 2.1 0 05:44 28.07.2019
4326 Haze 28 1014 74 3000 1.5 180 03:32 28.07.2019
4327 Haze 25 1013 88 3000 1.5 210 02:24 28.07.2019
4328 Mist 24 1012 83 3500 1 0 01:20 28.07.2019
4329 Haze 24 1012 83 4000 1.5 230 00:45 28.07.2019
4330 Haze 24 1012 88 4000 2.6 240 00:20 28.07.2019
4331 Haze 24 1012 88 4000 2.1 250 23:46 27.07.2019
4332 Haze 25 1011 78 5000 1.5 280 23:22 27.07.2019
4333 Haze 25 1011 74 5000 1 250 22:42 27.07.2019
4334 Haze 25 1011 74 5000 1 250 22:22 27.07.2019
4335 Haze 26 1011 74 5000 1.5 180 21:43 27.07.2019
4336 Haze 26 1012 74 5000 2.6 150 21:20 27.07.2019
4337 Haze 26 1012 74 5000 2.6 150 20:53 27.07.2019
4338 Haze 25 1012 78 5000 3.1 130 20:26 27.07.2019
4339 Haze 26 1012 74 5000 3.1 130 19:58 27.07.2019
4340 Clouds 26 1012 78 6000 3.1 120 19:38 27.07.2019
4341 Haze 26 1012 78 6000 3.1 120 19:19 27.07.2019
4342 Clouds 26 1012 74 6000 3.1 120 18:45 27.07.2019
4343 Clouds 27 1012 74 6000 3.1 120 18:27 27.07.2019
4344 Clouds 26 1012 78 6000 1.5 90 17:42 27.07.2019
4345 Clouds 26 1012 78 6000 1.5 90 17:24 27.07.2019
4346 Clouds 26 1012 74 6000 2.1 60 16:51 27.07.2019
4347 Clouds 26 1012 78 6000 2.1 60 16:32 27.07.2019
4348 Clouds 27 1012 74 6000 2.6 0 15:55 27.07.2019
4349 Clouds 26 1011 74 6000 1.5 60 15:25 27.07.2019
4350 Clouds 27 1010 69 6000 3.6 60 14:51 27.07.2019
4351 Clouds 27 1010 69 6000 3.6 60 14:33 27.07.2019
4352 Clouds 28 1010 69 7000 3.1 60 13:58 27.07.2019
4353 Clouds 28 1009 58 6000 3.6 30 13:40 27.07.2019
4354 Clouds 28 1009 58 6000 3.6 30 13:20 27.07.2019
4355 Clouds 28 1009 58 9000 5.7 20 12:45 27.07.2019
4356 Clouds 31 1009 58 9000 5.7 20 12:25 27.07.2019
4357 Clouds 31 1009 49 6000 3.6 20 11:46 27.07.2019
4358 Clouds 31 1009 49 6000 3.6 20 11:25 27.07.2019
4359 Clouds 31 1009 49 6000 3.6 20 11:25 27.07.2019
4360 Clouds 31 1009 52 10000 6.7 50 10:56 27.07.2019
4361 Clouds 31 1009 52 10000 6.7 30 10:38 27.07.2019
4362 Clouds 31 1009 46 10000 7.2 30 10:18 27.07.2019
4363 Clouds 32 1009 46 10000 6.2 30 09:39 27.07.2019
4364 Clouds 32 1009 46 10000 6.2 30 09:21 27.07.2019
4365 Clouds 32 1010 49 10000 4.6 60 08:45 27.07.2019
4366 Clouds 32 1010 49 10000 4.6 60 08:25 27.07.2019
4367 Clouds 32 1011 52 10000 3.6 30 07:45 27.07.2019
4368 Clouds 31 1011 52 10000 3.6 30 07:23 27.07.2019
4369 Clouds 31 1012 52 6000 2.6 50 06:54 27.07.2019
4370 Clouds 31 1012 52 6000 2.6 50 06:28 27.07.2019
4371 Clouds 31 1013 55 9000 3.6 50 05:42 27.07.2019
4372 Haze 29 1013 62 7000 3.1 50 04:54 27.07.2019
4373 Haze 28 1013 65 4700 1.5 0 03:57 27.07.2019
4374 Haze 25 1012 83 4500 1 180 02:44 27.07.2019
4375 Haze 24 1012 83 4500 1 180 02:24 27.07.2019
4376 Haze 24 1011 94 4000 2.26 123.95 01:42 27.07.2019
4377 Haze 24 1011 78 3800 1 190 00:57 27.07.2019
4378 Haze 24 1011 88 4000 2.18 123.61 00:31 27.07.2019
4379 Haze 25 1010 83 5000 2.1 170 23:50 26.07.2019
4380 Haze 25 1010 83 5000 2.1 170 23:29 26.07.2019
4381 Clouds 26 1010 78 6000 1 180 22:45 26.07.2019
4382 Clouds 26 1010 78 6000 1 180 22:26 26.07.2019
4383 Clouds 25 1010 83 7000 1.5 150 21:58 26.07.2019
4384 Clouds 26 1011 78 8000 1 130 21:37 26.07.2019
4385 Clouds 25 1011 74 8000 1 100 21:18 26.07.2019
4386 Clouds 26 1011 78 8000 1 120 20:42 26.07.2019
4387 Clouds 26 1011 78 8000 1 120 20:22 26.07.2019
4388 Clouds 26 1011 78 8000 1.5 90 19:43 26.07.2019
4389 Clouds 26 1011 78 8000 1.5 90 19:24 26.07.2019
4390 Clouds 26 1012 78 8000 2.1 90 18:56 26.07.2019
4391 Clouds 26 1012 78 8000 2.1 90 18:36 26.07.2019
4392 Clouds 26 1012 78 8000 3.1 80 18:18 26.07.2019
4393 Clouds 26 1012 78 8000 3.1 70 17:42 26.07.2019
4394 Clouds 26 1012 83 8000 3.1 70 17:19 26.07.2019
4395 Clouds 26 1012 83 8000 3.1 70 16:56 26.07.2019
4396 Clouds 26 1012 83 8000 3.1 70 16:56 26.07.2019
4397 Clouds 26 1012 83 8000 3.1 50 16:37 26.07.2019
4398 Clouds 26 1011 83 8000 2.6 60 16:19 26.07.2019
4399 Clouds 26 1011 78 8000 4.1 40 15:45 26.07.2019
4400 Clouds 26 1011 78 8000 4.1 40 15:26 26.07.2019
4401 Clouds 26 1011 78 8000 5.1 40 14:59 26.07.2019
4402 Clouds 27 1011 69 6000 4.1 60 14:41 26.07.2019
4403 Clouds 27 1011 69 6000 4.1 60 14:21 26.07.2019
4404 Clouds 27 1010 69 9000 5.1 40 13:40 26.07.2019
4405 Clouds 28 1010 69 9000 5.1 40 13:22 26.07.2019
4406 Clouds 28 1009 62 10000 7.2 30 12:48 26.07.2019
4407 Clouds 29 1009 58 10000 7.2 30 12:20 26.07.2019
4408 Clouds 30 1009 55 10000 7.2 20 11:40 26.07.2019
4409 Clouds 30 1009 55 10000 7.2 20 11:20 26.07.2019
4410 Clouds 31 1009 55 10000 6.2 30 10:56 26.07.2019
4411 Clouds 31 1009 52 10000 5.7 30 10:38 26.07.2019
4412 Clouds 32 1009 49 10000 6.2 40 09:55 26.07.2019
4413 Clouds 32 1009 49 10000 6.2 30 09:37 26.07.2019
4414 Clouds 33 1009 49 10000 5.7 40 08:57 26.07.2019
4415 Clouds 33 1009 49 10000 5.7 40 08:57 26.07.2019
4416 Clouds 33 1010 46 10000 6.2 60 08:39 26.07.2019
4417 Clouds 33 1010 46 10000 6.2 60 08:20 26.07.2019
4418 Clouds 32 1011 49 10000 6.2 60 07:33 26.07.2019
4419 Clouds 32 1011 49 10000 6.2 60 06:58 26.07.2019
4420 Clouds 29 1012 51 9000 4.1 90 05:23 26.07.2019
4421 Clouds 28 1013 58 9000 2.6 0 04:29 26.07.2019
4422 Clouds 27 1012 65 7000 2.6 110 03:44 26.07.2019
4423 Haze 24 1012 83 5000 1 160 01:45 26.07.2019
4424 Haze 24 1011 83 5000 1.5 150 00:49 26.07.2019
4425 Haze 24 1011 83 5000 1.5 150 00:23 26.07.2019
4426 Haze 24 1011 78 5000 2.1 130 23:26 25.07.2019
4427 Haze 24 1011 78 5000 2.1 130 23:26 25.07.2019
4428 Haze 25 1011 78 5000 2.1 130 22:59 25.07.2019
4429 Haze 25 1011 74 5000 2.1 130 22:41 25.07.2019
4430 Haze 25 1011 74 5000 2.1 130 22:21 25.07.2019
4431 Clouds 25 1011 78 7000 1.5 110 21:47 25.07.2019
4432 Clouds 25 1011 78 7000 1.5 110 21:23 25.07.2019
4433 Clouds 25 1011 78 7000 2.6 100 20:49 25.07.2019
4434 Clouds 25 1012 78 7000 2.1 80 20:30 25.07.2019
4435 Clouds 25 1012 78 7000 2.1 80 19:55 25.07.2019
4436 Clouds 25 1012 78 7000 2.1 80 19:37 25.07.2019
4437 Clouds 26 1012 78 7000 1.5 90 19:19 25.07.2019
4438 Clouds 26 1013 78 7000 2.1 90 18:40 25.07.2019
4439 Clouds 26 1013 78 7000 2.1 90 18:22 25.07.2019
4440 Clouds 26 1013 78 7000 2.1 70 17:48 25.07.2019
4441 Clouds 26 1013 78 7000 2.1 70 17:30 25.07.2019
4442 Clouds 26 1012 78 8000 2.6 80 16:56 25.07.2019
4443 Clouds 26 1013 78 7000 3.1 70 16:37 25.07.2019
4444 Clouds 26 1012 74 7000 4.1 60 16:18 25.07.2019
4445 Clouds 26 1012 74 7000 4.1 60 15:38 25.07.2019
4446 Clouds 26 1012 69 8000 4.1 60 15:19 25.07.2019
4447 Clouds 27 1011 69 8000 4.6 50 14:41 25.07.2019
4448 Clouds 27 1011 69 8000 4.6 50 14:22 25.07.2019
4449 Clouds 27 1011 61 8000 5.7 40 13:44 25.07.2019
4450 Clouds 27 1011 61 8000 5.7 40 13:26 25.07.2019
4451 Clouds 27 1011 61 8000 5.7 40 13:26 25.07.2019
4452 Clouds 28 1011 61 8000 5.7 40 12:57 25.07.2019
4453 Clouds 28 1010 54 8000 4.6 20 12:28 25.07.2019
4454 Clouds 29 1010 51 9000 4.1 10 11:46 25.07.2019
4455 Clouds 29 1010 51 9000 4.1 10 11:25 25.07.2019
4456 Clouds 29 1010 58 9000 4.6 10 10:59 25.07.2019
4457 Clouds 30 1010 52 10000 4.6 340 10:37 25.07.2019
4458 Clouds 30 1010 52 9000 5.7 340 10:18 25.07.2019
4459 Clouds 30 1010 55 9000 5.1 10 09:42 25.07.2019
4460 Clouds 30 1010 55 9000 5.1 10 09:23 25.07.2019
4461 Clouds 30 1011 55 9000 5.1 360 08:42 25.07.2019
4462 Clouds 32 1011 52 10000 4.6 360 07:56 25.07.2019
4463 Clouds 33 1011 52 10000 2.1 0 07:34 25.07.2019
4464 Clouds 33 1012 43 9000 2.1 0 06:43 25.07.2019
4465 Clouds 30 1013 51 8000 2.1 0 05:39 25.07.2019
4466 Clouds 29 1013 51 8000 2.1 0 05:20 25.07.2019
4467 Clouds 30 1013 54 7000 3.1 160 04:37 25.07.2019
4468 Haze 24 1013 83 4000 1 200 01:46 25.07.2019
4469 Haze 23 1012 88 5000 1 190 01:18 25.07.2019
4470 Haze 23 1012 88 5000 1.5 200 00:20 25.07.2019
4471 Clouds 24 1015 81 0 3.02 197.271 23:47 24.07.2019
4472 Haze 24 1012 83 5000 2.1 200 23:29 24.07.2019
4473 -273 0 0 0 0 0 22:56 24.07.2019
4474 Haze 24 1012 83 5000 2.1 200 22:56 24.07.2019
4475 Haze 24 1012 83 5000 2.1 200 22:37 24.07.2019
4476 Haze 24 1012 83 5000 2.1 200 22:19 24.07.2019
4477 Haze 24 1012 83 5000 1.5 190 21:43 24.07.2019
4478 Haze 24 1012 83 5000 2.6 210 21:22 24.07.2019
4479 Haze 24 1012 83 5000 2.6 210 20:57 24.07.2019
4480 Haze 24 1013 83 4900 2.1 200 20:38 24.07.2019
4481 Haze 24 1013 83 5000 2.6 210 20:19 24.07.2019
4482 Haze 24 1013 83 5000 2.6 210 19:54 24.07.2019
4483 Haze 24 1013 73 4000 2.1 220 19:36 24.07.2019
4484 Haze 24 1013 73 4000 2.1 220 19:36 24.07.2019
4485 Haze 24 1013 64 4000 1.5 230 19:18 24.07.2019
4486 Haze 25 1013 57 4700 1 220 18:37 24.07.2019
4487 Haze 25 1013 57 5000 1 210 18:19 24.07.2019
4488 Haze 26 1013 57 5000 2.1 230 17:42 24.07.2019
4489 Clouds 26 1013 61 6000 1.5 210 17:20 24.07.2019
4490 Clouds 26 1013 61 6000 1 100 16:41 24.07.2019
4491 Clouds 26 1012 65 8000 1.5 60 16:21 24.07.2019
4492 Clouds 26 1012 65 8000 1.5 60 16:21 24.07.2019
4493 Clouds 26 1012 57 8000 2.6 60 15:40 24.07.2019
4494 Clouds 26 1011 61 8000 3.1 60 15:21 24.07.2019
4495 Clouds 26 1011 61 8000 3.1 60 14:56 24.07.2019
4496 Clouds 26 1011 54 8000 3.6 60 14:38 24.07.2019
4497 Clouds 26 1011 54 8000 3.6 60 14:18 24.07.2019
4498 Clouds 27 1011 47 8000 4.6 60 13:37 24.07.2019
4499 Clouds 28 1011 45 9000 7.2 60 13:18 24.07.2019
4500 Clouds 29 1010 42 9000 7.7 60 12:49 24.07.2019
4501 Clouds 29 1010 42 9000 7.7 60 12:26 24.07.2019
4502 Clouds 30 1010 40 9000 8.2 50 11:38 24.07.2019
4503 Clouds 31 1010 40 9000 8.2 50 11:20 24.07.2019
4504 Clouds 32 1009 40 9000 7.7 50 10:44 24.07.2019
4505 Clouds 32 1009 40 9000 7.7 50 10:25 24.07.2019
4506 Clouds 32 1010 43 9000 6.7 20 09:45 24.07.2019
4507 Clouds 32 1010 43 9000 6.7 20 09:25 24.07.2019
4508 Clouds 33 1010 38 8000 6.2 30 08:57 24.07.2019
4509 Clouds 32 1010 43 8000 4.1 40 08:30 24.07.2019
4510 Clouds 33 1011 46 8000 5.1 360 07:52 24.07.2019
4511 Clouds 33 1011 46 8000 3.6 30 07:24 24.07.2019
4512 Clouds 32 1012 45 8000 1.5 0 06:31 24.07.2019
4513 Clouds 31 1013 43 8000 1.5 0 05:54 24.07.2019
4514 Haze 26 1012 69 5000 2.6 170 02:45 24.07.2019
4515 Haze 24 1012 73 5000 1 160 01:30 24.07.2019
4516 Haze 24 1012 73 5000 1.5 190 00:57 24.07.2019
4517 Haze 24 1012 73 5000 1.5 200 00:23 24.07.2019
4518 Haze 24 1011 69 5000 1 220 23:43 23.07.2019
4519 Haze 25 1011 69 5000 1 220 23:25 23.07.2019
4520 Haze 25 1011 69 5000 1.5 180 22:41 23.07.2019
4521 Haze 25 1011 69 5000 1.5 180 22:20 23.07.2019
4522 Haze 25 1011 69 5000 1.5 160 21:59 23.07.2019
4523 Haze 25 1011 69 5000 1.5 160 21:41 23.07.2019
4524 Haze 25 1011 69 5000 1.5 160 21:23 23.07.2019
4525 Clouds 26 1012 65 7000 2.6 170 20:47 23.07.2019
4526 Clouds 26 1012 65 7000 2.6 170 20:25 23.07.2019
4527 Clouds 26 1012 65 7000 2.1 180 19:43 23.07.2019
4528 Clouds 26 1012 65 7000 2.1 180 19:23 23.07.2019
4529 Clouds 27 1012 61 8000 2.1 140 18:52 23.07.2019
4530 Clouds 27 1012 61 8000 2.1 140 18:25 23.07.2019
4531 Clouds 27 1012 61 8000 1 140 17:56 23.07.2019
4532 Clouds 27 1012 61 8000 1.5 0 17:38 23.07.2019
4533 Clouds 27 1012 61 8000 2.1 90 17:19 23.07.2019
4534 Clouds 27 1011 61 8000 2.6 80 16:41 23.07.2019
4535 Clouds 27 1011 61 8000 2.6 80 16:21 23.07.2019
4536 Clouds 26 1011 69 8000 3.1 70 15:46 23.07.2019
4537 Clouds 26 1011 69 8000 3.1 70 15:24 23.07.2019
4538 Clouds 27 1010 61 8000 6.2 50 14:41 23.07.2019
4539 Clouds 27 1010 61 8000 6.2 50 14:22 23.07.2019
4540 Clouds 27 1009 57 8000 5.7 50 13:59 23.07.2019
4541 Clouds 28 1009 54 8000 6.7 50 13:40 23.07.2019
4542 Clouds 28 1009 54 8000 6.7 50 13:22 23.07.2019
4543 Clouds 30 1008 45 9000 8.2 40 12:49 23.07.2019
4544 Clouds 31 1008 45 9000 8.2 40 12:27 23.07.2019
4545 Clouds 31 1008 45 10000 5.7 50 11:55 23.07.2019
4546 Clouds 31 1008 45 10000 6.2 40 11:37 23.07.2019
4547 Clouds 31 1008 45 10000 6.7 40 11:18 23.07.2019
4548 Clouds 32 1008 49 10000 7.2 30 10:41 23.07.2019
4549 Clouds 31 1008 48 10000 8.2 30 10:21 23.07.2019
4550 Clouds 31 1008 46 10000 5.7 20 09:41 23.07.2019
4551 Clouds 33 1008 49 10000 7.2 30 09:20 23.07.2019
4552 Clouds 33 1009 49 10000 6.2 40 08:43 23.07.2019
4553 Clouds 33 1009 46 10000 5.7 50 08:20 23.07.2019
4554 Clouds 33 1009 46 10000 5.7 50 08:20 23.07.2019
4555 Clouds 33 1009 46 10000 5.7 50 07:55 23.07.2019
4556 Clouds 33 1010 46 10000 6.7 50 07:36 23.07.2019
4557 Clouds 33 1011 46 10000 4.6 40 06:48 23.07.2019
4558 Clouds 32 1011 46 10000 4.6 40 06:29 23.07.2019
4559 Haze 28 1011 61 5000 2.6 0 03:39 23.07.2019
4560 Mist 24 1010 78 4300 0.5 140 01:34 23.07.2019
4561 Haze 25 1010 73 5000 1 170 00:31 23.07.2019
4562 Clouds 25 1010 73 6000 1.5 180 23:56 22.07.2019
4563 Haze 25 1010 73 5000 1 180 23:36 22.07.2019
4564 Clouds 26 1010 69 6000 1 180 23:18 22.07.2019
4565 Clouds 25 1010 78 6000 0.5 150 22:42 22.07.2019
4566 Clouds 25 1010 78 6000 0.5 150 22:21 22.07.2019
4567 Haze 26 1010 74 5000 1 90 21:43 22.07.2019
4568 Haze 26 1010 74 5000 1.5 0 21:23 22.07.2019
4569 Haze 26 1011 74 5000 2.1 90 20:51 22.07.2019
4570 Haze 26 1011 74 5000 2.1 90 20:33 22.07.2019
4571 Haze 26 1011 74 5000 1.5 100 19:58 22.07.2019
4572 Haze 26 1011 74 5000 1.5 90 19:38 22.07.2019
4573 Clouds 26 1011 74 6000 1.5 80 19:19 22.07.2019
4574 Clouds 26 1011 74 6000 1.5 90 18:46 22.07.2019
4575 Clouds 26 1011 74 6000 1.5 90 18:27 22.07.2019
4576 Clouds 27 1011 69 6000 2.1 100 17:55 22.07.2019
4577 Clouds 27 1011 65 7000 2.1 100 17:36 22.07.2019
4578 Clouds 27 1011 65 7000 2.1 100 17:18 22.07.2019
4579 Clouds 27 1010 61 8000 1.5 100 16:39 22.07.2019
4580 Clouds 27 1010 61 8000 1.5 100 16:20 22.07.2019
4581 Clouds 27 1010 61 8000 4.1 80 15:44 22.07.2019
4582 Clouds 27 1009 58 0 5.7 80 15:20 22.07.2019
4583 Clouds 28 1009 61 8000 4.6 80 14:44 22.07.2019
4584 Clouds 28 1009 61 8000 4.6 80 14:24 22.07.2019
4585 Clouds 29 1008 54 8000 6.2 70 13:51 22.07.2019
4586 Clouds 29 1008 58 8000 6.2 70 13:31 22.07.2019
4587 Clouds 29 1008 62 8000 6.2 60 12:51 22.07.2019
4588 Clouds 30 1008 58 8000 7.2 60 12:32 22.07.2019
4589 Clouds 31 1008 55 8000 6.7 70 11:56 22.07.2019
4590 Clouds 32 1007 52 8000 5.1 50 11:36 22.07.2019
4591 Clouds 32 1007 52 8000 5.1 50 11:36 22.07.2019
4592 Clouds 32 1007 52 8000 6.2 60 11:18 22.07.2019
4593 Clouds 32 1007 49 8000 6.7 60 10:38 22.07.2019
4594 Clouds 32 1008 52 8000 6.7 50 10:19 22.07.2019
4595 Clouds 30 1008 55 8000 4.6 30 09:40 22.07.2019
4596 Clouds 31 1008 55 8000 4.6 30 09:21 22.07.2019
4597 Clouds 31 1008 55 8000 5.1 50 08:40 22.07.2019
4598 Clouds 31 1008 55 8000 5.1 50 08:22 22.07.2019
4599 Clouds 32 1009 55 6000 4.1 50 07:53 22.07.2019
4600 Clouds 33 1009 55 8000 4.1 40 07:31 22.07.2019
4601 Clouds 30 1010 62 8000 1.5 0 05:51 22.07.2019
4602 Clouds 28 1010 78 6000 3.1 270 03:46 22.07.2019
4603 Haze 26 1010 78 4000 3.1 230 01:49 22.07.2019
4604 Haze 25 1010 88 3000 1.5 300 00:50 22.07.2019
4605 Haze 25 1010 88 3000 1.5 300 00:22 22.07.2019
4606 Haze 26 1009 83 4500 2.1 280 23:51 21.07.2019
4607 Haze 26 1009 83 4500 2.1 280 23:26 21.07.2019
4608 Haze 26 1009 83 5000 1.5 290 22:41 21.07.2019
4609 Haze 26 1010 83 5000 1.5 330 22:21 21.07.2019
4610 Haze 26 1010 83 5000 1.5 330 21:56 21.07.2019
4611 Mist 26 1010 83 5000 2.15 218.972 21:37 21.07.2019
4612 Mist 26 1010 83 4000 1 60 21:18 21.07.2019
4613 Mist 26 1010 83 3500 1 40 20:43 21.07.2019
4614 Mist 26 1010 83 3500 1 40 20:23 21.07.2019
4615 Mist 27 1010 78 5000 1.5 10 19:53 21.07.2019
4616 Mist 26 1011 78 5000 1.5 10 19:32 21.07.2019
4617 Clouds 26 1011 78 6000 1 10 18:59 21.07.2019
4618 Clouds 27 1011 74 7000 1.5 30 18:41 21.07.2019
4619 Clouds 27 1011 74 7000 1.5 30 18:22 21.07.2019
4620 Clouds 27 1011 74 8000 2.1 20 17:41 21.07.2019
4621 Clouds 27 1011 74 8000 2.1 20 17:19 21.07.2019
4622 Clouds 27 1010 74 8000 2.1 60 16:43 21.07.2019
4623 Clouds 27 1010 74 8000 2.1 60 16:25 21.07.2019
4624 Clouds 27 1010 74 8000 2.6 80 15:54 21.07.2019
4625 Clouds 28 1010 66 8000 3.1 60 15:36 21.07.2019
4626 Clouds 28 1009 69 8000 3.6 90 15:18 21.07.2019
4627 Clouds 28 1009 66 8000 3.1 60 14:41 21.07.2019
4628 Clouds 28 1009 66 8000 3.1 60 14:20 21.07.2019
4629 Clouds 28 1008 66 9000 5.7 70 13:44 21.07.2019
4630 Clouds 28 1008 66 9000 5.7 70 13:25 21.07.2019
4631 Clouds 28 1007 62 10000 6.2 70 12:42 21.07.2019
4632 Clouds 29 1007 62 10000 6.2 70 12:24 21.07.2019
4633 Clouds 29 1007 55 10000 7.2 60 11:47 21.07.2019
4634 Clouds 29 1007 55 10000 7.2 60 11:28 21.07.2019
4635 Clouds 30 1007 52 9000 6.7 60 10:55 21.07.2019
4636 Clouds 30 1007 52 9000 7.7 50 10:37 21.07.2019
4637 Clouds 30 1007 52 9000 7.2 50 10:18 21.07.2019
4638 Clouds 30 1008 52 8000 7.2 50 09:36 21.07.2019
4639 Clouds 32 1008 52 8000 6.7 50 08:52 21.07.2019
4640 Clouds 33 1008 49 9000 5.7 50 08:34 21.07.2019
4641 Clouds 33 1008 49 9000 5.1 40 07:59 21.07.2019
4642 Clouds 33 1009 52 10000 5.1 40 07:32 21.07.2019
4643 Clouds 33 1009 49 9000 2.6 0 06:38 21.07.2019
4644 Clouds 30 1010 62 8000 2.1 0 04:23 21.07.2019
4645 Haze 26 1009 74 5000 3.1 170 01:57 21.07.2019
4646 Haze 26 1008 78 5000 3.1 210 00:48 21.07.2019
4647 Haze 26 1008 78 5000 3.1 200 00:22 21.07.2019
4648 Haze 26 1008 78 5000 3.1 200 23:54 20.07.2019
4649 Haze 26 1008 78 5000 3.6 210 23:36 20.07.2019
4650 Haze 25 1008 83 5000 2.6 260 23:18 20.07.2019
4651 Haze 25 1008 83 5000 2.6 260 22:41 20.07.2019
4652 Haze 25 1008 83 5000 2.6 260 22:19 20.07.2019
4653 Haze 25 1009 78 5000 3.1 260 21:44 20.07.2019
4654 Haze 25 1009 78 5000 3.1 260 21:24 20.07.2019
4655 Haze 26 1009 74 5000 3.1 280 20:44 20.07.2019
4656 Haze 26 1009 74 5000 3.1 280 20:23 20.07.2019
4657 Haze 26 1010 74 5000 3.6 270 19:53 20.07.2019
4658 Haze 26 1010 74 5000 3.6 260 19:34 20.07.2019
4659 Haze 27 1010 69 5000 3.6 240 18:58 20.07.2019
4660 Haze 27 1010 62 5000 2.1 0 18:40 20.07.2019
4661 Clouds 27 1009 65 7000 2.1 140 18:19 20.07.2019
4662 Clouds 27 1009 65 7000 2.1 0 17:47 20.07.2019
4663 Clouds 27 1010 69 8000 2.6 110 17:20 20.07.2019
4664 Clouds 27 1010 69 8000 2.6 100 16:42 20.07.2019
4665 Clouds 27 1010 69 8000 2.6 100 16:24 20.07.2019
4666 Clouds 27 1009 69 8000 3.6 100 15:55 20.07.2019
4667 Clouds 27 1009 69 8000 2.6 90 15:37 20.07.2019
4668 Clouds 27 1008 66 8000 4.6 80 15:18 20.07.2019
4669 Clouds 28 1008 62 8000 5.1 80 14:42 20.07.2019
4670 Clouds 28 1008 62 8000 5.1 80 14:20 20.07.2019
4671 Clouds 28 1007 66 8000 6.2 70 13:38 20.07.2019
4672 Clouds 28 1007 58 10000 6.2 60 13:19 20.07.2019
4673 Clouds 29 1007 58 10000 5.7 60 12:52 20.07.2019
4674 Clouds 30 1007 55 10000 4.6 30 12:20 20.07.2019
4675 Clouds 31 1007 55 10000 4.6 30 11:52 20.07.2019
4676 Clouds 31 1007 55 8000 4.6 30 11:23 20.07.2019
4677 Clouds 31 1007 52 8000 5.1 50 10:52 20.07.2019
4678 Clouds 30 1007 52 8000 2.6 40 10:26 20.07.2019
4679 Clouds 30 1007 55 8000 5.7 30 09:53 20.07.2019
4680 Clouds 30 1008 52 8000 5.1 30 09:27 20.07.2019
4681 Clouds 32 1008 58 7000 4.6 30 08:57 20.07.2019
4682 Clouds 32 1008 55 7000 4.1 20 08:38 20.07.2019
4683 Clouds 32 1008 55 7000 4.1 20 08:19 20.07.2019
4684 Haze 32 1009 58 5000 2.6 0 07:18 20.07.2019
4685 Clouds 32 1010 58 6000 2.1 0 06:31 20.07.2019
4686 Haze 30 1011 66 5000 1.5 0 04:31 20.07.2019
4687 Haze 26 1010 74 5000 1.5 0 02:36 20.07.2019
4688 Haze 26 1009 74 5000 1.5 0 01:21 20.07.2019
4689 Haze 26 1009 74 4900 2.6 280 00:45 20.07.2019
4690 Haze 26 1009 74 5000 1 300 00:18 20.07.2019
4691 Haze 26 1009 74 5000 1.5 0 23:43 19.07.2019
4692 Haze 26 1009 74 5000 1.5 0 23:22 19.07.2019
4693 Haze 26 1008 74 5000 2.1 270 22:44 19.07.2019
4694 Haze 26 1008 74 5000 2.1 270 22:25 19.07.2019
4695 Haze 26 1009 74 5000 2.1 230 21:47 19.07.2019
4696 Haze 26 1009 74 5000 2.1 230 21:29 19.07.2019
4697 Haze 26 1009 74 5000 2.6 230 20:52 19.07.2019
4698 Haze 27 1009 69 5000 2.1 0 20:32 19.07.2019
4699 Haze 27 1010 69 5000 2.6 250 19:55 19.07.2019
4700 Haze 26 1010 74 5000 1.5 0 19:34 19.07.2019
4701 Clouds 26 1010 74 6000 1.5 310 18:43 19.07.2019
4702 Clouds 26 1010 74 6000 1.5 310 18:43 19.07.2019
4703 Clouds 26 1010 74 6000 1.5 310 18:23 19.07.2019
4704 Clouds 27 1010 69 6000 2.1 300 17:55 19.07.2019
4705 Clouds 27 1010 69 6000 2.1 300 17:29 19.07.2019
4706 Clouds 27 1009 65 6000 3.1 220 16:49 19.07.2019
4707 Clouds 27 1009 65 6000 3.1 220 16:29 19.07.2019
4708 Clouds 27 1009 62 6000 2.6 0 15:56 19.07.2019
4709 Clouds 28 1009 62 7000 3.6 120 15:38 19.07.2019
4710 Clouds 28 1009 62 8000 3.6 120 15:20 19.07.2019
4711 Clouds 28 1008 62 8000 5.1 100 14:44 19.07.2019
4712 Clouds 28 1008 62 8000 5.1 100 14:25 19.07.2019
4713 Clouds 28 1008 62 9000 5.7 80 13:46 19.07.2019
4714 Clouds 28 1008 62 9000 5.7 80 13:27 19.07.2019
4715 Clouds 29 1007 58 9000 6.7 90 12:57 19.07.2019
4716 Clouds 29 1007 55 9000 6.7 80 12:37 19.07.2019
4717 Clouds 30 1007 52 10000 4.6 60 12:19 19.07.2019
4718 Clouds 30 1007 48 10000 4.6 70 11:44 19.07.2019
4719 Clouds 31 1007 49 10000 5.1 70 11:18 19.07.2019
4720 Clouds 32 1007 49 10000 6.7 70 10:48 19.07.2019
4721 Clouds 32 1007 46 10000 6.7 80 10:23 19.07.2019
4722 Clouds 32 1007 46 10000 6.7 80 09:59 19.07.2019
4723 Clouds 32 1007 49 10000 7.2 60 09:41 19.07.2019
4724 Clouds 33 1008 49 10000 5.7 50 09:22 19.07.2019
4725 Clouds 33 1008 46 10000 6.2 60 08:49 19.07.2019
4726 Clouds 33 1008 46 10000 6.2 60 08:22 19.07.2019
4727 Clouds 33 1008 46 10000 7.2 80 07:29 19.07.2019
4728 Clouds 32 1009 49 8000 3.6 80 06:19 19.07.2019
4729 Haze 26 1010 69 4700 3.1 230 02:55 19.07.2019
4730 Clouds 24 1008 69 6000 2.6 210 01:21 19.07.2019
4731 Clouds 24 1008 69 6000 2.6 210 00:46 19.07.2019
4732 Mist 24 1008 69 5000 2.6 220 23:59 18.07.2019
4733 Mist 24 1008 69 5000 2.6 220 23:40 18.07.2019
4734 Mist 24 1008 69 5000 2.6 220 23:22 18.07.2019
4735 Clouds 25 1008 73 6000 2.1 210 22:41 18.07.2019
4736 Clouds 25 1008 73 6000 2.1 210 22:20 18.07.2019
4737 Mist 25 1009 73 5000 2.1 260 21:52 18.07.2019
4738 Mist 25 1009 73 5000 2.1 260 21:34 18.07.2019
4739 Clouds 25 1009 69 7000 2.1 220 20:57 18.07.2019
4740 Clouds 25 1009 65 7000 2.1 0 20:38 18.07.2019
4741 Clouds 26 1009 65 7000 2.1 0 20:18 18.07.2019
4742 Clouds 25 1010 69 7000 2.1 0 19:46 18.07.2019
4743 Clouds 25 1010 69 7000 2.1 0 19:21 18.07.2019
4744 Clouds 25 1010 65 7000 2.6 130 18:49 18.07.2019
4745 Clouds 26 1010 65 7000 2.6 130 18:21 18.07.2019
4746 Clouds 25 1009 69 8000 3.1 110 17:45 18.07.2019
4747 Clouds 25 1009 69 8000 3.1 110 17:45 18.07.2019
4748 Clouds 25 1009 69 8000 3.1 110 17:45 18.07.2019
4749 Clouds 25 1009 69 8000 3.1 110 17:26 18.07.2019
4750 Clouds 26 1009 65 8000 3.1 110 16:58 18.07.2019
4751 Clouds 27 1009 61 8000 4.6 70 16:40 18.07.2019
4752 Clouds 27 1009 65 8000 3.6 80 16:21 18.07.2019
4753 Clouds 26 1009 65 8000 3.6 80 15:55 18.07.2019
4754 Clouds 26 1008 61 8000 4.6 90 15:35 18.07.2019
4755 Clouds 26 1008 61 9000 4.1 90 14:55 18.07.2019
4756 Clouds 27 1008 58 9000 4.6 90 14:37 18.07.2019
4757 Clouds 27 1007 61 9000 6.7 80 13:54 18.07.2019
4758 Clouds 27 1007 61 9000 6.7 80 13:36 18.07.2019
4759 Clouds 28 1007 54 9000 7.2 80 13:18 18.07.2019
4760 Clouds 28 1007 54 10000 7.2 70 12:42 18.07.2019
4761 Clouds 29 1007 51 10000 7.7 70 12:18 18.07.2019
4762 Clouds 29 1007 45 10000 8.7 60 11:48 18.07.2019
4763 Clouds 31 1007 45 10000 8.7 60 11:27 18.07.2019
4764 Clouds 32 1006 43 10000 6.7 50 10:52 18.07.2019
4765 Clouds 32 1007 43 10000 6.7 50 09:52 18.07.2019
4766 Clouds 33 1007 43 10000 6.7 50 09:27 18.07.2019
4767 Clouds 33 1007 43 10000 6.7 50 08:59 18.07.2019
4768 Clouds 33 1007 43 10000 6.7 50 08:41 18.07.2019
4769 Clouds 33 1008 38 10000 7.2 80 08:18 18.07.2019
4770 Clouds 33 1008 38 10000 5.7 80 07:37 18.07.2019
4771 Clouds 32 1008 38 10000 5.1 100 06:58 18.07.2019
4772 Clouds 32 1009 43 10000 3.6 170 06:33 18.07.2019
4773 Clouds 27 1010 61 6000 3.1 220 04:19 18.07.2019
4774 Haze 24 1010 73 5000 2.6 0 02:52 18.07.2019
4775 Mist 23 1010 73 4000 2.1 0 01:37 18.07.2019
4776 Haze 22 1010 78 5000 1 260 00:24 18.07.2019
4777 Haze 23 1009 73 5000 1 260 23:45 17.07.2019
4778 Haze 23 1009 73 5000 1.5 230 23:18 17.07.2019
4779 Haze 23 1009 73 5000 2.1 240 22:42 17.07.2019
4780 Haze 23 1009 69 5000 2.6 220 22:23 17.07.2019
4781 Haze 23 1009 69 5000 2.6 220 22:23 17.07.2019
4782 Haze 24 1009 69 5000 2.6 220 21:58 17.07.2019
4783 Haze 24 1009 69 5000 2.6 220 21:39 17.07.2019
4784 Haze 24 1009 69 5000 2.6 210 21:20 17.07.2019
4785 Haze 25 1009 69 5000 3.6 200 20:56 17.07.2019
4786 Haze 25 1009 69 5000 3.6 200 20:38 17.07.2019
4787 Haze 25 1010 65 5000 2.6 210 20:20 17.07.2019
4788 Clouds 25 1010 65 6000 2.1 220 19:42 17.07.2019
4789 Clouds 26 1010 61 7000 2.1 0 19:21 17.07.2019
4790 Clouds 26 1010 65 6000 2.1 160 18:56 17.07.2019
4791 Clouds 25 1010 65 6000 2.1 160 18:37 17.07.2019
4792 Clouds 25 1009 65 6000 3.1 120 18:18 17.07.2019
4793 Clouds 25 1009 65 6000 3.1 120 17:43 17.07.2019
4794 Clouds 25 1009 65 6000 3.1 120 17:22 17.07.2019
4795 Clouds 25 1009 65 8000 3.1 120 16:42 17.07.2019
4796 Clouds 26 1009 65 8000 3.6 100 16:22 17.07.2019
4797 Clouds 26 1009 65 8000 3.6 100 15:51 17.07.2019
4798 Clouds 26 1009 61 8000 4.1 110 15:31 17.07.2019
4799 Clouds 26 1008 57 8000 4.6 100 14:57 17.07.2019
4800 Clouds 27 1008 61 8000 5.1 100 14:39 17.07.2019
4801 Clouds 27 1008 58 8000 4.6 90 14:21 17.07.2019
4802 Clouds 27 1008 58 8000 4.6 90 14:20 17.07.2019
4803 Clouds 27 1008 58 8000 4.6 80 13:51 17.07.2019
4804 Clouds 28 1008 58 8000 4.6 80 13:31 17.07.2019
4805 Clouds 28 1008 51 9000 5.7 70 12:59 17.07.2019
4806 Clouds 29 1007 48 10000 5.7 60 12:38 17.07.2019
4807 Clouds 29 1007 48 10000 6.2 60 12:19 17.07.2019
4808 Clouds 30 1007 45 10000 6.7 60 11:41 17.07.2019
4809 Clouds 31 1007 45 10000 6.2 80 11:19 17.07.2019
4810 Clouds 31 1007 45 10000 5.7 70 10:48 17.07.2019
4811 Clouds 31 1007 45 10000 5.7 70 10:24 17.07.2019
4812 Clouds 32 1008 38 10000 5.1 80 09:45 17.07.2019
4813 Clouds 30 1008 38 10000 5.1 80 09:27 17.07.2019
4814 Clouds 32 1009 38 10000 4.6 60 08:45 17.07.2019
4815 Clouds 33 1010 40 10000 5.1 60 08:24 17.07.2019
4816 Clouds 32 1010 40 10000 5.1 60 07:59 17.07.2019
4817 Clouds 32 1010 35 6000 3.1 30 07:41 17.07.2019
4818 Haze 32 1010 40 10000 2.1 0 07:21 17.07.2019
4819 Haze 31 1011 40 5000 4.6 80 06:45 17.07.2019
4820 Haze 31 1011 40 5000 4.6 80 06:45 17.07.2019
4821 Haze 29 1011 45 10000 1.5 0 06:25 17.07.2019
4822 Haze 29 1011 51 5000 1.5 180 05:39 17.07.2019
4823 Haze 28 1011 51 8000 3.1 220 04:58 17.07.2019
4824 Haze 26 1011 57 5000 3.1 170 03:57 17.07.2019
4825 Haze 24 1011 69 5000 1 0 02:44 17.07.2019
4826 Haze 23 1010 73 5000 2.72 195.159 01:42 17.07.2019
4827 Haze 23 1010 73 5000 2.1 0 01:23 17.07.2019
4828 Haze 23 1010 78 3400 1.5 0 00:43 17.07.2019
4829 Haze 23 1010 78 4000 1 0 00:23 17.07.2019
4830 Haze 23 1010 78 2800 1.5 310 23:47 16.07.2019
4831 Haze 23 1010 78 2800 1.5 310 23:28 16.07.2019
4832 Haze 23 1010 78 3900 2.1 240 22:57 16.07.2019
4833 Haze 24 1010 73 3600 2.1 200 22:39 16.07.2019
4834 Haze 24 1010 73 4000 2.1 200 22:19 16.07.2019
4835 Haze 24 1010 73 5000 1 0 21:43 16.07.2019
4836 Haze 24 1010 73 5000 1 0 21:20 16.07.2019
4837 Haze 24 1010 73 5000 1 0 20:56 16.07.2019
4838 Haze 24 1010 69 5000 1 0 20:38 16.07.2019
4839 Clouds 25 1010 69 6000 1 10 20:19 16.07.2019
4840 Clouds 25 1010 65 6000 2.6 120 19:44 16.07.2019
4841 Clouds 25 1010 65 6000 2.6 120 19:26 16.07.2019
4842 Clouds 25 1010 69 6000 2.1 110 18:45 16.07.2019
4843 Clouds 26 1010 65 7000 2.6 110 18:21 16.07.2019
4844 Clouds 26 1010 65 7000 2.6 110 17:55 16.07.2019
4845 Clouds 25 1010 73 7000 2.6 110 17:36 16.07.2019
4846 Clouds 25 1010 73 7000 3.6 90 16:59 16.07.2019
4847 Clouds 26 1010 73 7000 3.1 100 16:38 16.07.2019
4848 Clouds 26 1010 69 7000 3.1 100 16:18 16.07.2019
4849 Clouds 26 1009 65 8000 4.1 90 15:40 16.07.2019
4850 Clouds 27 1009 61 8000 4.6 80 15:21 16.07.2019
4851 Clouds 27 1009 61 8000 4.6 80 14:58 16.07.2019
4852 Clouds 28 1009 61 8000 5.1 80 14:39 16.07.2019
4853 Clouds 28 1008 58 6000 4.6 50 14:20 16.07.2019
4854 Clouds 27 1008 54 6000 4.6 40 13:44 16.07.2019
4855 Clouds 27 1008 54 6000 4.6 40 13:44 16.07.2019
4856 Clouds 28 1008 54 9000 5.7 60 13:21 16.07.2019
4857 Clouds 30 1008 48 6000 5.1 20 12:45 16.07.2019
4858 Clouds 29 1008 43 10000 5.7 60 12:21 16.07.2019
4859 Clouds 29 1008 43 10000 5.7 60 11:58 16.07.2019
4860 Clouds 30 1008 43 10000 5.7 60 11:40 16.07.2019
4861 Clouds 30 1008 43 10000 5.7 60 11:40 16.07.2019
4862 Clouds 31 1008 40 10000 4.6 50 11:22 16.07.2019
4863 Clouds 32 1008 43 10000 5.1 40 10:47 16.07.2019
4864 Clouds 31 1008 43 10000 5.1 40 10:22 16.07.2019
4865 Clouds 31 1008 45 10000 5.1 40 09:58 16.07.2019
4866 Clouds 31 1008 43 10000 4.6 20 09:40 16.07.2019
4867 Clouds 32 1009 45 10000 5.7 20 09:19 16.07.2019
4868 Clear 32 1009 33 6000 2.6 180 08:42 16.07.2019
4869 Clouds 33 1010 38 9000 4.6 50 08:20 16.07.2019
4870 Clear 33 1010 33 6000 2.6 100 07:42 16.07.2019
4871 Clear 32 1010 33 6000 2.6 100 07:24 16.07.2019
4872 Clear 32 1011 40 6000 2.6 120 06:47 16.07.2019
4873 Haze 30 1012 48 7000 2.1 0 06:26 16.07.2019
4874 Haze 30 1012 45 5000 3.1 130 05:37 16.07.2019
4875 Haze 29 1012 51 7000 3.6 160 05:18 16.07.2019
4876 Haze 26 1013 61 6000 3.1 160 03:57 16.07.2019
4877 Haze 25 1012 69 5000 2.1 0 03:21 16.07.2019
4878 Haze 24 1012 83 3000 1.6 168.824 02:31 16.07.2019
4879 Haze 24 1011 73 5000 2.6 0 01:49 16.07.2019
4880 Mist 23 1011 73 5000 3.1 190 00:47 16.07.2019
4881 Mist 24 1011 73 4500 2.6 210 00:22 16.07.2019
4882 Mist 24 1011 73 4100 2.1 190 23:53 15.07.2019
4883 Mist 24 1011 73 4100 2.1 190 23:34 15.07.2019
4884 Mist 24 1011 73 4200 3.6 180 22:49 15.07.2019
4885 Mist 25 1011 73 4800 3.6 200 22:22 15.07.2019
4886 Mist 25 1011 73 4800 3.6 200 21:59 15.07.2019
4887 Clouds 25 1012 69 7000 2.6 180 21:41 15.07.2019
4888 Clouds 25 1012 69 7000 2.1 180 21:20 15.07.2019
4889 Clouds 25 1012 69 7000 2.1 180 20:57 15.07.2019
4890 Clouds 25 1012 69 8000 1.5 190 20:38 15.07.2019
4891 Clouds 25 1012 65 7000 2.1 180 20:19 15.07.2019
4892 Clouds 26 1012 65 8000 2.6 140 19:43 15.07.2019
4893 Clouds 26 1012 61 8000 2.1 150 19:21 15.07.2019
4894 Clouds 26 1012 61 8000 2.1 150 19:21 15.07.2019
4895 Clouds 26 1012 61 8000 1.5 0 18:55 15.07.2019
4896 Clouds 26 1012 61 8000 1.5 0 18:55 15.07.2019
4897 Clouds 26 1012 61 8000 1.5 0 18:36 15.07.2019
4898 Clouds 26 1012 61 8000 2.1 0 18:18 15.07.2019
4899 Clouds 26 1012 61 8000 2.1 0 17:44 15.07.2019
4900 Clouds 26 1012 61 8000 2.1 0 17:26 15.07.2019
4901 Clouds 26 1012 69 8000 2.1 120 16:59 15.07.2019
4902 Clouds 26 1012 65 8000 3.1 110 16:38 15.07.2019
4903 Clouds 26 1011 65 8000 3.1 110 16:20 15.07.2019
4904 Clouds 26 1011 65 8000 3.1 110 16:20 15.07.2019
4905 Clouds 26 1011 65 8000 3.1 110 15:55 15.07.2019
4906 Clouds 26 1011 65 8000 4.1 100 15:36 15.07.2019
4907 Clouds 26 1011 69 9000 3.6 100 15:18 15.07.2019
4908 Clouds 27 1010 61 6000 3.6 70 14:41 15.07.2019
4909 Clouds 27 1010 61 9000 4.6 80 14:23 15.07.2019
4910 Clouds 27 1010 61 10000 5.1 80 13:50 15.07.2019
4911 Clouds 28 1009 61 10000 5.7 70 13:22 15.07.2019
4912 Clouds 28 1009 61 10000 5.7 70 12:58 15.07.2019
4913 Clouds 28 1009 48 6000 4.6 60 12:40 15.07.2019
4914 Clouds 28 1009 54 10000 6.7 80 12:20 15.07.2019
4915 Clouds 29 1009 51 10000 7.7 60 11:41 15.07.2019
4916 Clouds 29 1009 51 10000 7.7 60 11:22 15.07.2019
4917 Clouds 30 1009 48 10000 7.7 70 10:45 15.07.2019
4918 Clouds 30 1009 48 10000 7.7 70 10:27 15.07.2019
4919 Clouds 30 1009 45 7000 5.1 50 09:48 15.07.2019
4920 Clouds 30 1009 45 7000 5.1 50 09:28 15.07.2019
4921 Clouds 30 1009 46 10000 7.7 70 08:59 15.07.2019
4922 Clouds 31 1010 45 7000 5.1 70 08:41 15.07.2019
4923 Clouds 31 1010 46 10000 6.2 80 08:23 15.07.2019
4924 Clouds 32 1011 43 6000 5.1 80 07:38 15.07.2019
4925 Clouds 32 1011 48 10000 6.2 70 07:18 15.07.2019
4926 Clouds 31 1011 45 9000 5.1 70 06:39 15.07.2019
4927 Clear 30 1012 45 6000 3.1 120 05:44 15.07.2019
4928 Clear 30 1012 45 6000 3.1 120 05:26 15.07.2019
4929 Haze 29 1012 48 5000 2.6 130 04:41 15.07.2019
4930 Haze 27 1012 69 3000 4.32 74.053 03:39 15.07.2019
4931 Mist 25 1011 88 3000 3.89 99.16 02:44 15.07.2019
4932 Haze 24 1011 78 4000 1.5 130 01:43 15.07.2019
4933 Haze 24 1011 78 4000 1.5 130 01:24 15.07.2019
4934 Haze 24 1010 78 5000 4.47 103.797 00:51 15.07.2019
4935 Haze 24 1010 64 5000 1.5 140 00:19 15.07.2019
4936 Haze 24 1010 64 5000 1.5 140 23:55 14.07.2019
4937 Haze 24 1010 64 5000 3.6 120 23:36 14.07.2019
4938 Haze 24 1010 61 5000 3.6 110 23:18 14.07.2019
4939 Haze 24 1010 69 5000 3.1 100 22:40 14.07.2019
4940 Haze 24 1010 69 5000 3.1 100 22:40 14.07.2019
4941 Haze 24 1010 69 5000 3.6 100 22:22 14.07.2019
4942 Haze 24 1010 69 5000 3.6 100 21:58 14.07.2019
4943 Haze 25 1011 73 5000 3.1 110 21:40 14.07.2019
4944 Haze 25 1011 69 5000 3.1 110 21:18 14.07.2019
4945 Haze 25 1011 69 5000 3.1 110 20:55 14.07.2019
4946 Haze 25 1011 69 5000 3.1 110 20:55 14.07.2019
4947 Haze 25 1011 69 5000 3.1 120 20:36 14.07.2019
4948 Clouds 25 1011 69 6000 2.1 120 20:18 14.07.2019
4949 Clouds 26 1011 69 6000 2.1 130 19:43 14.07.2019
4950 Clouds 25 1011 69 6000 2.1 110 19:24 14.07.2019
4951 Clouds 25 1011 69 6000 2.1 110 18:57 14.07.2019
4952 Clouds 25 1011 69 6000 2.6 110 18:38 14.07.2019
4953 Clouds 26 1011 65 6000 2.6 0 18:18 14.07.2019
4954 Clouds 26 1011 65 6000 3.1 120 17:47 14.07.2019
4955 Clouds 26 1011 69 6000 2.1 120 17:20 14.07.2019
4956 Clouds 26 1011 69 7000 3.6 110 16:46 14.07.2019
4957 Haze 26 1011 69 7000 2.6 110 16:24 14.07.2019
4958 Haze 26 1010 58 5000 3.1 90 15:54 14.07.2019
4959 Haze 26 1010 58 5000 3.1 90 15:29 14.07.2019
4960 Haze 27 1010 61 5000 3.6 60 14:49 14.07.2019
4961 Clouds 27 1009 61 8000 4.1 70 14:21 14.07.2019
4962 Clouds 27 1009 65 8000 4.1 60 13:49 14.07.2019
4963 Haze 28 1009 65 8000 4.1 60 13:26 14.07.2019
4964 Haze 28 1009 65 9000 5.1 70 12:59 14.07.2019
4965 Haze 28 1009 55 5000 3.1 30 12:40 14.07.2019
4966 Clouds 28 1009 58 9000 5.7 70 12:21 14.07.2019
4967 Clouds 28 1009 55 10000 5.7 60 11:52 14.07.2019
4968 Haze 31 1009 55 10000 5.7 60 11:22 14.07.2019
4969 Haze 29 1009 40 5000 3.6 30 10:50 14.07.2019
4970 Haze 30 1009 40 5000 3.6 30 10:25 14.07.2019
4971 Clouds 31 1009 48 9000 4.6 50 09:55 14.07.2019
4972 Clouds 31 1009 48 9000 4.6 50 09:37 14.07.2019
4973 Clouds 31 1010 48 8000 5.1 50 09:18 14.07.2019
4974 Clouds 31 1010 51 8000 5.1 50 08:41 14.07.2019
4975 Clouds 30 1011 55 7000 4.6 60 07:56 14.07.2019
4976 Haze 30 1011 58 5000 4.6 60 07:35 14.07.2019
4977 Clouds 30 1012 58 6000 4.1 40 06:29 14.07.2019
4978 Clouds 31 1012 55 6000 2.1 0 05:44 14.07.2019
4979 Haze 28 1013 74 3000 1.5 0 03:46 14.07.2019
4980 Haze 26 1013 74 3000 1.5 0 03:27 14.07.2019
4981 Haze 25 1012 78 2000 2.45 183.46 02:39 14.07.2019
4982 Haze 25 1012 78 2500 2.1 0 02:20 14.07.2019
4983 Haze 24 1012 83 3000 1.5 250 01:31 14.07.2019
4984 Haze 24 1011 83 2500 1 0 00:55 14.07.2019
4985 Haze 24 1011 88 4000 1.5 220 00:37 14.07.2019
4986 Haze 24 1011 78 2500 1.5 270 00:19 14.07.2019
4987 Haze 25 1011 78 2600 1.5 260 23:43 13.07.2019
4988 Haze 25 1011 78 2600 1.5 260 23:23 13.07.2019
4989 Haze 25 1010 74 5000 0.5 270 22:43 13.07.2019
4990 Haze 25 1010 74 5000 0.5 270 22:22 13.07.2019
4991 Haze 25 1010 74 5000 0.5 270 21:54 13.07.2019
4992 Haze 26 1011 69 3400 0.5 0 21:23 13.07.2019
4993 Haze 26 1011 69 3400 0.5 0 20:59 13.07.2019
4994 Haze 26 1011 69 4000 0.5 340 20:39 13.07.2019
4995 Haze 26 1012 69 3400 0.5 10 20:21 13.07.2019
4996 Haze 26 1012 74 4000 0.5 0 19:41 13.07.2019
4997 Haze 26 1012 74 4000 0.5 0 19:23 13.07.2019
4998 Clouds 26 1012 69 8000 2.1 90 18:40 13.07.2019
4999 Clouds 26 1012 69 6000 2.1 90 18:19 13.07.2019
5000 Clouds 26 1012 74 7000 1.5 110 17:38 13.07.2019
5001 Clouds 26 1012 69 7000 1.5 90 17:19 13.07.2019
5002 Haze 27 1013 69 5000 2.1 50 16:45 13.07.2019
5003 Haze 27 1013 69 5000 2.1 50 16:26 13.07.2019
5004 Haze 27 1012 69 5000 2.1 50 15:50 13.07.2019
5005 Clouds 27 1012 65 6000 2.6 30 15:25 13.07.2019
5006 Clouds 27 1012 65 6000 2.6 30 14:59 13.07.2019
5007 Clouds 27 1011 69 6000 2.1 350 14:41 13.07.2019
5008 Haze 28 1011 65 6000 2.6 30 14:20 13.07.2019
5009 Haze 28 1010 66 5000 4.1 30 13:44 13.07.2019
5010 Haze 28 1010 66 6000 3.6 40 13:19 13.07.2019
5011 Haze 28 1009 62 5000 4.1 20 12:42 13.07.2019
5012 Haze 29 1009 55 9000 4.1 30 12:23 13.07.2019
5013 Haze 29 1009 55 9000 4.1 30 11:58 13.07.2019
5014 Haze 29 1009 55 5000 4.1 10 11:37 13.07.2019
5015 Clouds 31 1009 52 10000 4.1 20 11:18 13.07.2019
5016 Clouds 31 1009 52 10000 4.6 20 10:41 13.07.2019
5017 Clouds 31 1009 48 10000 4.6 10 10:23 13.07.2019
5018 Clouds 31 1010 46 9000 5.1 340 09:48 13.07.2019
5019 Clouds 32 1010 46 9000 5.1 340 09:28 13.07.2019
5020 Clouds 32 1010 49 9000 5.1 350 08:56 13.07.2019
5021 Clouds 33 1010 36 6000 1.5 310 08:28 13.07.2019
5022 Clouds 33 1010 36 6000 1.5 310 08:28 13.07.2019
5023 Clouds 33 1011 38 6000 3.1 20 07:53 13.07.2019
5024 Clouds 33 1011 38 6000 3.1 20 07:25 13.07.2019
5025 Clouds 32 1012 45 6000 1.5 40 06:31 13.07.2019
5026 Haze 31 1013 51 5000 1.5 220 05:48 13.07.2019
5027 Haze 30 1014 54 5000 4.1 190 04:40 13.07.2019
5028 Haze 28 1014 65 5000 2.6 0 04:20 13.07.2019
5029 Haze 27 1014 65 5000 2.6 0 03:41 13.07.2019
5030 Haze 25 1014 73 5000 3.6 190 03:18 13.07.2019
5031 Mist 24 1013 78 3000 2.1 0 01:53 13.07.2019
5032 Mist 24 1013 73 5000 1 0 01:21 13.07.2019
5033 Mist 24 1013 73 5000 1 0 00:59 13.07.2019
5034 Mist 24 1013 73 5000 2.1 210 00:21 13.07.2019
5035 Mist 24 1013 73 5000 2.1 210 23:55 12.07.2019
5036 Mist 24 1012 73 5000 1 0 23:34 12.07.2019
5037 Clear 24 1015 76 0 2.02 123.351 22:59 12.07.2019
5038 Haze 24 1012 73 5000 1.5 210 22:40 12.07.2019
5039 Clouds 24 1012 73 6000 1.5 210 22:22 12.07.2019
5040 Haze 25 1012 73 5000 1 230 21:42 12.07.2019
5041 Haze 25 1012 73 5000 1 230 21:42 12.07.2019
5042 Haze 25 1012 69 5000 2.1 210 21:21 12.07.2019
5043 Haze 25 1012 69 5000 2.1 210 20:52 12.07.2019
5044 Haze 25 1013 69 5000 2.1 210 20:23 12.07.2019
5045 Haze 25 1013 69 5000 2.1 210 19:45 12.07.2019
5046 Haze 25 1013 69 5000 2.1 210 19:26 12.07.2019
5047 Haze 25 1013 69 5000 2.6 220 18:58 12.07.2019
5048 Haze 26 1013 69 5000 2.6 230 18:37 12.07.2019
5049 Clouds 26 1013 58 7000 2.6 0 18:19 12.07.2019
5050 Clouds 27 1013 58 7000 2.6 160 17:46 12.07.2019
5051 Clouds 27 1013 58 7000 2.6 160 17:27 12.07.2019
5052 Clouds 27 1013 61 7000 3.1 120 16:43 12.07.2019
5053 Clouds 26 1013 74 7000 2.6 110 16:20 12.07.2019
5054 Clouds 26 1013 74 8000 3.1 90 15:41 12.07.2019
5055 Clouds 27 1013 69 8000 4.1 90 15:21 12.07.2019
5056 Clouds 27 1013 69 8000 4.1 90 14:56 12.07.2019
5057 Clear 27 1012 58 6000 4.1 50 14:38 12.07.2019
5058 Clouds 28 1012 65 9000 4.1 80 14:19 12.07.2019
5059 Clouds 28 1011 58 6000 4.6 50 13:39 12.07.2019
5060 Clouds 28 1011 66 10000 5.7 60 12:58 12.07.2019
5061 Clouds 28 1011 58 10000 6.2 70 12:38 12.07.2019
5062 Clouds 30 1011 55 10000 5.7 60 12:20 12.07.2019
5063 Clouds 30 1010 41 7000 3.1 100 11:44 12.07.2019
5064 Clouds 32 1011 52 10000 6.7 60 11:20 12.07.2019
5065 Clouds 32 1011 52 10000 6.7 60 10:44 12.07.2019
5066 Clouds 33 1011 49 10000 6.2 60 10:24 12.07.2019
5067 Clouds 33 1011 41 7000 3.1 40 09:54 12.07.2019
5068 Clouds 33 1011 41 7000 3.1 40 09:30 12.07.2019
5069 Clouds 33 1011 41 7000 3.1 40 09:30 12.07.2019
5070 Clouds 33 1011 41 7000 3.1 40 09:30 12.07.2019
5071 Clouds 32 1012 49 10000 6.2 60 08:58 12.07.2019
5072 Clouds 33 1012 46 6000 2.6 50 08:39 12.07.2019
5073 Clouds 33 1012 43 10000 5.7 70 08:18 12.07.2019
5074 Clouds 33 1013 46 10000 5.7 80 07:44 12.07.2019
5075 Clouds 32 1013 46 10000 5.7 80 07:26 12.07.2019
5076 Clouds 31 1014 48 6000 3.6 130 06:29 12.07.2019
5077 Clear 31 1014 48 6000 3.6 140 05:47 12.07.2019
5078 Mist 26 1015 61 6000 3.1 200 03:22 12.07.2019
5079 Haze 24 1013 78 4300 2.6 200 01:41 12.07.2019
5080 Haze 23 1013 78 4600 2.6 200 00:58 12.07.2019
5081 Haze 24 1012 73 5000 2.1 180 00:20 12.07.2019
5082 Mist 24 1012 69 5000 2.6 180 23:49 11.07.2019
5083 Mist 24 1012 73 5000 2.1 190 23:26 11.07.2019
5084 Mist 24 1012 73 5000 2.1 190 22:58 11.07.2019
5085 Haze 24 1012 73 5000 2.6 200 22:39 11.07.2019
5086 Clouds 24 1012 73 8000 1.5 180 22:20 11.07.2019
5087 Clouds 25 1012 69 8000 1.5 190 21:41 11.07.2019
5088 Clouds 25 1012 69 8000 1.5 0 21:19 11.07.2019
5089 Clouds 25 1012 69 8000 1.5 0 20:54 11.07.2019
5090 Clouds 25 1013 69 8000 2.1 160 20:36 11.07.2019
5091 Clouds 25 1013 69 8000 2.1 130 20:18 11.07.2019
5092 Clouds 25 1013 69 8000 3.1 130 19:43 11.07.2019
5093 Clouds 25 1013 69 8000 3.1 130 19:22 11.07.2019
5094 Clouds 26 1014 74 8000 3.6 110 18:44 11.07.2019
5095 Clouds 26 1014 69 8000 3.6 110 18:26 11.07.2019
5096 Clouds 26 1014 69 8000 3.6 110 17:54 11.07.2019
5097 Clouds 26 1014 69 8000 3.6 110 17:36 11.07.2019
5098 Clouds 26 1014 65 8000 2.6 120 17:18 11.07.2019
5099 Clouds 26 1014 74 8000 3.1 120 16:42 11.07.2019
5100 Clouds 26 1014 74 8000 3.1 120 16:42 11.07.2019
5101 Clouds 26 1014 69 8000 4.1 110 16:21 11.07.2019
5102 Clouds 27 1013 69 8000 5.7 90 15:44 11.07.2019
5103 Clouds 27 1013 69 8000 5.7 90 15:24 11.07.2019
5104 Clouds 27 1013 69 8000 4.6 90 14:58 11.07.2019
5105 Clouds 27 1013 62 6000 4.1 90 14:38 11.07.2019
5106 Clouds 28 1012 69 8000 5.7 70 14:19 11.07.2019
5107 Clouds 28 1012 55 6000 5.1 50 13:42 11.07.2019
5108 Clouds 28 1012 62 9000 6.7 70 13:23 11.07.2019
5109 Clouds 29 1012 58 10000 6.7 70 12:39 11.07.2019
5110 Clouds 30 1011 58 10000 6.7 70 12:19 11.07.2019
5111 Clouds 30 1011 55 10000 6.7 60 11:50 11.07.2019
5112 Clouds 30 1011 55 10000 6.7 60 11:30 11.07.2019
5113 Clouds 30 1011 55 10000 7.2 60 10:54 11.07.2019
5114 Clouds 31 1011 49 10000 7.2 60 10:20 11.07.2019
5115 Clouds 31 1011 49 10000 7.2 60 09:57 11.07.2019
5116 Clouds 30 1011 46 10000 6.7 60 09:39 11.07.2019
5117 Clouds 33 1011 46 10000 6.7 70 09:20 11.07.2019
5118 Clouds 33 1011 41 6000 5.1 60 08:42 11.07.2019
5119 Clouds 33 1012 46 10000 6.2 80 08:20 11.07.2019
5120 Clouds 33 1012 46 10000 7.7 80 07:45 11.07.2019
5121 Clouds 32 1013 49 10000 6.2 80 07:25 11.07.2019
5122 Haze 31 1013 43 10000 6.2 110 06:21 11.07.2019
5123 Haze 30 1014 45 5000 3.1 110 05:33 11.07.2019
5124 Haze 29 1014 48 10000 3.6 110 04:57 11.07.2019
5125 Haze 27 1014 61 6000 2.6 0 03:58 11.07.2019
5126 Haze 25 1013 88 3000 4.27 103.577 02:34 11.07.2019
5127 Haze 25 1012 88 4000 4.4 102.803 00:48 11.07.2019
5128 Haze 25 1011 69 5000 2.1 160 23:52 10.07.2019
5129 Haze 25 1011 69 5000 2.1 160 23:31 10.07.2019
5130 Haze 25 1011 69 5000 2.1 160 22:58 10.07.2019
5131 Haze 25 1011 73 5000 2.1 120 22:37 10.07.2019
5132 Haze 25 1011 69 5000 2.1 140 22:18 10.07.2019
5133 Clouds 24 1011 78 6000 2.1 120 21:43 10.07.2019
5134 Clouds 24 1011 78 6000 2.1 120 21:25 10.07.2019
5135 Haze 25 1012 65 5000 2.1 160 20:48 10.07.2019
5136 Haze 25 1012 65 5000 2.1 160 20:28 10.07.2019
5137 Haze 25 1012 78 5000 2.1 110 20:00 10.07.2019
5138 Haze 25 1012 78 5000 2.1 110 19:41 10.07.2019
5139 Mist 25 1012 73 5000 2.1 120 19:21 10.07.2019
5140 Clouds 25 1012 69 6000 3.1 100 18:47 10.07.2019
5141 Clouds 26 1013 65 6000 2.6 0 18:25 10.07.2019
5142 Clouds 26 1013 69 6000 2.6 130 17:51 10.07.2019
5143 Clouds 26 1013 69 6000 2.6 130 17:30 10.07.2019
5144 Clouds 26 1013 69 6000 2.6 0 16:59 10.07.2019
5145 Clouds 26 1012 69 7000 4.1 110 16:22 10.07.2019
5146 Clouds 26 1012 69 7000 4.1 110 15:58 10.07.2019
5147 Clouds 26 1012 74 7000 4.1 110 15:39 10.07.2019
5148 Clouds 26 1012 69 8000 4.1 100 15:18 10.07.2019
5149 Clouds 26 1011 69 8000 5.7 90 14:39 10.07.2019
5150 Clouds 27 1011 69 8000 5.7 90 14:20 10.07.2019
5151 Clouds 27 1010 58 6000 4.6 70 13:43 10.07.2019
5152 Clouds 28 1010 65 10000 7.2 80 13:19 10.07.2019
5153 Clouds 28 1010 51 6000 5.1 70 12:43 10.07.2019
5154 Clouds 29 1010 58 10000 7.7 70 12:22 10.07.2019
5155 Clouds 29 1010 58 10000 7.7 70 11:56 10.07.2019
5156 Clouds 29 1010 58 10000 7.7 70 11:56 10.07.2019
5157 Clouds 29 1010 55 10000 8.2 70 11:38 10.07.2019
5158 Clouds 30 1009 55 10000 6.7 60 11:20 10.07.2019
5159 Clouds 30 1010 55 10000 8.2 60 10:40 10.07.2019
5160 Clouds 31 1010 52 10000 6.2 70 10:19 10.07.2019
5161 Clouds 32 1009 46 6000 5.1 70 09:42 10.07.2019
5162 Clouds 31 1010 46 10000 7.7 70 09:20 10.07.2019
5163 Clouds 31 1010 46 10000 5.1 70 08:49 10.07.2019
5164 Clouds 32 1010 46 10000 5.1 70 08:28 10.07.2019
5165 Clouds 32 1011 46 6000 6.7 80 07:53 10.07.2019
5166 Clouds 32 1011 46 6000 6.7 80 07:28 10.07.2019
5167 Clouds 32 1012 48 6000 6.7 60 06:41 10.07.2019
5168 Haze 31 1012 51 5000 6.2 90 05:44 10.07.2019
5169 Haze 30 1013 54 4000 2.6 120 04:35 10.07.2019
5170 Haze 27 1012 51 7000 3.6 100 03:20 10.07.2019
5171 Haze 24 1011 73 4000 6.2 99.027 00:45 10.07.2019
5172 Haze 25 1011 65 5000 2.6 150 23:58 09.07.2019
5173 Haze 25 1011 65 5000 4.1 120 23:39 09.07.2019
5174 Haze 25 1011 65 5000 4.1 120 23:39 09.07.2019
5175 Haze 25 1011 61 5000 5.7 110 23:20 09.07.2019
5176 Haze 26 1011 57 5000 5.7 100 22:40 09.07.2019
5177 Haze 26 1011 57 5000 3.6 100 22:22 09.07.2019
5178 Haze 26 1011 57 5000 4.1 110 21:54 09.07.2019
5179 Haze 26 1011 57 5000 4.1 110 21:36 09.07.2019
5180 Haze 26 1012 61 5000 3.1 100 21:18 09.07.2019
5181 Haze 26 1012 54 5000 3.1 120 20:42 09.07.2019
5182 Haze 26 1012 57 5000 3.6 120 20:24 09.07.2019
5183 Thunderstorm 26 1012 54 5000 4.6 120 19:39 09.07.2019
5184 Mist 26 1012 78 5000 3.1 170 19:20 09.07.2019
5185 Haze 26 1012 78 5000 3.6 110 18:44 09.07.2019
5186 Haze 26 1012 78 5000 3.6 110 18:23 09.07.2019
5187 Clouds 27 1012 69 6000 4.6 90 17:54 09.07.2019
5188 Clouds 26 1012 69 6000 4.6 90 17:36 09.07.2019
5189 Clouds 27 1012 74 7000 4.6 80 17:18 09.07.2019
5190 Clouds 27 1012 74 7000 4.6 70 16:41 09.07.2019
5191 Clouds 27 1012 74 7000 4.1 70 16:23 09.07.2019
5192 Clouds 27 1012 74 7000 4.6 70 15:44 09.07.2019
5193 Clouds 28 1012 74 7000 4.6 70 15:26 09.07.2019
5194 Clouds 28 1011 70 7000 3.1 40 14:47 09.07.2019
5195 Haze 28 1011 70 7000 3.1 40 14:24 09.07.2019
5196 Haze 28 1011 66 7000 2.6 40 13:59 09.07.2019
5197 Haze 28 1010 66 5000 4.6 20 13:39 09.07.2019
5198 Haze 29 1010 66 9000 4.1 20 13:20 09.07.2019
5199 Haze 29 1009 62 5000 4.1 30 12:40 09.07.2019
5200 Haze 31 1009 62 9000 4.6 20 12:19 09.07.2019
5201 Haze 31 1009 62 9000 4.6 20 11:57 09.07.2019
5202 Haze 31 1009 62 5000 4.1 30 11:38 09.07.2019
5203 Haze 31 1009 58 10000 4.1 30 11:20 09.07.2019
5204 Haze 31 1009 59 5000 4.6 40 10:48 09.07.2019
5205 Haze 31 1009 59 5000 4.6 40 10:26 09.07.2019
5206 Clouds 30 1009 58 9000 3.6 10 09:39 09.07.2019
5207 Haze 32 1010 58 9000 4.1 10 09:20 09.07.2019
5208 Haze 32 1010 58 9000 4.1 10 09:20 09.07.2019
5209 Haze 32 1010 49 5000 2.1 230 08:45 09.07.2019
5210 Haze 32 1010 49 5000 2.1 230 08:22 09.07.2019
5211 Haze 29 1011 69 4000 1.5 210 03:54 05.07.2019
5212 Haze 27 1011 74 4000 2.6 180 03:24 05.07.2019
5213 Haze 26 1011 74 4000 2.6 180 02:59 05.07.2019
5214 Haze 26 1011 74 4000 1.5 210 02:37 05.07.2019
5215 Haze 25 1011 74 4600 3.1 200 01:37 05.07.2019
5216 Haze 25 1011 78 4300 3.6 210 00:57 05.07.2019
5217 Mist 25 1011 78 4700 3.1 200 00:39 05.07.2019
5218 Haze 25 1011 78 3800 3.1 210 23:48 04.07.2019
5219 Rain 25 1013 90 0 0.45 225 23:20 04.07.2019
5220 Mist 25 1011 78 3900 2.6 0 22:44 04.07.2019
5221 Mist 25 1011 78 3900 2.6 0 22:24 04.07.2019
5222 Mist 25 1011 78 3900 2.6 0 21:57 04.07.2019
5223 Mist 25 1011 83 4300 2.1 190 21:39 04.07.2019
5224 Mist 25 1011 78 4600 3.1 200 21:20 04.07.2019
5225 Mist 25 1011 78 4500 3.1 200 20:40 04.07.2019
5226 Mist 25 1012 78 4400 2.6 210 20:22 04.07.2019
5227 Mist 25 1012 78 4400 2.6 210 19:56 04.07.2019
5228 Mist 25 1012 78 4500 3.1 180 19:38 04.07.2019
5229 Haze 25 1012 74 5000 2.6 0 19:19 04.07.2019
5230 Haze 25 1012 74 5000 2.6 0 18:42 04.07.2019
5231 Clouds 25 1012 74 6000 3.6 190 18:24 04.07.2019
5232 Clouds 25 1012 74 7000 2.6 0 17:46 04.07.2019
5233 Clouds 25 1012 74 7000 1.5 0 17:19 04.07.2019
5234 Clouds 26 1012 74 8000 3.6 220 15:58 04.07.2019
5235 Clouds 26 1012 78 8000 4.6 230 15:40 04.07.2019
5236 Clouds 26 1012 78 8000 4.6 230 15:22 04.07.2019
5237 Clouds 26 1011 74 9000 2.6 100 14:55 04.07.2019
5238 Clouds 26 1011 74 9000 2.6 100 14:37 04.07.2019
5239 Clouds 27 1010 70 9000 3.1 60 14:18 04.07.2019
5240 Clouds 27 1010 70 9000 3.1 60 14:18 04.07.2019
5241 Clouds 28 1010 70 9000 4.6 60 13:42 04.07.2019
5242 Clouds 28 1009 66 9000 5.1 70 13:23 04.07.2019
5243 Clouds 29 1009 66 9000 5.1 70 12:57 04.07.2019
5244 Clouds 29 1009 66 10000 4.6 50 12:37 04.07.2019
5245 Clouds 29 1009 66 10000 5.1 50 12:19 04.07.2019
5246 Clouds 30 1009 62 10000 5.1 40 11:39 04.07.2019
5247 Clouds 30 1009 58 0 5.7 40 11:19 04.07.2019
5248 Clouds 30 1009 58 10000 5.1 20 10:40 04.07.2019
5249 Clouds 30 1010 58 10000 4.6 30 10:21 04.07.2019
5250 Clouds 30 1010 55 10000 4.1 50 09:44 04.07.2019
5251 Clouds 32 1010 55 10000 4.1 50 09:25 04.07.2019
5252 Clouds 32 1010 55 10000 4.1 70 08:56 04.07.2019
5253 Clouds 30 1011 52 10000 5.1 30 08:23 04.07.2019
5254 Clouds 30 1011 55 8000 5.1 40 07:45 04.07.2019
5255 Clouds 31 1011 55 8000 5.1 40 07:23 04.07.2019
5256 Clouds 31 1012 55 8000 5.1 60 06:55 04.07.2019
5257 Clouds 30 1013 66 6000 2.1 0 05:52 04.07.2019
5258 Clouds 30 1013 66 6000 2.1 0 05:33 04.07.2019
5259 Haze 26 1013 74 3000 1.5 0 02:43 04.07.2019
5260 Haze 26 1012 83 2500 2.86 181.543 01:42 04.07.2019
5261 Haze 26 1012 78 3100 2.1 200 01:22 04.07.2019
5262 Haze 26 1012 78 3600 2.1 200 23:58 03.07.2019
5263 Haze 26 1012 74 3900 1.5 0 23:40 03.07.2019
5264 Haze 26 1011 78 3800 1.5 190 23:20 03.07.2019
5265 Haze 26 1011 78 3900 2.1 210 22:44 03.07.2019
5266 Haze 26 1011 78 3900 2.1 210 22:25 03.07.2019
5267 Haze 26 1011 74 4000 2.1 210 21:59 03.07.2019
5268 Haze 26 1012 74 5000 2.1 0 21:41 03.07.2019
5269 Haze 26 1012 74 5000 2.1 200 21:23 03.07.2019
5270 Haze 26 1012 78 5000 3.1 120 20:46 03.07.2019
5271 Haze 26 1012 78 5000 1.5 100 20:24 03.07.2019
5272 Haze 27 1013 78 5000 1.5 0 19:51 03.07.2019
5273 Haze 27 1013 78 5000 1.5 0 19:32 03.07.2019
5274 Haze 27 1012 74 5000 1 60 18:49 03.07.2019
5275 Haze 27 1012 74 5000 1 60 18:30 03.07.2019
5276 Clouds 27 1012 74 6000 1 0 17:57 03.07.2019
5277 Clouds 27 1012 78 6000 1 0 17:37 03.07.2019
5278 Clouds 27 1012 78 6000 3.1 90 17:18 03.07.2019
5279 Clouds 27 1012 74 7000 2.6 80 16:43 03.07.2019
5280 Clouds 28 1012 70 7000 3.6 70 16:22 03.07.2019
5281 Clouds 28 1011 74 7000 4.1 60 15:49 03.07.2019
5282 Clouds 28 1011 74 7000 4.1 60 15:31 03.07.2019
5283 Clouds 28 1011 70 8000 4.1 60 14:57 03.07.2019
5284 Clouds 28 1010 66 6000 4.1 80 14:38 03.07.2019
5285 Clouds 28 1010 66 6000 4.1 80 14:38 03.07.2019
5286 Clouds 29 1009 66 8000 4.1 60 14:18 03.07.2019
5287 Clouds 29 1009 55 6000 6.2 80 13:40 03.07.2019
5288 Clouds 29 1009 66 8000 6.2 60 13:18 03.07.2019
5289 Clouds 29 1008 52 6000 5.7 70 12:43 03.07.2019
5290 Clouds 29 1009 62 9000 6.7 60 12:18 03.07.2019
5291 Clouds 30 1008 52 10000 7.7 70 11:42 03.07.2019
5292 Clouds 31 1008 52 10000 7.7 70 11:21 03.07.2019
5293 Clouds 31 1008 46 7000 5.1 50 10:43 03.07.2019
5294 Clouds 30 1008 52 9000 6.2 60 10:24 03.07.2019
5295 Clouds 31 1008 52 9000 6.2 60 09:55 03.07.2019
5296 Clouds 32 1008 55 9000 6.7 50 09:36 03.07.2019
5297 Clouds 33 1009 55 10000 6.2 50 09:18 03.07.2019
5298 Clouds 33 1009 44 7000 5.1 50 08:41 03.07.2019
5299 Clouds 32 1009 49 9000 5.7 70 08:22 03.07.2019
5300 Clouds 33 1010 49 6000 5.7 40 07:38 03.07.2019
5301 Clouds 32 1010 49 10000 4.1 110 06:56 03.07.2019
5302 Clouds 31 1011 49 9000 3.6 140 05:57 03.07.2019
5303 Clouds 30 1011 52 6000 5.1 120 05:29 03.07.2019
5304 Haze 29 1011 66 4000 3.1 200 04:27 03.07.2019
5305 Haze 26 1012 74 3400 1 0 02:58 03.07.2019
5306 Haze 25 1011 78 5000 1.5 230 01:40 03.07.2019
5307 Haze 25 1011 78 5000 1.5 230 01:21 03.07.2019
5308 Haze 25 1011 78 5000 3.09 130.613 00:40 03.07.2019
5309 Clouds 25 1011 78 6000 2.1 220 23:57 02.07.2019
5310 Clouds 25 1011 78 6000 2.1 220 23:37 02.07.2019
5311 Clouds 25 1011 78 6000 1.5 210 23:19 02.07.2019
5312 Clouds 25 1011 73 6000 2.1 220 22:42 02.07.2019
5313 Haze 25 1010 69 5000 3.1 230 22:23 02.07.2019
5314 Haze 25 1010 69 5000 2.6 220 21:58 02.07.2019
5315 Haze 26 1010 69 5000 2.6 220 21:39 02.07.2019
5316 Haze 26 1010 74 4700 2.6 220 21:20 02.07.2019
5317 Haze 26 1011 74 5000 3.1 220 20:57 02.07.2019
5318 Haze 26 1011 74 5000 3.1 220 20:38 02.07.2019
5319 Haze 26 1011 65 5000 2.6 180 20:19 02.07.2019
5320 Clouds 26 1011 69 7000 1.5 0 19:41 02.07.2019
5321 Clouds 26 1012 69 7000 1.5 0 19:22 02.07.2019
5322 Clouds 26 1011 69 7000 1.5 0 18:46 02.07.2019
5323 Clouds 26 1011 69 7000 1.5 0 18:18 02.07.2019
5324 Clouds 26 1011 69 7000 1.5 0 18:18 02.07.2019
5325 Clouds 27 1011 69 7000 2.1 120 17:41 02.07.2019
5326 Clouds 27 1011 69 7000 2.6 130 17:22 02.07.2019
5327 Clouds 27 1011 69 7000 3.1 110 16:49 02.07.2019
5328 Haze 27 1011 69 7000 3.1 110 16:31 02.07.2019
5329 Haze 28 1011 65 7000 3.6 90 15:46 02.07.2019
5330 Haze 28 1011 65 7000 4.6 90 15:26 02.07.2019
5331 Haze 28 1011 65 7000 4.6 90 14:57 02.07.2019
5332 Haze 28 1010 65 7000 4.6 90 14:38 02.07.2019
5333 Haze 27 1010 69 8000 4.6 100 14:19 02.07.2019
5334 Haze 28 1009 61 8000 5.1 100 13:38 02.07.2019
5335 Haze 29 1009 62 8000 6.2 80 13:18 02.07.2019
5336 Haze 29 1008 62 8000 6.2 80 12:44 02.07.2019
5337 Haze 30 1008 58 8000 6.2 80 12:22 02.07.2019
5338 Haze 30 1008 52 5000 5.1 70 11:44 02.07.2019
5339 Haze 31 1008 52 8000 8.2 70 11:23 02.07.2019
5340 Haze 31 1008 52 8000 7.2 70 10:54 02.07.2019
5341 Haze 31 1008 52 8000 7.2 70 10:26 02.07.2019
5342 Clouds 30 1008 52 7000 7.2 70 09:49 02.07.2019
5343 Haze 33 1009 49 7000 7.2 60 09:22 02.07.2019
5344 Haze 33 1009 49 7000 7.2 60 08:56 02.07.2019
5345 Haze 32 1009 46 5000 5.1 60 08:35 02.07.2019
5346 Haze 32 1009 49 8000 6.7 70 07:57 02.07.2019
5347 Haze 32 1010 49 7000 6.7 70 07:21 02.07.2019
5348 Haze 32 1010 49 7000 6.2 70 06:55 02.07.2019
5349 Haze 31 1011 55 7000 4.6 90 06:36 02.07.2019
5350 Haze 30 1012 55 6000 3.1 100 05:19 02.07.2019
5351 Haze 25 1011 69 4500 3.1 190 02:37 02.07.2019
5352 Haze 25 1010 73 5000 3.1 200 00:26 02.07.2019
5353 Haze 25 1010 78 5000 1.5 220 23:30 01.07.2019
5354 Haze 25 1010 73 5000 1.5 250 22:54 01.07.2019
5355 Haze 25 1010 73 5000 1.5 250 22:28 01.07.2019
5356 Clouds 25 1011 78 6000 2.6 240 21:56 01.07.2019
5357 Clouds 25 1011 78 6000 2.6 240 21:37 01.07.2019
5358 Clouds 25 1011 78 6000 1.5 250 21:19 01.07.2019
5359 Haze 25 1011 74 5000 2.1 0 20:45 01.07.2019
5360 Haze 26 1011 74 5000 2.1 0 20:20 01.07.2019
5361 Haze 26 1011 74 5000 1.5 0 19:44 01.07.2019
5362 Haze 26 1011 69 5000 2.1 120 19:25 01.07.2019
5363 Clouds 27 1012 74 6000 2.1 110 18:56 01.07.2019
5364 Clouds 27 1012 74 6000 2.1 110 18:37 01.07.2019
5365 Clouds 27 1011 74 8000 2.1 0 18:19 01.07.2019
5366 Clouds 27 1011 74 8000 2.1 0 17:43 01.07.2019
5367 Clouds 26 1011 78 8000 2.6 110 17:23 01.07.2019
5368 Clouds 27 1011 74 8000 2.6 90 16:48 01.07.2019
5369 Clouds 27 1011 74 8000 2.6 90 16:27 01.07.2019
5370 Clouds 27 1011 74 8000 3.1 90 15:58 01.07.2019
5371 Clouds 27 1010 69 8000 3.6 90 15:40 01.07.2019
5372 Clouds 27 1010 74 8000 3.6 90 15:22 01.07.2019
5373 Clouds 27 1010 65 6000 3.6 40 14:44 01.07.2019
5374 Clouds 27 1009 65 6000 3.6 30 14:20 01.07.2019
5375 Haze 28 1009 62 5000 3.1 20 13:45 01.07.2019
5376 Clouds 28 1008 65 8000 3.6 50 13:23 01.07.2019
5377 Clouds 28 1008 65 8000 3.6 50 12:56 01.07.2019
5378 Clouds 28 1008 58 6000 5.1 10 12:37 01.07.2019
5379 Clouds 29 1008 62 8000 5.7 60 12:18 01.07.2019
5380 Clouds 29 1007 55 6000 6.7 20 11:43 01.07.2019
5381 Clouds 30 1008 58 8000 6.2 50 11:21 01.07.2019
5382 Clouds 30 1007 43 6000 2.6 100 10:47 01.07.2019
5383 Clouds 30 1007 43 6000 2.6 100 10:24 01.07.2019
5384 Clouds 30 1008 55 7000 6.2 60 09:58 01.07.2019
5385 Clouds 30 1008 55 9000 6.2 60 09:40 01.07.2019
5386 Haze 32 1008 55 8000 6.2 60 09:21 01.07.2019
5387 Haze 32 1009 43 5000 5.1 70 08:37 01.07.2019
5388 Haze 33 1010 43 5000 5.1 20 07:48 01.07.2019
5389 Haze 31 1010 43 5000 5.1 20 07:27 01.07.2019
5390 Haze 30 1011 45 8000 3.6 40 06:20 01.07.2019
5391 Haze 25 1011 88 3000 2.7 119.244 01:42 01.07.2019
5392 Haze 25 1010 73 5000 2.1 170 00:48 01.07.2019
5393 Haze 25 1010 73 5000 2.1 170 00:28 01.07.2019
5394 Haze 25 1010 73 5000 1.5 170 23:56 30.06.2019
5395 Haze 25 1010 78 5000 2.1 160 23:21 30.06.2019
5396 Haze 26 1010 74 5000 1.5 140 22:49 30.06.2019
5397 Haze 25 1010 78 5000 2.1 120 22:21 30.06.2019
5398 Haze 25 1010 78 5000 2.1 120 21:42 30.06.2019
5399 Haze 26 1011 78 5000 2.1 130 21:20 30.06.2019
5400 Haze 26 1011 78 5000 2.1 130 20:57 30.06.2019
5401 Haze 25 1011 83 5000 2.6 110 20:39 30.06.2019
5402 Haze 26 1012 78 5000 2.6 110 20:21 30.06.2019
5403 Haze 27 1012 78 5000 2.6 120 19:44 30.06.2019
5404 Haze 26 1012 78 5000 2.6 120 19:25 30.06.2019
5405 Haze 26 1012 78 5000 2.6 120 19:25 30.06.2019
5406 Clouds 27 1012 74 6000 3.6 120 18:39 30.06.2019
5407 Clouds 26 1012 78 6000 3.1 110 18:20 30.06.2019
5408 Clouds 27 1012 74 6000 2.6 120 17:39 30.06.2019
5409 Clouds 27 1012 74 6000 3.6 110 17:18 30.06.2019
5410 Clouds 27 1012 74 6000 3.6 110 17:18 30.06.2019
5411 Clouds 27 1012 74 6000 3.6 110 16:49 30.06.2019
5412 Clouds 27 1012 74 6000 3.6 110 16:31 30.06.2019
5413 Clouds 27 1011 74 7000 3.1 90 15:38 30.06.2019
5414 Clouds 27 1010 69 8000 3.6 60 15:19 30.06.2019
5415 -273 0 0 0 0 0 14:56 30.06.2019
5416 Clouds 27 1010 69 8000 2.6 70 14:38 30.06.2019
5417 Clouds 28 1010 69 8000 3.1 60 13:57 30.06.2019
5418 Clouds 28 1009 62 6000 5.1 30 13:38 30.06.2019
5419 Clouds 28 1009 62 10000 4.6 50 13:18 30.06.2019
5420 Clouds 29 1008 55 7000 4.1 20 12:44 30.06.2019
5421 Clouds 28 1008 58 10000 4.6 50 12:21 30.06.2019
5422 Clouds 29 1008 58 10000 4.6 50 11:47 30.06.2019
5423 Clouds 29 1008 58 10000 4.6 30 11:22 30.06.2019
5424 Clouds 29 1008 58 10000 4.6 30 10:56 30.06.2019
5425 Clouds 29 1008 55 10000 3.1 30 10:36 30.06.2019
5426 Clouds 30 1008 55 10000 4.6 30 10:18 30.06.2019
5427 Clouds 30 1008 52 10000 5.1 50 09:43 30.06.2019
5428 Clouds 32 1009 49 10000 5.1 60 09:21 30.06.2019
5429 Clouds 33 1009 49 10000 5.1 40 08:42 30.06.2019
5430 Clouds 33 1010 49 10000 5.1 60 08:23 30.06.2019
5431 Clouds 33 1010 46 10000 5.1 60 07:52 30.06.2019
5432 Clouds 32 1010 46 10000 5.1 60 07:26 30.06.2019
5433 Clouds 33 1011 46 10000 2.6 0 06:39 30.06.2019
5434 Haze 30 1012 54 5000 3.1 140 04:48 30.06.2019
5435 Haze 26 1011 73 4000 2.1 90 02:41 30.06.2019
5436 Haze 25 1011 78 5000 4.52 110.899 01:24 30.06.2019
5437 Haze 25 1010 65 5000 4.21 103.673 00:26 30.06.2019
5438 Haze 25 1010 65 5000 4.21 103.673 00:26 30.06.2019
5439 Haze 25 1010 69 5000 2.1 160 23:53 29.06.2019
5440 Haze 26 1010 69 5000 2.1 160 23:24 29.06.2019
5441 Haze 26 1010 69 5000 3.1 170 22:56 29.06.2019
5442 Haze 26 1010 69 5000 3.1 170 22:25 29.06.2019
5443 Clouds 26 1010 69 6000 2.6 140 21:59 29.06.2019
5444 Clouds 26 1011 74 6000 1.5 100 21:40 29.06.2019
5445 Clouds 26 1011 74 7000 2.6 110 21:20 29.06.2019
5446 Clouds 26 1011 74 7000 2.6 110 20:40 29.06.2019
5447 Clouds 26 1011 74 7000 2.6 110 20:40 29.06.2019
5448 Clouds 26 1012 74 7000 2.1 120 20:22 29.06.2019
5449 Clouds 26 1012 74 7000 2.1 110 19:48 29.06.2019
5450 Clouds 26 1012 74 7000 2.1 100 19:23 29.06.2019
5451 Clouds 26 1012 69 7000 2.6 0 18:49 29.06.2019
5452 Clouds 26 1012 65 8000 2.6 100 18:26 29.06.2019
5453 Clouds 26 1011 65 8000 3.1 110 17:42 29.06.2019
5454 Clouds 26 1011 65 9000 3.6 110 17:22 29.06.2019
5455 Clouds 26 1011 65 9000 3.6 110 16:57 29.06.2019
5456 Clouds 27 1011 61 9000 4.6 100 16:36 29.06.2019
5457 Clouds 27 1010 69 6000 3.1 60 15:50 29.06.2019
5458 Clouds 27 1010 69 6000 3.1 60 15:30 29.06.2019
5459 Clouds 27 1009 61 9000 5.1 70 14:44 29.06.2019
5460 Clouds 28 1009 61 9000 5.1 70 14:25 29.06.2019
5461 Clear 28 1008 51 6000 5.1 30 13:47 29.06.2019
5462 Clear 28 1008 51 6000 5.1 30 13:26 29.06.2019
5463 Clouds 29 1007 55 10000 6.2 70 12:52 29.06.2019
5464 Clouds 29 1007 55 10000 6.2 70 12:34 29.06.2019
5465 Clouds 31 1007 55 10000 7.7 60 11:54 29.06.2019
5466 Clouds 31 1007 55 10000 7.7 60 11:34 29.06.2019
5467 Clouds 31 1007 52 10000 7.2 60 10:57 29.06.2019
5468 Clouds 31 1007 49 10000 7.2 60 10:38 29.06.2019
5469 Clouds 32 1007 49 10000 6.7 60 10:20 29.06.2019
5470 Clouds 32 1007 41 10000 6.2 60 09:45 29.06.2019
5471 Clouds 33 1008 41 10000 7.2 60 08:51 29.06.2019
5472 Clouds 33 1008 41 10000 6.7 70 08:22 29.06.2019
5473 Clouds 33 1009 43 9000 5.7 70 07:44 29.06.2019
5474 Clouds 33 1010 49 9000 5.7 90 06:47 29.06.2019
5475 Clouds 32 1011 52 9000 4.1 90 06:24 29.06.2019
5476 Clouds 32 1011 52 9000 4.1 90 06:24 29.06.2019
5477 Haze 25 1011 88 3000 1.5 130 02:52 29.06.2019
5478 Haze 24 1010 73 5000 2.6 0 01:22 29.06.2019
5479 Haze 24 1010 88 6000 3 168.758 00:31 29.06.2019
5480 Haze 25 1009 73 5000 1 190 23:37 28.06.2019
5481 Haze 25 1009 73 5000 1 190 23:37 28.06.2019
5482 Haze 25 1009 78 5000 0.5 0 23:19 28.06.2019
5483 Haze 25 1010 78 5000 1.5 310 22:45 28.06.2019
5484 Haze 25 1010 78 5000 1.5 290 21:58 28.06.2019
5485 Haze 25 1010 78 5000 2.1 270 21:27 28.06.2019
5486 -273 0 0 0 0 0 21:26 28.06.2019
5487 Clouds 25 1011 65 7000 1 210 20:49 28.06.2019
5488 Clouds 26 1011 65 7000 1 210 20:30 28.06.2019
5489 Clouds 26 1011 65 7000 1 130 19:57 28.06.2019
5490 Clouds 26 1011 65 7000 1 130 19:37 28.06.2019
5491 Clouds 26 1011 65 7000 1.5 100 19:18 28.06.2019
5492 Clouds 27 1011 61 7000 2.1 110 18:41 28.06.2019
5493 Clouds 27 1011 61 7000 2.1 0 18:21 28.06.2019
5494 Clouds 27 1011 61 7000 2.6 100 17:37 28.06.2019
5495 Clouds 27 1011 69 7000 2.6 100 17:18 28.06.2019
5496 Clouds 26 1011 69 7000 2.6 90 16:41 28.06.2019
5497 Clouds 26 1011 74 7000 3.6 90 16:18 28.06.2019
5498 Clouds 27 1011 69 7000 3.1 90 15:39 28.06.2019
5499 Clouds 28 1010 62 8000 3.1 60 15:18 28.06.2019
5500 Clouds 28 1010 62 6000 2.6 40 14:39 28.06.2019
5501 Haze 28 1009 66 8000 3.6 60 14:20 28.06.2019
5502 Haze 28 1009 58 5000 4.1 30 13:45 28.06.2019
5503 Haze 28 1009 58 5000 4.1 30 13:25 28.06.2019
5504 Clouds 29 1008 49 6000 5.1 40 12:50 28.06.2019
5505 Clouds 29 1008 49 6000 5.1 40 12:31 28.06.2019
5506 Clouds 30 1008 58 9000 5.7 50 11:29 28.06.2019
5507 Clouds 30 1008 58 9000 5.1 50 10:47 28.06.2019
5508 Clouds 30 1008 58 9000 5.1 50 10:23 28.06.2019
5509 Clouds 30 1008 55 9000 5.1 60 10:00 28.06.2019
5510 Clouds 30 1009 52 9000 5.1 50 09:41 28.06.2019
5511 Haze 32 1009 52 8000 5.1 60 09:22 28.06.2019
5512 Haze 32 1010 46 5000 3.6 70 08:42 28.06.2019
5513 Haze 32 1010 46 5000 3.6 70 08:23 28.06.2019
5514 Clouds 32 1010 55 9000 3.6 90 07:42 28.06.2019
5515 Clouds 32 1011 55 8000 1.5 0 06:49 28.06.2019
5516 Haze 28 1013 74 3000 1.5 120 03:35 28.06.2019
5517 Mist 25 1011 78 4000 1.5 160 00:46 28.06.2019
5518 Mist 25 1010 78 4000 1.5 180 00:18 28.06.2019
5519 Mist 25 1010 74 4000 3.6 190 23:41 27.06.2019
5520 Mist 25 1010 74 4000 3.1 190 23:22 27.06.2019
5521 Mist 25 1010 74 4000 2.1 200 22:43 27.06.2019
5522 Mist 25 1010 78 4000 2.6 220 22:24 27.06.2019
5523 Mist 25 1010 78 4000 2.6 220 21:57 27.06.2019
5524 Mist 25 1011 83 4000 1.5 0 21:38 27.06.2019
5525 Mist 25 1011 78 5000 1 0 21:19 27.06.2019
5526 Mist 26 1011 74 5000 1 70 20:45 27.06.2019
5527 Mist 26 1011 74 5000 1 70 20:27 27.06.2019
5528 Clouds 26 1012 74 8000 1 0 19:48 27.06.2019
5529 Clouds 26 1012 74 8000 1 0 19:29 27.06.2019
5530 Clouds 26 1012 74 8000 1 0 18:52 27.06.2019
5531 Clouds 26 1012 74 8000 1 0 18:30 27.06.2019
5532 Clouds 26 1012 78 8000 2.1 70 17:47 27.06.2019
5533 Clouds 26 1012 78 8000 2.1 70 17:24 27.06.2019
5534 Clouds 26 1012 74 8000 1.5 60 16:59 27.06.2019
5535 Clouds 26 1012 74 8000 1 60 16:37 27.06.2019
5536 Clouds 26 1012 69 7000 1.5 40 16:18 27.06.2019
5537 Clouds 26 1012 69 7000 1.5 40 16:18 27.06.2019
5538 Clouds 27 1011 66 7000 1.5 30 15:45 27.06.2019
5539 Clouds 28 1011 66 6000 1.5 40 15:22 27.06.2019
5540 Clouds 28 1011 66 5000 5.1 30 14:46 27.06.2019
5541 Clouds 28 1011 66 5000 5.1 30 14:28 27.06.2019
5542 Clouds 28 1010 58 5000 3.1 330 13:49 27.06.2019
5543 Clouds 28 1010 58 5000 3.1 330 13:31 27.06.2019
5544 Clouds 28 1009 62 9000 3.1 350 12:57 27.06.2019
5545 Clouds 29 1009 62 10000 3.6 340 12:38 27.06.2019
5546 Clouds 31 1009 58 10000 3.6 10 12:18 27.06.2019
5547 Clouds 31 1008 52 6000 4.6 10 11:42 27.06.2019
5548 Clouds 32 1008 55 10000 4.1 10 11:21 27.06.2019
5549 Clouds 31 1008 49 6000 4.1 20 10:46 27.06.2019
5550 Clouds 31 1009 52 9000 4.1 20 10:22 27.06.2019
5551 Clouds 32 1009 52 9000 4.1 20 09:55 27.06.2019
5552 Clouds 33 1009 52 8000 4.1 20 09:22 27.06.2019
5553 Clouds 32 1009 52 8000 4.1 20 08:55 27.06.2019
5554 Clouds 32 1010 36 6000 4.1 30 08:37 27.06.2019
5555 Clouds 33 1010 52 9000 5.1 20 08:19 27.06.2019
5556 Clouds 33 1011 38 7000 2.6 180 07:31 27.06.2019
5557 Clouds 33 1011 41 10000 2.1 0 06:53 27.06.2019
5558 Clouds 32 1012 45 9000 3.1 240 06:24 27.06.2019
5559 Haze 25 1012 69 5000 3.1 190 03:21 27.06.2019
5560 Haze 24 1012 78 3000 2.26 205.702 02:30 27.06.2019
5561 Haze 24 1011 78 4000 2.1 220 00:59 27.06.2019
5562 Haze 24 1011 78 4000 1 0 00:41 27.06.2019
5563 Haze 24 1011 78 4000 2.1 210 00:19 27.06.2019
5564 Haze 24 1010 73 4000 1.5 180 23:40 26.06.2019
5565 Haze 25 1010 73 5000 2.6 170 23:21 26.06.2019
5566 Haze 25 1010 73 5000 2.6 170 22:45 26.06.2019
5567 Haze 25 1010 73 5000 2.6 170 22:26 26.06.2019
5568 Haze 25 1010 78 5000 2.6 180 21:59 26.06.2019
5569 Haze 25 1011 78 5000 2.6 190 21:38 26.06.2019
5570 Haze 25 1011 74 5000 1.5 0 21:19 26.06.2019
5571 Haze 25 1011 74 5000 1.5 0 21:19 26.06.2019
5572 Haze 25 1011 74 5000 1.5 0 20:44 26.06.2019
5573 Haze 25 1011 74 5000 1.5 0 20:26 26.06.2019
5574 Haze 25 1012 74 5000 1.5 0 19:50 26.06.2019
5575 Haze 25 1012 74 5000 1.5 0 19:31 26.06.2019
5576 Haze 25 1012 78 5000 2.1 240 18:57 26.06.2019
5577 Haze 25 1012 74 5000 3.1 240 18:39 26.06.2019
5578 Clouds 25 1012 74 6000 1.5 0 18:19 26.06.2019
5579 Clouds 25 1012 74 6000 1.5 0 18:19 26.06.2019
5580 Clouds 25 1012 74 6000 2.6 220 17:46 26.06.2019
5581 Clouds 25 1012 74 6000 2.6 220 17:27 26.06.2019
5582 Clouds 25 1012 74 6000 2.6 220 17:27 26.06.2019
5583 Clouds 26 1012 65 6000 3.1 140 16:51 26.06.2019
5584 Clouds 26 1012 65 6000 3.1 140 16:29 26.06.2019
5585 Clouds 26 1011 74 7000 3.1 100 15:52 26.06.2019
5586 Clouds 27 1011 74 7000 3.1 100 15:28 26.06.2019
5587 Clear 27 1011 62 10000 3.6 80 14:43 26.06.2019
5588 Clouds 28 1010 66 8000 4.1 70 14:23 26.06.2019
5589 Clouds 28 1010 58 6000 4.6 70 13:46 26.06.2019
5590 Clouds 27 1009 62 8000 6.2 70 13:21 26.06.2019
5591 Clouds 28 1009 62 8000 6.2 70 12:57 26.06.2019
5592 Clouds 28 1009 62 8000 6.2 70 12:57 26.06.2019
5593 Clouds 28 1009 62 8000 6.2 60 12:39 26.06.2019
5594 Clouds 29 1009 58 8000 6.2 70 12:19 26.06.2019
5595 Haze 32 1009 55 8000 6.2 60 11:25 26.06.2019
5596 Clouds 30 1009 52 8000 6.2 70 10:51 26.06.2019
5597 Haze 31 1009 52 8000 6.2 70 10:31 26.06.2019
5598 Haze 32 1009 52 8000 6.7 60 09:59 26.06.2019
5599 Haze 32 1010 46 3800 5.1 80 09:30 26.06.2019
5600 Clouds 32 1010 55 8000 5.7 60 08:55 26.06.2019
5601 Haze 32 1011 49 7000 5.1 60 08:22 26.06.2019
5602 Haze 33 1011 49 7000 5.1 60 07:57 26.06.2019
5603 Haze 32 1011 52 5000 4.1 60 07:38 26.06.2019
5604 Haze 29 1012 52 5000 4.1 90 06:33 26.06.2019
5605 Haze 25 1012 78 4000 3.1 210 02:18 26.06.2019
5606 Haze 25 1011 94 3000 2.61 144.47 00:36 26.06.2019
5607 Haze 25 1011 78 4000 1.5 160 23:57 25.06.2019
5608 Haze 25 1011 78 4000 2.1 160 23:38 25.06.2019
5609 Haze 25 1011 78 4000 2.1 190 23:19 25.06.2019
5610 Haze 25 1011 78 4000 2.1 190 22:41 25.06.2019
5611 Haze 25 1011 78 5000 2.1 200 22:22 25.06.2019
5612 Haze 25 1011 83 5000 2.1 190 21:46 25.06.2019
5613 Haze 25 1011 83 5000 2.1 190 21:26 25.06.2019
5614 Haze 26 1011 78 5000 1.5 160 20:50 25.06.2019
5615 Haze 26 1011 78 5000 1.5 160 20:49 25.06.2019
5616 Haze 26 1011 78 5000 1.5 160 20:49 25.06.2019
5617 Haze 26 1011 78 5000 1.5 160 20:24 25.06.2019
5618 Haze 25 1012 78 5000 1.5 190 19:57 25.06.2019
5619 Haze 26 1012 74 5000 2.1 0 19:38 25.06.2019
5620 Haze 26 1012 74 5000 2.1 150 19:20 25.06.2019
5621 Clouds 26 1012 74 6000 2.6 140 18:42 25.06.2019
5622 Clouds 26 1012 74 6000 2.6 0 18:23 25.06.2019
5623 -273 0 0 0 0 0 17:45 25.06.2019
5624 -273 0 0 0 0 0 17:26 25.06.2019
5625 -273 0 0 0 0 0 17:26 25.06.2019
5626 -273 0 0 0 0 0 17:26 25.06.2019
5627 -273 0 0 0 0 0 17:26 25.06.2019
5628 Clouds 26 1011 78 6000 2.6 110 16:44 25.06.2019
5629 Clouds 26 1011 78 6000 2.6 110 16:26 25.06.2019
5630 Clouds 27 1011 74 7000 4.6 100 15:59 25.06.2019
5631 Clouds 27 1011 74 8000 4.6 90 15:38 25.06.2019
5632 Clouds 27 1010 74 8000 4.6 90 15:18 25.06.2019
5633 Clouds 27 1010 69 8000 5.1 80 14:45 25.06.2019
5634 Clouds 28 1010 69 8000 5.1 80 14:26 25.06.2019
5635 Clouds 28 1010 66 8000 6.7 70 13:42 25.06.2019
5636 Clouds 28 1010 66 8000 6.7 70 13:23 25.06.2019
5637 Clouds 29 1009 66 9000 7.2 60 12:42 25.06.2019
5638 Clouds 30 1009 58 9000 3.6 70 12:24 25.06.2019
5639 Clouds 30 1009 62 9000 7.2 70 11:45 25.06.2019
5640 Clouds 30 1009 62 9000 7.2 70 11:24 25.06.2019
5641 Clouds 30 1009 58 8000 7.2 70 10:57 25.06.2019
5642 Clouds 30 1009 58 8000 7.2 70 10:36 25.06.2019
5643 Clouds 30 1009 55 8000 7.2 50 10:18 25.06.2019
5644 Clouds 31 1009 55 9000 6.2 60 09:39 25.06.2019
5645 Clouds 33 1010 49 10000 6.2 60 09:21 25.06.2019
5646 Clouds 33 1010 49 10000 6.2 60 09:21 25.06.2019
5647 Clouds 34 1010 43 10000 6.7 60 08:51 25.06.2019
5648 Clouds 34 1010 43 10000 6.7 60 08:31 25.06.2019
5649 Clouds 34 1011 46 10000 5.7 80 07:44 25.06.2019
5650 Clouds 33 1012 49 9000 5.1 70 07:24 25.06.2019
5651 Clouds 33 1012 46 9000 4.6 90 06:44 25.06.2019
5652 Clouds 30 1013 48 7000 3.6 120 05:48 25.06.2019
5653 Haze 25 1013 78 5000 2.1 0 02:43 25.06.2019
5654 Haze 24 1012 94 2000 3.12 115.209 00:39 25.06.2019
5655 Haze 24 1011 78 5000 2.1 180 00:19 25.06.2019
5656 Mist 25 1011 78 4000 2.1 200 23:51 24.06.2019
5657 Mist 25 1011 78 4000 2.1 200 23:32 24.06.2019
5658 Mist 24 1011 83 4000 1 0 22:48 24.06.2019
5659 Mist 24 1011 78 4000 1 0 22:20 24.06.2019
5660 Mist 25 1011 78 4000 1 0 21:56 24.06.2019
5661 Haze 25 1011 78 5000 1 240 21:37 24.06.2019
5662 Haze 25 1011 78 5000 1 0 21:18 24.06.2019
5663 Haze 25 1012 78 5000 1 0 20:42 24.06.2019
5664 Haze 25 1012 78 5000 1 0 20:22 24.06.2019
5665 Haze 25 1012 74 5000 3.1 220 19:49 24.06.2019
5666 Haze 25 1012 74 5000 3.1 220 19:26 24.06.2019
5667 Clouds 26 1012 74 6000 2.6 210 18:56 24.06.2019
5668 Clouds 26 1012 74 6000 2.6 210 18:37 24.06.2019
5669 Clouds 26 1012 74 6000 2.6 210 18:18 24.06.2019
5670 Clouds 26 1012 65 6000 2.6 0 17:37 24.06.2019
5671 Clouds 27 1012 65 7000 2.6 0 17:18 24.06.2019
5672 Clouds 27 1012 69 7000 2.6 130 16:40 24.06.2019
5673 Clouds 27 1012 74 7000 4.1 110 16:19 24.06.2019
5674 Clouds 27 1011 74 7000 3.6 100 15:41 24.06.2019
5675 Haze 27 1011 74 7000 3.6 100 15:22 24.06.2019
5676 Haze 28 1010 66 5000 4.6 80 14:35 24.06.2019
5677 Clouds 28 1010 66 8000 5.1 80 13:59 24.06.2019
5678 -273 0 0 0 0 0 13:32 24.06.2019
5679 Clouds 28 1010 66 8000 5.7 70 12:57 24.06.2019
5680 Clouds 29 1009 62 9000 5.7 70 12:38 24.06.2019
5681 Clouds 29 1009 62 9000 6.7 70 12:20 24.06.2019
5682 Clouds 30 1009 55 9000 6.2 70 11:43 24.06.2019
5683 Clouds 30 1009 55 9000 6.7 60 11:24 24.06.2019
5684 Clouds 31 1009 43 6000 2.6 40 10:51 24.06.2019
5685 Clouds 31 1009 43 6000 2.6 40 10:31 24.06.2019
5686 Haze 31 1009 44 5000 3.1 60 09:51 24.06.2019
5687 Haze 31 1009 44 5000 3.1 60 09:23 24.06.2019
5688 Clouds 31 1009 49 9000 4.6 50 08:55 24.06.2019
5689 Haze 31 1010 49 9000 4.1 70 08:32 24.06.2019
5690 Haze 32 1011 55 5000 3.1 90 07:49 24.06.2019
5691 Haze 32 1011 55 5000 3.1 90 07:27 24.06.2019
5692 Haze 32 1012 52 5000 4.1 90 06:56 24.06.2019
5693 Clouds 29 1012 52 7000 2.6 0 06:23 24.06.2019
5694 Clouds 29 1012 58 6000 4.6 90 05:29 24.06.2019
5695 Haze 28 1012 66 6000 3.1 130 04:34 24.06.2019
5696 Haze 27 1012 78 3000 2.1 120 03:32 24.06.2019
5697 Haze 25 1011 73 5000 3.6 200 02:34 24.06.2019
5698 Haze 25 1011 73 5000 3.6 200 01:54 24.06.2019
5699 Haze 25 1011 88 3000 1.75 157.834 01:28 24.06.2019
5700 Haze 24 1010 83 3000 1.75 157.834 00:45 24.06.2019
5701 Haze 24 1010 83 5000 2.1 240 00:20 24.06.2019
5702 Haze 24 1010 78 5000 2.6 240 23:47 23.06.2019
5703 Haze 24 1010 78 5000 2.6 240 23:28 23.06.2019
5704 Haze 24 1010 78 5000 3.1 260 22:56 23.06.2019
5705 Clouds 24 1010 83 6000 2.1 250 22:38 23.06.2019
5706 Clouds 24 1010 78 6000 2.1 230 22:19 23.06.2019
5707 Clouds 24 1010 78 6000 2.1 250 21:40 23.06.2019
5708 Clouds 25 1011 73 6000 2.1 220 21:21 23.06.2019
5709 Clouds 25 1011 73 6000 2.1 210 20:49 23.06.2019
5710 Clouds 25 1011 73 6000 2.1 210 20:29 23.06.2019
5711 Clouds 25 1011 69 6000 2.6 260 19:46 23.06.2019
5712 Clouds 25 1011 73 6000 3.1 250 19:23 23.06.2019
5713 Clouds 25 1011 73 6000 3.1 250 18:55 23.06.2019
5714 Clouds 25 1011 73 6000 3.6 260 18:36 23.06.2019
5715 Clouds 25 1011 69 6000 3.1 280 18:18 23.06.2019
5716 Clouds 26 1011 69 6000 3.6 270 17:39 23.06.2019
5717 Haze 26 1011 65 5000 3.1 280 17:21 23.06.2019
5718 Haze 27 1011 65 5000 2.6 300 16:43 23.06.2019
5719 Haze 27 1011 65 5000 2.6 300 16:24 23.06.2019
5720 Haze 27 1010 70 5000 3.1 40 15:42 23.06.2019
5721 Haze 28 1010 62 6000 1 0 15:23 23.06.2019
5722 Haze 28 1010 62 6000 1 0 14:56 23.06.2019
5723 Haze 28 1009 70 5000 2.6 40 14:37 23.06.2019
5724 Clouds 28 1009 66 6000 1.5 360 14:18 23.06.2019
5725 Clouds 28 1009 66 7000 1.5 10 13:42 23.06.2019
5726 Haze 28 1008 66 8000 2.1 20 13:20 23.06.2019
5727 Haze 28 1008 66 8000 2.1 20 12:54 23.06.2019
5728 Haze 29 1008 66 5000 2.6 360 12:36 23.06.2019
5729 Haze 29 1008 62 8000 3.6 30 12:18 23.06.2019
5730 Haze 29 1008 58 5000 3.1 10 11:42 23.06.2019
5731 Haze 30 1008 58 7000 3.6 40 11:24 23.06.2019
5732 Haze 30 1007 52 5000 2.6 330 10:47 23.06.2019
5733 Clouds 29 1008 58 6000 4.1 30 10:20 23.06.2019
5734 Clouds 29 1008 58 6000 4.1 30 09:54 23.06.2019
5735 Haze 32 1008 58 6000 3.6 30 09:22 23.06.2019
5736 Haze 33 1008 52 7000 3.6 40 08:46 23.06.2019
5737 Clouds 33 1009 55 7000 3.6 20 08:27 23.06.2019
5738 Clouds 32 1009 58 6000 3.1 50 07:55 23.06.2019
5739 Clouds 32 1009 58 6000 3.1 50 07:55 23.06.2019
5740 Haze 32 1009 58 6000 3.1 50 07:25 23.06.2019
5741 Haze 32 1009 58 6000 3.1 50 06:59 23.06.2019
5742 Haze 31 1010 55 5000 2.6 0 06:40 23.06.2019
5743 Haze 29 1011 74 3000 4.1 90 04:38 23.06.2019
5744 Haze 25 1010 88 2500 3.06 184.348 02:32 23.06.2019
5745 Haze 25 1009 88 2500 3.06 184.348 01:39 23.06.2019
5746 Haze 25 1009 88 4000 3.83 191.598 00:47 23.06.2019
5747 Haze 24 1009 88 4000 3.58 201.751 00:26 23.06.2019
5748 Haze 24 1009 83 5000 2.1 280 23:42 22.06.2019
5749 Haze 24 1009 83 5000 2.1 280 23:24 22.06.2019
5750 Haze 25 1009 78 5000 2.1 220 22:46 22.06.2019
5751 Haze 25 1009 78 5000 2.6 240 22:24 22.06.2019
5752 Haze 25 1009 78 5000 1.5 230 21:41 22.06.2019
5753 Haze 25 1009 78 5000 2.1 230 21:20 22.06.2019
5754 Haze 25 1009 78 5000 2.1 230 20:53 22.06.2019
5755 Haze 25 1009 78 5000 2.1 260 20:27 22.06.2019
5756 Haze 25 1010 78 5000 2.6 270 19:58 22.06.2019
5757 Haze 25 1010 78 5000 3.1 270 19:39 22.06.2019
5758 Haze 25 1010 78 5000 3.1 270 19:19 22.06.2019
5759 Haze 26 1010 74 5000 2.6 290 18:41 22.06.2019
5760 Haze 26 1010 74 5000 2.6 270 18:19 22.06.2019
5761 Haze 27 1010 78 5000 2.1 50 17:43 22.06.2019
5762 Haze 27 1010 78 5000 2.1 50 17:25 22.06.2019
5763 Clouds 27 1010 69 7000 1 20 16:42 22.06.2019
5764 Clouds 27 1010 69 7000 1.5 40 16:22 22.06.2019
5765 Clouds 27 1010 69 7000 1.5 50 15:43 22.06.2019
5766 Clouds 27 1010 69 7000 1.5 50 15:25 22.06.2019
5767 Clouds 27 1009 66 6000 2.6 40 14:51 22.06.2019
5768 Clouds 27 1009 66 6000 2.6 40 14:31 22.06.2019
5769 Clouds 28 1008 66 8000 2.1 50 13:57 22.06.2019
5770 Clouds 28 1008 66 6000 3.6 50 13:38 22.06.2019
5771 Clouds 28 1008 66 6000 3.6 50 13:38 22.06.2019
5772 Clouds 28 1008 62 9000 2.6 50 13:18 22.06.2019
5773 Clouds 28 1008 58 6000 4.1 20 12:42 22.06.2019
5774 Clouds 30 1007 55 10000 3.6 40 12:19 22.06.2019
5775 Clouds 30 1007 52 10000 3.1 40 11:41 22.06.2019
5776 Clouds 31 1007 52 10000 3.6 40 11:19 22.06.2019
5777 Haze 32 1007 48 10000 4.1 30 10:22 22.06.2019
5778 Haze 32 1007 48 10000 4.1 30 09:56 22.06.2019
5779 Haze 32 1007 46 5000 5.1 20 09:35 22.06.2019
5780 Clear 32 1008 43 10000 4.1 30 08:48 22.06.2019
5781 Haze 33 1008 43 10000 4.1 30 08:29 22.06.2019
5782 Haze 33 1008 43 5000 2.1 130 07:44 22.06.2019
5783 Haze 33 1008 43 5000 2.1 130 07:23 22.06.2019
5784 Haze 32 1009 49 5000 3.1 250 06:40 22.06.2019
5785 Haze 28 1010 69 3000 1.5 260 03:42 22.06.2019
5786 Haze 25 1009 83 3000 1.5 240 02:24 22.06.2019
5787 Haze 24 1009 78 4000 1.5 180 00:54 22.06.2019
5788 Haze 24 1009 78 4000 1.5 180 00:30 22.06.2019
5789 Haze 25 1008 69 5000 1.5 0 23:50 21.06.2019
5790 Haze 25 1009 74 5000 1.5 180 23:23 21.06.2019
5791 Haze 25 1009 74 5000 1.5 180 22:57 21.06.2019
5792 Haze 25 1009 74 5000 1 0 22:34 21.06.2019
5793 Haze 25 1009 74 5000 1.5 0 21:58 21.06.2019
5794 Haze 25 1009 74 5000 1.5 170 21:39 21.06.2019
5795 Haze 26 1009 69 5000 2.6 170 21:20 21.06.2019
5796 Haze 26 1009 69 5000 2.6 0 20:48 21.06.2019
5797 Clouds 26 1009 69 6000 2.1 0 20:26 21.06.2019
5798 Clouds 26 1010 69 6000 2.6 0 19:48 21.06.2019
5799 Clouds 26 1010 69 6000 2.1 130 19:21 21.06.2019
5800 Clouds 26 1010 74 6000 2.6 110 18:41 21.06.2019
5801 Clouds 26 1010 69 6000 2.6 0 18:22 21.06.2019
5802 Clouds 26 1010 74 6000 2.6 0 17:31 21.06.2019
5803 Clouds 26 1010 74 6000 2.6 110 16:56 21.06.2019
5804 Clouds 27 1010 74 6000 2.6 100 16:36 21.06.2019
5805 Clouds 27 1010 74 7000 3.1 110 16:18 21.06.2019
5806 Clouds 27 1009 74 7000 3.6 90 15:37 21.06.2019
5807 Clouds 27 1009 74 8000 3.6 90 14:57 21.06.2019
5808 Clouds 27 1009 69 6000 4.1 60 14:38 21.06.2019
5809 Haze 28 1008 69 8000 4.1 70 14:20 21.06.2019
5810 Haze 28 1008 62 5000 4.1 60 13:39 21.06.2019
5811 Haze 28 1008 66 9000 4.1 70 13:21 21.06.2019
5812 Haze 29 1007 55 5000 4.1 30 12:49 21.06.2019
5813 Clouds 29 1008 58 10000 5.1 60 12:23 21.06.2019
5814 Clouds 29 1008 58 10000 5.1 60 12:23 21.06.2019
5815 Clouds 30 1008 58 10000 5.1 60 11:55 21.06.2019
5816 Clouds 30 1007 49 6000 2.1 100 11:37 21.06.2019
5817 Haze 30 1007 55 10000 5.7 60 11:19 21.06.2019
5818 Haze 30 1007 46 5000 2.1 100 10:42 21.06.2019
5819 Haze 30 1008 55 10000 5.1 60 10:20 21.06.2019
5820 Haze 32 1008 49 5000 2.6 90 09:43 21.06.2019
5821 Clouds 32 1008 49 10000 5.1 60 09:23 21.06.2019
5822 Clouds 32 1008 49 10000 5.1 60 08:56 21.06.2019
5823 Haze 33 1008 49 10000 5.7 60 08:37 21.06.2019
5824 Haze 32 1009 52 10000 5.7 70 08:18 21.06.2019
5825 Haze 32 1009 49 5000 3.1 50 07:42 21.06.2019
5826 Haze 31 1009 52 8000 5.1 80 07:19 21.06.2019
5827 Haze 30 1010 55 5000 2.1 120 06:25 21.06.2019
5828 Haze 29 1011 83 2000 1.5 150 05:35 21.06.2019
5829 Clouds 28 1010 65 6000 1.5 0 04:40 21.06.2019
5830 Haze 27 1011 83 2000 1.5 150 03:41 21.06.2019
5831 Haze 26 1011 83 2000 1.5 150 03:23 21.06.2019
5832 Haze 25 1010 74 5000 3.1 200 02:21 21.06.2019
5833 Mist 26 1010 74 4000 3.1 210 01:30 21.06.2019
5834 Haze 25 1010 78 5000 2.1 190 00:35 21.06.2019
5835 Clouds 26 1009 78 6000 2.1 200 23:56 20.06.2019
5836 Clouds 26 1009 74 6000 1.5 0 23:37 20.06.2019
5837 Clouds 26 1009 74 6000 1.5 200 23:19 20.06.2019
5838 Clouds 26 1009 78 6000 2.1 120 22:41 20.06.2019
5839 Clouds 26 1009 78 6000 2.1 0 22:23 20.06.2019
5840 Clouds 26 1009 78 6000 2.1 0 21:56 20.06.2019
5841 Haze 26 1009 74 5000 2.1 130 21:37 20.06.2019
5842 Haze 26 1010 78 5000 2.1 120 21:19 20.06.2019
5843 Haze 26 1010 78 5000 2.1 120 21:19 20.06.2019
5844 Haze 27 1010 74 5000 1.5 0 20:41 20.06.2019
5845 Haze 27 1010 74 5000 1.5 0 20:23 20.06.2019
5846 Clouds 27 1010 74 7000 2.1 120 19:45 20.06.2019
5847 Clouds 26 1010 78 7000 1.5 0 19:19 20.06.2019
5848 Clouds 26 1010 78 7000 1.5 0 18:58 20.06.2019
5849 Clouds 26 1010 78 7000 2.1 0 18:40 20.06.2019
5850 Clouds 26 1010 78 7000 2.6 0 18:21 20.06.2019
5851 Clouds 27 1010 74 7000 2.1 110 17:46 20.06.2019
5852 Clouds 27 1010 74 7000 2.1 110 17:27 20.06.2019
5853 Clouds 27 1010 78 7000 2.6 100 16:44 20.06.2019
5854 Clouds 27 1010 78 7000 3.1 110 16:19 20.06.2019
5855 Clouds 27 1010 78 7000 3.1 110 15:56 20.06.2019
5856 Haze 27 1009 74 8000 4.1 90 15:38 20.06.2019
5857 Haze 27 1009 69 8000 3.6 90 15:18 20.06.2019
5858 Haze 27 1009 69 5000 4.1 30 14:43 20.06.2019
5859 Clouds 28 1008 69 8000 4.6 80 14:21 20.06.2019
5860 Clouds 28 1008 58 6000 3.1 20 13:40 20.06.2019
5861 Clouds 29 1008 62 9000 4.6 70 13:19 20.06.2019
5862 Clouds 29 1007 52 6000 4.6 20 12:44 20.06.2019
5863 Clouds 29 1008 52 10000 4.6 60 12:23 20.06.2019
5864 Clouds 30 1008 52 9000 4.1 60 11:45 20.06.2019
5865 Clouds 30 1008 52 9000 4.1 60 11:24 20.06.2019
5866 Clouds 32 1008 55 7000 5.1 40 10:54 20.06.2019
5867 Clouds 32 1008 55 7000 5.1 40 10:36 20.06.2019
5868 Clouds 32 1008 34 6000 3.1 270 10:18 20.06.2019
5869 Clouds 32 1008 52 8000 4.1 30 09:40 20.06.2019
5870 Clouds 33 1008 34 6000 3.1 150 09:21 20.06.2019
5871 Clouds 34 1009 43 7000 5.1 40 08:45 20.06.2019
5872 -273 0 0 0 0 0 08:27 20.06.2019
5873 Clouds 34 1010 36 6000 3.1 130 07:53 20.06.2019
5874 Clouds 34 1010 36 6000 3.1 130 07:28 20.06.2019
5875 Clouds 32 1009 79 10000 3.1 300 06:27 20.06.2019
5876 Haze 29 1012 58 4000 2.1 120 04:54 20.06.2019
5877 Haze 26 1011 78 3000 1.5 170 02:55 20.06.2019
5878 Haze 25 1011 88 4000 3 127.379 00:34 20.06.2019
5879 Haze 25 1010 88 4000 2.95 127.503 23:58 19.06.2019
5880 Haze 25 1010 83 4000 3.1 200 23:39 19.06.2019
5881 Haze 25 1010 74 4000 2.1 190 23:21 19.06.2019
5882 Haze 26 1010 78 4000 2.6 200 22:45 19.06.2019
5883 Haze 26 1010 74 4000 2.6 200 22:18 19.06.2019
5884 Haze 26 1010 74 4000 2.1 200 21:46 19.06.2019
5885 Haze 26 1011 78 4000 2.1 200 21:25 19.06.2019
5886 Haze 26 1011 74 4000 1.5 0 20:43 19.06.2019
5887 Haze 26 1011 74 4000 1 0 20:22 19.06.2019
5888 Haze 26 1011 74 4000 1 0 20:22 19.06.2019
5889 Haze 26 1011 74 4000 1 0 19:58 19.06.2019
5890 Haze 26 1011 74 5000 1 0 19:39 19.06.2019
5891 Haze 26 1011 69 5000 1 0 19:20 19.06.2019
5892 Clouds 27 1011 61 6000 1.5 0 18:47 19.06.2019
5893 Clouds 28 1011 61 6000 2.1 0 18:20 19.06.2019
5894 Clouds 27 1011 61 6000 2.1 140 17:37 19.06.2019
5895 Clouds 27 1011 65 6000 2.6 130 16:59 19.06.2019
5896 Clouds 27 1011 69 6000 2.1 130 16:39 19.06.2019
5897 Clouds 27 1010 69 7000 2.6 0 16:21 19.06.2019
5898 Clouds 27 1010 74 7000 2.1 110 15:53 19.06.2019
5899 -273 0 0 0 0 0 15:27 19.06.2019
5900 Clouds 27 1009 74 7000 3.1 90 14:57 19.06.2019
5901 -273 0 0 0 0 0 14:57 19.06.2019
5902 Clouds 27 1009 61 6000 3.6 50 14:38 19.06.2019
5903 Clouds 28 1009 65 8000 4.1 70 14:20 19.06.2019
5904 Clouds 29 1009 62 9000 4.6 70 13:43 19.06.2019
5905 Clouds 30 1008 62 9000 5.1 70 13:24 19.06.2019
5906 Clouds 30 1008 52 7000 5.1 50 12:44 19.06.2019
5907 Clouds 31 1008 58 10000 7.2 70 12:22 19.06.2019
5908 Clouds 31 1008 58 10000 7.2 70 11:56 19.06.2019
5909 Clouds 32 1008 46 7000 5.1 50 11:37 19.06.2019
5910 Clouds 32 1008 52 10000 7.2 60 11:19 19.06.2019
5911 Clouds 33 1008 38 7000 5.1 50 10:43 19.06.2019
5912 Clouds 33 1008 52 10000 7.2 60 10:24 19.06.2019
5913 Clouds 33 1008 52 10000 7.2 60 09:42 19.06.2019
5914 Clouds 33 1009 55 10000 7.2 60 09:21 19.06.2019
5915 Clouds 33 1009 49 10000 7.2 60 08:50 19.06.2019
5916 Clouds 34 1009 49 10000 7.2 60 08:29 19.06.2019
5917 Clouds 33 1010 46 6000 4.1 120 07:49 19.06.2019
5918 Clouds 33 1010 46 6000 4.1 120 07:30 19.06.2019
5919 Clouds 33 1011 46 6000 4.6 70 06:55 19.06.2019
5920 Clouds 33 1011 46 6000 4.6 70 06:30 19.06.2019
5921 Clouds 32 1011 55 8000 3.1 70 05:50 19.06.2019
5922 Haze 30 1011 62 4000 3.6 110 04:41 19.06.2019
5923 Clouds 27 1011 69 6000 2.1 0 03:37 19.06.2019
5924 Haze 25 1011 73 5000 3.6 200 02:30 19.06.2019
5925 Haze 24 1010 78 5000 2.6 210 01:27 19.06.2019
5926 Haze 24 1010 73 5000 2.6 200 00:46 19.06.2019
5927 Haze 24 1010 73 5000 2.6 200 00:27 19.06.2019
5928 Haze 25 1010 78 5000 2.6 200 23:55 18.06.2019
5929 Haze 25 1010 78 5000 2.6 200 23:28 18.06.2019
5930 Haze 25 1010 83 4000 3.1 190 22:55 18.06.2019
5931 Haze 25 1010 83 4000 2.1 180 22:37 18.06.2019
5932 Haze 25 1010 83 4000 2.1 200 22:18 18.06.2019
5933 Haze 25 1011 83 4000 1 0 21:43 18.06.2019
5934 Haze 25 1011 83 3000 1 0 21:21 18.06.2019
5935 Haze 25 1011 83 3000 1 0 21:21 18.06.2019
5936 Haze 25 1011 78 3000 2.1 230 20:44 18.06.2019
5937 Haze 26 1011 74 5000 2.1 220 20:26 18.06.2019
5938 Haze 26 1011 74 5000 2.1 220 19:56 18.06.2019
5939 Haze 26 1011 78 5000 1.5 0 19:37 18.06.2019
5940 Haze 26 1011 74 5000 2.1 0 19:19 18.06.2019
5941 Haze 27 1011 74 5000 2.6 0 18:45 18.06.2019
5942 Haze 27 1011 69 5000 2.6 0 18:24 18.06.2019
5943 Haze 27 1011 74 5000 3.1 140 17:42 18.06.2019
5944 Haze 27 1011 74 5000 3.6 140 17:20 18.06.2019
5945 Clouds 27 1011 74 7000 2.6 130 16:47 18.06.2019
5946 Clouds 27 1011 74 7000 2.6 130 16:27 18.06.2019
5947 Clouds 26 1011 78 7000 2.6 100 15:56 18.06.2019
5948 Clouds 27 1011 74 7000 3.1 110 15:36 18.06.2019
5949 Clouds 27 1010 69 7000 4.6 90 15:18 18.06.2019
5950 Clouds 28 1008 65 6000 4.6 50 14:42 18.06.2019
5951 Clouds 29 1010 62 8000 5.1 80 14:22 18.06.2019
5952 Clouds 29 1009 62 6000 3.6 70 13:53 18.06.2019
5953 Clouds 29 1009 62 6000 3.6 70 13:32 18.06.2019
5954 Clouds 29 1009 66 9000 5.7 80 12:59 18.06.2019
5955 Clouds 30 1009 62 10000 7.2 70 12:41 18.06.2019
5956 Clouds 31 1009 58 10000 7.7 70 12:23 18.06.2019
5957 Clouds 31 1009 58 10000 7.2 70 11:42 18.06.2019
5958 Clouds 32 1009 55 10000 6.7 60 11:21 18.06.2019
5959 Clouds 32 1009 55 10000 6.7 60 10:57 18.06.2019
5960 -273 0 0 0 0 0 10:57 18.06.2019
5961 Clouds 33 1009 55 10000 7.7 70 10:37 18.06.2019
5962 Clouds 33 1009 55 10000 7.2 60 10:18 18.06.2019
5963 Clouds 33 1009 41 6000 4.6 90 09:39 18.06.2019
5964 Clouds 34 1009 49 10000 6.7 60 09:18 18.06.2019
5965 Clouds 33 1009 52 10000 5.7 70 08:43 18.06.2019
5966 Clouds 33 1009 52 10000 5.7 70 08:43 18.06.2019
5967 Clouds 33 1010 52 10000 6.7 80 08:21 18.06.2019
5968 Clouds 32 1010 49 6000 4.6 80 07:40 18.06.2019
5969 Clouds 33 1010 52 10000 8.2 90 07:19 18.06.2019
5970 Clouds 32 1011 52 6000 5.1 110 06:33 18.06.2019
5971 Clouds 30 1011 51 9000 6.2 120 05:19 18.06.2019
5972 Haze 26 1011 78 4000 3.9 108.858 02:53 18.06.2019
5973 Haze 25 1011 73 7000 2.6 0 01:55 18.06.2019
5974 Haze 24 1011 78 5000 1.5 120 01:24 18.06.2019
5975 Haze 24 1011 78 5000 1.5 120 00:55 18.06.2019
5976 Haze 25 1011 78 5000 1.5 120 00:27 18.06.2019
5977 Clouds 25 1011 78 6000 2.6 150 23:41 17.06.2019
5978 Clouds 25 1011 74 6000 2.6 160 23:20 17.06.2019
5979 Clouds 26 1011 74 6000 2.6 160 22:56 17.06.2019
5980 Clouds 26 1011 74 6000 3.1 150 22:37 17.06.2019
5981 Clouds 26 1011 78 6000 2.6 160 22:19 17.06.2019
5982 Haze 26 1011 78 5000 3.1 160 21:42 17.06.2019
5983 Haze 26 1011 78 5000 1.5 0 21:21 17.06.2019
5984 Clouds 26 1011 74 6000 1.5 0 20:37 17.06.2019
5985 Clouds 26 1011 74 6000 1.5 0 20:37 17.06.2019
5986 Clouds 26 1012 78 6000 2.1 130 20:19 17.06.2019
5987 Clouds 26 1012 78 6000 3.1 110 19:43 17.06.2019
5988 Clouds 26 1012 74 6000 3.1 120 19:24 17.06.2019
5989 Clouds 27 1012 74 7000 3.1 130 18:58 17.06.2019
5990 Clouds 27 1012 74 7000 3.1 130 18:38 17.06.2019
5991 Clouds 27 1011 69 7000 3.6 110 18:18 17.06.2019
5992 Clouds 27 1011 69 7000 3.6 110 17:47 17.06.2019
5993 Clouds 27 1011 69 7000 3.6 110 17:29 17.06.2019
5994 Clouds 27 1011 74 8000 3.6 100 16:55 17.06.2019
5995 Clouds 27 1011 74 8000 3.6 100 16:36 17.06.2019
5996 Clouds 27 1011 74 8000 4.1 100 16:18 17.06.2019
5997 Clouds 28 1011 69 8000 5.1 90 15:40 17.06.2019
5998 Haze 28 1010 65 8000 5.1 90 15:20 17.06.2019
5999 Haze 28 1010 62 5000 4.6 50 14:55 17.06.2019
6000 Haze 28 1010 62 5000 4.6 50 14:34 17.06.2019
6001 Haze 29 1010 65 8000 5.1 90 13:58 17.06.2019
6002 Haze 29 1009 62 5000 5.1 60 13:39 17.06.2019
6003 Clouds 29 1009 62 10000 6.7 70 13:20 17.06.2019
6004 Clouds 30 1009 58 10000 6.7 70 12:38 17.06.2019
6005 Clouds 30 1008 58 10000 6.2 60 12:18 17.06.2019
6006 Haze 31 1008 55 10000 7.7 60 11:39 17.06.2019
6007 Haze 31 1008 46 5000 5.7 40 11:20 17.06.2019
6008 Clouds 31 1008 55 10000 7.2 70 10:46 17.06.2019
6009 Clouds 31 1008 55 10000 7.2 70 10:46 17.06.2019
6010 Clouds 31 1008 55 10000 7.2 70 10:28 17.06.2019
6011 Haze 32 1008 55 10000 6.7 60 09:56 17.06.2019
6012 Haze 32 1008 55 10000 6.7 70 09:33 17.06.2019
6013 Clouds 31 1009 55 9000 6.7 70 08:48 17.06.2019
6014 Haze 31 1009 55 9000 6.7 70 08:25 17.06.2019
6015 Haze 31 1010 55 4000 4.1 60 07:57 17.06.2019
6016 Haze 31 1010 55 4000 4.1 60 07:32 17.06.2019
6017 Haze 31 1010 58 4000 5.1 70 06:53 17.06.2019
6018 Clouds 31 1011 58 7000 4.6 80 06:18 17.06.2019
6019 Haze 30 1011 62 6000 2.6 0 05:26 17.06.2019
6020 Haze 29 1011 74 5000 2.1 0 04:23 17.06.2019
6021 Haze 27 1011 78 3000 1.5 210 03:31 17.06.2019
6022 Haze 26 1011 88 3000 1.5 163.902 02:44 17.06.2019
6023 Haze 26 1011 88 3000 1.5 163.902 02:26 17.06.2019
6024 Mist 26 1011 83 5000 1.5 290 01:36 17.06.2019
6025 Mist 25 1010 88 5000 1.5 280 00:57 17.06.2019
6026 Mist 26 1010 88 5000 1.5 280 00:37 17.06.2019
6027 Haze 26 1010 83 5000 1 230 00:18 17.06.2019
6028 Haze 26 1010 83 5000 2.1 170 23:39 16.06.2019
6029 Haze 26 1010 83 5000 2.6 190 23:20 16.06.2019
6030 Haze 26 1010 83 5000 2.1 170 22:45 16.06.2019
6031 Haze 26 1010 83 5000 2.6 0 22:20 16.06.2019
6032 Haze 26 1010 83 5000 2.6 0 21:58 16.06.2019
6033 Haze 26 1010 83 5000 2.1 180 21:40 16.06.2019
6034 Haze 26 1011 83 5000 2.6 190 21:20 16.06.2019
6035 Clouds 26 1011 83 6000 3.1 210 20:40 16.06.2019
6036 Rain 26 1014 92 0 0.45 225 20:19 16.06.2019
6037 Rain 26 1014 90 0 0.89 249 19:58 16.06.2019
6038 Clouds 26 1011 83 7000 1 0 19:39 16.06.2019
6039 Clouds 26 1011 83 7000 1 0 19:21 16.06.2019
6040 Clouds 26 1012 83 7000 3.6 190 18:57 16.06.2019
6041 Clouds 26 1012 83 7000 3.6 190 18:36 16.06.2019
6042 Clouds 26 1012 83 7000 2.1 0 18:18 16.06.2019
6043 Clouds 26 1012 83 7000 2.1 0 17:42 16.06.2019
6044 Clouds 26 1012 83 7000 1 0 17:21 16.06.2019
6045 Clouds 26 1012 83 7000 1 0 16:56 16.06.2019
6046 Clouds 26 1012 83 7000 3.1 220 16:38 16.06.2019
6047 Clouds 26 1012 83 7000 1.5 0 16:19 16.06.2019
6048 Rain 25 1011 83 5000 1.5 0 15:41 16.06.2019
6049 Haze 27 1011 74 5000 3.6 250 15:23 16.06.2019
6050 Haze 28 1011 66 5000 2.1 40 14:42 16.06.2019
6051 Haze 29 1010 70 7000 1.5 10 14:23 16.06.2019
6052 Haze 29 1010 70 7000 1.5 10 14:23 16.06.2019
6053 Haze 29 1010 66 5000 3.1 40 13:51 16.06.2019
6054 Haze 30 1010 66 5000 3.1 40 13:26 16.06.2019
6055 Clouds 30 1010 62 8000 4.1 50 12:57 16.06.2019
6056 Clouds 30 1009 62 6000 4.1 50 12:38 16.06.2019
6057 Clouds 30 1009 58 9000 4.6 50 12:18 16.06.2019
6058 Clouds 30 1009 59 6000 5.1 30 11:44 16.06.2019
6059 Clouds 30 1009 58 10000 4.6 40 11:19 16.06.2019
6060 Clouds 30 1009 58 10000 4.6 30 10:45 16.06.2019
6061 Haze 31 1009 62 10000 4.6 20 10:21 16.06.2019
6062 Haze 31 1009 59 5000 2.1 340 09:48 16.06.2019
6063 Haze 31 1009 59 5000 2.1 340 09:26 16.06.2019
6064 Haze 32 1009 59 10000 4.6 40 08:59 16.06.2019
6065 Haze 31 1010 52 5000 2.1 330 08:38 16.06.2019
6066 Clouds 31 1010 58 9000 3.6 10 08:18 16.06.2019
6067 Clouds 32 1010 55 6000 1.5 150 07:43 16.06.2019
6068 Clouds 31 1011 55 6000 2.1 220 06:59 16.06.2019
6069 Clouds 31 1011 55 6000 2.1 220 06:37 16.06.2019
6070 Clouds 30 1012 59 6000 2.1 50 05:47 16.06.2019
6071 Haze 30 1012 66 5000 2.6 240 04:49 16.06.2019
6072 Clouds 29 1012 74 6000 2.6 280 03:57 16.06.2019
6073 Clouds 29 1012 74 6000 2.6 280 03:57 16.06.2019
6074 Clouds 29 1012 74 6000 2.6 280 03:57 16.06.2019
6075 Haze 28 1012 78 5000 2.1 0 03:32 16.06.2019
6076 Haze 27 1011 88 5000 2.1 280 02:26 16.06.2019
6077 Mist 26 1010 88 5000 2.1 280 01:42 16.06.2019
6078 Mist 26 1010 88 5000 2.1 280 01:24 16.06.2019
6079 Mist 27 1010 83 5000 2.1 240 00:40 16.06.2019
6080 Mist 26 1010 88 5000 1.5 270 00:20 16.06.2019
6081 Haze 26 1010 83 5000 1.5 250 23:43 15.06.2019
6082 Haze 27 1009 83 5000 2.1 260 23:25 15.06.2019
6083 Haze 27 1010 83 5000 1.5 0 22:50 15.06.2019
6084 Haze 27 1010 83 5000 1.5 0 22:27 15.06.2019
6085 Haze 27 1010 74 5000 1.5 0 21:49 15.06.2019
6086 Haze 27 1010 74 5000 1.5 0 21:29 15.06.2019
6087 Haze 28 1010 74 5000 2.1 0 20:59 15.06.2019
6088 Haze 28 1011 70 5000 2.1 0 20:40 15.06.2019
6089 Thunderstorm 28 1011 78 5000 2.6 0 20:19 15.06.2019
6090 Haze 28 1011 74 5000 3.1 110 19:42 15.06.2019
6091 Haze 28 1011 70 5000 3.1 110 19:23 15.06.2019
6092 Haze 29 1011 70 5000 3.1 120 18:40 15.06.2019
6093 Haze 29 1011 70 5000 3.1 120 18:21 15.06.2019
6094 Clouds 28 1011 78 6000 2.6 110 17:43 15.06.2019
6095 Clouds 28 1011 78 6000 2.6 110 17:43 15.06.2019
6096 Clouds 28 1011 74 6000 3.1 100 17:23 15.06.2019
6097 Clouds 28 1011 70 6000 2.1 100 16:48 15.06.2019
6098 Clouds 29 1010 70 7000 3.6 100 16:20 15.06.2019
6099 Clouds 29 1010 74 7000 2.6 110 15:44 15.06.2019
6100 Clouds 29 1010 70 8000 3.6 90 15:23 15.06.2019
6101 Clouds 29 1009 74 8000 3.1 60 14:43 15.06.2019
6102 Clouds 30 1009 66 8000 3.6 70 14:19 15.06.2019
6103 Clouds 30 1009 66 8000 3.6 70 13:58 15.06.2019
6104 Clouds 30 1009 66 8000 4.1 60 13:40 15.06.2019
6105 Rain 30 1009 66 8000 4.1 60 13:18 15.06.2019
6106 Rain 30 1008 59 6000 4.6 40 12:47 15.06.2019
6107 Clouds 30 1008 62 10000 3.6 60 12:25 15.06.2019
6108 Clouds 30 1007 59 10000 4.1 30 11:51 15.06.2019
6109 Clouds 30 1007 59 10000 4.1 30 11:32 15.06.2019
6110 Clouds 30 1008 55 10000 4.6 20 10:47 15.06.2019
6111 Clouds 31 1008 55 10000 4.6 20 10:26 15.06.2019
6112 Clouds 31 1008 55 10000 4.6 20 09:58 15.06.2019
6113 Clouds 31 1008 59 10000 4.6 30 09:39 15.06.2019
6114 Clouds 31 1008 59 10000 4.6 30 09:19 15.06.2019
6115 Clouds 31 1008 59 10000 4.6 20 08:44 15.06.2019
6116 Clouds 32 1009 55 10000 3.6 40 08:25 15.06.2019
6117 Clouds 32 1010 55 6000 1.5 320 07:38 15.06.2019
6118 Clouds 32 1009 55 10000 4.1 40 07:20 15.06.2019
6119 Clouds 31 1011 59 10000 1.5 0 06:38 15.06.2019
6120 Haze 31 1011 62 5000 1.5 200 05:46 15.06.2019
6121 Clouds 30 1011 66 10000 2.1 0 05:18 15.06.2019
6122 Rain 30 1011 66 6000 2.1 220 04:34 15.06.2019
6123 Rain 28 1011 74 6000 1.5 210 03:38 15.06.2019
6124 Haze 26 1011 83 6000 2.26 212.994 02:47 15.06.2019
6125 Haze 26 1010 83 5000 3.6 190 01:59 15.06.2019
6126 Haze 26 1010 78 5000 1.5 210 01:28 15.06.2019
6127 Haze 26 1010 83 5000 1 0 00:44 15.06.2019
6128 Haze 26 1010 83 5000 2.1 210 00:26 15.06.2019
6129 Haze 26 1010 83 5000 2.1 210 23:52 14.06.2019
6130 Haze 26 1010 83 5000 1 0 23:23 14.06.2019
6131 Haze 26 1009 83 5000 1.5 210 22:43 14.06.2019
6132 Haze 26 1010 83 5000 1.5 0 22:23 14.06.2019
6133 Haze 26 1010 83 5000 2.6 210 21:57 14.06.2019
6134 Haze 26 1010 83 5000 2.6 210 21:38 14.06.2019
6135 Haze 26 1010 83 5000 2.6 210 21:20 14.06.2019
6136 Haze 26 1010 78 5000 1.5 0 20:41 14.06.2019
6137 Haze 27 1011 78 5000 2.1 200 20:18 14.06.2019
6138 Haze 27 1011 78 5000 2.1 200 19:44 14.06.2019
6139 Haze 27 1011 78 5000 1.5 0 19:23 14.06.2019
6140 Haze 27 1011 78 5000 1.5 0 18:58 14.06.2019
6141 Haze 27 1011 78 5000 1.5 0 18:40 14.06.2019
6142 Haze 27 1011 78 5000 1.5 0 18:21 14.06.2019
6143 Haze 27 1011 78 5000 1.5 0 17:46 14.06.2019
6144 Haze 27 1011 78 5000 1.5 0 17:27 14.06.2019
6145 Haze 26 1011 88 5000 1.5 0 16:56 14.06.2019
6146 Haze 26 1011 83 5000 1 310 16:37 14.06.2019
6147 Clouds 26 1011 83 6000 1.5 0 16:18 14.06.2019
6148 Clouds 26 1010 83 7000 1.5 0 15:39 14.06.2019
6149 Clouds 26 1010 83 8000 2.6 0 15:21 14.06.2019
6150 Clouds 26 1009 83 7000 3.1 240 14:54 14.06.2019
6151 Clouds 26 1009 83 7000 3.1 240 14:32 14.06.2019
6152 Clouds 26 1009 83 7000 3.1 240 14:32 14.06.2019
6153 Rain 26 1009 83 6000 1.5 0 13:56 14.06.2019
6154 Rain 26 1009 83 6000 1.5 0 13:56 14.06.2019
6155 Rain 26 1009 83 6000 1.5 0 13:56 14.06.2019
6156 Rain 26 1009 83 6000 1.5 0 13:56 14.06.2019
6157 Thunderstorm 25 1008 83 5000 3.1 160 13:37 14.06.2019
6158 Thunderstorm 27 1008 65 5000 5.7 220 13:19 14.06.2019
6159 Thunderstorm 28 1008 70 6000 1.5 0 12:41 14.06.2019
6160 Clouds 29 1007 70 8000 3.1 20 12:23 14.06.2019
6161 Clouds 29 1007 70 8000 4.1 20 11:46 14.06.2019
6162 Clouds 31 1007 66 8000 3.6 20 11:24 14.06.2019
6163 Clouds 31 1007 66 8000 3.6 20 10:58 14.06.2019
6164 Clouds 31 1008 66 8000 3.1 30 10:39 14.06.2019
6165 Clouds 31 1008 66 7000 3.6 30 10:18 14.06.2019
6166 Clouds 31 1008 66 7000 3.6 20 09:39 14.06.2019
6167 Clouds 31 1009 59 7000 3.1 20 09:20 14.06.2019
6168 Clouds 31 1009 62 7000 4.1 20 08:45 14.06.2019
6169 Clouds 31 1009 66 7000 6.2 30 08:18 14.06.2019
6170 Clouds 30 1010 66 7000 5.1 30 07:48 14.06.2019
6171 Clouds 31 1010 66 7000 5.1 30 07:20 14.06.2019
6172 Clouds 32 1010 59 7000 2.1 0 06:31 14.06.2019
6173 Clouds 31 1011 70 6000 2.1 0 05:55 14.06.2019
6174 Clouds 31 1011 70 6000 2.1 0 05:55 14.06.2019
6175 Haze 31 1011 70 5000 1.5 0 05:00 14.06.2019
6176 Haze 31 1011 70 4000 2.1 0 04:37 14.06.2019
6177 Haze 29 1011 74 5000 0.5 0 03:51 14.06.2019
6178 Haze 28 1011 74 5000 0.5 0 03:25 14.06.2019
6179 Haze 28 1011 74 5000 0.5 0 03:25 14.06.2019
6180 Haze 28 1011 74 5000 0.5 0 03:25 14.06.2019
6181 -273 0 0 0 0 0 02:47 14.06.2019
6182 Clouds 27 1010 78 6000 0.5 0 02:25 14.06.2019
6183 Clouds 27 1010 78 6000 3.1 200 00:51 14.06.2019
6184 Clouds 27 1009 83 6000 2.6 200 00:23 14.06.2019
6185 Clouds 27 1009 78 6000 1.5 210 23:56 13.06.2019
6186 Clouds 27 1009 74 6000 2.1 200 23:27 13.06.2019
6187 Clouds 27 1009 74 6000 2.1 200 22:59 13.06.2019
6188 Haze 27 1009 74 5000 2.1 210 22:39 13.06.2019
6189 Haze 27 1010 74 5000 1 0 22:20 13.06.2019
6190 Haze 28 1010 74 4000 1.5 210 21:39 13.06.2019
6191 Haze 28 1010 74 4500 2.1 210 21:20 13.06.2019
6192 Haze 28 1010 74 5000 2.6 210 20:45 13.06.2019
6193 Haze 28 1011 74 5000 2.6 220 20:22 13.06.2019
6194 Haze 28 1011 74 5000 2.6 220 19:59 13.06.2019
6195 Haze 28 1011 78 5000 1.5 280 19:41 13.06.2019
6196 Haze 28 1011 78 5000 1 290 19:21 13.06.2019
6197 Clouds 28 1011 78 6000 1 290 18:56 13.06.2019
6198 Clouds 28 1011 78 6000 1 290 18:38 13.06.2019
6199 Clouds 28 1011 74 6000 1 320 18:20 13.06.2019
6200 Clouds 29 1012 74 7000 1 40 17:41 13.06.2019
6201 Clouds 29 1012 78 8000 3.1 90 17:20 13.06.2019
6202 Clouds 28 1011 74 8000 3.1 90 16:48 13.06.2019
6203 Clouds 28 1011 74 8000 2.6 100 16:21 13.06.2019
6204 Clouds 28 1011 74 8000 2.6 100 15:57 13.06.2019
6205 Clouds 28 1011 78 8000 3.1 100 15:38 13.06.2019
6206 Clouds 29 1011 74 8000 4.1 90 15:18 13.06.2019
6207 Clouds 29 1010 70 8000 4.6 80 14:44 13.06.2019
6208 Haze 30 1010 66 8000 4.1 70 14:25 13.06.2019
6209 Haze 30 1009 70 5000 3.6 50 13:46 13.06.2019
6210 Haze 30 1009 66 8000 4.1 60 13:21 13.06.2019
6211 Haze 30 1009 66 5000 4.1 40 12:44 13.06.2019
6212 Clouds 31 1008 62 9000 4.1 30 12:24 13.06.2019
6213 Clouds 31 1008 62 9000 4.1 30 11:59 13.06.2019
6214 Clouds 31 1008 62 6000 3.1 350 11:41 13.06.2019
6215 Clouds 31 1008 66 9000 3.6 20 11:22 13.06.2019
6216 Clouds 31 1008 59 6000 4.1 350 10:46 13.06.2019
6217 Clouds 31 1008 59 6000 4.1 350 10:27 13.06.2019
6218 Clouds 31 1008 59 9000 4.1 10 09:48 13.06.2019
6219 Clouds 31 1008 59 9000 4.1 10 09:25 13.06.2019
6220 Clouds 31 1008 59 9000 4.1 10 09:25 13.06.2019
6221 Clouds 31 1009 59 9000 3.6 20 08:50 13.06.2019
6222 Haze 32 1009 59 9000 3.6 20 08:30 13.06.2019
6223 Haze 31 1009 62 8000 4.1 50 07:59 13.06.2019
6224 Haze 31 1009 62 8000 4.1 50 07:59 13.06.2019
6225 Haze 31 1010 49 5000 1.5 300 07:31 13.06.2019
6226 Haze 31 1011 52 5000 4.52 13.996 06:52 13.06.2019
6227 Haze 31 1011 52 5000 1.19 30.204 06:24 13.06.2019
6228 Clouds 30 1011 62 9000 2.6 0 05:58 13.06.2019
6229 Clouds 30 1012 58 8000 2.1 0 05:38 13.06.2019
6230 Haze 30 1012 58 7000 1.5 0 05:18 13.06.2019
6231 Haze 28 1012 78 4000 1 0 03:44 13.06.2019
6232 Haze 27 1011 78 5000 1.5 0 01:55 13.06.2019
6233 Haze 27 1010 83 5000 1.69 220.083 00:30 13.06.2019
6234 Haze 27 1010 78 5000 1.5 200 23:26 12.06.2019
6235 Haze 27 1010 78 5000 1.5 200 22:59 12.06.2019
6236 Haze 27 1010 74 5000 1 0 22:40 12.06.2019
6237 Haze 27 1010 74 5000 1.5 220 22:21 12.06.2019
6238 Haze 27 1010 78 5000 1.5 210 21:43 12.06.2019
6239 Haze 27 1011 74 5000 1.5 200 21:25 12.06.2019
6240 Haze 28 1011 74 4000 2.1 210 20:48 12.06.2019
6241 Haze 28 1011 74 4000 2.1 210 20:29 12.06.2019
6242 Haze 28 1011 78 3700 1 290 19:57 12.06.2019
6243 Haze 28 1012 74 4000 1.5 290 19:38 12.06.2019
6244 Haze 28 1012 78 4000 2.1 280 19:20 12.06.2019
6245 Haze 28 1012 78 3800 2.1 280 18:47 12.06.2019
6246 Haze 28 1012 74 4000 2.1 280 18:27 12.06.2019
6247 Haze 28 1012 74 5000 1.5 0 17:47 12.06.2019
6248 Haze 28 1012 70 5000 1 0 17:23 12.06.2019
6249 Clouds 29 1012 70 6000 1.5 300 16:44 12.06.2019
6250 Clouds 29 1011 70 7000 1 20 16:25 12.06.2019
6251 Clouds 29 1011 70 7000 1 20 15:59 12.06.2019
6252 Haze 29 1011 70 7000 1.5 0 15:36 12.06.2019
6253 Haze 30 1010 66 8000 1 0 14:59 12.06.2019
6254 Haze 30 1010 62 5000 3.1 10 14:35 12.06.2019
6255 Clouds 30 1010 66 8000 2.6 50 13:59 12.06.2019
6256 Clouds 30 1010 62 8000 2.6 60 13:41 12.06.2019
6257 Clouds 30 1009 62 8000 2.6 50 13:19 12.06.2019
6258 Clouds 30 1009 58 6000 3.1 10 12:44 12.06.2019
6259 Clouds 31 1009 66 10000 3.1 20 12:22 12.06.2019
6260 Clouds 31 1009 66 10000 3.1 20 11:59 12.06.2019
6261 Clouds 31 1008 59 6000 4.1 30 11:39 12.06.2019
6262 Clouds 31 1009 62 10000 3.6 20 11:21 12.06.2019
6263 Clouds 31 1009 66 10000 4.1 20 10:44 12.06.2019
6264 Clouds 31 1009 59 10000 4.1 30 10:21 12.06.2019
6265 Clouds 31 1009 62 10000 3.6 360 09:43 12.06.2019
6266 Clouds 31 1009 62 10000 3.6 360 09:43 12.06.2019
6267 Haze 32 1009 62 9000 4.1 10 09:23 12.06.2019
6268 Haze 32 1010 46 5000 5.1 120 08:47 12.06.2019
6269 Clouds 32 1010 59 9000 2.1 0 08:20 12.06.2019
6270 Clouds 32 1010 55 9000 1.5 0 07:37 12.06.2019
6271 Clouds 31 1012 62 9000 1.5 0 06:43 12.06.2019
6272 Haze 31 1012 62 4000 2.1 200 05:27 12.06.2019
6273 Haze 31 1012 70 4000 2.1 240 04:29 12.06.2019
6274 Haze 26 1010 78 5000 2.6 230 01:27 12.06.2019
6275 Haze 26 1010 83 5000 2.6 240 00:38 12.06.2019
6276 Haze 25 1009 83 5000 2.6 270 23:47 11.06.2019
6277 Haze 25 1009 83 5000 2.6 270 23:29 11.06.2019
6278 Haze 25 1009 83 5000 3.1 250 22:44 11.06.2019
6279 Haze 25 1010 83 5000 2.6 260 22:19 11.06.2019
6280 Haze 26 1010 74 5000 2.6 270 21:57 11.06.2019
6281 Haze 26 1010 74 5000 2.6 270 21:38 11.06.2019
6282 Haze 26 1010 74 5000 3.1 270 21:20 11.06.2019
6283 Haze 26 1010 74 5000 3.1 270 20:48 11.06.2019
6284 -273 0 0 0 0 0 20:25 11.06.2019
6285 Haze 26 1010 78 5000 2.1 260 20:25 11.06.2019
6286 Haze 26 1011 74 5000 2.1 240 19:55 11.06.2019
6287 Haze 26 1011 74 5000 2.1 240 19:33 11.06.2019
6288 Haze 26 1011 74 5000 1.5 290 18:57 11.06.2019
6289 -273 0 0 0 0 0 18:56 11.06.2019
6290 Haze 27 1011 74 5000 1.5 290 18:23 11.06.2019
6291 Clouds 27 1012 69 6000 2.6 210 17:42 11.06.2019
6292 Clouds 27 1012 74 6000 2.6 0 17:24 11.06.2019
6293 Clouds 27 1012 74 6000 2.6 0 16:59 11.06.2019
6294 Clouds 27 1012 74 6000 2.6 0 16:40 11.06.2019
6295 Clouds 28 1011 74 6000 1.5 340 16:22 11.06.2019
6296 Clouds 29 1011 74 7000 1 360 15:42 11.06.2019
6297 Clouds 29 1010 70 7000 1 0 15:24 11.06.2019
6298 Clouds 29 1010 70 7000 1 0 14:54 11.06.2019
6299 Clouds 30 1010 66 7000 2.6 50 14:23 11.06.2019
6300 Clouds 30 1010 66 7000 2.6 50 14:23 11.06.2019
6301 Clouds 30 1010 66 7000 2.6 50 13:56 11.06.2019
6302 Clouds 31 1009 66 8000 2.1 30 13:36 11.06.2019
6303 Clouds 31 1009 62 9000 2.6 30 13:18 11.06.2019
6304 Clouds 31 1008 55 6000 5.1 60 12:40 11.06.2019
6305 Clouds 31 1008 58 10000 4.1 60 12:21 11.06.2019
6306 Clouds 31 1008 52 6000 3.6 40 11:40 11.06.2019
6307 Haze 32 1008 62 10000 4.1 30 11:20 11.06.2019
6308 Haze 32 1007 56 5000 3.1 340 10:47 11.06.2019
6309 Haze 32 1008 59 10000 3.6 20 10:26 11.06.2019
6310 Haze 32 1008 49 5000 2.6 50 09:50 11.06.2019
6311 Haze 33 1008 49 5000 3.6 60 09:25 11.06.2019
6312 Clouds 32 1009 52 10000 3.6 20 08:47 11.06.2019
6313 Clouds 32 1009 52 10000 3.6 30 08:29 11.06.2019
6314 Clouds 33 1009 52 10000 3.6 30 07:55 11.06.2019
6315 Clouds 32 1009 52 10000 3.6 20 07:29 11.06.2019
6316 Clouds 32 1010 59 10000 1.5 0 06:50 11.06.2019
6317 Haze 30 1011 66 4000 2.1 220 04:56 11.06.2019
6318 Haze 28 1011 74 4000 2.1 230 03:47 11.06.2019
6319 Haze 26 1010 78 4000 2.21 232.027 01:41 11.06.2019
6320 Haze 26 1010 78 5000 2.1 210 00:48 11.06.2019
6321 Haze 26 1010 83 5000 2.6 200 23:56 10.06.2019
6322 Haze 26 1010 83 5000 2.6 200 23:38 10.06.2019
6323 Haze 26 1009 83 5000 3.1 200 22:58 10.06.2019
6324 Haze 26 1009 83 5000 3.1 200 22:40 10.06.2019
6325 Clouds 26 1010 83 6000 3.1 200 22:22 10.06.2019
6326 Clouds 26 1010 83 7000 1.5 220 21:41 10.06.2019
6327 Clouds 26 1010 83 7000 2.1 220 21:23 10.06.2019
6328 Clouds 26 1010 78 7000 3.1 210 20:47 10.06.2019
6329 Clouds 27 1010 78 7000 2.1 220 20:26 10.06.2019
6330 Clouds 27 1010 78 7000 2.1 220 19:58 10.06.2019
6331 Clouds 27 1010 78 7000 2.1 220 19:39 10.06.2019
6332 Clouds 27 1011 78 7000 1.5 250 19:21 10.06.2019
6333 Clouds 27 1011 78 7000 1.5 0 18:55 10.06.2019
6334 Clouds 27 1011 78 7000 1.5 0 18:37 10.06.2019
6335 Clouds 27 1011 78 6000 2.6 0 18:18 10.06.2019
6336 Clouds 27 1011 78 6000 3.1 200 17:40 10.06.2019
6337 Clouds 27 1011 74 7000 5.1 190 17:22 10.06.2019
6338 Clouds 27 1011 69 7000 2.6 0 16:46 10.06.2019
6339 Clouds 28 1011 69 7000 2.6 0 16:28 10.06.2019
6340 Clouds 28 1010 78 7000 2.1 300 15:46 10.06.2019
6341 Clouds 28 1010 78 7000 2.1 300 15:46 10.06.2019
6342 Clouds 28 1009 70 8000 1.5 70 15:24 10.06.2019
6343 Clouds 28 1009 70 8000 1.5 70 14:59 10.06.2019
6344 Clouds 28 1009 74 8000 1.5 0 14:39 10.06.2019
6345 Clouds 28 1009 70 10000 1.5 0 14:21 10.06.2019
6346 Clouds 29 1008 66 8000 3.1 30 13:43 10.06.2019
6347 Clouds 29 1008 62 9000 3.6 40 13:23 10.06.2019
6348 Clouds 30 1008 62 10000 3.6 40 12:45 10.06.2019
6349 Clouds 31 1008 62 10000 3.6 40 12:27 10.06.2019
6350 Clouds 32 1007 52 7000 4.1 30 11:48 10.06.2019
6351 Clouds 32 1007 52 7000 4.1 30 11:29 10.06.2019
6352 Clouds 32 1007 55 10000 4.6 50 10:57 10.06.2019
6353 Clouds 32 1007 52 7000 4.1 70 10:38 10.06.2019
6354 Clouds 32 1007 55 10000 5.1 40 10:18 10.06.2019
6355 Clouds 32 1008 55 10000 5.7 40 09:45 10.06.2019
6356 Clouds 32 1008 55 10000 5.7 40 09:26 10.06.2019
6357 Clouds 33 1008 52 10000 4.6 50 08:45 10.06.2019
6358 Clouds 33 1008 52 10000 4.6 40 08:25 10.06.2019
6359 Clouds 34 1009 49 10000 3.6 40 07:26 10.06.2019
6360 Clouds 30 1010 66 8000 1.5 0 04:41 10.06.2019
6361 Haze 25 1010 100 4500 1.5 210 02:18 10.06.2019
6362 Haze 25 1010 94 4000 1.5 220 01:28 10.06.2019
6363 Haze 25 1009 94 4000 1.5 210 00:59 10.06.2019
6364 Haze 24 1009 94 3000 2.1 250 00:24 10.06.2019
6365 Haze 24 1009 94 3500 2.1 230 23:44 09.06.2019
6366 Haze 24 1009 94 4000 1 230 23:21 09.06.2019
6367 Haze 24 1009 94 4000 1 230 23:21 09.06.2019
6368 Haze 24 1009 100 3500 1.5 230 22:45 09.06.2019
6369 Haze 24 1009 94 3500 2.1 250 22:25 09.06.2019
6370 Haze 25 1009 88 5000 1.5 0 21:46 09.06.2019
6371 Haze 25 1009 88 5000 1.5 0 21:27 09.06.2019
6372 Haze 26 1010 74 5000 1.5 0 20:45 09.06.2019
6373 Clouds 26 1010 74 6000 1.5 250 20:24 09.06.2019
6374 Clouds 27 1010 74 6000 1.5 250 19:59 09.06.2019
6375 Clouds 27 1010 74 6000 1.5 250 19:41 09.06.2019
6376 Clouds 27 1010 65 6000 2.1 0 19:18 09.06.2019
6377 Clouds 27 1010 65 6000 2.1 0 18:42 09.06.2019
6378 Clouds 28 1011 65 6000 3.6 120 18:24 09.06.2019
6379 Clouds 27 1011 74 6000 3.6 120 17:48 09.06.2019
6380 Clouds 27 1011 74 6000 3.6 120 17:29 09.06.2019
6381 Clouds 27 1011 74 7000 3.6 110 16:57 09.06.2019
6382 Clouds 27 1011 74 7000 3.1 110 16:38 09.06.2019
6383 Clouds 27 1011 74 7000 4.1 80 16:19 09.06.2019
6384 Clouds 27 1010 74 8000 3.1 80 15:48 09.06.2019
6385 Clouds 28 1010 74 8000 3.1 80 15:28 09.06.2019
6386 Clouds 28 1010 69 9000 3.1 70 14:51 09.06.2019
6387 Clouds 29 1010 69 9000 3.1 70 14:33 09.06.2019
6388 Clouds 29 1009 70 9000 3.1 50 13:57 09.06.2019
6389 Clouds 29 1009 70 9000 3.1 50 13:38 09.06.2019
6390 Clouds 30 1009 66 9000 4.6 60 12:55 09.06.2019
6391 Clouds 30 1009 66 9000 4.6 60 12:34 09.06.2019
6392 Clouds 30 1008 66 10000 5.7 60 11:49 09.06.2019
6393 Clouds 30 1008 66 10000 5.7 60 11:30 09.06.2019
6394 Clouds 31 1008 66 10000 6.2 50 10:47 09.06.2019
6395 Clouds 31 1008 66 10000 6.2 50 10:26 09.06.2019
6396 -273 0 0 0 0 0 09:58 09.06.2019
6397 Clouds 31 1008 62 9000 5.7 50 09:38 09.06.2019
6398 Clouds 31 1008 62 9000 5.7 50 09:37 09.06.2019
6399 Clouds 31 1009 59 9000 4.6 40 09:18 09.06.2019
6400 Clouds 31 1009 59 8000 3.6 20 08:43 09.06.2019
6401 Clouds 32 1010 55 9000 2.1 0 07:51 09.06.2019
6402 Clouds 31 1010 58 9000 1 0 06:40 09.06.2019
6403 Haze 30 1011 66 4000 1.66 46.687 05:55 09.06.2019
6404 Mist 26 1010 94 5000 2.1 230 02:55 09.06.2019
6405 Mist 25 1010 94 3000 0.89 247.708 01:37 09.06.2019
6406 Mist 25 1010 94 3000 0.89 247.708 01:37 09.06.2019
6407 Mist 25 1010 94 3000 0.89 247.708 01:37 09.06.2019
6408 Mist 25 1010 100 3500 2.1 220 01:18 09.06.2019
6409 Mist 25 1010 94 3000 1.33 219.717 00:29 09.06.2019
6410 Mist 25 1010 94 2500 1 290 23:41 08.06.2019
6411 Mist 25 1010 94 3500 1.5 0 23:22 08.06.2019
6412 Mist 25 1010 94 5000 1.5 0 22:55 08.06.2019
6413 Mist 25 1010 94 5000 1.5 0 22:36 08.06.2019
6414 Mist 25 1010 94 5000 1.5 0 22:18 08.06.2019
6415 Mist 25 1010 88 5000 1.5 200 21:40 08.06.2019
6416 Mist 25 1010 88 5000 1.5 230 21:21 08.06.2019
6417 Mist 25 1011 83 5000 2.1 0 20:45 08.06.2019
6418 Mist 25 1011 88 5000 1.5 210 20:25 08.06.2019
6419 Mist 25 1011 88 5000 1.5 210 20:25 08.06.2019
6420 Mist 25 1011 88 5000 1.5 310 19:56 08.06.2019
6421 Mist 25 1011 88 5000 1.5 310 19:37 08.06.2019
6422 Mist 25 1011 88 5000 1.5 310 19:19 08.06.2019
6423 Rain 25 1012 88 5000 2.6 70 18:41 08.06.2019
6424 Clouds 25 1012 88 6000 1 0 18:22 08.06.2019
6425 Thunderstorm 25 1012 88 6000 1.5 310 17:44 08.06.2019
6426 Rain 25 1012 88 5000 2.6 260 17:22 08.06.2019
6427 Thunderstorm 26 1012 88 4000 1.5 0 16:48 08.06.2019
6428 Thunderstorm 26 1012 88 4000 1.5 0 16:29 08.06.2019
6429 Thunderstorm 27 1011 70 5000 1.5 300 15:52 08.06.2019
6430 Thunderstorm 27 1011 70 5000 1.5 300 15:33 08.06.2019
6431 Clouds 29 1010 70 7000 1.5 10 14:48 08.06.2019
6432 Clouds 29 1010 70 7000 1.5 10 14:29 08.06.2019
6433 Clouds 29 1010 70 7000 1.5 350 13:49 08.06.2019
6434 Clouds 30 1009 62 9000 3.1 350 12:53 08.06.2019
6435 Clouds 30 1009 62 9000 3.1 350 12:33 08.06.2019
6436 Clouds 30 1008 58 10000 3.6 350 11:51 08.06.2019
6437 Clouds 30 1008 58 10000 3.6 350 11:27 08.06.2019
6438 Clouds 31 1008 55 10000 3.6 360 10:48 08.06.2019
6439 Clouds 31 1008 55 9000 3.1 350 10:25 08.06.2019
6440 Clouds 31 1008 55 9000 3.1 350 09:57 08.06.2019
6441 Clouds 32 1008 55 9000 3.1 340 09:33 08.06.2019
6442 Clouds 32 1009 52 10000 1.5 0 08:44 08.06.2019
6443 Clouds 32 1010 52 10000 2.1 0 08:19 08.06.2019
6444 Clouds 31 1011 58 10000 1.5 0 06:53 08.06.2019
6445 Clouds 31 1011 58 10000 1.5 0 06:34 08.06.2019
6446 Haze 27 1012 78 5000 2.1 210 03:35 08.06.2019
6447 Haze 25 1011 83 6000 1.5 230 02:20 08.06.2019
6448 Haze 25 1010 83 5000 1.5 220 00:31 08.06.2019
6449 Haze 24 1010 88 5000 1.5 230 23:58 07.06.2019
6450 Clouds 24 1010 94 6000 2.1 0 23:21 07.06.2019
6451 Clouds 24 1010 83 6000 2.1 170 22:51 07.06.2019
6452 Clouds 25 1010 83 6000 2.1 170 22:32 07.06.2019
6453 Clouds 25 1011 78 6000 1.5 0 21:55 07.06.2019
6454 Clouds 25 1011 78 6000 1 170 21:36 07.06.2019
6455 Clouds 25 1011 88 7000 3.1 190 21:18 07.06.2019
6456 Clouds 25 1011 88 7000 2.6 0 20:42 07.06.2019
6457 Clouds 25 1011 88 7000 3.1 180 20:22 07.06.2019
6458 Clouds 25 1012 94 5000 4.1 180 19:39 07.06.2019
6459 Clouds 25 1012 94 6000 3.6 180 19:19 07.06.2019
6460 Clouds 25 1012 94 7000 4.1 190 18:41 07.06.2019
6461 Clouds 25 1012 94 7000 4.1 190 18:41 07.06.2019
6462 Clouds 25 1012 94 7000 2.6 0 18:22 07.06.2019
6463 Rain 25 1012 94 5000 4.1 170 17:43 07.06.2019
6464 Rain 25 1012 94 5000 4.6 170 17:20 07.06.2019
6465 Thunderstorm 25 1012 88 4000 2.6 0 16:41 07.06.2019
6466 Thunderstorm 25 1012 88 5000 6.2 150 16:18 07.06.2019
6467 Clouds 27 1011 78 7000 2.6 240 15:40 07.06.2019
6468 Haze 28 1010 74 7000 1.5 0 15:20 07.06.2019
6469 Haze 28 1010 83 4000 1.5 150 14:39 07.06.2019
6470 Haze 28 1010 83 4000 1.5 150 14:39 07.06.2019
6471 Rain 28 1009 74 7000 1.5 350 14:20 07.06.2019
6472 Rain 29 1009 83 4000 3.49 9.846 13:28 07.06.2019
6473 Clouds 30 1009 70 8000 2.6 10 12:51 07.06.2019
6474 Haze 29 1009 70 8000 2.6 10 12:29 07.06.2019
6475 Haze 30 1008 66 8000 2.1 0 11:57 07.06.2019
6476 Haze 29 1008 88 5000 5.28 6.46 11:34 07.06.2019
6477 Rain 29 1009 62 8000 0.5 0 10:59 07.06.2019
6478 Rain 29 1008 83 4000 2.6 310 10:41 07.06.2019
6479 Clouds 30 1009 66 7000 4.6 190 10:19 07.06.2019
6480 Clouds 31 1009 66 7000 4.1 80 09:48 07.06.2019
6481 Rain 31 1009 59 8000 4.1 30 09:21 07.06.2019
6482 Rain 31 1009 79 4000 2.6 60 08:46 07.06.2019
6483 Clouds 32 1009 55 8000 5.7 20 08:26 07.06.2019
6484 Clouds 32 1009 55 6000 3.1 70 07:49 07.06.2019
6485 Clouds 32 1010 62 8000 3.6 60 07:22 07.06.2019
6486 Clouds 31 1010 59 6000 2.6 130 06:48 07.06.2019
6487 Clouds 31 1011 62 8000 2.6 0 06:23 07.06.2019
6488 Clouds 31 1011 66 6000 3.1 100 05:43 07.06.2019
6489 Haze 28 1011 83 5000 2.6 210 02:43 07.06.2019
6490 Haze 27 1011 78 5000 2.1 230 01:38 07.06.2019
6491 Haze 27 1010 83 4500 1.5 230 00:48 07.06.2019
6492 Haze 26 1010 83 5000 1.5 250 23:46 06.06.2019
6493 Haze 26 1010 83 5000 1.5 250 23:46 06.06.2019
6494 Haze 26 1010 83 5000 1.5 250 23:25 06.06.2019
6495 Haze 26 1010 83 5000 2.1 240 22:59 06.06.2019
6496 Haze 26 1010 83 5000 1.5 250 22:37 06.06.2019
6497 Haze 26 1010 83 5000 2.1 250 22:19 06.06.2019
6498 Haze 27 1010 74 5000 2.1 0 21:45 06.06.2019
6499 Haze 28 1010 74 5000 2.6 120 21:22 06.06.2019
6500 Haze 28 1010 78 5000 3.6 120 20:55 06.06.2019
6501 Haze 28 1010 78 5000 3.6 120 20:34 06.06.2019
6502 Haze 28 1011 78 5000 3.6 130 19:59 06.06.2019
6503 Haze 28 1011 78 5000 3.6 130 19:37 06.06.2019
6504 Clouds 28 1011 78 6000 3.6 130 19:19 06.06.2019
6505 Clouds 28 1011 78 6000 3.6 130 18:44 06.06.2019
6506 Clouds 29 1011 74 6000 4.1 130 18:25 06.06.2019
6507 Clouds 29 1011 78 6000 4.1 100 17:51 06.06.2019
6508 Clouds 28 1011 78 6000 4.1 100 17:26 06.06.2019
6509 Clouds 29 1011 74 6000 4.1 120 16:57 06.06.2019
6510 Clouds 29 1011 74 6000 5.7 90 16:39 06.06.2019
6511 Clouds 29 1010 74 7000 5.7 100 16:20 06.06.2019
6512 Clouds 29 1010 78 7000 5.7 90 15:44 06.06.2019
6513 Clouds 29 1009 74 8000 6.7 90 15:24 06.06.2019
6514 Clouds 29 1009 74 6000 4.1 70 14:45 06.06.2019
6515 Clouds 29 1008 74 10000 5.7 80 14:20 06.06.2019
6516 Clouds 30 1008 66 6000 4.1 60 13:52 06.06.2019
6517 Clouds 30 1008 66 6000 4.1 60 13:30 06.06.2019
6518 Clouds 31 1007 66 6000 5.1 60 12:50 06.06.2019
6519 Clouds 31 1007 66 6000 5.1 60 12:29 06.06.2019
6520 Clouds 31 1007 66 10000 6.7 60 11:58 06.06.2019
6521 Clouds 31 1007 55 7000 4.1 50 11:40 06.06.2019
6522 Clouds 32 1007 59 10000 6.7 60 11:21 06.06.2019
6523 Clouds 32 1006 52 7000 4.1 40 10:45 06.06.2019
6524 Clouds 32 1006 52 7000 4.1 40 10:26 06.06.2019
6525 Clouds 32 1007 55 10000 6.2 60 09:45 06.06.2019
6526 Clouds 32 1008 59 10000 6.2 50 09:24 06.06.2019
6527 Clouds 32 1007 55 10000 6.2 60 09:24 06.06.2019
6528 Clouds 32 1008 59 10000 7.2 50 08:51 06.06.2019
6529 Clouds 32 1008 59 10000 5.7 60 08:25 06.06.2019
6530 Clouds 32 1009 52 7000 2.6 150 07:54 06.06.2019
6531 Clouds 32 1009 52 7000 2.6 150 07:26 06.06.2019
6532 Clouds 32 1009 55 10000 4.1 70 06:48 06.06.2019
6533 Clouds 32 1010 55 6000 4.1 150 05:40 06.06.2019
6534 Clouds 31 1010 58 8000 3.1 130 04:36 06.06.2019
6535 Haze 26 1009 83 5000 1.5 200 02:23 06.06.2019
6536 Haze 26 1009 83 5000 1.5 200 01:55 06.06.2019
6537 Haze 27 1009 78 6000 2.1 200 01:18 06.06.2019
6538 Haze 26 1009 100 5000 2.63 140.888 00:31 06.06.2019
6539 Clouds 27 1008 78 6000 2.1 210 23:41 05.06.2019
6540 Clouds 27 1008 78 6000 2.1 210 23:21 05.06.2019
6541 Clouds 27 1008 78 6000 1.5 190 22:44 05.06.2019
6542 Clouds 27 1008 78 6000 2.1 210 22:23 05.06.2019
6543 Clouds 27 1009 74 6000 2.1 210 21:58 05.06.2019
6544 Clouds 27 1009 74 6000 2.1 210 21:58 05.06.2019
6545 Clouds 27 1009 74 6000 2.1 210 21:40 05.06.2019
6546 Clouds 28 1009 74 8000 2.6 150 21:21 05.06.2019
6547 Clouds 28 1009 78 8000 3.6 120 20:44 05.06.2019
6548 Clouds 28 1010 78 8000 3.6 110 20:24 05.06.2019
6549 Clouds 28 1010 74 8000 2.6 120 19:44 05.06.2019
6550 Clouds 28 1010 74 8000 2.6 120 19:44 05.06.2019
6551 Clouds 28 1010 74 8000 2.6 120 19:19 05.06.2019
6552 Clouds 28 1010 74 8000 2.6 120 18:44 05.06.2019
6553 Clouds 29 1010 70 8000 3.1 130 18:25 05.06.2019
6554 Clouds 29 1010 70 8000 3.1 120 17:50 05.06.2019
6555 Clouds 29 1010 74 8000 3.1 110 17:23 05.06.2019
6556 Clouds 29 1009 70 8000 3.6 110 16:44 05.06.2019
6557 Clouds 29 1009 74 8000 3.6 90 16:20 05.06.2019
6558 Clouds 29 1009 74 8000 3.6 90 15:55 05.06.2019
6559 Clouds 29 1008 74 7000 3.1 70 15:36 05.06.2019
6560 Clouds 29 1008 74 7000 4.1 80 15:18 05.06.2019
6561 Clouds 29 1007 70 6000 3.1 60 14:39 05.06.2019
6562 Clouds 29 1007 70 9000 2.6 60 14:20 05.06.2019
6563 Clouds 29 1007 66 6000 4.1 70 13:45 05.06.2019
6564 Clouds 29 1007 70 9000 4.1 70 13:22 05.06.2019
6565 Clouds 29 1007 70 9000 4.1 70 13:22 05.06.2019
6566 Clouds 30 1007 62 10000 5.1 60 12:50 05.06.2019
6567 Clouds 31 1007 62 10000 6.7 60 12:27 05.06.2019
6568 Clouds 31 1007 62 10000 6.7 60 11:57 05.06.2019
6569 Clouds 31 1006 55 6000 4.6 20 11:39 05.06.2019
6570 Clouds 32 1006 55 10000 6.2 50 11:19 05.06.2019
6571 Clouds 32 1006 46 7000 4.6 20 10:43 05.06.2019
6572 Clouds 33 1006 52 10000 6.2 50 10:23 05.06.2019
6573 Clouds 33 1006 44 7000 2.1 70 09:43 05.06.2019
6574 Clouds 32 1007 55 10000 5.7 60 09:24 05.06.2019
6575 Clouds 32 1007 46 7000 2.6 30 08:47 05.06.2019
6576 Clouds 34 1008 52 10000 5.1 50 07:54 05.06.2019
6577 Clouds 34 1008 52 10000 4.6 40 07:18 05.06.2019
6578 Clouds 33 1009 49 6000 4.6 120 06:38 05.06.2019
6579 Clouds 32 1010 49 6000 4.1 130 05:50 05.06.2019
6580 Haze 30 1010 70 4800 2.1 0 03:33 05.06.2019
6581 Mist 26 1009 88 3000 1.5 0 02:21 05.06.2019
6582 Haze 26 1008 88 2500 1 0 01:24 05.06.2019
6583 Haze 26 1008 88 2500 2.1 220 00:42 05.06.2019
6584 Haze 25 1008 88 3500 1.5 0 23:47 04.06.2019
6585 Haze 24 1008 88 3500 1.5 0 23:27 04.06.2019
6586 Haze 26 1008 88 4000 1.5 0 22:58 04.06.2019
6587 Haze 26 1008 78 5000 1.5 180 22:39 04.06.2019
6588 Haze 26 1008 78 5000 1.5 180 22:20 04.06.2019
6589 Haze 26 1008 78 5000 1.5 180 21:56 04.06.2019
6590 Haze 26 1008 78 5000 1.5 190 21:36 04.06.2019
6591 Haze 27 1009 74 5000 1.5 0 21:18 04.06.2019
6592 Haze 27 1009 78 5000 2.1 0 20:38 04.06.2019
6593 Clouds 27 1010 78 6000 2.6 0 20:19 04.06.2019
6594 Clouds 27 1010 78 6000 2.6 0 19:46 04.06.2019
6595 Clouds 27 1010 74 6000 2.6 0 19:23 04.06.2019
6596 Clouds 27 1010 74 6000 3.6 120 18:49 04.06.2019
6597 Clouds 28 1010 74 6000 3.6 130 18:26 04.06.2019
6598 Clouds 28 1010 69 6000 3.1 110 17:49 04.06.2019
6599 Clouds 27 1010 69 6000 3.1 110 17:28 04.06.2019
6600 Clouds 27 1009 74 6000 2.1 70 16:52 04.06.2019
6601 Clouds 28 1009 74 6000 2.1 70 16:26 04.06.2019
6602 Clouds 29 1009 66 7000 2.1 60 15:46 04.06.2019
6603 Clouds 29 1009 66 7000 2.1 60 15:28 04.06.2019
6604 Clouds 29 1008 66 6000 3.6 50 14:57 04.06.2019
6605 Clouds 29 1008 66 6000 3.6 50 14:37 04.06.2019
6606 Haze 29 1008 66 7000 2.6 50 14:18 04.06.2019
6607 Haze 29 1007 62 5000 4.1 40 13:41 04.06.2019
6608 Clouds 30 1007 62 7000 2.6 50 13:19 04.06.2019
6609 Clouds 30 1007 52 7000 5.1 50 12:40 04.06.2019
6610 Clouds 30 1007 55 10000 5.1 50 12:21 04.06.2019
6611 Clouds 31 1007 52 10000 5.1 40 11:43 04.06.2019
6612 Clouds 31 1007 52 9000 6.2 40 11:21 04.06.2019
6613 Clouds 31 1007 52 9000 5.7 40 10:49 04.06.2019
6614 Clouds 32 1007 49 9000 5.1 40 10:20 04.06.2019
6615 Clouds 32 1007 46 7000 5.1 50 09:44 04.06.2019
6616 Clouds 32 1008 52 10000 5.7 40 09:21 04.06.2019
6617 Clouds 32 1008 46 7000 5.1 70 08:50 04.06.2019
6618 Clouds 32 1008 46 7000 5.1 70 08:32 04.06.2019
6619 Clouds 32 1008 49 9000 5.1 70 07:59 04.06.2019
6620 Clouds 33 1008 49 9000 5.1 70 07:41 04.06.2019
6621 Haze 32 1009 49 9000 4.6 70 07:19 04.06.2019
6622 Haze 32 1009 55 5000 3.1 90 06:44 04.06.2019
6623 Haze 32 1009 55 5000 3.1 90 06:44 04.06.2019
6624 Haze 31 1009 55 5000 3.1 90 06:26 04.06.2019
6625 Haze 31 1010 58 4000 2.1 100 05:43 04.06.2019
6626 Haze 30 1010 70 3000 2.6 130 04:50 04.06.2019
6627 Haze 28 1010 69 3000 1.5 0 03:58 04.06.2019
6628 Haze 26 1009 94 2500 1.29 206.486 02:51 04.06.2019
6629 Haze 26 1009 94 2500 1.29 206.486 02:30 04.06.2019
6630 Haze 26 1008 88 3000 1.29 206.486 01:36 04.06.2019
6631 Haze 25 1008 88 5000 1.57 180.803 00:45 04.06.2019
6632 Mist 25 1008 88 4100 1.59 203.728 23:59 03.06.2019
6633 Haze 25 1008 88 4500 1 210 23:38 03.06.2019
6634 Haze 25 1008 88 4000 1.5 230 23:20 03.06.2019
6635 Haze 25 1008 88 5000 1.5 240 22:45 03.06.2019
6636 Haze 25 1008 83 5000 1 230 22:26 03.06.2019
6637 Haze 25 1008 83 5000 1 230 21:56 03.06.2019
6638 Haze 25 1008 83 5000 1 230 21:38 03.06.2019
6639 Haze 25 1009 88 5000 1.5 220 21:19 03.06.2019
6640 Haze 25 1009 88 5000 1.5 260 20:43 03.06.2019
6641 Haze 26 1009 83 5000 2.1 230 20:22 03.06.2019
6642 Haze 26 1010 78 5000 3.1 240 19:57 03.06.2019
6643 Haze 26 1010 78 5000 3.1 240 19:39 03.06.2019
6644 Haze 27 1010 78 5000 3.1 240 19:19 03.06.2019
6645 Haze 26 1010 78 5000 2.6 260 18:49 03.06.2019
6646 Haze 26 1010 78 5000 2.6 250 18:25 03.06.2019
6647 Haze 27 1010 78 3000 3.6 250 17:56 03.06.2019
6648 Haze 27 1010 78 3000 3.6 250 17:56 03.06.2019
6649 Haze 27 1010 78 3000 3.6 250 17:36 03.06.2019
6650 Haze 28 1010 74 3000 2.6 240 17:18 03.06.2019
6651 Haze 27 1010 78 3000 1.5 250 16:42 03.06.2019
6652 Haze 28 1009 74 3000 1.5 260 16:18 03.06.2019
6653 Haze 28 1009 74 3000 1.5 260 15:45 03.06.2019
6654 Haze 28 1009 74 3000 1.5 260 15:27 03.06.2019
6655 Haze 28 1008 74 5000 1 320 14:50 03.06.2019
6656 Haze 28 1008 74 5000 1 310 14:27 03.06.2019
6657 Haze 28 1008 74 5000 1 310 14:27 03.06.2019
6658 Haze 28 1008 74 5000 1 310 13:55 03.06.2019
6659 Clouds 28 1008 74 7000 0.5 0 13:37 03.06.2019
6660 Clouds 29 1008 70 7000 1.5 360 13:18 03.06.2019
6661 Clouds 29 1008 70 7000 1.5 360 12:38 03.06.2019
6662 Clouds 29 1007 70 6000 2.6 360 12:20 03.06.2019
6663 Clouds 29 1007 66 7000 2.6 350 11:43 03.06.2019
6664 Clouds 30 1007 66 7000 3.1 350 11:22 03.06.2019
6665 Clouds 30 1007 66 7000 3.1 350 10:46 03.06.2019
6666 Clouds 30 1007 66 7000 3.1 350 10:25 03.06.2019
6667 Clouds 30 1007 66 7000 3.1 350 09:58 03.06.2019
6668 Clouds 30 1007 62 7000 3.6 360 09:40 03.06.2019
6669 Clouds 31 1008 62 7000 2.6 350 08:49 03.06.2019
6670 Clouds 31 1008 62 7000 2.6 350 08:28 03.06.2019
6671 Clouds 30 1009 66 7000 2.6 0 07:51 03.06.2019
6672 Clouds 31 1009 62 7000 2.1 0 06:57 03.06.2019
6673 Clouds 30 1010 62 6000 1 0 05:38 03.06.2019
6674 Clouds 25 1008 83 6000 1.5 0 01:52 03.06.2019
6675 Clouds 26 1008 83 6000 1.5 230 00:59 03.06.2019
6676 Clouds 26 1008 88 6000 2.1 230 00:38 03.06.2019
6677 Clouds 25 1008 78 6000 2.6 230 00:19 03.06.2019
6678 Clouds 25 1008 78 6000 2.6 230 00:19 03.06.2019
6679 Clouds 25 1008 78 6000 2.6 230 00:19 03.06.2019
6680 Clouds 26 1008 83 6000 2.6 230 23:45 02.06.2019
6681 Clouds 26 1008 83 6000 2.6 230 23:26 02.06.2019
6682 Clouds 26 1008 83 6000 1.5 0 22:43 02.06.2019
6683 Clouds 26 1008 83 6000 1.5 0 22:43 02.06.2019
6684 Clouds 26 1008 83 6000 1.5 200 22:25 02.06.2019
6685 Haze 26 1009 83 5000 1.5 0 21:42 02.06.2019
6686 Haze 26 1009 83 5000 1.5 0 21:21 02.06.2019
6687 Haze 26 1009 74 5000 2.6 200 20:55 02.06.2019
6688 Haze 26 1009 74 5000 2.6 200 20:37 02.06.2019
6689 Haze 26 1009 74 5000 1.5 0 20:18 02.06.2019
6690 Haze 27 1010 74 5000 1.5 0 19:39 02.06.2019
6691 Haze 27 1010 74 5000 1.5 0 19:21 02.06.2019
6692 Clouds 27 1010 69 7000 1.5 0 18:43 02.06.2019
6693 Clouds 27 1010 65 7000 1.5 210 18:25 02.06.2019
6694 Clouds 27 1010 65 7000 1.5 210 17:59 02.06.2019
6695 Clouds 27 1010 65 7000 1.5 210 17:59 02.06.2019
6696 Clouds 27 1010 65 7000 1.5 220 17:40 02.06.2019
6697 Clouds 28 1010 65 7000 2.1 200 17:20 02.06.2019
6698 Clouds 28 1010 69 7000 2.6 180 16:49 02.06.2019
6699 Clouds 27 1010 69 7000 2.6 180 16:30 02.06.2019
6700 Clouds 27 1010 69 8000 2.1 180 15:59 02.06.2019
6701 Clouds 27 1009 69 8000 3.1 190 15:38 02.06.2019
6702 Clouds 28 1009 74 8000 3.1 160 15:19 02.06.2019
6703 Clouds 28 1008 69 8000 5.1 160 14:40 02.06.2019
6704 Clouds 28 1008 66 7000 1 70 14:22 02.06.2019
6705 Clouds 29 1008 62 8000 1.5 290 13:58 02.06.2019
6706 Clouds 28 1008 62 8000 1.5 290 13:39 02.06.2019
6707 Clouds 29 1007 66 8000 2.6 290 13:21 02.06.2019
6708 Clouds 30 1007 62 8000 3.1 350 12:41 02.06.2019
6709 Clouds 30 1007 62 9000 3.1 350 12:23 02.06.2019
6710 Clouds 30 1007 62 8000 3.6 350 11:47 02.06.2019
6711 Clouds 30 1007 58 8000 3.6 350 11:21 02.06.2019
6712 Clouds 30 1007 58 9000 3.6 10 10:50 02.06.2019
6713 Clouds 30 1007 58 9000 3.6 10 10:50 02.06.2019
6714 Clouds 31 1007 62 9000 4.1 360 10:22 02.06.2019
6715 Clouds 31 1007 62 9000 4.1 360 09:59 02.06.2019
6716 Clouds 31 1007 59 9000 4.1 20 09:40 02.06.2019
6717 Clouds 31 1007 55 9000 4.6 30 09:21 02.06.2019
6718 Clouds 31 1007 59 9000 4.1 20 08:42 02.06.2019
6719 Clouds 32 1008 59 9000 4.1 20 08:24 02.06.2019
6720 Clouds 32 1008 59 9000 4.1 20 07:58 02.06.2019
6721 Clouds 32 1008 59 8000 2.6 0 07:40 02.06.2019
6722 Clouds 32 1008 59 9000 1.5 0 07:20 02.06.2019
6723 Clouds 32 1008 55 9000 2.1 0 06:44 02.06.2019
6724 Clouds 32 1008 55 9000 2.1 0 06:26 02.06.2019
6725 Clouds 31 1009 62 9000 1 0 05:46 02.06.2019
6726 Clouds 31 1009 66 8000 1.5 0 05:22 02.06.2019
6727 Clouds 30 1010 66 7000 2.6 0 04:33 02.06.2019
6728 Clouds 29 1010 70 6000 2.6 0 03:59 02.06.2019
6729 Haze 28 1010 83 5000 2.6 230 03:20 02.06.2019
6730 Haze 27 1009 78 4000 2.81 224.309 02:34 02.06.2019
6731 Haze 26 1008 88 5000 2.81 224.309 01:47 02.06.2019
6732 Haze 26 1008 88 4000 2.1 220 01:24 02.06.2019
6733 Haze 26 1008 88 3500 2.1 220 00:47 02.06.2019
6734 Haze 25 1008 88 3500 2.1 220 00:24 02.06.2019
6735 Haze 25 1008 83 5000 1.74 243.258 23:45 01.06.2019
6736 Haze 26 1008 83 4000 1.5 250 23:20 01.06.2019
6737 Haze 26 1008 83 5000 1.5 260 22:58 01.06.2019
6738 Haze 26 1008 83 5000 1.5 260 22:39 01.06.2019
6739 Haze 26 1008 83 5000 1.5 260 22:20 01.06.2019
6740 Haze 26 1008 83 5000 1 0 21:44 01.06.2019
6741 Haze 26 1009 78 5000 1 0 21:20 01.06.2019
6742 Haze 27 1009 78 5000 1 0 20: